<?xml version="1.0" encoding="UTF-8" standalone="no" ?>
<gpx xmlns="http://www.topografix.com/GPX/1/1" xmlns:xsi="http://www.w3.org/2001/XMLSchema-instance" xsi:schemaLocation="http://www.topografix.com/GPX/1/1 http://www.topografix.com/GPX/1/1/gpx.xsd" version="1.1" creator="VisuGPX - https://www.visugpx.com">
  <metadata>
    <name>Autour du Férion</name>
    <desc><![CDATA[Classique de Levens, avec la descente du Col du Dragon et une ballade sur un sentier "chasseurs" pour finir... Fin de la séquence 06 (ouf !)]]></desc>
  </metadata>
  <trk>
    <name><![CDATA[Levens]]></name>
    <trkseg>
      <trkpt lat="43.84958" lon="7.23868">
        <ele>555.59997558594</ele>
        <time>2018-06-20T06:26:26.000Z</time>
      </trkpt>
      <trkpt lat="43.84963" lon="7.23884">
        <ele>555.59997558594</ele>
        <time>2018-06-20T06:26:31.000Z</time>
      </trkpt>
      <trkpt lat="43.84971" lon="7.23907">
        <ele>556</ele>
        <time>2018-06-20T06:26:38.000Z</time>
      </trkpt>
      <trkpt lat="43.8498" lon="7.23933">
        <ele>556.59997558594</ele>
        <time>2018-06-20T06:26:46.000Z</time>
      </trkpt>
      <trkpt lat="43.84989" lon="7.23957">
        <ele>556.59997558594</ele>
        <time>2018-06-20T06:26:53.000Z</time>
      </trkpt>
      <trkpt lat="43.85" lon="7.23982">
        <ele>557.20001220703</ele>
        <time>2018-06-20T06:27:01.000Z</time>
      </trkpt>
      <trkpt lat="43.85007" lon="7.23997">
        <ele>557.79998779297</ele>
        <time>2018-06-20T06:27:06.000Z</time>
      </trkpt>
      <trkpt lat="43.85013" lon="7.24008">
        <ele>558.59997558594</ele>
        <time>2018-06-20T06:27:10.000Z</time>
      </trkpt>
      <trkpt lat="43.85016" lon="7.24014">
        <ele>559</ele>
        <time>2018-06-20T06:27:12.000Z</time>
      </trkpt>
      <trkpt lat="43.85026" lon="7.2403">
        <ele>559.79998779297</ele>
        <time>2018-06-20T06:27:18.000Z</time>
      </trkpt>
      <trkpt lat="43.85034" lon="7.24043">
        <ele>560</ele>
        <time>2018-06-20T06:27:23.000Z</time>
      </trkpt>
      <trkpt lat="43.85042" lon="7.24056">
        <ele>560.79998779297</ele>
        <time>2018-06-20T06:27:28.000Z</time>
      </trkpt>
      <trkpt lat="43.85055" lon="7.24074">
        <ele>561.20001220703</ele>
        <time>2018-06-20T06:27:35.000Z</time>
      </trkpt>
      <trkpt lat="43.85065" lon="7.24087">
        <ele>561.79998779297</ele>
        <time>2018-06-20T06:27:41.000Z</time>
      </trkpt>
      <trkpt lat="43.85079" lon="7.24107">
        <ele>561.79998779297</ele>
        <time>2018-06-20T06:27:49.000Z</time>
      </trkpt>
      <trkpt lat="43.85092" lon="7.24129">
        <ele>562.20001220703</ele>
        <time>2018-06-20T06:27:57.000Z</time>
      </trkpt>
      <trkpt lat="43.85093" lon="7.24131">
        <ele>562.40002441406</ele>
        <time>2018-06-20T06:27:58.000Z</time>
      </trkpt>
      <trkpt lat="43.85105" lon="7.24154">
        <ele>563.40002441406</ele>
        <time>2018-06-20T06:28:06.000Z</time>
      </trkpt>
      <trkpt lat="43.85108" lon="7.2416">
        <ele>563.79998779297</ele>
        <time>2018-06-20T06:28:08.000Z</time>
      </trkpt>
      <trkpt lat="43.85113" lon="7.24168">
        <ele>564.40002441406</ele>
        <time>2018-06-20T06:28:11.000Z</time>
      </trkpt>
      <trkpt lat="43.85122" lon="7.24183">
        <ele>565.59997558594</ele>
        <time>2018-06-20T06:28:17.000Z</time>
      </trkpt>
      <trkpt lat="43.85125" lon="7.24189">
        <ele>565.79998779297</ele>
        <time>2018-06-20T06:28:19.000Z</time>
      </trkpt>
      <trkpt lat="43.85133" lon="7.24205">
        <ele>566</ele>
        <time>2018-06-20T06:28:25.000Z</time>
      </trkpt>
      <trkpt lat="43.85132" lon="7.24211">
        <ele>566.40002441406</ele>
        <time>2018-06-20T06:28:27.000Z</time>
      </trkpt>
      <trkpt lat="43.85131" lon="7.24224">
        <ele>566.59997558594</ele>
        <time>2018-06-20T06:28:31.000Z</time>
      </trkpt>
      <trkpt lat="43.85132" lon="7.24238">
        <ele>567</ele>
        <time>2018-06-20T06:28:35.000Z</time>
      </trkpt>
      <trkpt lat="43.85134" lon="7.24253">
        <ele>567.59997558594</ele>
        <time>2018-06-20T06:28:39.000Z</time>
      </trkpt>
      <trkpt lat="43.85138" lon="7.24274">
        <ele>568</ele>
        <time>2018-06-20T06:28:45.000Z</time>
      </trkpt>
      <trkpt lat="43.85143" lon="7.24304">
        <ele>568</ele>
        <time>2018-06-20T06:28:54.000Z</time>
      </trkpt>
      <trkpt lat="43.85146" lon="7.24324">
        <ele>568</ele>
        <time>2018-06-20T06:29:00.000Z</time>
      </trkpt>
      <trkpt lat="43.85149" lon="7.24343">
        <ele>568.59997558594</ele>
        <time>2018-06-20T06:29:06.000Z</time>
      </trkpt>
      <trkpt lat="43.8515" lon="7.2435">
        <ele>568.79998779297</ele>
        <time>2018-06-20T06:29:08.000Z</time>
      </trkpt>
      <trkpt lat="43.85152" lon="7.24363">
        <ele>569.79998779297</ele>
        <time>2018-06-20T06:29:12.000Z</time>
      </trkpt>
      <trkpt lat="43.85155" lon="7.24377">
        <ele>570.40002441406</ele>
        <time>2018-06-20T06:29:17.000Z</time>
      </trkpt>
      <trkpt lat="43.85156" lon="7.24384">
        <ele>571</ele>
        <time>2018-06-20T06:29:19.000Z</time>
      </trkpt>
      <trkpt lat="43.85161" lon="7.24407">
        <ele>572</ele>
        <time>2018-06-20T06:29:27.000Z</time>
      </trkpt>
      <trkpt lat="43.85165" lon="7.24422">
        <ele>573.20001220703</ele>
        <time>2018-06-20T06:29:32.000Z</time>
      </trkpt>
      <trkpt lat="43.85168" lon="7.24432">
        <ele>574</ele>
        <time>2018-06-20T06:29:36.000Z</time>
      </trkpt>
      <trkpt lat="43.85169" lon="7.24435">
        <ele>574.20001220703</ele>
        <time>2018-06-20T06:29:37.000Z</time>
      </trkpt>
      <trkpt lat="43.85174" lon="7.24445">
        <ele>575.40002441406</ele>
        <time>2018-06-20T06:29:41.000Z</time>
      </trkpt>
      <trkpt lat="43.85177" lon="7.24452">
        <ele>576.20001220703</ele>
        <time>2018-06-20T06:29:44.000Z</time>
      </trkpt>
      <trkpt lat="43.85177" lon="7.24454">
        <ele>576.40002441406</ele>
        <time>2018-06-20T06:29:45.000Z</time>
      </trkpt>
      <trkpt lat="43.85183" lon="7.24469">
        <ele>577.40002441406</ele>
        <time>2018-06-20T06:29:51.000Z</time>
      </trkpt>
      <trkpt lat="43.85185" lon="7.24473">
        <ele>578.20001220703</ele>
        <time>2018-06-20T06:29:53.000Z</time>
      </trkpt>
      <trkpt lat="43.85187" lon="7.24479">
        <ele>578.59997558594</ele>
        <time>2018-06-20T06:29:55.000Z</time>
      </trkpt>
      <trkpt lat="43.85187" lon="7.2449">
        <ele>579.79998779297</ele>
        <time>2018-06-20T06:29:59.000Z</time>
      </trkpt>
      <trkpt lat="43.85187" lon="7.24493">
        <ele>580</ele>
        <time>2018-06-20T06:30:00.000Z</time>
      </trkpt>
      <trkpt lat="43.85189" lon="7.24495">
        <ele>580.40002441406</ele>
        <time>2018-06-20T06:30:01.000Z</time>
      </trkpt>
      <trkpt lat="43.85193" lon="7.24499">
        <ele>581</ele>
        <time>2018-06-20T06:30:03.000Z</time>
      </trkpt>
      <trkpt lat="43.85197" lon="7.2451">
        <ele>581.79998779297</ele>
        <time>2018-06-20T06:30:07.000Z</time>
      </trkpt>
      <trkpt lat="43.85198" lon="7.24512">
        <ele>581.79998779297</ele>
        <time>2018-06-20T06:30:08.000Z</time>
      </trkpt>
      <trkpt lat="43.85198" lon="7.24515">
        <ele>582</ele>
        <time>2018-06-20T06:30:09.000Z</time>
      </trkpt>
      <trkpt lat="43.85203" lon="7.24533">
        <ele>583</ele>
        <time>2018-06-20T06:30:17.000Z</time>
      </trkpt>
      <trkpt lat="43.85204" lon="7.24538">
        <ele>583.59997558594</ele>
        <time>2018-06-20T06:30:19.000Z</time>
      </trkpt>
      <trkpt lat="43.85206" lon="7.24544">
        <ele>584.40002441406</ele>
        <time>2018-06-20T06:30:22.000Z</time>
      </trkpt>
      <trkpt lat="43.85208" lon="7.24558">
        <ele>585.40002441406</ele>
        <time>2018-06-20T06:30:28.000Z</time>
      </trkpt>
      <trkpt lat="43.8521" lon="7.24569">
        <ele>586.59997558594</ele>
        <time>2018-06-20T06:30:33.000Z</time>
      </trkpt>
      <trkpt lat="43.8521" lon="7.24571">
        <ele>586.79998779297</ele>
        <time>2018-06-20T06:30:34.000Z</time>
      </trkpt>
      <trkpt lat="43.8521" lon="7.24576">
        <ele>587.59997558594</ele>
        <time>2018-06-20T06:30:36.000Z</time>
      </trkpt>
      <trkpt lat="43.8521" lon="7.24584">
        <ele>588.79998779297</ele>
        <time>2018-06-20T06:30:39.000Z</time>
      </trkpt>
      <trkpt lat="43.8521" lon="7.24588">
        <ele>589.59997558594</ele>
        <time>2018-06-20T06:30:41.000Z</time>
      </trkpt>
      <trkpt lat="43.8521" lon="7.24591">
        <ele>590</ele>
        <time>2018-06-20T06:30:42.000Z</time>
      </trkpt>
      <trkpt lat="43.85208" lon="7.24598">
        <ele>591.20001220703</ele>
        <time>2018-06-20T06:30:45.000Z</time>
      </trkpt>
      <trkpt lat="43.85206" lon="7.24611">
        <ele>592.20001220703</ele>
        <time>2018-06-20T06:30:50.000Z</time>
      </trkpt>
      <trkpt lat="43.85206" lon="7.24613">
        <ele>592.40002441406</ele>
        <time>2018-06-20T06:30:51.000Z</time>
      </trkpt>
      <trkpt lat="43.85205" lon="7.24623">
        <ele>593.59997558594</ele>
        <time>2018-06-20T06:30:55.000Z</time>
      </trkpt>
      <trkpt lat="43.85203" lon="7.2463">
        <ele>594.59997558594</ele>
        <time>2018-06-20T06:30:58.000Z</time>
      </trkpt>
      <trkpt lat="43.85201" lon="7.24632">
        <ele>595</ele>
        <time>2018-06-20T06:30:59.000Z</time>
      </trkpt>
      <trkpt lat="43.85196" lon="7.2464">
        <ele>595.79998779297</ele>
        <time>2018-06-20T06:31:03.000Z</time>
      </trkpt>
      <trkpt lat="43.85191" lon="7.24647">
        <ele>596.40002441406</ele>
        <time>2018-06-20T06:31:07.000Z</time>
      </trkpt>
      <trkpt lat="43.85186" lon="7.24653">
        <ele>596.79998779297</ele>
        <time>2018-06-20T06:31:10.000Z</time>
      </trkpt>
      <trkpt lat="43.85178" lon="7.24666">
        <ele>597</ele>
        <time>2018-06-20T06:31:15.000Z</time>
      </trkpt>
      <trkpt lat="43.8517" lon="7.24683">
        <ele>598</ele>
        <time>2018-06-20T06:31:22.000Z</time>
      </trkpt>
      <trkpt lat="43.85168" lon="7.24688">
        <ele>598.20001220703</ele>
        <time>2018-06-20T06:31:24.000Z</time>
      </trkpt>
      <trkpt lat="43.85166" lon="7.24694">
        <ele>599</ele>
        <time>2018-06-20T06:31:27.000Z</time>
      </trkpt>
      <trkpt lat="43.85164" lon="7.24701">
        <ele>600.20001220703</ele>
        <time>2018-06-20T06:31:30.000Z</time>
      </trkpt>
      <trkpt lat="43.85163" lon="7.24703">
        <ele>600.59997558594</ele>
        <time>2018-06-20T06:31:31.000Z</time>
      </trkpt>
      <trkpt lat="43.85161" lon="7.24708">
        <ele>601.40002441406</ele>
        <time>2018-06-20T06:31:34.000Z</time>
      </trkpt>
      <trkpt lat="43.85159" lon="7.24718">
        <ele>602.40002441406</ele>
        <time>2018-06-20T06:31:39.000Z</time>
      </trkpt>
      <trkpt lat="43.85158" lon="7.24722">
        <ele>603</ele>
        <time>2018-06-20T06:31:41.000Z</time>
      </trkpt>
      <trkpt lat="43.85156" lon="7.24728">
        <ele>603.59997558594</ele>
        <time>2018-06-20T06:31:44.000Z</time>
      </trkpt>
      <trkpt lat="43.85151" lon="7.24739">
        <ele>604.59997558594</ele>
        <time>2018-06-20T06:31:50.000Z</time>
      </trkpt>
      <trkpt lat="43.85145" lon="7.24752">
        <ele>605.59997558594</ele>
        <time>2018-06-20T06:31:56.000Z</time>
      </trkpt>
      <trkpt lat="43.85141" lon="7.24762">
        <ele>606.40002441406</ele>
        <time>2018-06-20T06:32:01.000Z</time>
      </trkpt>
      <trkpt lat="43.8514" lon="7.24766">
        <ele>606.79998779297</ele>
        <time>2018-06-20T06:32:03.000Z</time>
      </trkpt>
      <trkpt lat="43.85136" lon="7.24777">
        <ele>607.79998779297</ele>
        <time>2018-06-20T06:32:08.000Z</time>
      </trkpt>
      <trkpt lat="43.85135" lon="7.24779">
        <ele>608</ele>
        <time>2018-06-20T06:32:09.000Z</time>
      </trkpt>
      <trkpt lat="43.85133" lon="7.24787">
        <ele>609</ele>
        <time>2018-06-20T06:32:13.000Z</time>
      </trkpt>
      <trkpt lat="43.8513" lon="7.24795">
        <ele>610</ele>
        <time>2018-06-20T06:32:17.000Z</time>
      </trkpt>
      <trkpt lat="43.8513" lon="7.24797">
        <ele>610.40002441406</ele>
        <time>2018-06-20T06:32:18.000Z</time>
      </trkpt>
      <trkpt lat="43.8513" lon="7.24804">
        <ele>611.20001220703</ele>
        <time>2018-06-20T06:32:21.000Z</time>
      </trkpt>
      <trkpt lat="43.85131" lon="7.24812">
        <ele>612.20001220703</ele>
        <time>2018-06-20T06:32:25.000Z</time>
      </trkpt>
      <trkpt lat="43.85131" lon="7.24814">
        <ele>612.40002441406</ele>
        <time>2018-06-20T06:32:26.000Z</time>
      </trkpt>
      <trkpt lat="43.85133" lon="7.24821">
        <ele>613.20001220703</ele>
        <time>2018-06-20T06:32:30.000Z</time>
      </trkpt>
      <trkpt lat="43.85134" lon="7.24829">
        <ele>613.59997558594</ele>
        <time>2018-06-20T06:32:34.000Z</time>
      </trkpt>
      <trkpt lat="43.85135" lon="7.24835">
        <ele>614.40002441406</ele>
        <time>2018-06-20T06:32:37.000Z</time>
      </trkpt>
      <trkpt lat="43.85135" lon="7.24842">
        <ele>615.40002441406</ele>
        <time>2018-06-20T06:32:41.000Z</time>
      </trkpt>
      <trkpt lat="43.85136" lon="7.24848">
        <ele>616</ele>
        <time>2018-06-20T06:32:44.000Z</time>
      </trkpt>
      <trkpt lat="43.85137" lon="7.24849">
        <ele>616.20001220703</ele>
        <time>2018-06-20T06:32:45.000Z</time>
      </trkpt>
      <trkpt lat="43.85139" lon="7.2485">
        <ele>616.59997558594</ele>
        <time>2018-06-20T06:32:47.000Z</time>
      </trkpt>
      <trkpt lat="43.85142" lon="7.2485">
        <ele>617.20001220703</ele>
        <time>2018-06-20T06:32:49.000Z</time>
      </trkpt>
      <trkpt lat="43.85144" lon="7.24849">
        <ele>617.79998779297</ele>
        <time>2018-06-20T06:32:51.000Z</time>
      </trkpt>
      <trkpt lat="43.85148" lon="7.24846">
        <ele>618.40002441406</ele>
        <time>2018-06-20T06:32:54.000Z</time>
      </trkpt>
      <trkpt lat="43.85149" lon="7.24845">
        <ele>618.59997558594</ele>
        <time>2018-06-20T06:32:55.000Z</time>
      </trkpt>
      <trkpt lat="43.8515" lon="7.24845">
        <ele>619</ele>
        <time>2018-06-20T06:32:56.000Z</time>
      </trkpt>
      <trkpt lat="43.85156" lon="7.24843">
        <ele>620</ele>
        <time>2018-06-20T06:33:00.000Z</time>
      </trkpt>
      <trkpt lat="43.85159" lon="7.24842">
        <ele>621.20001220703</ele>
        <time>2018-06-20T06:33:03.000Z</time>
      </trkpt>
      <trkpt lat="43.85166" lon="7.24844">
        <ele>622.40002441406</ele>
        <time>2018-06-20T06:33:08.000Z</time>
      </trkpt>
      <trkpt lat="43.85167" lon="7.24844">
        <ele>622.59997558594</ele>
        <time>2018-06-20T06:33:09.000Z</time>
      </trkpt>
      <trkpt lat="43.85174" lon="7.24845">
        <ele>623.40002441406</ele>
        <time>2018-06-20T06:33:14.000Z</time>
      </trkpt>
      <trkpt lat="43.85177" lon="7.24846">
        <ele>624</ele>
        <time>2018-06-20T06:33:16.000Z</time>
      </trkpt>
      <trkpt lat="43.85182" lon="7.24848">
        <ele>624.40002441406</ele>
        <time>2018-06-20T06:33:19.000Z</time>
      </trkpt>
      <trkpt lat="43.85188" lon="7.2485">
        <ele>625.20001220703</ele>
        <time>2018-06-20T06:33:23.000Z</time>
      </trkpt>
      <trkpt lat="43.8519" lon="7.24851">
        <ele>625.79998779297</ele>
        <time>2018-06-20T06:33:25.000Z</time>
      </trkpt>
      <trkpt lat="43.85196" lon="7.24854">
        <ele>626.79998779297</ele>
        <time>2018-06-20T06:33:29.000Z</time>
      </trkpt>
      <trkpt lat="43.85205" lon="7.24862">
        <ele>627.79998779297</ele>
        <time>2018-06-20T06:33:36.000Z</time>
      </trkpt>
      <trkpt lat="43.85208" lon="7.24865">
        <ele>628</ele>
        <time>2018-06-20T06:33:38.000Z</time>
      </trkpt>
      <trkpt lat="43.85214" lon="7.24871">
        <ele>629</ele>
        <time>2018-06-20T06:33:43.000Z</time>
      </trkpt>
      <trkpt lat="43.8522" lon="7.24878">
        <ele>630.20001220703</ele>
        <time>2018-06-20T06:33:48.000Z</time>
      </trkpt>
      <trkpt lat="43.85223" lon="7.2488">
        <ele>630.40002441406</ele>
        <time>2018-06-20T06:33:50.000Z</time>
      </trkpt>
      <trkpt lat="43.85226" lon="7.24884">
        <ele>631.40002441406</ele>
        <time>2018-06-20T06:33:53.000Z</time>
      </trkpt>
      <trkpt lat="43.85226" lon="7.24885">
        <ele>631.79998779297</ele>
        <time>2018-06-20T06:33:54.000Z</time>
      </trkpt>
      <trkpt lat="43.85228" lon="7.24888">
        <ele>632.40002441406</ele>
        <time>2018-06-20T06:33:56.000Z</time>
      </trkpt>
      <trkpt lat="43.85229" lon="7.2489">
        <ele>632.79998779297</ele>
        <time>2018-06-20T06:33:57.000Z</time>
      </trkpt>
      <trkpt lat="43.85232" lon="7.24894">
        <ele>633.59997558594</ele>
        <time>2018-06-20T06:34:00.000Z</time>
      </trkpt>
      <trkpt lat="43.85236" lon="7.24897">
        <ele>634.20001220703</ele>
        <time>2018-06-20T06:34:03.000Z</time>
      </trkpt>
      <trkpt lat="43.85242" lon="7.24904">
        <ele>635</ele>
        <time>2018-06-20T06:34:08.000Z</time>
      </trkpt>
      <trkpt lat="43.85244" lon="7.24906">
        <ele>635</ele>
        <time>2018-06-20T06:34:09.000Z</time>
      </trkpt>
      <trkpt lat="43.85251" lon="7.24916">
        <ele>636</ele>
        <time>2018-06-20T06:34:15.000Z</time>
      </trkpt>
      <trkpt lat="43.85254" lon="7.24919">
        <ele>636.40002441406</ele>
        <time>2018-06-20T06:34:17.000Z</time>
      </trkpt>
      <trkpt lat="43.85259" lon="7.24924">
        <ele>637.20001220703</ele>
        <time>2018-06-20T06:34:21.000Z</time>
      </trkpt>
      <trkpt lat="43.85264" lon="7.24928">
        <ele>637.59997558594</ele>
        <time>2018-06-20T06:34:25.000Z</time>
      </trkpt>
      <trkpt lat="43.85268" lon="7.24931">
        <ele>638.20001220703</ele>
        <time>2018-06-20T06:34:28.000Z</time>
      </trkpt>
      <trkpt lat="43.85275" lon="7.24939">
        <ele>639.20001220703</ele>
        <time>2018-06-20T06:34:34.000Z</time>
      </trkpt>
      <trkpt lat="43.85275" lon="7.2494">
        <ele>639.20001220703</ele>
        <time>2018-06-20T06:34:35.000Z</time>
      </trkpt>
      <trkpt lat="43.85281" lon="7.24944">
        <ele>639.59997558594</ele>
        <time>2018-06-20T06:34:39.000Z</time>
      </trkpt>
      <trkpt lat="43.85289" lon="7.24954">
        <ele>639.79998779297</ele>
        <time>2018-06-20T06:34:46.000Z</time>
      </trkpt>
      <trkpt lat="43.85294" lon="7.24967">
        <ele>638.79998779297</ele>
        <time>2018-06-20T06:34:51.000Z</time>
      </trkpt>
      <trkpt lat="43.85296" lon="7.2497">
        <ele>638.40002441406</ele>
        <time>2018-06-20T06:34:52.000Z</time>
      </trkpt>
      <trkpt lat="43.85296" lon="7.24973">
        <ele>638.20001220703</ele>
        <time>2018-06-20T06:34:53.000Z</time>
      </trkpt>
      <trkpt lat="43.853" lon="7.24978">
        <ele>638</ele>
        <time>2018-06-20T06:34:56.000Z</time>
      </trkpt>
      <trkpt lat="43.85303" lon="7.24978">
        <ele>638.40002441406</ele>
        <time>2018-06-20T06:34:58.000Z</time>
      </trkpt>
      <trkpt lat="43.85306" lon="7.24977">
        <ele>638.59997558594</ele>
        <time>2018-06-20T06:35:00.000Z</time>
      </trkpt>
      <trkpt lat="43.85307" lon="7.24977">
        <ele>638.79998779297</ele>
        <time>2018-06-20T06:35:03.000Z</time>
      </trkpt>
      <trkpt lat="43.85312" lon="7.24978">
        <ele>640.79998779297</ele>
        <time>2018-06-20T06:35:48.000Z</time>
      </trkpt>
      <trkpt lat="43.85311" lon="7.24979">
        <ele>641</ele>
        <time>2018-06-20T06:35:49.000Z</time>
      </trkpt>
      <trkpt lat="43.85311" lon="7.24978">
        <ele>641.20001220703</ele>
        <time>2018-06-20T06:35:50.000Z</time>
      </trkpt>
      <trkpt lat="43.85313" lon="7.24978">
        <ele>641.59997558594</ele>
        <time>2018-06-20T06:35:54.000Z</time>
      </trkpt>
      <trkpt lat="43.85315" lon="7.24977">
        <ele>641.79998779297</ele>
        <time>2018-06-20T06:35:55.000Z</time>
      </trkpt>
      <trkpt lat="43.85316" lon="7.24976">
        <ele>642</ele>
        <time>2018-06-20T06:35:56.000Z</time>
      </trkpt>
      <trkpt lat="43.85317" lon="7.24975">
        <ele>642.20001220703</ele>
        <time>2018-06-20T06:35:58.000Z</time>
      </trkpt>
      <trkpt lat="43.85322" lon="7.24969">
        <ele>642.40002441406</ele>
        <time>2018-06-20T06:36:13.000Z</time>
      </trkpt>
      <trkpt lat="43.85329" lon="7.24959">
        <ele>643.40002441406</ele>
        <time>2018-06-20T06:36:17.000Z</time>
      </trkpt>
      <trkpt lat="43.85332" lon="7.24956">
        <ele>644</ele>
        <time>2018-06-20T06:36:19.000Z</time>
      </trkpt>
      <trkpt lat="43.85335" lon="7.24953">
        <ele>644.79998779297</ele>
        <time>2018-06-20T06:36:21.000Z</time>
      </trkpt>
      <trkpt lat="43.8534" lon="7.24949">
        <ele>646.20001220703</ele>
        <time>2018-06-20T06:36:24.000Z</time>
      </trkpt>
      <trkpt lat="43.85342" lon="7.24947">
        <ele>646.40002441406</ele>
        <time>2018-06-20T06:36:26.000Z</time>
      </trkpt>
      <trkpt lat="43.85342" lon="7.24945">
        <ele>646.20001220703</ele>
        <time>2018-06-20T06:36:29.000Z</time>
      </trkpt>
      <trkpt lat="43.85346" lon="7.2494">
        <ele>644.40002441406</ele>
        <time>2018-06-20T06:36:43.000Z</time>
      </trkpt>
      <trkpt lat="43.85352" lon="7.24932">
        <ele>645.20001220703</ele>
        <time>2018-06-20T06:36:48.000Z</time>
      </trkpt>
      <trkpt lat="43.85355" lon="7.24928">
        <ele>644.59997558594</ele>
        <time>2018-06-20T06:36:53.000Z</time>
      </trkpt>
      <trkpt lat="43.85359" lon="7.24919">
        <ele>644.79998779297</ele>
        <time>2018-06-20T06:36:57.000Z</time>
      </trkpt>
      <trkpt lat="43.85358" lon="7.24916">
        <ele>645</ele>
        <time>2018-06-20T06:36:59.000Z</time>
      </trkpt>
      <trkpt lat="43.85356" lon="7.24913">
        <ele>644.59997558594</ele>
        <time>2018-06-20T06:37:01.000Z</time>
      </trkpt>
      <trkpt lat="43.85357" lon="7.24908">
        <ele>644</ele>
        <time>2018-06-20T06:37:05.000Z</time>
      </trkpt>
      <trkpt lat="43.85359" lon="7.24905">
        <ele>643.40002441406</ele>
        <time>2018-06-20T06:37:06.000Z</time>
      </trkpt>
      <trkpt lat="43.8536" lon="7.24898">
        <ele>643.40002441406</ele>
        <time>2018-06-20T06:37:08.000Z</time>
      </trkpt>
      <trkpt lat="43.85364" lon="7.24885">
        <ele>644.59997558594</ele>
        <time>2018-06-20T06:37:14.000Z</time>
      </trkpt>
      <trkpt lat="43.85364" lon="7.24877">
        <ele>645.79998779297</ele>
        <time>2018-06-20T06:37:17.000Z</time>
      </trkpt>
      <trkpt lat="43.85365" lon="7.24875">
        <ele>646</ele>
        <time>2018-06-20T06:37:18.000Z</time>
      </trkpt>
      <trkpt lat="43.85365" lon="7.24875">
        <ele>646.40002441406</ele>
        <time>2018-06-20T06:37:20.000Z</time>
      </trkpt>
      <trkpt lat="43.85376" lon="7.24865">
        <ele>649</ele>
        <time>2018-06-20T06:37:49.000Z</time>
      </trkpt>
      <trkpt lat="43.8538" lon="7.24866">
        <ele>649.20001220703</ele>
        <time>2018-06-20T06:37:52.000Z</time>
      </trkpt>
      <trkpt lat="43.85384" lon="7.24867">
        <ele>649.59997558594</ele>
        <time>2018-06-20T06:37:57.000Z</time>
      </trkpt>
      <trkpt lat="43.85386" lon="7.24867">
        <ele>649.79998779297</ele>
        <time>2018-06-20T06:37:58.000Z</time>
      </trkpt>
      <trkpt lat="43.85388" lon="7.24866">
        <ele>650</ele>
        <time>2018-06-20T06:37:59.000Z</time>
      </trkpt>
      <trkpt lat="43.8539" lon="7.24866">
        <ele>650</ele>
        <time>2018-06-20T06:38:01.000Z</time>
      </trkpt>
      <trkpt lat="43.85391" lon="7.24866">
        <ele>650</ele>
        <time>2018-06-20T06:38:04.000Z</time>
      </trkpt>
      <trkpt lat="43.8542" lon="7.24903">
        <ele>669</ele>
        <time>2018-06-20T06:39:39.000Z</time>
      </trkpt>
      <trkpt lat="43.85422" lon="7.24904">
        <ele>668.79998779297</ele>
        <time>2018-06-20T06:39:41.000Z</time>
      </trkpt>
      <trkpt lat="43.85428" lon="7.24908">
        <ele>669.20001220703</ele>
        <time>2018-06-20T06:39:45.000Z</time>
      </trkpt>
      <trkpt lat="43.85429" lon="7.24909">
        <ele>669.40002441406</ele>
        <time>2018-06-20T06:39:46.000Z</time>
      </trkpt>
      <trkpt lat="43.8543" lon="7.24911">
        <ele>669.40002441406</ele>
        <time>2018-06-20T06:39:47.000Z</time>
      </trkpt>
      <trkpt lat="43.85435" lon="7.24917">
        <ele>669.40002441406</ele>
        <time>2018-06-20T06:39:50.000Z</time>
      </trkpt>
      <trkpt lat="43.85443" lon="7.24922">
        <ele>670.20001220703</ele>
        <time>2018-06-20T06:39:54.000Z</time>
      </trkpt>
      <trkpt lat="43.85445" lon="7.24923">
        <ele>670.40002441406</ele>
        <time>2018-06-20T06:39:55.000Z</time>
      </trkpt>
      <trkpt lat="43.85451" lon="7.24927">
        <ele>671.20001220703</ele>
        <time>2018-06-20T06:39:58.000Z</time>
      </trkpt>
      <trkpt lat="43.85457" lon="7.24931">
        <ele>672</ele>
        <time>2018-06-20T06:40:01.000Z</time>
      </trkpt>
      <trkpt lat="43.85459" lon="7.24932">
        <ele>672.20001220703</ele>
        <time>2018-06-20T06:40:02.000Z</time>
      </trkpt>
      <trkpt lat="43.85462" lon="7.24936">
        <ele>672.59997558594</ele>
        <time>2018-06-20T06:40:05.000Z</time>
      </trkpt>
      <trkpt lat="43.85466" lon="7.24938">
        <ele>672.40002441406</ele>
        <time>2018-06-20T06:40:09.000Z</time>
      </trkpt>
      <trkpt lat="43.85469" lon="7.24939">
        <ele>672.40002441406</ele>
        <time>2018-06-20T06:40:10.000Z</time>
      </trkpt>
      <trkpt lat="43.85474" lon="7.24943">
        <ele>672.40002441406</ele>
        <time>2018-06-20T06:40:13.000Z</time>
      </trkpt>
      <trkpt lat="43.85483" lon="7.24948">
        <ele>673.40002441406</ele>
        <time>2018-06-20T06:40:18.000Z</time>
      </trkpt>
      <trkpt lat="43.85486" lon="7.2495">
        <ele>674.20001220703</ele>
        <time>2018-06-20T06:40:20.000Z</time>
      </trkpt>
      <trkpt lat="43.85489" lon="7.24953">
        <ele>674.59997558594</ele>
        <time>2018-06-20T06:40:22.000Z</time>
      </trkpt>
      <trkpt lat="43.85494" lon="7.24958">
        <ele>675.40002441406</ele>
        <time>2018-06-20T06:40:25.000Z</time>
      </trkpt>
      <trkpt lat="43.85496" lon="7.24959">
        <ele>675.59997558594</ele>
        <time>2018-06-20T06:40:26.000Z</time>
      </trkpt>
      <trkpt lat="43.85505" lon="7.24964">
        <ele>676.79998779297</ele>
        <time>2018-06-20T06:40:31.000Z</time>
      </trkpt>
      <trkpt lat="43.85515" lon="7.24971">
        <ele>677.40002441406</ele>
        <time>2018-06-20T06:40:37.000Z</time>
      </trkpt>
      <trkpt lat="43.85522" lon="7.24975">
        <ele>677.20001220703</ele>
        <time>2018-06-20T06:40:41.000Z</time>
      </trkpt>
      <trkpt lat="43.85529" lon="7.2498">
        <ele>677.59997558594</ele>
        <time>2018-06-20T06:40:45.000Z</time>
      </trkpt>
      <trkpt lat="43.8553" lon="7.2498">
        <ele>677.59997558594</ele>
        <time>2018-06-20T06:40:46.000Z</time>
      </trkpt>
      <trkpt lat="43.85539" lon="7.24985">
        <ele>677.59997558594</ele>
        <time>2018-06-20T06:40:51.000Z</time>
      </trkpt>
      <trkpt lat="43.85547" lon="7.24989">
        <ele>677.79998779297</ele>
        <time>2018-06-20T06:40:55.000Z</time>
      </trkpt>
      <trkpt lat="43.85553" lon="7.24988">
        <ele>677.79998779297</ele>
        <time>2018-06-20T06:40:57.000Z</time>
      </trkpt>
      <trkpt lat="43.85555" lon="7.24988">
        <ele>678</ele>
        <time>2018-06-20T06:40:58.000Z</time>
      </trkpt>
      <trkpt lat="43.85561" lon="7.24989">
        <ele>678.20001220703</ele>
        <time>2018-06-20T06:41:00.000Z</time>
      </trkpt>
      <trkpt lat="43.8557" lon="7.24992">
        <ele>677.40002441406</ele>
        <time>2018-06-20T06:41:03.000Z</time>
      </trkpt>
      <trkpt lat="43.85574" lon="7.24993">
        <ele>677</ele>
        <time>2018-06-20T06:41:04.000Z</time>
      </trkpt>
      <trkpt lat="43.85582" lon="7.24993">
        <ele>676.79998779297</ele>
        <time>2018-06-20T06:41:07.000Z</time>
      </trkpt>
      <trkpt lat="43.85584" lon="7.24995">
        <ele>676.79998779297</ele>
        <time>2018-06-20T06:41:08.000Z</time>
      </trkpt>
      <trkpt lat="43.85591" lon="7.24995">
        <ele>676.59997558594</ele>
        <time>2018-06-20T06:41:12.000Z</time>
      </trkpt>
      <trkpt lat="43.85596" lon="7.24995">
        <ele>675.59997558594</ele>
        <time>2018-06-20T06:41:14.000Z</time>
      </trkpt>
      <trkpt lat="43.85603" lon="7.24996">
        <ele>674.79998779297</ele>
        <time>2018-06-20T06:41:16.000Z</time>
      </trkpt>
      <trkpt lat="43.85606" lon="7.24996">
        <ele>674.59997558594</ele>
        <time>2018-06-20T06:41:17.000Z</time>
      </trkpt>
      <trkpt lat="43.85615" lon="7.25003">
        <ele>673.79998779297</ele>
        <time>2018-06-20T06:41:21.000Z</time>
      </trkpt>
      <trkpt lat="43.85623" lon="7.25014">
        <ele>674.59997558594</ele>
        <time>2018-06-20T06:41:27.000Z</time>
      </trkpt>
      <trkpt lat="43.85629" lon="7.25011">
        <ele>675.20001220703</ele>
        <time>2018-06-20T06:41:30.000Z</time>
      </trkpt>
      <trkpt lat="43.8564" lon="7.25009">
        <ele>675</ele>
        <time>2018-06-20T06:41:34.000Z</time>
      </trkpt>
      <trkpt lat="43.85643" lon="7.25009">
        <ele>675</ele>
        <time>2018-06-20T06:41:35.000Z</time>
      </trkpt>
      <trkpt lat="43.85658" lon="7.25008">
        <ele>675.59997558594</ele>
        <time>2018-06-20T06:41:40.000Z</time>
      </trkpt>
      <trkpt lat="43.8566" lon="7.2501">
        <ele>675.59997558594</ele>
        <time>2018-06-20T06:41:41.000Z</time>
      </trkpt>
      <trkpt lat="43.85663" lon="7.25013">
        <ele>675.59997558594</ele>
        <time>2018-06-20T06:41:43.000Z</time>
      </trkpt>
      <trkpt lat="43.85668" lon="7.25017">
        <ele>675.40002441406</ele>
        <time>2018-06-20T06:41:46.000Z</time>
      </trkpt>
      <trkpt lat="43.8567" lon="7.25016">
        <ele>675.40002441406</ele>
        <time>2018-06-20T06:41:47.000Z</time>
      </trkpt>
      <trkpt lat="43.85672" lon="7.25016">
        <ele>675.40002441406</ele>
        <time>2018-06-20T06:41:48.000Z</time>
      </trkpt>
      <trkpt lat="43.85677" lon="7.25015">
        <ele>674.79998779297</ele>
        <time>2018-06-20T06:41:50.000Z</time>
      </trkpt>
      <trkpt lat="43.85685" lon="7.25014">
        <ele>674.59997558594</ele>
        <time>2018-06-20T06:41:53.000Z</time>
      </trkpt>
      <trkpt lat="43.85696" lon="7.25011">
        <ele>674.40002441406</ele>
        <time>2018-06-20T06:41:57.000Z</time>
      </trkpt>
      <trkpt lat="43.85713" lon="7.25015">
        <ele>675</ele>
        <time>2018-06-20T06:42:03.000Z</time>
      </trkpt>
      <trkpt lat="43.85729" lon="7.25019">
        <ele>675.59997558594</ele>
        <time>2018-06-20T06:42:09.000Z</time>
      </trkpt>
      <trkpt lat="43.85735" lon="7.25019">
        <ele>676</ele>
        <time>2018-06-20T06:42:11.000Z</time>
      </trkpt>
      <trkpt lat="43.85746" lon="7.2502">
        <ele>676.59997558594</ele>
        <time>2018-06-20T06:42:15.000Z</time>
      </trkpt>
      <trkpt lat="43.85752" lon="7.25021">
        <ele>676.59997558594</ele>
        <time>2018-06-20T06:42:18.000Z</time>
      </trkpt>
      <trkpt lat="43.85763" lon="7.25024">
        <ele>676.79998779297</ele>
        <time>2018-06-20T06:42:23.000Z</time>
      </trkpt>
      <trkpt lat="43.8577" lon="7.25026">
        <ele>676.79998779297</ele>
        <time>2018-06-20T06:42:27.000Z</time>
      </trkpt>
      <trkpt lat="43.85773" lon="7.25026">
        <ele>677.20001220703</ele>
        <time>2018-06-20T06:42:29.000Z</time>
      </trkpt>
      <trkpt lat="43.85781" lon="7.25029">
        <ele>676.59997558594</ele>
        <time>2018-06-20T06:42:34.000Z</time>
      </trkpt>
      <trkpt lat="43.85791" lon="7.2503">
        <ele>676.40002441406</ele>
        <time>2018-06-20T06:42:39.000Z</time>
      </trkpt>
      <trkpt lat="43.85797" lon="7.25031">
        <ele>676.40002441406</ele>
        <time>2018-06-20T06:42:43.000Z</time>
      </trkpt>
      <trkpt lat="43.85801" lon="7.25034">
        <ele>675.79998779297</ele>
        <time>2018-06-20T06:42:49.000Z</time>
      </trkpt>
      <trkpt lat="43.85803" lon="7.25035">
        <ele>675.59997558594</ele>
        <time>2018-06-20T06:42:51.000Z</time>
      </trkpt>
      <trkpt lat="43.85806" lon="7.25036">
        <ele>675.40002441406</ele>
        <time>2018-06-20T06:42:56.000Z</time>
      </trkpt>
      <trkpt lat="43.85809" lon="7.25037">
        <ele>675.79998779297</ele>
        <time>2018-06-20T06:43:02.000Z</time>
      </trkpt>
      <trkpt lat="43.85812" lon="7.25039">
        <ele>676</ele>
        <time>2018-06-20T06:43:04.000Z</time>
      </trkpt>
      <trkpt lat="43.85822" lon="7.25046">
        <ele>676.20001220703</ele>
        <time>2018-06-20T06:43:10.000Z</time>
      </trkpt>
      <trkpt lat="43.85829" lon="7.25051">
        <ele>676.59997558594</ele>
        <time>2018-06-20T06:43:14.000Z</time>
      </trkpt>
      <trkpt lat="43.8583" lon="7.25053">
        <ele>676.59997558594</ele>
        <time>2018-06-20T06:43:15.000Z</time>
      </trkpt>
      <trkpt lat="43.85832" lon="7.25054">
        <ele>676.59997558594</ele>
        <time>2018-06-20T06:43:16.000Z</time>
      </trkpt>
      <trkpt lat="43.85838" lon="7.25059">
        <ele>677</ele>
        <time>2018-06-20T06:43:19.000Z</time>
      </trkpt>
      <trkpt lat="43.85843" lon="7.25065">
        <ele>677.20001220703</ele>
        <time>2018-06-20T06:43:22.000Z</time>
      </trkpt>
      <trkpt lat="43.85846" lon="7.25068">
        <ele>677.79998779297</ele>
        <time>2018-06-20T06:43:24.000Z</time>
      </trkpt>
      <trkpt lat="43.85852" lon="7.25074">
        <ele>679</ele>
        <time>2018-06-20T06:43:28.000Z</time>
      </trkpt>
      <trkpt lat="43.85854" lon="7.25077">
        <ele>679.59997558594</ele>
        <time>2018-06-20T06:43:30.000Z</time>
      </trkpt>
      <trkpt lat="43.85858" lon="7.25082">
        <ele>680.40002441406</ele>
        <time>2018-06-20T06:43:33.000Z</time>
      </trkpt>
      <trkpt lat="43.85863" lon="7.25087">
        <ele>680.79998779297</ele>
        <time>2018-06-20T06:43:36.000Z</time>
      </trkpt>
      <trkpt lat="43.85866" lon="7.25089">
        <ele>681.40002441406</ele>
        <time>2018-06-20T06:43:38.000Z</time>
      </trkpt>
      <trkpt lat="43.85872" lon="7.25095">
        <ele>682</ele>
        <time>2018-06-20T06:43:42.000Z</time>
      </trkpt>
      <trkpt lat="43.85872" lon="7.25095">
        <ele>682.20001220703</ele>
        <time>2018-06-20T06:43:44.000Z</time>
      </trkpt>
      <trkpt lat="43.8589" lon="7.25102">
        <ele>690.40002441406</ele>
        <time>2018-06-20T06:44:20.000Z</time>
      </trkpt>
      <trkpt lat="43.85892" lon="7.25102">
        <ele>690.59997558594</ele>
        <time>2018-06-20T06:44:21.000Z</time>
      </trkpt>
      <trkpt lat="43.85898" lon="7.25107">
        <ele>690.59997558594</ele>
        <time>2018-06-20T06:44:25.000Z</time>
      </trkpt>
      <trkpt lat="43.859" lon="7.25108">
        <ele>690.59997558594</ele>
        <time>2018-06-20T06:44:26.000Z</time>
      </trkpt>
      <trkpt lat="43.85909" lon="7.25116">
        <ele>691</ele>
        <time>2018-06-20T06:44:31.000Z</time>
      </trkpt>
      <trkpt lat="43.85912" lon="7.2512">
        <ele>691.40002441406</ele>
        <time>2018-06-20T06:44:33.000Z</time>
      </trkpt>
      <trkpt lat="43.85916" lon="7.25124">
        <ele>692.59997558594</ele>
        <time>2018-06-20T06:44:36.000Z</time>
      </trkpt>
      <trkpt lat="43.85917" lon="7.25126">
        <ele>693.20001220703</ele>
        <time>2018-06-20T06:44:37.000Z</time>
      </trkpt>
      <trkpt lat="43.85922" lon="7.2513">
        <ele>693.79998779297</ele>
        <time>2018-06-20T06:44:40.000Z</time>
      </trkpt>
      <trkpt lat="43.85924" lon="7.25134">
        <ele>694</ele>
        <time>2018-06-20T06:44:42.000Z</time>
      </trkpt>
      <trkpt lat="43.85929" lon="7.25134">
        <ele>694.20001220703</ele>
        <time>2018-06-20T06:44:44.000Z</time>
      </trkpt>
      <trkpt lat="43.85934" lon="7.25132">
        <ele>694.79998779297</ele>
        <time>2018-06-20T06:44:46.000Z</time>
      </trkpt>
      <trkpt lat="43.85936" lon="7.25131">
        <ele>695.20001220703</ele>
        <time>2018-06-20T06:44:47.000Z</time>
      </trkpt>
      <trkpt lat="43.85946" lon="7.25131">
        <ele>696.40002441406</ele>
        <time>2018-06-20T06:44:51.000Z</time>
      </trkpt>
      <trkpt lat="43.85951" lon="7.25132">
        <ele>697</ele>
        <time>2018-06-20T06:44:53.000Z</time>
      </trkpt>
      <trkpt lat="43.85955" lon="7.25134">
        <ele>697.59997558594</ele>
        <time>2018-06-20T06:44:55.000Z</time>
      </trkpt>
      <trkpt lat="43.85962" lon="7.25138">
        <ele>698.59997558594</ele>
        <time>2018-06-20T06:44:59.000Z</time>
      </trkpt>
      <trkpt lat="43.8597" lon="7.25143">
        <ele>699.79998779297</ele>
        <time>2018-06-20T06:45:03.000Z</time>
      </trkpt>
      <trkpt lat="43.85974" lon="7.25145">
        <ele>700.20001220703</ele>
        <time>2018-06-20T06:45:05.000Z</time>
      </trkpt>
      <trkpt lat="43.85983" lon="7.25154">
        <ele>701</ele>
        <time>2018-06-20T06:45:10.000Z</time>
      </trkpt>
      <trkpt lat="43.85985" lon="7.25155">
        <ele>701.20001220703</ele>
        <time>2018-06-20T06:45:11.000Z</time>
      </trkpt>
      <trkpt lat="43.8599" lon="7.2516">
        <ele>702.20001220703</ele>
        <time>2018-06-20T06:45:14.000Z</time>
      </trkpt>
      <trkpt lat="43.85999" lon="7.25172">
        <ele>703</ele>
        <time>2018-06-20T06:45:20.000Z</time>
      </trkpt>
      <trkpt lat="43.86003" lon="7.25176">
        <ele>703.20001220703</ele>
        <time>2018-06-20T06:45:22.000Z</time>
      </trkpt>
      <trkpt lat="43.86009" lon="7.25189">
        <ele>702</ele>
        <time>2018-06-20T06:45:27.000Z</time>
      </trkpt>
      <trkpt lat="43.86009" lon="7.25192">
        <ele>702</ele>
        <time>2018-06-20T06:45:28.000Z</time>
      </trkpt>
      <trkpt lat="43.86011" lon="7.25203">
        <ele>701.79998779297</ele>
        <time>2018-06-20T06:45:32.000Z</time>
      </trkpt>
      <trkpt lat="43.8601" lon="7.25207">
        <ele>701.59997558594</ele>
        <time>2018-06-20T06:45:34.000Z</time>
      </trkpt>
      <trkpt lat="43.86003" lon="7.25215">
        <ele>701.40002441406</ele>
        <time>2018-06-20T06:45:37.000Z</time>
      </trkpt>
      <trkpt lat="43.86" lon="7.25221">
        <ele>701.20001220703</ele>
        <time>2018-06-20T06:45:39.000Z</time>
      </trkpt>
      <trkpt lat="43.85997" lon="7.25232">
        <ele>700.79998779297</ele>
        <time>2018-06-20T06:45:42.000Z</time>
      </trkpt>
      <trkpt lat="43.85997" lon="7.25247">
        <ele>700.59997558594</ele>
        <time>2018-06-20T06:45:45.000Z</time>
      </trkpt>
      <trkpt lat="43.85995" lon="7.25262">
        <ele>700.59997558594</ele>
        <time>2018-06-20T06:45:49.000Z</time>
      </trkpt>
      <trkpt lat="43.85995" lon="7.25265">
        <ele>700.59997558594</ele>
        <time>2018-06-20T06:45:50.000Z</time>
      </trkpt>
      <trkpt lat="43.85998" lon="7.25271">
        <ele>700.79998779297</ele>
        <time>2018-06-20T06:45:53.000Z</time>
      </trkpt>
      <trkpt lat="43.85999" lon="7.25272">
        <ele>701</ele>
        <time>2018-06-20T06:45:54.000Z</time>
      </trkpt>
      <trkpt lat="43.86006" lon="7.25267">
        <ele>702</ele>
        <time>2018-06-20T06:45:58.000Z</time>
      </trkpt>
      <trkpt lat="43.86016" lon="7.25262">
        <ele>702.20001220703</ele>
        <time>2018-06-20T06:46:03.000Z</time>
      </trkpt>
      <trkpt lat="43.86029" lon="7.25256">
        <ele>703</ele>
        <time>2018-06-20T06:46:09.000Z</time>
      </trkpt>
      <trkpt lat="43.86034" lon="7.25254">
        <ele>703</ele>
        <time>2018-06-20T06:46:11.000Z</time>
      </trkpt>
      <trkpt lat="43.86046" lon="7.2525">
        <ele>704</ele>
        <time>2018-06-20T06:46:17.000Z</time>
      </trkpt>
      <trkpt lat="43.86048" lon="7.2525">
        <ele>704.20001220703</ele>
        <time>2018-06-20T06:46:18.000Z</time>
      </trkpt>
      <trkpt lat="43.86059" lon="7.25249">
        <ele>704.40002441406</ele>
        <time>2018-06-20T06:46:24.000Z</time>
      </trkpt>
      <trkpt lat="43.86067" lon="7.25249">
        <ele>704</ele>
        <time>2018-06-20T06:46:30.000Z</time>
      </trkpt>
      <trkpt lat="43.86075" lon="7.25251">
        <ele>702.79998779297</ele>
        <time>2018-06-20T06:46:34.000Z</time>
      </trkpt>
      <trkpt lat="43.86081" lon="7.25254">
        <ele>701.59997558594</ele>
        <time>2018-06-20T06:46:37.000Z</time>
      </trkpt>
      <trkpt lat="43.86089" lon="7.2526">
        <ele>700.59997558594</ele>
        <time>2018-06-20T06:46:41.000Z</time>
      </trkpt>
      <trkpt lat="43.86094" lon="7.25264">
        <ele>700</ele>
        <time>2018-06-20T06:46:44.000Z</time>
      </trkpt>
      <trkpt lat="43.86097" lon="7.25265">
        <ele>699.40002441406</ele>
        <time>2018-06-20T06:46:47.000Z</time>
      </trkpt>
      <trkpt lat="43.86101" lon="7.25268">
        <ele>698.79998779297</ele>
        <time>2018-06-20T06:46:50.000Z</time>
      </trkpt>
      <trkpt lat="43.86103" lon="7.25268">
        <ele>698.79998779297</ele>
        <time>2018-06-20T06:46:51.000Z</time>
      </trkpt>
      <trkpt lat="43.86104" lon="7.25267">
        <ele>698</ele>
        <time>2018-06-20T06:46:53.000Z</time>
      </trkpt>
      <trkpt lat="43.86105" lon="7.25264">
        <ele>697.59997558594</ele>
        <time>2018-06-20T06:46:54.000Z</time>
      </trkpt>
      <trkpt lat="43.86106" lon="7.25262">
        <ele>697</ele>
        <time>2018-06-20T06:46:55.000Z</time>
      </trkpt>
      <trkpt lat="43.86107" lon="7.25261">
        <ele>695.79998779297</ele>
        <time>2018-06-20T06:46:59.000Z</time>
      </trkpt>
      <trkpt lat="43.8611" lon="7.25266">
        <ele>692.40002441406</ele>
        <time>2018-06-20T06:47:26.000Z</time>
      </trkpt>
      <trkpt lat="43.8611" lon="7.25272">
        <ele>692.20001220703</ele>
        <time>2018-06-20T06:47:28.000Z</time>
      </trkpt>
      <trkpt lat="43.86113" lon="7.25278">
        <ele>691.20001220703</ele>
        <time>2018-06-20T06:47:32.000Z</time>
      </trkpt>
      <trkpt lat="43.86116" lon="7.25281">
        <ele>690.79998779297</ele>
        <time>2018-06-20T06:47:33.000Z</time>
      </trkpt>
      <trkpt lat="43.86118" lon="7.25284">
        <ele>690.20001220703</ele>
        <time>2018-06-20T06:47:34.000Z</time>
      </trkpt>
      <trkpt lat="43.8612" lon="7.25284">
        <ele>689.79998779297</ele>
        <time>2018-06-20T06:47:35.000Z</time>
      </trkpt>
      <trkpt lat="43.86123" lon="7.25282">
        <ele>689.20001220703</ele>
        <time>2018-06-20T06:47:36.000Z</time>
      </trkpt>
      <trkpt lat="43.86126" lon="7.25279">
        <ele>689.20001220703</ele>
        <time>2018-06-20T06:47:37.000Z</time>
      </trkpt>
      <trkpt lat="43.86135" lon="7.25269">
        <ele>688.79998779297</ele>
        <time>2018-06-20T06:47:39.000Z</time>
      </trkpt>
      <trkpt lat="43.86138" lon="7.25265">
        <ele>688.79998779297</ele>
        <time>2018-06-20T06:47:40.000Z</time>
      </trkpt>
      <trkpt lat="43.86142" lon="7.25262">
        <ele>688.59997558594</ele>
        <time>2018-06-20T06:47:41.000Z</time>
      </trkpt>
      <trkpt lat="43.8615" lon="7.25258">
        <ele>689.40002441406</ele>
        <time>2018-06-20T06:47:44.000Z</time>
      </trkpt>
      <trkpt lat="43.86153" lon="7.25254">
        <ele>690.20001220703</ele>
        <time>2018-06-20T06:47:46.000Z</time>
      </trkpt>
      <trkpt lat="43.86156" lon="7.25246">
        <ele>691.40002441406</ele>
        <time>2018-06-20T06:47:49.000Z</time>
      </trkpt>
      <trkpt lat="43.86156" lon="7.25238">
        <ele>692.59997558594</ele>
        <time>2018-06-20T06:47:52.000Z</time>
      </trkpt>
      <trkpt lat="43.86156" lon="7.25229">
        <ele>692.79998779297</ele>
        <time>2018-06-20T06:47:55.000Z</time>
      </trkpt>
      <trkpt lat="43.86154" lon="7.25209">
        <ele>693</ele>
        <time>2018-06-20T06:48:01.000Z</time>
      </trkpt>
      <trkpt lat="43.86155" lon="7.25201">
        <ele>693.59997558594</ele>
        <time>2018-06-20T06:48:05.000Z</time>
      </trkpt>
      <trkpt lat="43.86157" lon="7.25192">
        <ele>694</ele>
        <time>2018-06-20T06:48:09.000Z</time>
      </trkpt>
      <trkpt lat="43.86158" lon="7.25177">
        <ele>694.59997558594</ele>
        <time>2018-06-20T06:48:16.000Z</time>
      </trkpt>
      <trkpt lat="43.86159" lon="7.25173">
        <ele>694.79998779297</ele>
        <time>2018-06-20T06:48:18.000Z</time>
      </trkpt>
      <trkpt lat="43.86159" lon="7.25154">
        <ele>695.59997558594</ele>
        <time>2018-06-20T06:48:27.000Z</time>
      </trkpt>
      <trkpt lat="43.8616" lon="7.25152">
        <ele>695.59997558594</ele>
        <time>2018-06-20T06:48:28.000Z</time>
      </trkpt>
      <trkpt lat="43.8616" lon="7.2513">
        <ele>696</ele>
        <time>2018-06-20T06:48:37.000Z</time>
      </trkpt>
      <trkpt lat="43.86158" lon="7.2511">
        <ele>696.20001220703</ele>
        <time>2018-06-20T06:48:44.000Z</time>
      </trkpt>
      <trkpt lat="43.86155" lon="7.251">
        <ele>696.79998779297</ele>
        <time>2018-06-20T06:48:48.000Z</time>
      </trkpt>
      <trkpt lat="43.86153" lon="7.2509">
        <ele>697</ele>
        <time>2018-06-20T06:48:52.000Z</time>
      </trkpt>
      <trkpt lat="43.86147" lon="7.25074">
        <ele>697.79998779297</ele>
        <time>2018-06-20T06:48:59.000Z</time>
      </trkpt>
      <trkpt lat="43.86145" lon="7.25066">
        <ele>698</ele>
        <time>2018-06-20T06:49:02.000Z</time>
      </trkpt>
      <trkpt lat="43.86138" lon="7.25051">
        <ele>698.59997558594</ele>
        <time>2018-06-20T06:49:09.000Z</time>
      </trkpt>
      <trkpt lat="43.86137" lon="7.25047">
        <ele>698.79998779297</ele>
        <time>2018-06-20T06:49:11.000Z</time>
      </trkpt>
      <trkpt lat="43.86133" lon="7.25034">
        <ele>700</ele>
        <time>2018-06-20T06:49:17.000Z</time>
      </trkpt>
      <trkpt lat="43.86131" lon="7.25029">
        <ele>700.40002441406</ele>
        <time>2018-06-20T06:49:19.000Z</time>
      </trkpt>
      <trkpt lat="43.86129" lon="7.25021">
        <ele>701</ele>
        <time>2018-06-20T06:49:23.000Z</time>
      </trkpt>
      <trkpt lat="43.86126" lon="7.2501">
        <ele>701.79998779297</ele>
        <time>2018-06-20T06:49:28.000Z</time>
      </trkpt>
      <trkpt lat="43.86125" lon="7.25007">
        <ele>702</ele>
        <time>2018-06-20T06:49:29.000Z</time>
      </trkpt>
      <trkpt lat="43.86123" lon="7.24993">
        <ele>703</ele>
        <time>2018-06-20T06:49:35.000Z</time>
      </trkpt>
      <trkpt lat="43.86122" lon="7.24983">
        <ele>703.59997558594</ele>
        <time>2018-06-20T06:49:39.000Z</time>
      </trkpt>
      <trkpt lat="43.86121" lon="7.24974">
        <ele>704.20001220703</ele>
        <time>2018-06-20T06:49:43.000Z</time>
      </trkpt>
      <trkpt lat="43.8612" lon="7.24966">
        <ele>705</ele>
        <time>2018-06-20T06:49:47.000Z</time>
      </trkpt>
      <trkpt lat="43.86119" lon="7.24963">
        <ele>705.20001220703</ele>
        <time>2018-06-20T06:49:48.000Z</time>
      </trkpt>
      <trkpt lat="43.86115" lon="7.24947">
        <ele>706</ele>
        <time>2018-06-20T06:49:55.000Z</time>
      </trkpt>
      <trkpt lat="43.86113" lon="7.24943">
        <ele>706.20001220703</ele>
        <time>2018-06-20T06:49:57.000Z</time>
      </trkpt>
      <trkpt lat="43.86107" lon="7.24925">
        <ele>707.40002441406</ele>
        <time>2018-06-20T06:50:05.000Z</time>
      </trkpt>
      <trkpt lat="43.86106" lon="7.24922">
        <ele>707.40002441406</ele>
        <time>2018-06-20T06:50:06.000Z</time>
      </trkpt>
      <trkpt lat="43.86103" lon="7.24901">
        <ele>708.20001220703</ele>
        <time>2018-06-20T06:50:14.000Z</time>
      </trkpt>
      <trkpt lat="43.86103" lon="7.24898">
        <ele>708.40002441406</ele>
        <time>2018-06-20T06:50:15.000Z</time>
      </trkpt>
      <trkpt lat="43.86102" lon="7.24884">
        <ele>708.79998779297</ele>
        <time>2018-06-20T06:50:21.000Z</time>
      </trkpt>
      <trkpt lat="43.86104" lon="7.24867">
        <ele>708.79998779297</ele>
        <time>2018-06-20T06:50:27.000Z</time>
      </trkpt>
      <trkpt lat="43.8611" lon="7.24852">
        <ele>708.79998779297</ele>
        <time>2018-06-20T06:50:33.000Z</time>
      </trkpt>
      <trkpt lat="43.86119" lon="7.24836">
        <ele>708.40002441406</ele>
        <time>2018-06-20T06:50:41.000Z</time>
      </trkpt>
      <trkpt lat="43.86125" lon="7.24817">
        <ele>707.40002441406</ele>
        <time>2018-06-20T06:50:48.000Z</time>
      </trkpt>
      <trkpt lat="43.86126" lon="7.24814">
        <ele>707.20001220703</ele>
        <time>2018-06-20T06:50:49.000Z</time>
      </trkpt>
      <trkpt lat="43.86129" lon="7.24799">
        <ele>706.20001220703</ele>
        <time>2018-06-20T06:50:53.000Z</time>
      </trkpt>
      <trkpt lat="43.86131" lon="7.24792">
        <ele>705.59997558594</ele>
        <time>2018-06-20T06:50:55.000Z</time>
      </trkpt>
      <trkpt lat="43.86135" lon="7.24782">
        <ele>705</ele>
        <time>2018-06-20T06:50:58.000Z</time>
      </trkpt>
      <trkpt lat="43.86141" lon="7.24768">
        <ele>704.40002441406</ele>
        <time>2018-06-20T06:51:02.000Z</time>
      </trkpt>
      <trkpt lat="43.86145" lon="7.2476">
        <ele>703.79998779297</ele>
        <time>2018-06-20T06:51:04.000Z</time>
      </trkpt>
      <trkpt lat="43.86154" lon="7.24734">
        <ele>702.79998779297</ele>
        <time>2018-06-20T06:51:10.000Z</time>
      </trkpt>
      <trkpt lat="43.86155" lon="7.2473">
        <ele>702.79998779297</ele>
        <time>2018-06-20T06:51:11.000Z</time>
      </trkpt>
      <trkpt lat="43.86165" lon="7.247">
        <ele>701.79998779297</ele>
        <time>2018-06-20T06:51:18.000Z</time>
      </trkpt>
      <trkpt lat="43.86167" lon="7.24695">
        <ele>701.59997558594</ele>
        <time>2018-06-20T06:51:19.000Z</time>
      </trkpt>
      <trkpt lat="43.86179" lon="7.24672">
        <ele>700.59997558594</ele>
        <time>2018-06-20T06:51:24.000Z</time>
      </trkpt>
      <trkpt lat="43.86192" lon="7.24654">
        <ele>700</ele>
        <time>2018-06-20T06:51:28.000Z</time>
      </trkpt>
      <trkpt lat="43.86199" lon="7.24646">
        <ele>699.79998779297</ele>
        <time>2018-06-20T06:51:30.000Z</time>
      </trkpt>
      <trkpt lat="43.86205" lon="7.24638">
        <ele>699.59997558594</ele>
        <time>2018-06-20T06:51:32.000Z</time>
      </trkpt>
      <trkpt lat="43.8621" lon="7.24625">
        <ele>699.59997558594</ele>
        <time>2018-06-20T06:51:35.000Z</time>
      </trkpt>
      <trkpt lat="43.8621" lon="7.24604">
        <ele>700</ele>
        <time>2018-06-20T06:51:40.000Z</time>
      </trkpt>
      <trkpt lat="43.86209" lon="7.24564">
        <ele>699.79998779297</ele>
        <time>2018-06-20T06:51:48.000Z</time>
      </trkpt>
      <trkpt lat="43.86207" lon="7.24529">
        <ele>699.79998779297</ele>
        <time>2018-06-20T06:51:55.000Z</time>
      </trkpt>
      <trkpt lat="43.86202" lon="7.245">
        <ele>700</ele>
        <time>2018-06-20T06:52:01.000Z</time>
      </trkpt>
      <trkpt lat="43.86192" lon="7.24469">
        <ele>699.20001220703</ele>
        <time>2018-06-20T06:52:08.000Z</time>
      </trkpt>
      <trkpt lat="43.8619" lon="7.24458">
        <ele>698.40002441406</ele>
        <time>2018-06-20T06:52:10.000Z</time>
      </trkpt>
      <trkpt lat="43.86189" lon="7.24438">
        <ele>697.40002441406</ele>
        <time>2018-06-20T06:52:14.000Z</time>
      </trkpt>
      <trkpt lat="43.86191" lon="7.24415">
        <ele>696.40002441406</ele>
        <time>2018-06-20T06:52:18.000Z</time>
      </trkpt>
      <trkpt lat="43.86192" lon="7.24409">
        <ele>696.40002441406</ele>
        <time>2018-06-20T06:52:19.000Z</time>
      </trkpt>
      <trkpt lat="43.86198" lon="7.2438">
        <ele>696</ele>
        <time>2018-06-20T06:52:25.000Z</time>
      </trkpt>
      <trkpt lat="43.86201" lon="7.2436">
        <ele>695.20001220703</ele>
        <time>2018-06-20T06:52:29.000Z</time>
      </trkpt>
      <trkpt lat="43.86201" lon="7.24348">
        <ele>694.59997558594</ele>
        <time>2018-06-20T06:52:31.000Z</time>
      </trkpt>
      <trkpt lat="43.86199" lon="7.24343">
        <ele>693.79998779297</ele>
        <time>2018-06-20T06:52:32.000Z</time>
      </trkpt>
      <trkpt lat="43.86197" lon="7.24328">
        <ele>692.20001220703</ele>
        <time>2018-06-20T06:52:34.000Z</time>
      </trkpt>
      <trkpt lat="43.86197" lon="7.24321">
        <ele>691.79998779297</ele>
        <time>2018-06-20T06:52:35.000Z</time>
      </trkpt>
      <trkpt lat="43.86198" lon="7.24313">
        <ele>691.59997558594</ele>
        <time>2018-06-20T06:52:36.000Z</time>
      </trkpt>
      <trkpt lat="43.86199" lon="7.24297">
        <ele>691</ele>
        <time>2018-06-20T06:52:38.000Z</time>
      </trkpt>
      <trkpt lat="43.86197" lon="7.24278">
        <ele>689.79998779297</ele>
        <time>2018-06-20T06:52:41.000Z</time>
      </trkpt>
      <trkpt lat="43.86192" lon="7.24265">
        <ele>688.40002441406</ele>
        <time>2018-06-20T06:52:44.000Z</time>
      </trkpt>
      <trkpt lat="43.86192" lon="7.24254">
        <ele>687.20001220703</ele>
        <time>2018-06-20T06:52:46.000Z</time>
      </trkpt>
      <trkpt lat="43.86197" lon="7.24231">
        <ele>686</ele>
        <time>2018-06-20T06:52:50.000Z</time>
      </trkpt>
      <trkpt lat="43.86198" lon="7.24225">
        <ele>685.79998779297</ele>
        <time>2018-06-20T06:52:51.000Z</time>
      </trkpt>
      <trkpt lat="43.86198" lon="7.24213">
        <ele>685.40002441406</ele>
        <time>2018-06-20T06:52:53.000Z</time>
      </trkpt>
      <trkpt lat="43.86199" lon="7.24194">
        <ele>685.59997558594</ele>
        <time>2018-06-20T06:52:56.000Z</time>
      </trkpt>
      <trkpt lat="43.862" lon="7.24187">
        <ele>686</ele>
        <time>2018-06-20T06:52:58.000Z</time>
      </trkpt>
      <trkpt lat="43.86201" lon="7.24182">
        <ele>686.20001220703</ele>
        <time>2018-06-20T06:53:00.000Z</time>
      </trkpt>
      <trkpt lat="43.86201" lon="7.24178">
        <ele>686.59997558594</ele>
        <time>2018-06-20T06:53:02.000Z</time>
      </trkpt>
      <trkpt lat="43.86198" lon="7.24168">
        <ele>686.79998779297</ele>
        <time>2018-06-20T06:53:06.000Z</time>
      </trkpt>
      <trkpt lat="43.86186" lon="7.24154">
        <ele>686.40002441406</ele>
        <time>2018-06-20T06:53:11.000Z</time>
      </trkpt>
      <trkpt lat="43.8617" lon="7.24138">
        <ele>686.59997558594</ele>
        <time>2018-06-20T06:53:18.000Z</time>
      </trkpt>
      <trkpt lat="43.86165" lon="7.24134">
        <ele>687.20001220703</ele>
        <time>2018-06-20T06:53:21.000Z</time>
      </trkpt>
      <trkpt lat="43.8616" lon="7.24131">
        <ele>688</ele>
        <time>2018-06-20T06:53:24.000Z</time>
      </trkpt>
      <trkpt lat="43.86157" lon="7.24128">
        <ele>688.40002441406</ele>
        <time>2018-06-20T06:53:26.000Z</time>
      </trkpt>
      <trkpt lat="43.86154" lon="7.24117">
        <ele>688.79998779297</ele>
        <time>2018-06-20T06:53:31.000Z</time>
      </trkpt>
      <trkpt lat="43.86153" lon="7.2411">
        <ele>689.59997558594</ele>
        <time>2018-06-20T06:53:34.000Z</time>
      </trkpt>
      <trkpt lat="43.86153" lon="7.24099">
        <ele>690</ele>
        <time>2018-06-20T06:53:38.000Z</time>
      </trkpt>
      <trkpt lat="43.86156" lon="7.24087">
        <ele>690.59997558594</ele>
        <time>2018-06-20T06:53:44.000Z</time>
      </trkpt>
      <trkpt lat="43.86158" lon="7.24081">
        <ele>690.79998779297</ele>
        <time>2018-06-20T06:53:47.000Z</time>
      </trkpt>
      <trkpt lat="43.86167" lon="7.24063">
        <ele>691.20001220703</ele>
        <time>2018-06-20T06:53:55.000Z</time>
      </trkpt>
      <trkpt lat="43.86171" lon="7.24057">
        <ele>691.59997558594</ele>
        <time>2018-06-20T06:53:58.000Z</time>
      </trkpt>
      <trkpt lat="43.86175" lon="7.24049">
        <ele>691.59997558594</ele>
        <time>2018-06-20T06:54:01.000Z</time>
      </trkpt>
      <trkpt lat="43.86185" lon="7.2403">
        <ele>691.20001220703</ele>
        <time>2018-06-20T06:54:08.000Z</time>
      </trkpt>
      <trkpt lat="43.86192" lon="7.24017">
        <ele>691</ele>
        <time>2018-06-20T06:54:14.000Z</time>
      </trkpt>
      <trkpt lat="43.86194" lon="7.24012">
        <ele>691.20001220703</ele>
        <time>2018-06-20T06:54:17.000Z</time>
      </trkpt>
      <trkpt lat="43.86194" lon="7.24012">
        <ele>691.20001220703</ele>
        <time>2018-06-20T06:54:19.000Z</time>
      </trkpt>
      <trkpt lat="43.86198" lon="7.24004">
        <ele>691.59997558594</ele>
        <time>2018-06-20T06:56:04.000Z</time>
      </trkpt>
      <trkpt lat="43.86198" lon="7.23988">
        <ele>691.59997558594</ele>
        <time>2018-06-20T06:56:11.000Z</time>
      </trkpt>
      <trkpt lat="43.86197" lon="7.23986">
        <ele>691.59997558594</ele>
        <time>2018-06-20T06:56:12.000Z</time>
      </trkpt>
      <trkpt lat="43.86195" lon="7.23971">
        <ele>691.40002441406</ele>
        <time>2018-06-20T06:56:18.000Z</time>
      </trkpt>
      <trkpt lat="43.86203" lon="7.23957">
        <ele>691.59997558594</ele>
        <time>2018-06-20T06:56:24.000Z</time>
      </trkpt>
      <trkpt lat="43.86215" lon="7.23944">
        <ele>692.20001220703</ele>
        <time>2018-06-20T06:56:31.000Z</time>
      </trkpt>
      <trkpt lat="43.86217" lon="7.23938">
        <ele>692.79998779297</ele>
        <time>2018-06-20T06:56:34.000Z</time>
      </trkpt>
      <trkpt lat="43.86217" lon="7.23929">
        <ele>693</ele>
        <time>2018-06-20T06:56:37.000Z</time>
      </trkpt>
      <trkpt lat="43.86221" lon="7.23913">
        <ele>693</ele>
        <time>2018-06-20T06:56:43.000Z</time>
      </trkpt>
      <trkpt lat="43.86232" lon="7.23899">
        <ele>692.59997558594</ele>
        <time>2018-06-20T06:56:49.000Z</time>
      </trkpt>
      <trkpt lat="43.8624" lon="7.23889">
        <ele>691.59997558594</ele>
        <time>2018-06-20T06:56:54.000Z</time>
      </trkpt>
      <trkpt lat="43.86241" lon="7.23887">
        <ele>691.79998779297</ele>
        <time>2018-06-20T06:56:55.000Z</time>
      </trkpt>
      <trkpt lat="43.86252" lon="7.23875">
        <ele>692.20001220703</ele>
        <time>2018-06-20T06:57:02.000Z</time>
      </trkpt>
      <trkpt lat="43.86265" lon="7.23865">
        <ele>692.59997558594</ele>
        <time>2018-06-20T06:57:09.000Z</time>
      </trkpt>
      <trkpt lat="43.86266" lon="7.23864">
        <ele>692.79998779297</ele>
        <time>2018-06-20T06:57:10.000Z</time>
      </trkpt>
      <trkpt lat="43.86279" lon="7.23853">
        <ele>693.59997558594</ele>
        <time>2018-06-20T06:57:17.000Z</time>
      </trkpt>
      <trkpt lat="43.86284" lon="7.23849">
        <ele>693.79998779297</ele>
        <time>2018-06-20T06:57:19.000Z</time>
      </trkpt>
      <trkpt lat="43.86299" lon="7.23838">
        <ele>693.79998779297</ele>
        <time>2018-06-20T06:57:25.000Z</time>
      </trkpt>
      <trkpt lat="43.86314" lon="7.23836">
        <ele>694</ele>
        <time>2018-06-20T06:57:30.000Z</time>
      </trkpt>
      <trkpt lat="43.86323" lon="7.23847">
        <ele>694.40002441406</ele>
        <time>2018-06-20T06:57:35.000Z</time>
      </trkpt>
      <trkpt lat="43.86324" lon="7.2385">
        <ele>694.40002441406</ele>
        <time>2018-06-20T06:57:36.000Z</time>
      </trkpt>
      <trkpt lat="43.86327" lon="7.23861">
        <ele>694.59997558594</ele>
        <time>2018-06-20T06:57:40.000Z</time>
      </trkpt>
      <trkpt lat="43.86328" lon="7.23864">
        <ele>694.59997558594</ele>
        <time>2018-06-20T06:57:41.000Z</time>
      </trkpt>
      <trkpt lat="43.8633" lon="7.23871">
        <ele>694.79998779297</ele>
        <time>2018-06-20T06:57:43.000Z</time>
      </trkpt>
      <trkpt lat="43.86334" lon="7.23884">
        <ele>694.79998779297</ele>
        <time>2018-06-20T06:57:47.000Z</time>
      </trkpt>
      <trkpt lat="43.86342" lon="7.23897">
        <ele>696</ele>
        <time>2018-06-20T06:57:53.000Z</time>
      </trkpt>
      <trkpt lat="43.86351" lon="7.23903">
        <ele>697</ele>
        <time>2018-06-20T06:57:58.000Z</time>
      </trkpt>
      <trkpt lat="43.86357" lon="7.23906">
        <ele>697.59997558594</ele>
        <time>2018-06-20T06:58:01.000Z</time>
      </trkpt>
      <trkpt lat="43.86361" lon="7.23907">
        <ele>698.20001220703</ele>
        <time>2018-06-20T06:58:03.000Z</time>
      </trkpt>
      <trkpt lat="43.86375" lon="7.23908">
        <ele>699</ele>
        <time>2018-06-20T06:58:09.000Z</time>
      </trkpt>
      <trkpt lat="43.86377" lon="7.23908">
        <ele>699.40002441406</ele>
        <time>2018-06-20T06:58:10.000Z</time>
      </trkpt>
      <trkpt lat="43.86387" lon="7.23909">
        <ele>700.59997558594</ele>
        <time>2018-06-20T06:58:14.000Z</time>
      </trkpt>
      <trkpt lat="43.86389" lon="7.23909">
        <ele>700.79998779297</ele>
        <time>2018-06-20T06:58:15.000Z</time>
      </trkpt>
      <trkpt lat="43.86396" lon="7.23913">
        <ele>701.59997558594</ele>
        <time>2018-06-20T06:58:18.000Z</time>
      </trkpt>
      <trkpt lat="43.86405" lon="7.23921">
        <ele>702</ele>
        <time>2018-06-20T06:58:23.000Z</time>
      </trkpt>
      <trkpt lat="43.86414" lon="7.23925">
        <ele>702.79998779297</ele>
        <time>2018-06-20T06:58:27.000Z</time>
      </trkpt>
      <trkpt lat="43.86422" lon="7.23925">
        <ele>703.40002441406</ele>
        <time>2018-06-20T06:58:30.000Z</time>
      </trkpt>
      <trkpt lat="43.86426" lon="7.23924">
        <ele>703.79998779297</ele>
        <time>2018-06-20T06:58:32.000Z</time>
      </trkpt>
      <trkpt lat="43.86438" lon="7.23923">
        <ele>705</ele>
        <time>2018-06-20T06:58:38.000Z</time>
      </trkpt>
      <trkpt lat="43.8644" lon="7.23923">
        <ele>705.20001220703</ele>
        <time>2018-06-20T06:58:39.000Z</time>
      </trkpt>
      <trkpt lat="43.86449" lon="7.23921">
        <ele>706.20001220703</ele>
        <time>2018-06-20T06:58:44.000Z</time>
      </trkpt>
      <trkpt lat="43.86454" lon="7.2392">
        <ele>706.79998779297</ele>
        <time>2018-06-20T06:58:47.000Z</time>
      </trkpt>
      <trkpt lat="43.86458" lon="7.23919">
        <ele>707.20001220703</ele>
        <time>2018-06-20T06:58:49.000Z</time>
      </trkpt>
      <trkpt lat="43.86468" lon="7.23918">
        <ele>708.40002441406</ele>
        <time>2018-06-20T06:58:55.000Z</time>
      </trkpt>
      <trkpt lat="43.86473" lon="7.23918">
        <ele>708.79998779297</ele>
        <time>2018-06-20T06:58:58.000Z</time>
      </trkpt>
      <trkpt lat="43.86487" lon="7.23917">
        <ele>709.40002441406</ele>
        <time>2018-06-20T06:59:04.000Z</time>
      </trkpt>
      <trkpt lat="43.86492" lon="7.23915">
        <ele>709.59997558594</ele>
        <time>2018-06-20T06:59:06.000Z</time>
      </trkpt>
      <trkpt lat="43.865" lon="7.23908">
        <ele>710.59997558594</ele>
        <time>2018-06-20T06:59:11.000Z</time>
      </trkpt>
      <trkpt lat="43.86501" lon="7.23906">
        <ele>711</ele>
        <time>2018-06-20T06:59:12.000Z</time>
      </trkpt>
      <trkpt lat="43.86506" lon="7.23895">
        <ele>711.59997558594</ele>
        <time>2018-06-20T06:59:17.000Z</time>
      </trkpt>
      <trkpt lat="43.86512" lon="7.23884">
        <ele>712</ele>
        <time>2018-06-20T06:59:22.000Z</time>
      </trkpt>
      <trkpt lat="43.86521" lon="7.23867">
        <ele>712.79998779297</ele>
        <time>2018-06-20T06:59:29.000Z</time>
      </trkpt>
      <trkpt lat="43.86531" lon="7.23855">
        <ele>713.79998779297</ele>
        <time>2018-06-20T06:59:36.000Z</time>
      </trkpt>
      <trkpt lat="43.86534" lon="7.23853">
        <ele>714.20001220703</ele>
        <time>2018-06-20T06:59:38.000Z</time>
      </trkpt>
      <trkpt lat="43.86539" lon="7.23849">
        <ele>714.79998779297</ele>
        <time>2018-06-20T06:59:41.000Z</time>
      </trkpt>
      <trkpt lat="43.86548" lon="7.23849">
        <ele>716</ele>
        <time>2018-06-20T06:59:46.000Z</time>
      </trkpt>
      <trkpt lat="43.86559" lon="7.23855">
        <ele>717.20001220703</ele>
        <time>2018-06-20T06:59:52.000Z</time>
      </trkpt>
      <trkpt lat="43.86563" lon="7.23857">
        <ele>717.59997558594</ele>
        <time>2018-06-20T06:59:54.000Z</time>
      </trkpt>
      <trkpt lat="43.86572" lon="7.23861">
        <ele>718.40002441406</ele>
        <time>2018-06-20T06:59:59.000Z</time>
      </trkpt>
      <trkpt lat="43.86577" lon="7.23863">
        <ele>718.79998779297</ele>
        <time>2018-06-20T07:00:02.000Z</time>
      </trkpt>
      <trkpt lat="43.86582" lon="7.23866">
        <ele>719.40002441406</ele>
        <time>2018-06-20T07:00:05.000Z</time>
      </trkpt>
      <trkpt lat="43.86593" lon="7.23872">
        <ele>720.40002441406</ele>
        <time>2018-06-20T07:00:11.000Z</time>
      </trkpt>
      <trkpt lat="43.86594" lon="7.23873">
        <ele>720.59997558594</ele>
        <time>2018-06-20T07:00:12.000Z</time>
      </trkpt>
      <trkpt lat="43.86601" lon="7.23877">
        <ele>721.40002441406</ele>
        <time>2018-06-20T07:00:16.000Z</time>
      </trkpt>
      <trkpt lat="43.86609" lon="7.23887">
        <ele>722.20001220703</ele>
        <time>2018-06-20T07:00:22.000Z</time>
      </trkpt>
      <trkpt lat="43.86612" lon="7.23891">
        <ele>722.59997558594</ele>
        <time>2018-06-20T07:00:24.000Z</time>
      </trkpt>
      <trkpt lat="43.8662" lon="7.23906">
        <ele>723.40002441406</ele>
        <time>2018-06-20T07:00:31.000Z</time>
      </trkpt>
      <trkpt lat="43.86622" lon="7.23912">
        <ele>723.79998779297</ele>
        <time>2018-06-20T07:00:34.000Z</time>
      </trkpt>
      <trkpt lat="43.86625" lon="7.23924">
        <ele>724.40002441406</ele>
        <time>2018-06-20T07:00:40.000Z</time>
      </trkpt>
      <trkpt lat="43.86628" lon="7.23933">
        <ele>724.79998779297</ele>
        <time>2018-06-20T07:00:44.000Z</time>
      </trkpt>
      <trkpt lat="43.86631" lon="7.23946">
        <ele>725.59997558594</ele>
        <time>2018-06-20T07:00:50.000Z</time>
      </trkpt>
      <trkpt lat="43.86636" lon="7.23959">
        <ele>726</ele>
        <time>2018-06-20T07:00:55.000Z</time>
      </trkpt>
      <trkpt lat="43.86638" lon="7.23964">
        <ele>726</ele>
        <time>2018-06-20T07:00:57.000Z</time>
      </trkpt>
      <trkpt lat="43.86646" lon="7.2398">
        <ele>727</ele>
        <time>2018-06-20T07:01:05.000Z</time>
      </trkpt>
      <trkpt lat="43.86648" lon="7.23984">
        <ele>727.40002441406</ele>
        <time>2018-06-20T07:01:07.000Z</time>
      </trkpt>
      <trkpt lat="43.86652" lon="7.23988">
        <ele>728</ele>
        <time>2018-06-20T07:01:10.000Z</time>
      </trkpt>
      <trkpt lat="43.8666" lon="7.23997">
        <ele>729.20001220703</ele>
        <time>2018-06-20T07:01:16.000Z</time>
      </trkpt>
      <trkpt lat="43.86668" lon="7.24002">
        <ele>730.20001220703</ele>
        <time>2018-06-20T07:01:21.000Z</time>
      </trkpt>
      <trkpt lat="43.86674" lon="7.24007">
        <ele>731</ele>
        <time>2018-06-20T07:01:25.000Z</time>
      </trkpt>
      <trkpt lat="43.86677" lon="7.2401">
        <ele>731.40002441406</ele>
        <time>2018-06-20T07:01:27.000Z</time>
      </trkpt>
      <trkpt lat="43.86683" lon="7.24023">
        <ele>732</ele>
        <time>2018-06-20T07:01:33.000Z</time>
      </trkpt>
      <trkpt lat="43.86685" lon="7.24028">
        <ele>732.40002441406</ele>
        <time>2018-06-20T07:01:35.000Z</time>
      </trkpt>
      <trkpt lat="43.86687" lon="7.24042">
        <ele>733.20001220703</ele>
        <time>2018-06-20T07:01:40.000Z</time>
      </trkpt>
      <trkpt lat="43.86687" lon="7.24044">
        <ele>733.40002441406</ele>
        <time>2018-06-20T07:01:41.000Z</time>
      </trkpt>
      <trkpt lat="43.86685" lon="7.24058">
        <ele>734.59997558594</ele>
        <time>2018-06-20T07:01:46.000Z</time>
      </trkpt>
      <trkpt lat="43.86683" lon="7.24064">
        <ele>735.20001220703</ele>
        <time>2018-06-20T07:01:48.000Z</time>
      </trkpt>
      <trkpt lat="43.86679" lon="7.24074">
        <ele>735.59997558594</ele>
        <time>2018-06-20T07:01:52.000Z</time>
      </trkpt>
      <trkpt lat="43.86675" lon="7.24082">
        <ele>736.40002441406</ele>
        <time>2018-06-20T07:01:56.000Z</time>
      </trkpt>
      <trkpt lat="43.86673" lon="7.24088">
        <ele>737</ele>
        <time>2018-06-20T07:01:59.000Z</time>
      </trkpt>
      <trkpt lat="43.86671" lon="7.24097">
        <ele>738.20001220703</ele>
        <time>2018-06-20T07:02:03.000Z</time>
      </trkpt>
      <trkpt lat="43.8667" lon="7.24099">
        <ele>738.40002441406</ele>
        <time>2018-06-20T07:02:04.000Z</time>
      </trkpt>
      <trkpt lat="43.86663" lon="7.24111">
        <ele>739.20001220703</ele>
        <time>2018-06-20T07:02:11.000Z</time>
      </trkpt>
      <trkpt lat="43.86659" lon="7.24115">
        <ele>739.40002441406</ele>
        <time>2018-06-20T07:02:14.000Z</time>
      </trkpt>
      <trkpt lat="43.86647" lon="7.24125">
        <ele>739.79998779297</ele>
        <time>2018-06-20T07:02:22.000Z</time>
      </trkpt>
      <trkpt lat="43.86637" lon="7.24134">
        <ele>739.79998779297</ele>
        <time>2018-06-20T07:02:30.000Z</time>
      </trkpt>
      <trkpt lat="43.86631" lon="7.24142">
        <ele>740</ele>
        <time>2018-06-20T07:02:36.000Z</time>
      </trkpt>
      <trkpt lat="43.86629" lon="7.24144">
        <ele>740.20001220703</ele>
        <time>2018-06-20T07:02:37.000Z</time>
      </trkpt>
      <trkpt lat="43.86615" lon="7.24153">
        <ele>741.40002441406</ele>
        <time>2018-06-20T07:02:44.000Z</time>
      </trkpt>
      <trkpt lat="43.86613" lon="7.24153">
        <ele>741.40002441406</ele>
        <time>2018-06-20T07:02:45.000Z</time>
      </trkpt>
      <trkpt lat="43.86601" lon="7.24161">
        <ele>742.40002441406</ele>
        <time>2018-06-20T07:02:52.000Z</time>
      </trkpt>
      <trkpt lat="43.86599" lon="7.24162">
        <ele>742.59997558594</ele>
        <time>2018-06-20T07:02:53.000Z</time>
      </trkpt>
      <trkpt lat="43.86593" lon="7.24168">
        <ele>743.59997558594</ele>
        <time>2018-06-20T07:02:57.000Z</time>
      </trkpt>
      <trkpt lat="43.86585" lon="7.24174">
        <ele>744.79998779297</ele>
        <time>2018-06-20T07:03:02.000Z</time>
      </trkpt>
      <trkpt lat="43.8657" lon="7.24179">
        <ele>745.79998779297</ele>
        <time>2018-06-20T07:03:09.000Z</time>
      </trkpt>
      <trkpt lat="43.86568" lon="7.2418">
        <ele>745.79998779297</ele>
        <time>2018-06-20T07:03:10.000Z</time>
      </trkpt>
      <trkpt lat="43.86556" lon="7.24185">
        <ele>746.79998779297</ele>
        <time>2018-06-20T07:03:16.000Z</time>
      </trkpt>
      <trkpt lat="43.86551" lon="7.24187">
        <ele>747.40002441406</ele>
        <time>2018-06-20T07:03:19.000Z</time>
      </trkpt>
      <trkpt lat="43.86547" lon="7.24189">
        <ele>747.79998779297</ele>
        <time>2018-06-20T07:03:21.000Z</time>
      </trkpt>
      <trkpt lat="43.8654" lon="7.24193">
        <ele>749</ele>
        <time>2018-06-20T07:03:26.000Z</time>
      </trkpt>
      <trkpt lat="43.86537" lon="7.24194">
        <ele>749.40002441406</ele>
        <time>2018-06-20T07:03:28.000Z</time>
      </trkpt>
      <trkpt lat="43.86531" lon="7.24196">
        <ele>750</ele>
        <time>2018-06-20T07:03:32.000Z</time>
      </trkpt>
      <trkpt lat="43.86522" lon="7.24197">
        <ele>751</ele>
        <time>2018-06-20T07:03:37.000Z</time>
      </trkpt>
      <trkpt lat="43.8652" lon="7.24198">
        <ele>751.20001220703</ele>
        <time>2018-06-20T07:03:38.000Z</time>
      </trkpt>
      <trkpt lat="43.86509" lon="7.24199">
        <ele>752.20001220703</ele>
        <time>2018-06-20T07:03:44.000Z</time>
      </trkpt>
      <trkpt lat="43.86503" lon="7.24201">
        <ele>752.79998779297</ele>
        <time>2018-06-20T07:03:48.000Z</time>
      </trkpt>
      <trkpt lat="43.86499" lon="7.24202">
        <ele>753.40002441406</ele>
        <time>2018-06-20T07:03:50.000Z</time>
      </trkpt>
      <trkpt lat="43.8649" lon="7.24206">
        <ele>754.40002441406</ele>
        <time>2018-06-20T07:03:56.000Z</time>
      </trkpt>
      <trkpt lat="43.86479" lon="7.24217">
        <ele>755.40002441406</ele>
        <time>2018-06-20T07:04:03.000Z</time>
      </trkpt>
      <trkpt lat="43.86478" lon="7.24219">
        <ele>755.59997558594</ele>
        <time>2018-06-20T07:04:04.000Z</time>
      </trkpt>
      <trkpt lat="43.86472" lon="7.24231">
        <ele>756.40002441406</ele>
        <time>2018-06-20T07:04:10.000Z</time>
      </trkpt>
      <trkpt lat="43.86468" lon="7.24237">
        <ele>757</ele>
        <time>2018-06-20T07:04:13.000Z</time>
      </trkpt>
      <trkpt lat="43.86465" lon="7.24243">
        <ele>757.59997558594</ele>
        <time>2018-06-20T07:04:16.000Z</time>
      </trkpt>
      <trkpt lat="43.86456" lon="7.24257">
        <ele>758.59997558594</ele>
        <time>2018-06-20T07:04:23.000Z</time>
      </trkpt>
      <trkpt lat="43.86454" lon="7.24259">
        <ele>758.79998779297</ele>
        <time>2018-06-20T07:04:24.000Z</time>
      </trkpt>
      <trkpt lat="43.8645" lon="7.24269">
        <ele>760</ele>
        <time>2018-06-20T07:04:29.000Z</time>
      </trkpt>
      <trkpt lat="43.8645" lon="7.24271">
        <ele>760.20001220703</ele>
        <time>2018-06-20T07:04:30.000Z</time>
      </trkpt>
      <trkpt lat="43.86446" lon="7.24283">
        <ele>761</ele>
        <time>2018-06-20T07:04:35.000Z</time>
      </trkpt>
      <trkpt lat="43.86444" lon="7.24293">
        <ele>761.79998779297</ele>
        <time>2018-06-20T07:04:39.000Z</time>
      </trkpt>
      <trkpt lat="43.86443" lon="7.24297">
        <ele>762.20001220703</ele>
        <time>2018-06-20T07:04:41.000Z</time>
      </trkpt>
      <trkpt lat="43.86441" lon="7.24309">
        <ele>763.40002441406</ele>
        <time>2018-06-20T07:04:46.000Z</time>
      </trkpt>
      <trkpt lat="43.8644" lon="7.24313">
        <ele>764</ele>
        <time>2018-06-20T07:04:48.000Z</time>
      </trkpt>
      <trkpt lat="43.86438" lon="7.24322">
        <ele>764.59997558594</ele>
        <time>2018-06-20T07:04:52.000Z</time>
      </trkpt>
      <trkpt lat="43.86436" lon="7.2433">
        <ele>765.59997558594</ele>
        <time>2018-06-20T07:04:56.000Z</time>
      </trkpt>
      <trkpt lat="43.86435" lon="7.24332">
        <ele>765.79998779297</ele>
        <time>2018-06-20T07:04:57.000Z</time>
      </trkpt>
      <trkpt lat="43.8643" lon="7.2434">
        <ele>767</ele>
        <time>2018-06-20T07:05:02.000Z</time>
      </trkpt>
      <trkpt lat="43.86425" lon="7.24349">
        <ele>768.20001220703</ele>
        <time>2018-06-20T07:05:07.000Z</time>
      </trkpt>
      <trkpt lat="43.86423" lon="7.24351">
        <ele>768.40002441406</ele>
        <time>2018-06-20T07:05:08.000Z</time>
      </trkpt>
      <trkpt lat="43.86412" lon="7.24367">
        <ele>769.20001220703</ele>
        <time>2018-06-20T07:05:16.000Z</time>
      </trkpt>
      <trkpt lat="43.86404" lon="7.24384">
        <ele>770</ele>
        <time>2018-06-20T07:05:24.000Z</time>
      </trkpt>
      <trkpt lat="43.86403" lon="7.24388">
        <ele>770.40002441406</ele>
        <time>2018-06-20T07:05:26.000Z</time>
      </trkpt>
      <trkpt lat="43.864" lon="7.24399">
        <ele>771.40002441406</ele>
        <time>2018-06-20T07:05:31.000Z</time>
      </trkpt>
      <trkpt lat="43.86399" lon="7.24402">
        <ele>771.59997558594</ele>
        <time>2018-06-20T07:05:32.000Z</time>
      </trkpt>
      <trkpt lat="43.86397" lon="7.24414">
        <ele>772.79998779297</ele>
        <time>2018-06-20T07:05:37.000Z</time>
      </trkpt>
      <trkpt lat="43.86397" lon="7.24417">
        <ele>773.20001220703</ele>
        <time>2018-06-20T07:05:38.000Z</time>
      </trkpt>
      <trkpt lat="43.86396" lon="7.24424">
        <ele>773.79998779297</ele>
        <time>2018-06-20T07:05:41.000Z</time>
      </trkpt>
      <trkpt lat="43.86396" lon="7.24435">
        <ele>774.59997558594</ele>
        <time>2018-06-20T07:05:45.000Z</time>
      </trkpt>
      <trkpt lat="43.86397" lon="7.24439">
        <ele>775</ele>
        <time>2018-06-20T07:05:47.000Z</time>
      </trkpt>
      <trkpt lat="43.86399" lon="7.24451">
        <ele>776.20001220703</ele>
        <time>2018-06-20T07:05:52.000Z</time>
      </trkpt>
      <trkpt lat="43.864" lon="7.24456">
        <ele>776.59997558594</ele>
        <time>2018-06-20T07:05:54.000Z</time>
      </trkpt>
      <trkpt lat="43.86403" lon="7.24465">
        <ele>777.40002441406</ele>
        <time>2018-06-20T07:05:58.000Z</time>
      </trkpt>
      <trkpt lat="43.86408" lon="7.24484">
        <ele>778</ele>
        <time>2018-06-20T07:06:06.000Z</time>
      </trkpt>
      <trkpt lat="43.86414" lon="7.24502">
        <ele>778.59997558594</ele>
        <time>2018-06-20T07:06:14.000Z</time>
      </trkpt>
      <trkpt lat="43.86415" lon="7.24505">
        <ele>778.59997558594</ele>
        <time>2018-06-20T07:06:15.000Z</time>
      </trkpt>
      <trkpt lat="43.86421" lon="7.24521">
        <ele>779.79998779297</ele>
        <time>2018-06-20T07:06:23.000Z</time>
      </trkpt>
      <trkpt lat="43.86422" lon="7.24524">
        <ele>780</ele>
        <time>2018-06-20T07:06:24.000Z</time>
      </trkpt>
      <trkpt lat="43.86426" lon="7.24531">
        <ele>780.79998779297</ele>
        <time>2018-06-20T07:06:28.000Z</time>
      </trkpt>
      <trkpt lat="43.86431" lon="7.2454">
        <ele>782</ele>
        <time>2018-06-20T07:06:33.000Z</time>
      </trkpt>
      <trkpt lat="43.8644" lon="7.24557">
        <ele>783</ele>
        <time>2018-06-20T07:06:42.000Z</time>
      </trkpt>
      <trkpt lat="43.86443" lon="7.24568">
        <ele>784</ele>
        <time>2018-06-20T07:06:46.000Z</time>
      </trkpt>
      <trkpt lat="43.86445" lon="7.24579">
        <ele>785.40002441406</ele>
        <time>2018-06-20T07:06:50.000Z</time>
      </trkpt>
      <trkpt lat="43.86446" lon="7.24589">
        <ele>786.40002441406</ele>
        <time>2018-06-20T07:06:54.000Z</time>
      </trkpt>
      <trkpt lat="43.86446" lon="7.24595">
        <ele>786.79998779297</ele>
        <time>2018-06-20T07:06:56.000Z</time>
      </trkpt>
      <trkpt lat="43.86446" lon="7.246">
        <ele>787.59997558594</ele>
        <time>2018-06-20T07:06:58.000Z</time>
      </trkpt>
      <trkpt lat="43.86444" lon="7.24612">
        <ele>788.59997558594</ele>
        <time>2018-06-20T07:07:02.000Z</time>
      </trkpt>
      <trkpt lat="43.86444" lon="7.24618">
        <ele>789</ele>
        <time>2018-06-20T07:07:04.000Z</time>
      </trkpt>
      <trkpt lat="43.86442" lon="7.24629">
        <ele>789.79998779297</ele>
        <time>2018-06-20T07:07:08.000Z</time>
      </trkpt>
      <trkpt lat="43.86442" lon="7.24637">
        <ele>790.20001220703</ele>
        <time>2018-06-20T07:07:11.000Z</time>
      </trkpt>
      <trkpt lat="43.8644" lon="7.24645">
        <ele>791</ele>
        <time>2018-06-20T07:07:14.000Z</time>
      </trkpt>
      <trkpt lat="43.86437" lon="7.24655">
        <ele>792</ele>
        <time>2018-06-20T07:07:18.000Z</time>
      </trkpt>
      <trkpt lat="43.86437" lon="7.24657">
        <ele>792.20001220703</ele>
        <time>2018-06-20T07:07:19.000Z</time>
      </trkpt>
      <trkpt lat="43.86434" lon="7.24669">
        <ele>793.20001220703</ele>
        <time>2018-06-20T07:07:24.000Z</time>
      </trkpt>
      <trkpt lat="43.86432" lon="7.24674">
        <ele>793.59997558594</ele>
        <time>2018-06-20T07:07:26.000Z</time>
      </trkpt>
      <trkpt lat="43.86429" lon="7.24683">
        <ele>794.20001220703</ele>
        <time>2018-06-20T07:07:30.000Z</time>
      </trkpt>
      <trkpt lat="43.86427" lon="7.24692">
        <ele>794.79998779297</ele>
        <time>2018-06-20T07:07:34.000Z</time>
      </trkpt>
      <trkpt lat="43.86425" lon="7.24698">
        <ele>795.40002441406</ele>
        <time>2018-06-20T07:07:37.000Z</time>
      </trkpt>
      <trkpt lat="43.86421" lon="7.24711">
        <ele>796.40002441406</ele>
        <time>2018-06-20T07:07:43.000Z</time>
      </trkpt>
      <trkpt lat="43.86416" lon="7.24725">
        <ele>797.40002441406</ele>
        <time>2018-06-20T07:07:49.000Z</time>
      </trkpt>
      <trkpt lat="43.86415" lon="7.24728">
        <ele>797.59997558594</ele>
        <time>2018-06-20T07:07:50.000Z</time>
      </trkpt>
      <trkpt lat="43.86411" lon="7.24741">
        <ele>798.59997558594</ele>
        <time>2018-06-20T07:07:56.000Z</time>
      </trkpt>
      <trkpt lat="43.86407" lon="7.24753">
        <ele>799.59997558594</ele>
        <time>2018-06-20T07:08:01.000Z</time>
      </trkpt>
      <trkpt lat="43.86406" lon="7.24756">
        <ele>800</ele>
        <time>2018-06-20T07:08:02.000Z</time>
      </trkpt>
      <trkpt lat="43.86403" lon="7.24768">
        <ele>800.59997558594</ele>
        <time>2018-06-20T07:08:07.000Z</time>
      </trkpt>
      <trkpt lat="43.86401" lon="7.24775">
        <ele>801</ele>
        <time>2018-06-20T07:08:10.000Z</time>
      </trkpt>
      <trkpt lat="43.86397" lon="7.24786">
        <ele>801.79998779297</ele>
        <time>2018-06-20T07:08:14.000Z</time>
      </trkpt>
      <trkpt lat="43.86395" lon="7.24796">
        <ele>802.79998779297</ele>
        <time>2018-06-20T07:08:18.000Z</time>
      </trkpt>
      <trkpt lat="43.86394" lon="7.24799">
        <ele>803</ele>
        <time>2018-06-20T07:08:19.000Z</time>
      </trkpt>
      <trkpt lat="43.8639" lon="7.24815">
        <ele>804</ele>
        <time>2018-06-20T07:08:25.000Z</time>
      </trkpt>
      <trkpt lat="43.86389" lon="7.24817">
        <ele>804.20001220703</ele>
        <time>2018-06-20T07:08:26.000Z</time>
      </trkpt>
      <trkpt lat="43.86386" lon="7.24829">
        <ele>805</ele>
        <time>2018-06-20T07:08:31.000Z</time>
      </trkpt>
      <trkpt lat="43.86384" lon="7.24837">
        <ele>805.59997558594</ele>
        <time>2018-06-20T07:08:34.000Z</time>
      </trkpt>
      <trkpt lat="43.86381" lon="7.24848">
        <ele>806.20001220703</ele>
        <time>2018-06-20T07:08:38.000Z</time>
      </trkpt>
      <trkpt lat="43.86376" lon="7.24863">
        <ele>807.40002441406</ele>
        <time>2018-06-20T07:08:44.000Z</time>
      </trkpt>
      <trkpt lat="43.86376" lon="7.24865">
        <ele>807.59997558594</ele>
        <time>2018-06-20T07:08:45.000Z</time>
      </trkpt>
      <trkpt lat="43.86374" lon="7.24875">
        <ele>808.40002441406</ele>
        <time>2018-06-20T07:08:49.000Z</time>
      </trkpt>
      <trkpt lat="43.86372" lon="7.24891">
        <ele>809.40002441406</ele>
        <time>2018-06-20T07:08:55.000Z</time>
      </trkpt>
      <trkpt lat="43.8637" lon="7.24906">
        <ele>810.59997558594</ele>
        <time>2018-06-20T07:09:01.000Z</time>
      </trkpt>
      <trkpt lat="43.86369" lon="7.24914">
        <ele>811</ele>
        <time>2018-06-20T07:09:04.000Z</time>
      </trkpt>
      <trkpt lat="43.86368" lon="7.24923">
        <ele>811.59997558594</ele>
        <time>2018-06-20T07:09:07.000Z</time>
      </trkpt>
      <trkpt lat="43.86367" lon="7.24936">
        <ele>812.79998779297</ele>
        <time>2018-06-20T07:09:12.000Z</time>
      </trkpt>
      <trkpt lat="43.86367" lon="7.24941">
        <ele>813.20001220703</ele>
        <time>2018-06-20T07:09:14.000Z</time>
      </trkpt>
      <trkpt lat="43.86367" lon="7.24949">
        <ele>813.79998779297</ele>
        <time>2018-06-20T07:09:17.000Z</time>
      </trkpt>
      <trkpt lat="43.86366" lon="7.24963">
        <ele>814.79998779297</ele>
        <time>2018-06-20T07:09:22.000Z</time>
      </trkpt>
      <trkpt lat="43.86366" lon="7.24965">
        <ele>815</ele>
        <time>2018-06-20T07:09:23.000Z</time>
      </trkpt>
      <trkpt lat="43.86366" lon="7.24982">
        <ele>816</ele>
        <time>2018-06-20T07:09:29.000Z</time>
      </trkpt>
      <trkpt lat="43.86367" lon="7.24988">
        <ele>816.40002441406</ele>
        <time>2018-06-20T07:09:31.000Z</time>
      </trkpt>
      <trkpt lat="43.86367" lon="7.24996">
        <ele>817.20001220703</ele>
        <time>2018-06-20T07:09:34.000Z</time>
      </trkpt>
      <trkpt lat="43.86369" lon="7.25011">
        <ele>818.20001220703</ele>
        <time>2018-06-20T07:09:40.000Z</time>
      </trkpt>
      <trkpt lat="43.86369" lon="7.25014">
        <ele>818.20001220703</ele>
        <time>2018-06-20T07:09:41.000Z</time>
      </trkpt>
      <trkpt lat="43.86371" lon="7.25029">
        <ele>819.20001220703</ele>
        <time>2018-06-20T07:09:47.000Z</time>
      </trkpt>
      <trkpt lat="43.86374" lon="7.25041">
        <ele>820.20001220703</ele>
        <time>2018-06-20T07:09:52.000Z</time>
      </trkpt>
      <trkpt lat="43.86375" lon="7.25044">
        <ele>820.40002441406</ele>
        <time>2018-06-20T07:09:53.000Z</time>
      </trkpt>
      <trkpt lat="43.86377" lon="7.25054">
        <ele>821.40002441406</ele>
        <time>2018-06-20T07:09:57.000Z</time>
      </trkpt>
      <trkpt lat="43.86378" lon="7.25061">
        <ele>822</ele>
        <time>2018-06-20T07:10:00.000Z</time>
      </trkpt>
      <trkpt lat="43.8638" lon="7.25066">
        <ele>822.59997558594</ele>
        <time>2018-06-20T07:10:02.000Z</time>
      </trkpt>
      <trkpt lat="43.86383" lon="7.25081">
        <ele>823.59997558594</ele>
        <time>2018-06-20T07:10:08.000Z</time>
      </trkpt>
      <trkpt lat="43.86389" lon="7.25098">
        <ele>824.59997558594</ele>
        <time>2018-06-20T07:10:15.000Z</time>
      </trkpt>
      <trkpt lat="43.86391" lon="7.25105">
        <ele>825.20001220703</ele>
        <time>2018-06-20T07:10:18.000Z</time>
      </trkpt>
      <trkpt lat="43.86393" lon="7.25112">
        <ele>825.59997558594</ele>
        <time>2018-06-20T07:10:21.000Z</time>
      </trkpt>
      <trkpt lat="43.86397" lon="7.25124">
        <ele>826.59997558594</ele>
        <time>2018-06-20T07:10:26.000Z</time>
      </trkpt>
      <trkpt lat="43.86397" lon="7.25126">
        <ele>826.59997558594</ele>
        <time>2018-06-20T07:10:27.000Z</time>
      </trkpt>
      <trkpt lat="43.86402" lon="7.25142">
        <ele>827.59997558594</ele>
        <time>2018-06-20T07:10:34.000Z</time>
      </trkpt>
      <trkpt lat="43.86403" lon="7.25145">
        <ele>827.79998779297</ele>
        <time>2018-06-20T07:10:35.000Z</time>
      </trkpt>
      <trkpt lat="43.86405" lon="7.25156">
        <ele>828.79998779297</ele>
        <time>2018-06-20T07:10:40.000Z</time>
      </trkpt>
      <trkpt lat="43.86407" lon="7.25163">
        <ele>829.20001220703</ele>
        <time>2018-06-20T07:10:43.000Z</time>
      </trkpt>
      <trkpt lat="43.8641" lon="7.25172">
        <ele>830</ele>
        <time>2018-06-20T07:10:47.000Z</time>
      </trkpt>
      <trkpt lat="43.86411" lon="7.25179">
        <ele>830.79998779297</ele>
        <time>2018-06-20T07:10:50.000Z</time>
      </trkpt>
      <trkpt lat="43.86413" lon="7.25184">
        <ele>831</ele>
        <time>2018-06-20T07:10:52.000Z</time>
      </trkpt>
      <trkpt lat="43.86416" lon="7.25195">
        <ele>832.20001220703</ele>
        <time>2018-06-20T07:10:57.000Z</time>
      </trkpt>
      <trkpt lat="43.86418" lon="7.252">
        <ele>832.59997558594</ele>
        <time>2018-06-20T07:10:59.000Z</time>
      </trkpt>
      <trkpt lat="43.8642" lon="7.2521">
        <ele>833.40002441406</ele>
        <time>2018-06-20T07:11:03.000Z</time>
      </trkpt>
      <trkpt lat="43.86422" lon="7.25218">
        <ele>834</ele>
        <time>2018-06-20T07:11:06.000Z</time>
      </trkpt>
      <trkpt lat="43.86424" lon="7.25225">
        <ele>834.40002441406</ele>
        <time>2018-06-20T07:11:09.000Z</time>
      </trkpt>
      <trkpt lat="43.86427" lon="7.25237">
        <ele>835.40002441406</ele>
        <time>2018-06-20T07:11:14.000Z</time>
      </trkpt>
      <trkpt lat="43.86427" lon="7.25239">
        <ele>835.40002441406</ele>
        <time>2018-06-20T07:11:15.000Z</time>
      </trkpt>
      <trkpt lat="43.86431" lon="7.25256">
        <ele>836.20001220703</ele>
        <time>2018-06-20T07:11:22.000Z</time>
      </trkpt>
      <trkpt lat="43.86432" lon="7.25264">
        <ele>836.40002441406</ele>
        <time>2018-06-20T07:11:25.000Z</time>
      </trkpt>
      <trkpt lat="43.86435" lon="7.25275">
        <ele>836.79998779297</ele>
        <time>2018-06-20T07:11:30.000Z</time>
      </trkpt>
      <trkpt lat="43.86438" lon="7.25292">
        <ele>837.59997558594</ele>
        <time>2018-06-20T07:11:37.000Z</time>
      </trkpt>
      <trkpt lat="43.86439" lon="7.25295">
        <ele>837.59997558594</ele>
        <time>2018-06-20T07:11:38.000Z</time>
      </trkpt>
      <trkpt lat="43.86442" lon="7.2531">
        <ele>838.59997558594</ele>
        <time>2018-06-20T07:11:44.000Z</time>
      </trkpt>
      <trkpt lat="43.86442" lon="7.25312">
        <ele>838.79998779297</ele>
        <time>2018-06-20T07:11:45.000Z</time>
      </trkpt>
      <trkpt lat="43.86444" lon="7.25322">
        <ele>839.79998779297</ele>
        <time>2018-06-20T07:11:49.000Z</time>
      </trkpt>
      <trkpt lat="43.86446" lon="7.25332">
        <ele>840.40002441406</ele>
        <time>2018-06-20T07:11:53.000Z</time>
      </trkpt>
      <trkpt lat="43.86446" lon="7.25337">
        <ele>840.79998779297</ele>
        <time>2018-06-20T07:11:55.000Z</time>
      </trkpt>
      <trkpt lat="43.8645" lon="7.25354">
        <ele>842</ele>
        <time>2018-06-20T07:12:02.000Z</time>
      </trkpt>
      <trkpt lat="43.86454" lon="7.25369">
        <ele>843.20001220703</ele>
        <time>2018-06-20T07:12:09.000Z</time>
      </trkpt>
      <trkpt lat="43.86455" lon="7.25372">
        <ele>843.40002441406</ele>
        <time>2018-06-20T07:12:10.000Z</time>
      </trkpt>
      <trkpt lat="43.86457" lon="7.25387">
        <ele>844.40002441406</ele>
        <time>2018-06-20T07:12:16.000Z</time>
      </trkpt>
      <trkpt lat="43.86457" lon="7.25392">
        <ele>844.59997558594</ele>
        <time>2018-06-20T07:12:18.000Z</time>
      </trkpt>
      <trkpt lat="43.86457" lon="7.25405">
        <ele>845.40002441406</ele>
        <time>2018-06-20T07:12:23.000Z</time>
      </trkpt>
      <trkpt lat="43.86458" lon="7.25415">
        <ele>846</ele>
        <time>2018-06-20T07:12:27.000Z</time>
      </trkpt>
      <trkpt lat="43.86462" lon="7.25434">
        <ele>846.20001220703</ele>
        <time>2018-06-20T07:12:34.000Z</time>
      </trkpt>
      <trkpt lat="43.86463" lon="7.25436">
        <ele>846.59997558594</ele>
        <time>2018-06-20T07:12:35.000Z</time>
      </trkpt>
      <trkpt lat="43.86466" lon="7.25445">
        <ele>847.59997558594</ele>
        <time>2018-06-20T07:12:39.000Z</time>
      </trkpt>
      <trkpt lat="43.86468" lon="7.25453">
        <ele>848.20001220703</ele>
        <time>2018-06-20T07:12:42.000Z</time>
      </trkpt>
      <trkpt lat="43.8647" lon="7.25458">
        <ele>848.59997558594</ele>
        <time>2018-06-20T07:12:44.000Z</time>
      </trkpt>
      <trkpt lat="43.86472" lon="7.25469">
        <ele>849.59997558594</ele>
        <time>2018-06-20T07:12:49.000Z</time>
      </trkpt>
      <trkpt lat="43.86472" lon="7.25472">
        <ele>849.79998779297</ele>
        <time>2018-06-20T07:12:50.000Z</time>
      </trkpt>
      <trkpt lat="43.86476" lon="7.2549">
        <ele>851</ele>
        <time>2018-06-20T07:12:57.000Z</time>
      </trkpt>
      <trkpt lat="43.86477" lon="7.25502">
        <ele>852</ele>
        <time>2018-06-20T07:13:02.000Z</time>
      </trkpt>
      <trkpt lat="43.86479" lon="7.2551">
        <ele>852.40002441406</ele>
        <time>2018-06-20T07:13:05.000Z</time>
      </trkpt>
      <trkpt lat="43.8648" lon="7.25518">
        <ele>853</ele>
        <time>2018-06-20T07:13:08.000Z</time>
      </trkpt>
      <trkpt lat="43.86482" lon="7.2553">
        <ele>853.79998779297</ele>
        <time>2018-06-20T07:13:13.000Z</time>
      </trkpt>
      <trkpt lat="43.86483" lon="7.25535">
        <ele>854.20001220703</ele>
        <time>2018-06-20T07:13:15.000Z</time>
      </trkpt>
      <trkpt lat="43.86486" lon="7.25549">
        <ele>854.40002441406</ele>
        <time>2018-06-20T07:13:21.000Z</time>
      </trkpt>
      <trkpt lat="43.86491" lon="7.25564">
        <ele>855.20001220703</ele>
        <time>2018-06-20T07:13:28.000Z</time>
      </trkpt>
      <trkpt lat="43.86492" lon="7.25569">
        <ele>855.59997558594</ele>
        <time>2018-06-20T07:13:30.000Z</time>
      </trkpt>
      <trkpt lat="43.86496" lon="7.2558">
        <ele>856.20001220703</ele>
        <time>2018-06-20T07:13:35.000Z</time>
      </trkpt>
      <trkpt lat="43.86498" lon="7.25584">
        <ele>856.59997558594</ele>
        <time>2018-06-20T07:13:37.000Z</time>
      </trkpt>
      <trkpt lat="43.86503" lon="7.25592">
        <ele>857.40002441406</ele>
        <time>2018-06-20T07:13:41.000Z</time>
      </trkpt>
      <trkpt lat="43.86507" lon="7.256">
        <ele>858</ele>
        <time>2018-06-20T07:13:45.000Z</time>
      </trkpt>
      <trkpt lat="43.8651" lon="7.25603">
        <ele>858.40002441406</ele>
        <time>2018-06-20T07:13:47.000Z</time>
      </trkpt>
      <trkpt lat="43.86517" lon="7.25614">
        <ele>859.20001220703</ele>
        <time>2018-06-20T07:13:53.000Z</time>
      </trkpt>
      <trkpt lat="43.86519" lon="7.25616">
        <ele>859.40002441406</ele>
        <time>2018-06-20T07:13:54.000Z</time>
      </trkpt>
      <trkpt lat="43.86528" lon="7.25627">
        <ele>860.59997558594</ele>
        <time>2018-06-20T07:14:01.000Z</time>
      </trkpt>
      <trkpt lat="43.86537" lon="7.25637">
        <ele>861.59997558594</ele>
        <time>2018-06-20T07:14:07.000Z</time>
      </trkpt>
      <trkpt lat="43.8654" lon="7.25641">
        <ele>862.20001220703</ele>
        <time>2018-06-20T07:14:09.000Z</time>
      </trkpt>
      <trkpt lat="43.86544" lon="7.25646">
        <ele>862.59997558594</ele>
        <time>2018-06-20T07:14:12.000Z</time>
      </trkpt>
      <trkpt lat="43.8655" lon="7.25655">
        <ele>863.20001220703</ele>
        <time>2018-06-20T07:14:17.000Z</time>
      </trkpt>
      <trkpt lat="43.86553" lon="7.25661">
        <ele>863.79998779297</ele>
        <time>2018-06-20T07:14:20.000Z</time>
      </trkpt>
      <trkpt lat="43.86556" lon="7.25672">
        <ele>864.79998779297</ele>
        <time>2018-06-20T07:14:25.000Z</time>
      </trkpt>
      <trkpt lat="43.86556" lon="7.25675">
        <ele>865</ele>
        <time>2018-06-20T07:14:26.000Z</time>
      </trkpt>
      <trkpt lat="43.86558" lon="7.25682">
        <ele>865.79998779297</ele>
        <time>2018-06-20T07:14:29.000Z</time>
      </trkpt>
      <trkpt lat="43.86558" lon="7.25684">
        <ele>866</ele>
        <time>2018-06-20T07:14:30.000Z</time>
      </trkpt>
      <trkpt lat="43.86559" lon="7.25689">
        <ele>866.40002441406</ele>
        <time>2018-06-20T07:14:32.000Z</time>
      </trkpt>
      <trkpt lat="43.86559" lon="7.25692">
        <ele>866.59997558594</ele>
        <time>2018-06-20T07:14:33.000Z</time>
      </trkpt>
      <trkpt lat="43.8656" lon="7.25699">
        <ele>867</ele>
        <time>2018-06-20T07:14:36.000Z</time>
      </trkpt>
      <trkpt lat="43.86564" lon="7.25708">
        <ele>867.59997558594</ele>
        <time>2018-06-20T07:14:40.000Z</time>
      </trkpt>
      <trkpt lat="43.86566" lon="7.25711">
        <ele>868.20001220703</ele>
        <time>2018-06-20T07:14:42.000Z</time>
      </trkpt>
      <trkpt lat="43.86572" lon="7.25712">
        <ele>869.20001220703</ele>
        <time>2018-06-20T07:14:46.000Z</time>
      </trkpt>
      <trkpt lat="43.86574" lon="7.25703">
        <ele>870</ele>
        <time>2018-06-20T07:14:50.000Z</time>
      </trkpt>
      <trkpt lat="43.86572" lon="7.25699">
        <ele>870.40002441406</ele>
        <time>2018-06-20T07:14:52.000Z</time>
      </trkpt>
      <trkpt lat="43.86572" lon="7.25697">
        <ele>870.59997558594</ele>
        <time>2018-06-20T07:14:53.000Z</time>
      </trkpt>
      <trkpt lat="43.86571" lon="7.25693">
        <ele>871</ele>
        <time>2018-06-20T07:14:55.000Z</time>
      </trkpt>
      <trkpt lat="43.86571" lon="7.25688">
        <ele>871.40002441406</ele>
        <time>2018-06-20T07:14:57.000Z</time>
      </trkpt>
      <trkpt lat="43.86569" lon="7.25676">
        <ele>872.40002441406</ele>
        <time>2018-06-20T07:15:02.000Z</time>
      </trkpt>
      <trkpt lat="43.86569" lon="7.25673">
        <ele>872.59997558594</ele>
        <time>2018-06-20T07:15:03.000Z</time>
      </trkpt>
      <trkpt lat="43.86567" lon="7.25658">
        <ele>873.79998779297</ele>
        <time>2018-06-20T07:15:09.000Z</time>
      </trkpt>
      <trkpt lat="43.86565" lon="7.25652">
        <ele>874.20001220703</ele>
        <time>2018-06-20T07:15:11.000Z</time>
      </trkpt>
      <trkpt lat="43.86562" lon="7.25645">
        <ele>875</ele>
        <time>2018-06-20T07:15:14.000Z</time>
      </trkpt>
      <trkpt lat="43.8656" lon="7.2564">
        <ele>875.40002441406</ele>
        <time>2018-06-20T07:15:17.000Z</time>
      </trkpt>
      <trkpt lat="43.86556" lon="7.25632">
        <ele>876</ele>
        <time>2018-06-20T07:15:21.000Z</time>
      </trkpt>
      <trkpt lat="43.86553" lon="7.25625">
        <ele>876.59997558594</ele>
        <time>2018-06-20T07:15:24.000Z</time>
      </trkpt>
      <trkpt lat="43.8655" lon="7.25617">
        <ele>877</ele>
        <time>2018-06-20T07:15:28.000Z</time>
      </trkpt>
      <trkpt lat="43.86547" lon="7.25606">
        <ele>878.20001220703</ele>
        <time>2018-06-20T07:15:32.000Z</time>
      </trkpt>
      <trkpt lat="43.86546" lon="7.25594">
        <ele>879.40002441406</ele>
        <time>2018-06-20T07:15:37.000Z</time>
      </trkpt>
      <trkpt lat="43.86546" lon="7.25584">
        <ele>880.40002441406</ele>
        <time>2018-06-20T07:15:41.000Z</time>
      </trkpt>
      <trkpt lat="43.86546" lon="7.25582">
        <ele>880.59997558594</ele>
        <time>2018-06-20T07:15:42.000Z</time>
      </trkpt>
      <trkpt lat="43.86547" lon="7.25566">
        <ele>881.59997558594</ele>
        <time>2018-06-20T07:15:48.000Z</time>
      </trkpt>
      <trkpt lat="43.86547" lon="7.2556">
        <ele>882</ele>
        <time>2018-06-20T07:15:50.000Z</time>
      </trkpt>
      <trkpt lat="43.86547" lon="7.25552">
        <ele>882.59997558594</ele>
        <time>2018-06-20T07:15:53.000Z</time>
      </trkpt>
      <trkpt lat="43.86548" lon="7.25535">
        <ele>883.59997558594</ele>
        <time>2018-06-20T07:15:59.000Z</time>
      </trkpt>
      <trkpt lat="43.8655" lon="7.25522">
        <ele>884.79998779297</ele>
        <time>2018-06-20T07:16:04.000Z</time>
      </trkpt>
      <trkpt lat="43.8655" lon="7.25514">
        <ele>885.40002441406</ele>
        <time>2018-06-20T07:16:07.000Z</time>
      </trkpt>
      <trkpt lat="43.86551" lon="7.25509">
        <ele>885.79998779297</ele>
        <time>2018-06-20T07:16:09.000Z</time>
      </trkpt>
      <trkpt lat="43.86551" lon="7.25495">
        <ele>887</ele>
        <time>2018-06-20T07:16:14.000Z</time>
      </trkpt>
      <trkpt lat="43.86551" lon="7.25486">
        <ele>887.59997558594</ele>
        <time>2018-06-20T07:16:17.000Z</time>
      </trkpt>
      <trkpt lat="43.86551" lon="7.2548">
        <ele>888</ele>
        <time>2018-06-20T07:16:19.000Z</time>
      </trkpt>
      <trkpt lat="43.8655" lon="7.2547">
        <ele>889</ele>
        <time>2018-06-20T07:16:23.000Z</time>
      </trkpt>
      <trkpt lat="43.86549" lon="7.25465">
        <ele>889.59997558594</ele>
        <time>2018-06-20T07:16:25.000Z</time>
      </trkpt>
      <trkpt lat="43.86548" lon="7.25456">
        <ele>890.20001220703</ele>
        <time>2018-06-20T07:16:28.000Z</time>
      </trkpt>
      <trkpt lat="43.86546" lon="7.25444">
        <ele>891.20001220703</ele>
        <time>2018-06-20T07:16:33.000Z</time>
      </trkpt>
      <trkpt lat="43.86546" lon="7.25441">
        <ele>891.40002441406</ele>
        <time>2018-06-20T07:16:34.000Z</time>
      </trkpt>
      <trkpt lat="43.86544" lon="7.25428">
        <ele>892.59997558594</ele>
        <time>2018-06-20T07:16:39.000Z</time>
      </trkpt>
      <trkpt lat="43.86542" lon="7.25418">
        <ele>893.59997558594</ele>
        <time>2018-06-20T07:16:43.000Z</time>
      </trkpt>
      <trkpt lat="43.86541" lon="7.25415">
        <ele>893.79998779297</ele>
        <time>2018-06-20T07:16:44.000Z</time>
      </trkpt>
      <trkpt lat="43.86539" lon="7.25406">
        <ele>894.79998779297</ele>
        <time>2018-06-20T07:16:48.000Z</time>
      </trkpt>
      <trkpt lat="43.86538" lon="7.25398">
        <ele>895.59997558594</ele>
        <time>2018-06-20T07:16:51.000Z</time>
      </trkpt>
      <trkpt lat="43.86537" lon="7.25394">
        <ele>896</ele>
        <time>2018-06-20T07:16:53.000Z</time>
      </trkpt>
      <trkpt lat="43.86533" lon="7.25378">
        <ele>897</ele>
        <time>2018-06-20T07:16:59.000Z</time>
      </trkpt>
      <trkpt lat="43.86532" lon="7.25375">
        <ele>897</ele>
        <time>2018-06-20T07:17:00.000Z</time>
      </trkpt>
      <trkpt lat="43.8653" lon="7.25359">
        <ele>898.20001220703</ele>
        <time>2018-06-20T07:17:06.000Z</time>
      </trkpt>
      <trkpt lat="43.86529" lon="7.25356">
        <ele>898.40002441406</ele>
        <time>2018-06-20T07:17:07.000Z</time>
      </trkpt>
      <trkpt lat="43.86528" lon="7.25345">
        <ele>899.20001220703</ele>
        <time>2018-06-20T07:17:11.000Z</time>
      </trkpt>
      <trkpt lat="43.86527" lon="7.25332">
        <ele>900.40002441406</ele>
        <time>2018-06-20T07:17:16.000Z</time>
      </trkpt>
      <trkpt lat="43.86525" lon="7.25314">
        <ele>901.40002441406</ele>
        <time>2018-06-20T07:17:23.000Z</time>
      </trkpt>
      <trkpt lat="43.86525" lon="7.25311">
        <ele>901.40002441406</ele>
        <time>2018-06-20T07:17:24.000Z</time>
      </trkpt>
      <trkpt lat="43.86526" lon="7.25308">
        <ele>901.59997558594</ele>
        <time>2018-06-20T07:17:25.000Z</time>
      </trkpt>
      <trkpt lat="43.86531" lon="7.25305">
        <ele>901.79998779297</ele>
        <time>2018-06-20T07:17:28.000Z</time>
      </trkpt>
      <trkpt lat="43.86533" lon="7.25308">
        <ele>902.20001220703</ele>
        <time>2018-06-20T07:17:30.000Z</time>
      </trkpt>
      <trkpt lat="43.86535" lon="7.2531">
        <ele>902.40002441406</ele>
        <time>2018-06-20T07:17:31.000Z</time>
      </trkpt>
      <trkpt lat="43.86539" lon="7.25325">
        <ele>903.20001220703</ele>
        <time>2018-06-20T07:17:37.000Z</time>
      </trkpt>
      <trkpt lat="43.8654" lon="7.25329">
        <ele>903.40002441406</ele>
        <time>2018-06-20T07:17:39.000Z</time>
      </trkpt>
      <trkpt lat="43.86541" lon="7.25341">
        <ele>904.40002441406</ele>
        <time>2018-06-20T07:17:44.000Z</time>
      </trkpt>
      <trkpt lat="43.86541" lon="7.25343">
        <ele>904.59997558594</ele>
        <time>2018-06-20T07:17:45.000Z</time>
      </trkpt>
      <trkpt lat="43.86543" lon="7.25355">
        <ele>905.59997558594</ele>
        <time>2018-06-20T07:17:50.000Z</time>
      </trkpt>
      <trkpt lat="43.86544" lon="7.2536">
        <ele>906</ele>
        <time>2018-06-20T07:17:52.000Z</time>
      </trkpt>
      <trkpt lat="43.86547" lon="7.2537">
        <ele>906.59997558594</ele>
        <time>2018-06-20T07:17:56.000Z</time>
      </trkpt>
      <trkpt lat="43.86551" lon="7.25381">
        <ele>907.40002441406</ele>
        <time>2018-06-20T07:18:01.000Z</time>
      </trkpt>
      <trkpt lat="43.86553" lon="7.25385">
        <ele>907.79998779297</ele>
        <time>2018-06-20T07:18:03.000Z</time>
      </trkpt>
      <trkpt lat="43.86559" lon="7.25397">
        <ele>908.59997558594</ele>
        <time>2018-06-20T07:18:09.000Z</time>
      </trkpt>
      <trkpt lat="43.86561" lon="7.25401">
        <ele>908.79998779297</ele>
        <time>2018-06-20T07:18:11.000Z</time>
      </trkpt>
      <trkpt lat="43.86566" lon="7.25412">
        <ele>909.40002441406</ele>
        <time>2018-06-20T07:18:16.000Z</time>
      </trkpt>
      <trkpt lat="43.8657" lon="7.25421">
        <ele>910</ele>
        <time>2018-06-20T07:18:20.000Z</time>
      </trkpt>
      <trkpt lat="43.86576" lon="7.25434">
        <ele>911</ele>
        <time>2018-06-20T07:18:26.000Z</time>
      </trkpt>
      <trkpt lat="43.86582" lon="7.25447">
        <ele>912</ele>
        <time>2018-06-20T07:18:32.000Z</time>
      </trkpt>
      <trkpt lat="43.86585" lon="7.25453">
        <ele>912.40002441406</ele>
        <time>2018-06-20T07:18:35.000Z</time>
      </trkpt>
      <trkpt lat="43.8659" lon="7.25461">
        <ele>913.20001220703</ele>
        <time>2018-06-20T07:18:39.000Z</time>
      </trkpt>
      <trkpt lat="43.86597" lon="7.25472">
        <ele>914.20001220703</ele>
        <time>2018-06-20T07:18:45.000Z</time>
      </trkpt>
      <trkpt lat="43.86603" lon="7.25486">
        <ele>915.20001220703</ele>
        <time>2018-06-20T07:18:51.000Z</time>
      </trkpt>
      <trkpt lat="43.86607" lon="7.25495">
        <ele>915.79998779297</ele>
        <time>2018-06-20T07:18:55.000Z</time>
      </trkpt>
      <trkpt lat="43.86613" lon="7.25513">
        <ele>916.40002441406</ele>
        <time>2018-06-20T07:19:02.000Z</time>
      </trkpt>
      <trkpt lat="43.86615" lon="7.25518">
        <ele>916.79998779297</ele>
        <time>2018-06-20T07:19:04.000Z</time>
      </trkpt>
      <trkpt lat="43.86619" lon="7.25527">
        <ele>917.40002441406</ele>
        <time>2018-06-20T07:19:08.000Z</time>
      </trkpt>
      <trkpt lat="43.86622" lon="7.25536">
        <ele>918</ele>
        <time>2018-06-20T07:19:12.000Z</time>
      </trkpt>
      <trkpt lat="43.86625" lon="7.25544">
        <ele>918.59997558594</ele>
        <time>2018-06-20T07:19:15.000Z</time>
      </trkpt>
      <trkpt lat="43.8663" lon="7.25556">
        <ele>919.20001220703</ele>
        <time>2018-06-20T07:19:20.000Z</time>
      </trkpt>
      <trkpt lat="43.86632" lon="7.25561">
        <ele>919.59997558594</ele>
        <time>2018-06-20T07:19:22.000Z</time>
      </trkpt>
      <trkpt lat="43.86637" lon="7.25571">
        <ele>920.79998779297</ele>
        <time>2018-06-20T07:19:27.000Z</time>
      </trkpt>
      <trkpt lat="43.86638" lon="7.25575">
        <ele>921.40002441406</ele>
        <time>2018-06-20T07:19:29.000Z</time>
      </trkpt>
      <trkpt lat="43.86641" lon="7.25582">
        <ele>922</ele>
        <time>2018-06-20T07:19:32.000Z</time>
      </trkpt>
      <trkpt lat="43.86646" lon="7.25595">
        <ele>923</ele>
        <time>2018-06-20T07:19:38.000Z</time>
      </trkpt>
      <trkpt lat="43.86652" lon="7.25609">
        <ele>924.20001220703</ele>
        <time>2018-06-20T07:19:44.000Z</time>
      </trkpt>
      <trkpt lat="43.86655" lon="7.25617">
        <ele>925.20001220703</ele>
        <time>2018-06-20T07:19:48.000Z</time>
      </trkpt>
      <trkpt lat="43.86656" lon="7.25619">
        <ele>925.20001220703</ele>
        <time>2018-06-20T07:19:49.000Z</time>
      </trkpt>
      <trkpt lat="43.86662" lon="7.25632">
        <ele>926</ele>
        <time>2018-06-20T07:19:55.000Z</time>
      </trkpt>
      <trkpt lat="43.86663" lon="7.25635">
        <ele>926.40002441406</ele>
        <time>2018-06-20T07:19:56.000Z</time>
      </trkpt>
      <trkpt lat="43.86668" lon="7.25646">
        <ele>927.40002441406</ele>
        <time>2018-06-20T07:20:01.000Z</time>
      </trkpt>
      <trkpt lat="43.86671" lon="7.25652">
        <ele>927.79998779297</ele>
        <time>2018-06-20T07:20:04.000Z</time>
      </trkpt>
      <trkpt lat="43.86675" lon="7.25662">
        <ele>928.40002441406</ele>
        <time>2018-06-20T07:20:09.000Z</time>
      </trkpt>
      <trkpt lat="43.86677" lon="7.25666">
        <ele>928.79998779297</ele>
        <time>2018-06-20T07:20:11.000Z</time>
      </trkpt>
      <trkpt lat="43.86681" lon="7.25673">
        <ele>929.40002441406</ele>
        <time>2018-06-20T07:20:14.000Z</time>
      </trkpt>
      <trkpt lat="43.86687" lon="7.25684">
        <ele>930.59997558594</ele>
        <time>2018-06-20T07:20:19.000Z</time>
      </trkpt>
      <trkpt lat="43.86688" lon="7.25685">
        <ele>930.79998779297</ele>
        <time>2018-06-20T07:20:20.000Z</time>
      </trkpt>
      <trkpt lat="43.86693" lon="7.25695">
        <ele>931.40002441406</ele>
        <time>2018-06-20T07:20:25.000Z</time>
      </trkpt>
      <trkpt lat="43.86696" lon="7.25699">
        <ele>931.79998779297</ele>
        <time>2018-06-20T07:20:27.000Z</time>
      </trkpt>
      <trkpt lat="43.86701" lon="7.25708">
        <ele>933</ele>
        <time>2018-06-20T07:20:32.000Z</time>
      </trkpt>
      <trkpt lat="43.86704" lon="7.25714">
        <ele>933.59997558594</ele>
        <time>2018-06-20T07:20:35.000Z</time>
      </trkpt>
      <trkpt lat="43.86708" lon="7.25723">
        <ele>934.20001220703</ele>
        <time>2018-06-20T07:20:39.000Z</time>
      </trkpt>
      <trkpt lat="43.86712" lon="7.25735">
        <ele>934.40002441406</ele>
        <time>2018-06-20T07:20:44.000Z</time>
      </trkpt>
      <trkpt lat="43.86717" lon="7.25754">
        <ele>935</ele>
        <time>2018-06-20T07:20:51.000Z</time>
      </trkpt>
      <trkpt lat="43.86718" lon="7.25756">
        <ele>935.20001220703</ele>
        <time>2018-06-20T07:20:52.000Z</time>
      </trkpt>
      <trkpt lat="43.86724" lon="7.25772">
        <ele>936.20001220703</ele>
        <time>2018-06-20T07:20:59.000Z</time>
      </trkpt>
      <trkpt lat="43.86725" lon="7.25774">
        <ele>936.40002441406</ele>
        <time>2018-06-20T07:21:00.000Z</time>
      </trkpt>
      <trkpt lat="43.86727" lon="7.25781">
        <ele>937.20001220703</ele>
        <time>2018-06-20T07:21:03.000Z</time>
      </trkpt>
      <trkpt lat="43.86731" lon="7.2579">
        <ele>938.40002441406</ele>
        <time>2018-06-20T07:21:07.000Z</time>
      </trkpt>
      <trkpt lat="43.86735" lon="7.25798">
        <ele>939.59997558594</ele>
        <time>2018-06-20T07:21:11.000Z</time>
      </trkpt>
      <trkpt lat="43.8674" lon="7.2581">
        <ele>940.59997558594</ele>
        <time>2018-06-20T07:21:16.000Z</time>
      </trkpt>
      <trkpt lat="43.86751" lon="7.25834">
        <ele>941.59997558594</ele>
        <time>2018-06-20T07:21:27.000Z</time>
      </trkpt>
      <trkpt lat="43.86752" lon="7.25835">
        <ele>941.79998779297</ele>
        <time>2018-06-20T07:21:28.000Z</time>
      </trkpt>
      <trkpt lat="43.86759" lon="7.25846">
        <ele>942.59997558594</ele>
        <time>2018-06-20T07:21:34.000Z</time>
      </trkpt>
      <trkpt lat="43.86764" lon="7.25849">
        <ele>942.79998779297</ele>
        <time>2018-06-20T07:21:37.000Z</time>
      </trkpt>
      <trkpt lat="43.86774" lon="7.25855">
        <ele>943.79998779297</ele>
        <time>2018-06-20T07:21:43.000Z</time>
      </trkpt>
      <trkpt lat="43.86779" lon="7.25859">
        <ele>944.20001220703</ele>
        <time>2018-06-20T07:21:46.000Z</time>
      </trkpt>
      <trkpt lat="43.86785" lon="7.25865">
        <ele>944.79998779297</ele>
        <time>2018-06-20T07:21:50.000Z</time>
      </trkpt>
      <trkpt lat="43.8679" lon="7.25869">
        <ele>945.40002441406</ele>
        <time>2018-06-20T07:21:53.000Z</time>
      </trkpt>
      <trkpt lat="43.86793" lon="7.25872">
        <ele>946</ele>
        <time>2018-06-20T07:21:55.000Z</time>
      </trkpt>
      <trkpt lat="43.86804" lon="7.25879">
        <ele>946.79998779297</ele>
        <time>2018-06-20T07:22:02.000Z</time>
      </trkpt>
      <trkpt lat="43.86806" lon="7.2588">
        <ele>947</ele>
        <time>2018-06-20T07:22:03.000Z</time>
      </trkpt>
      <trkpt lat="43.86819" lon="7.25887">
        <ele>948</ele>
        <time>2018-06-20T07:22:10.000Z</time>
      </trkpt>
      <trkpt lat="43.86826" lon="7.25895">
        <ele>949.20001220703</ele>
        <time>2018-06-20T07:22:15.000Z</time>
      </trkpt>
      <trkpt lat="43.86829" lon="7.25899">
        <ele>949.40002441406</ele>
        <time>2018-06-20T07:22:17.000Z</time>
      </trkpt>
      <trkpt lat="43.86832" lon="7.25908">
        <ele>950.20001220703</ele>
        <time>2018-06-20T07:22:21.000Z</time>
      </trkpt>
      <trkpt lat="43.86832" lon="7.25918">
        <ele>950.79998779297</ele>
        <time>2018-06-20T07:22:25.000Z</time>
      </trkpt>
      <trkpt lat="43.86831" lon="7.25926">
        <ele>951.40002441406</ele>
        <time>2018-06-20T07:22:28.000Z</time>
      </trkpt>
      <trkpt lat="43.8683" lon="7.25933">
        <ele>952.20001220703</ele>
        <time>2018-06-20T07:22:31.000Z</time>
      </trkpt>
      <trkpt lat="43.86828" lon="7.25938">
        <ele>952.40002441406</ele>
        <time>2018-06-20T07:22:33.000Z</time>
      </trkpt>
      <trkpt lat="43.86825" lon="7.25947">
        <ele>953.20001220703</ele>
        <time>2018-06-20T07:22:37.000Z</time>
      </trkpt>
      <trkpt lat="43.86824" lon="7.25949">
        <ele>953.40002441406</ele>
        <time>2018-06-20T07:22:38.000Z</time>
      </trkpt>
      <trkpt lat="43.86819" lon="7.25962">
        <ele>954.59997558594</ele>
        <time>2018-06-20T07:22:44.000Z</time>
      </trkpt>
      <trkpt lat="43.86811" lon="7.25974">
        <ele>955.79998779297</ele>
        <time>2018-06-20T07:22:50.000Z</time>
      </trkpt>
      <trkpt lat="43.8681" lon="7.25975">
        <ele>956</ele>
        <time>2018-06-20T07:22:51.000Z</time>
      </trkpt>
      <trkpt lat="43.86806" lon="7.25985">
        <ele>957</ele>
        <time>2018-06-20T07:22:56.000Z</time>
      </trkpt>
      <trkpt lat="43.86805" lon="7.25987">
        <ele>957.20001220703</ele>
        <time>2018-06-20T07:22:57.000Z</time>
      </trkpt>
      <trkpt lat="43.86806" lon="7.26001">
        <ele>958</ele>
        <time>2018-06-20T07:23:03.000Z</time>
      </trkpt>
      <trkpt lat="43.86809" lon="7.26003">
        <ele>958</ele>
        <time>2018-06-20T07:23:05.000Z</time>
      </trkpt>
      <trkpt lat="43.86814" lon="7.26002">
        <ele>958</ele>
        <time>2018-06-20T07:23:07.000Z</time>
      </trkpt>
      <trkpt lat="43.86821" lon="7.25991">
        <ele>958.40002441406</ele>
        <time>2018-06-20T07:23:12.000Z</time>
      </trkpt>
      <trkpt lat="43.8683" lon="7.25971">
        <ele>959</ele>
        <time>2018-06-20T07:23:21.000Z</time>
      </trkpt>
      <trkpt lat="43.86832" lon="7.25969">
        <ele>959</ele>
        <time>2018-06-20T07:23:22.000Z</time>
      </trkpt>
      <trkpt lat="43.86838" lon="7.25956">
        <ele>960</ele>
        <time>2018-06-20T07:23:27.000Z</time>
      </trkpt>
      <trkpt lat="43.86839" lon="7.25953">
        <ele>960.40002441406</ele>
        <time>2018-06-20T07:23:28.000Z</time>
      </trkpt>
      <trkpt lat="43.86846" lon="7.25942">
        <ele>961.20001220703</ele>
        <time>2018-06-20T07:23:33.000Z</time>
      </trkpt>
      <trkpt lat="43.86849" lon="7.25939">
        <ele>961.59997558594</ele>
        <time>2018-06-20T07:23:35.000Z</time>
      </trkpt>
      <trkpt lat="43.86855" lon="7.25934">
        <ele>962.40002441406</ele>
        <time>2018-06-20T07:23:39.000Z</time>
      </trkpt>
      <trkpt lat="43.86861" lon="7.2593">
        <ele>963.20001220703</ele>
        <time>2018-06-20T07:23:43.000Z</time>
      </trkpt>
      <trkpt lat="43.86863" lon="7.25929">
        <ele>963.40002441406</ele>
        <time>2018-06-20T07:23:44.000Z</time>
      </trkpt>
      <trkpt lat="43.86868" lon="7.25922">
        <ele>965</ele>
        <time>2018-06-20T07:23:49.000Z</time>
      </trkpt>
      <trkpt lat="43.8687" lon="7.25916">
        <ele>965.40002441406</ele>
        <time>2018-06-20T07:23:51.000Z</time>
      </trkpt>
      <trkpt lat="43.8687" lon="7.25911">
        <ele>966</ele>
        <time>2018-06-20T07:23:53.000Z</time>
      </trkpt>
      <trkpt lat="43.86867" lon="7.259">
        <ele>967.20001220703</ele>
        <time>2018-06-20T07:23:57.000Z</time>
      </trkpt>
      <trkpt lat="43.86864" lon="7.2589">
        <ele>968.40002441406</ele>
        <time>2018-06-20T07:24:01.000Z</time>
      </trkpt>
      <trkpt lat="43.86858" lon="7.2588">
        <ele>969</ele>
        <time>2018-06-20T07:24:06.000Z</time>
      </trkpt>
      <trkpt lat="43.86854" lon="7.25873">
        <ele>969.40002441406</ele>
        <time>2018-06-20T07:24:09.000Z</time>
      </trkpt>
      <trkpt lat="43.86849" lon="7.25866">
        <ele>970</ele>
        <time>2018-06-20T07:24:13.000Z</time>
      </trkpt>
      <trkpt lat="43.86842" lon="7.25857">
        <ele>970.40002441406</ele>
        <time>2018-06-20T07:24:17.000Z</time>
      </trkpt>
      <trkpt lat="43.86839" lon="7.25854">
        <ele>970.59997558594</ele>
        <time>2018-06-20T07:24:19.000Z</time>
      </trkpt>
      <trkpt lat="43.86833" lon="7.25843">
        <ele>971.59997558594</ele>
        <time>2018-06-20T07:24:24.000Z</time>
      </trkpt>
      <trkpt lat="43.8683" lon="7.25837">
        <ele>972</ele>
        <time>2018-06-20T07:24:27.000Z</time>
      </trkpt>
      <trkpt lat="43.86826" lon="7.25827">
        <ele>972.59997558594</ele>
        <time>2018-06-20T07:24:31.000Z</time>
      </trkpt>
      <trkpt lat="43.86822" lon="7.25818">
        <ele>973.40002441406</ele>
        <time>2018-06-20T07:24:35.000Z</time>
      </trkpt>
      <trkpt lat="43.8682" lon="7.25813">
        <ele>973.59997558594</ele>
        <time>2018-06-20T07:24:37.000Z</time>
      </trkpt>
      <trkpt lat="43.86815" lon="7.25801">
        <ele>974.59997558594</ele>
        <time>2018-06-20T07:24:42.000Z</time>
      </trkpt>
      <trkpt lat="43.86815" lon="7.25799">
        <ele>974.79998779297</ele>
        <time>2018-06-20T07:24:43.000Z</time>
      </trkpt>
      <trkpt lat="43.86812" lon="7.25792">
        <ele>975.59997558594</ele>
        <time>2018-06-20T07:24:46.000Z</time>
      </trkpt>
      <trkpt lat="43.86809" lon="7.25782">
        <ele>977</ele>
        <time>2018-06-20T07:24:50.000Z</time>
      </trkpt>
      <trkpt lat="43.86808" lon="7.2578">
        <ele>977.40002441406</ele>
        <time>2018-06-20T07:24:51.000Z</time>
      </trkpt>
      <trkpt lat="43.86806" lon="7.25775">
        <ele>978.20001220703</ele>
        <time>2018-06-20T07:24:53.000Z</time>
      </trkpt>
      <trkpt lat="43.86803" lon="7.25768">
        <ele>979.20001220703</ele>
        <time>2018-06-20T07:24:56.000Z</time>
      </trkpt>
      <trkpt lat="43.868" lon="7.25758">
        <ele>980.40002441406</ele>
        <time>2018-06-20T07:25:00.000Z</time>
      </trkpt>
      <trkpt lat="43.86797" lon="7.25749">
        <ele>981.79998779297</ele>
        <time>2018-06-20T07:25:04.000Z</time>
      </trkpt>
      <trkpt lat="43.86794" lon="7.25742">
        <ele>982</ele>
        <time>2018-06-20T07:25:07.000Z</time>
      </trkpt>
      <trkpt lat="43.86789" lon="7.25728">
        <ele>983</ele>
        <time>2018-06-20T07:25:13.000Z</time>
      </trkpt>
      <trkpt lat="43.86785" lon="7.25716">
        <ele>984</ele>
        <time>2018-06-20T07:25:18.000Z</time>
      </trkpt>
      <trkpt lat="43.86781" lon="7.25707">
        <ele>985</ele>
        <time>2018-06-20T07:25:22.000Z</time>
      </trkpt>
      <trkpt lat="43.86778" lon="7.25698">
        <ele>986.20001220703</ele>
        <time>2018-06-20T07:25:26.000Z</time>
      </trkpt>
      <trkpt lat="43.86777" lon="7.25695">
        <ele>986.40002441406</ele>
        <time>2018-06-20T07:25:27.000Z</time>
      </trkpt>
      <trkpt lat="43.86775" lon="7.25688">
        <ele>987.20001220703</ele>
        <time>2018-06-20T07:25:30.000Z</time>
      </trkpt>
      <trkpt lat="43.86772" lon="7.25678">
        <ele>988.40002441406</ele>
        <time>2018-06-20T07:25:35.000Z</time>
      </trkpt>
      <trkpt lat="43.86771" lon="7.25675">
        <ele>988.79998779297</ele>
        <time>2018-06-20T07:25:36.000Z</time>
      </trkpt>
      <trkpt lat="43.86768" lon="7.25667">
        <ele>989.59997558594</ele>
        <time>2018-06-20T07:25:40.000Z</time>
      </trkpt>
      <trkpt lat="43.86763" lon="7.25655">
        <ele>990.59997558594</ele>
        <time>2018-06-20T07:25:45.000Z</time>
      </trkpt>
      <trkpt lat="43.86761" lon="7.25646">
        <ele>991.59997558594</ele>
        <time>2018-06-20T07:25:49.000Z</time>
      </trkpt>
      <trkpt lat="43.86759" lon="7.25638">
        <ele>992.20001220703</ele>
        <time>2018-06-20T07:25:52.000Z</time>
      </trkpt>
      <trkpt lat="43.86757" lon="7.2563">
        <ele>992.79998779297</ele>
        <time>2018-06-20T07:25:55.000Z</time>
      </trkpt>
      <trkpt lat="43.86755" lon="7.2562">
        <ele>993.40002441406</ele>
        <time>2018-06-20T07:25:59.000Z</time>
      </trkpt>
      <trkpt lat="43.86753" lon="7.25612">
        <ele>993.79998779297</ele>
        <time>2018-06-20T07:26:02.000Z</time>
      </trkpt>
      <trkpt lat="43.8675" lon="7.25598">
        <ele>994.59997558594</ele>
        <time>2018-06-20T07:26:08.000Z</time>
      </trkpt>
      <trkpt lat="43.86749" lon="7.25593">
        <ele>995</ele>
        <time>2018-06-20T07:26:10.000Z</time>
      </trkpt>
      <trkpt lat="43.86746" lon="7.25579">
        <ele>996</ele>
        <time>2018-06-20T07:26:16.000Z</time>
      </trkpt>
      <trkpt lat="43.86745" lon="7.25577">
        <ele>996.20001220703</ele>
        <time>2018-06-20T07:26:17.000Z</time>
      </trkpt>
      <trkpt lat="43.86742" lon="7.25566">
        <ele>997.20001220703</ele>
        <time>2018-06-20T07:26:22.000Z</time>
      </trkpt>
      <trkpt lat="43.86739" lon="7.25557">
        <ele>997.59997558594</ele>
        <time>2018-06-20T07:26:26.000Z</time>
      </trkpt>
      <trkpt lat="43.86736" lon="7.25547">
        <ele>998.20001220703</ele>
        <time>2018-06-20T07:26:30.000Z</time>
      </trkpt>
      <trkpt lat="43.86736" lon="7.25542">
        <ele>998.59997558594</ele>
        <time>2018-06-20T07:26:32.000Z</time>
      </trkpt>
      <trkpt lat="43.86736" lon="7.2554">
        <ele>998.79998779297</ele>
        <time>2018-06-20T07:26:33.000Z</time>
      </trkpt>
      <trkpt lat="43.86742" lon="7.25538">
        <ele>999.20001220703</ele>
        <time>2018-06-20T07:26:36.000Z</time>
      </trkpt>
      <trkpt lat="43.86743" lon="7.2554">
        <ele>999.40002441406</ele>
        <time>2018-06-20T07:26:37.000Z</time>
      </trkpt>
      <trkpt lat="43.86745" lon="7.25547">
        <ele>999.59997558594</ele>
        <time>2018-06-20T07:26:40.000Z</time>
      </trkpt>
      <trkpt lat="43.86751" lon="7.25566">
        <ele>1000.4000244141</ele>
        <time>2018-06-20T07:26:48.000Z</time>
      </trkpt>
      <trkpt lat="43.86757" lon="7.25579">
        <ele>1001.4000244141</ele>
        <time>2018-06-20T07:26:54.000Z</time>
      </trkpt>
      <trkpt lat="43.8676" lon="7.25585">
        <ele>1001.799987793</ele>
        <time>2018-06-20T07:26:57.000Z</time>
      </trkpt>
      <trkpt lat="43.86764" lon="7.25594">
        <ele>1002.4000244141</ele>
        <time>2018-06-20T07:27:01.000Z</time>
      </trkpt>
      <trkpt lat="43.86767" lon="7.25604">
        <ele>1003</ele>
        <time>2018-06-20T07:27:05.000Z</time>
      </trkpt>
      <trkpt lat="43.8677" lon="7.25611">
        <ele>1003.5999755859</ele>
        <time>2018-06-20T07:27:08.000Z</time>
      </trkpt>
      <trkpt lat="43.86776" lon="7.25625">
        <ele>1004.200012207</ele>
        <time>2018-06-20T07:27:14.000Z</time>
      </trkpt>
      <trkpt lat="43.86779" lon="7.25629">
        <ele>1004.5999755859</ele>
        <time>2018-06-20T07:27:16.000Z</time>
      </trkpt>
      <trkpt lat="43.86784" lon="7.25638">
        <ele>1005.5999755859</ele>
        <time>2018-06-20T07:27:20.000Z</time>
      </trkpt>
      <trkpt lat="43.86785" lon="7.2564">
        <ele>1005.799987793</ele>
        <time>2018-06-20T07:27:21.000Z</time>
      </trkpt>
      <trkpt lat="43.86793" lon="7.25652">
        <ele>1006.799987793</ele>
        <time>2018-06-20T07:27:28.000Z</time>
      </trkpt>
      <trkpt lat="43.86796" lon="7.25656">
        <ele>1007.200012207</ele>
        <time>2018-06-20T07:27:30.000Z</time>
      </trkpt>
      <trkpt lat="43.86801" lon="7.25666">
        <ele>1008</ele>
        <time>2018-06-20T07:27:35.000Z</time>
      </trkpt>
      <trkpt lat="43.86806" lon="7.25673">
        <ele>1008.5999755859</ele>
        <time>2018-06-20T07:27:39.000Z</time>
      </trkpt>
      <trkpt lat="43.86809" lon="7.25677">
        <ele>1009</ele>
        <time>2018-06-20T07:27:41.000Z</time>
      </trkpt>
      <trkpt lat="43.86817" lon="7.25689">
        <ele>1009.799987793</ele>
        <time>2018-06-20T07:27:48.000Z</time>
      </trkpt>
      <trkpt lat="43.86824" lon="7.25698">
        <ele>1010.200012207</ele>
        <time>2018-06-20T07:27:53.000Z</time>
      </trkpt>
      <trkpt lat="43.86828" lon="7.25703">
        <ele>1010.5999755859</ele>
        <time>2018-06-20T07:27:56.000Z</time>
      </trkpt>
      <trkpt lat="43.86839" lon="7.25715">
        <ele>1010.4000244141</ele>
        <time>2018-06-20T07:28:04.000Z</time>
      </trkpt>
      <trkpt lat="43.86851" lon="7.25732">
        <ele>1011</ele>
        <time>2018-06-20T07:28:13.000Z</time>
      </trkpt>
      <trkpt lat="43.86853" lon="7.25736">
        <ele>1011.200012207</ele>
        <time>2018-06-20T07:28:15.000Z</time>
      </trkpt>
      <trkpt lat="43.86858" lon="7.25743">
        <ele>1012</ele>
        <time>2018-06-20T07:28:19.000Z</time>
      </trkpt>
      <trkpt lat="43.86861" lon="7.25748">
        <ele>1012.4000244141</ele>
        <time>2018-06-20T07:28:22.000Z</time>
      </trkpt>
      <trkpt lat="43.86866" lon="7.25756">
        <ele>1013.200012207</ele>
        <time>2018-06-20T07:28:26.000Z</time>
      </trkpt>
      <trkpt lat="43.86867" lon="7.25757">
        <ele>1013.4000244141</ele>
        <time>2018-06-20T07:28:27.000Z</time>
      </trkpt>
      <trkpt lat="43.86875" lon="7.25769">
        <ele>1014.4000244141</ele>
        <time>2018-06-20T07:28:34.000Z</time>
      </trkpt>
      <trkpt lat="43.86884" lon="7.25781">
        <ele>1015.5999755859</ele>
        <time>2018-06-20T07:28:41.000Z</time>
      </trkpt>
      <trkpt lat="43.86887" lon="7.25784">
        <ele>1015.799987793</ele>
        <time>2018-06-20T07:28:43.000Z</time>
      </trkpt>
      <trkpt lat="43.86892" lon="7.25791">
        <ele>1016.5999755859</ele>
        <time>2018-06-20T07:28:47.000Z</time>
      </trkpt>
      <trkpt lat="43.86899" lon="7.25799">
        <ele>1017.799987793</ele>
        <time>2018-06-20T07:28:52.000Z</time>
      </trkpt>
      <trkpt lat="43.869" lon="7.258">
        <ele>1017.799987793</ele>
        <time>2018-06-20T07:28:53.000Z</time>
      </trkpt>
      <trkpt lat="43.86907" lon="7.2581">
        <ele>1018.799987793</ele>
        <time>2018-06-20T07:28:59.000Z</time>
      </trkpt>
      <trkpt lat="43.86908" lon="7.25812">
        <ele>1019</ele>
        <time>2018-06-20T07:29:00.000Z</time>
      </trkpt>
      <trkpt lat="43.86915" lon="7.25819">
        <ele>1020</ele>
        <time>2018-06-20T07:29:05.000Z</time>
      </trkpt>
      <trkpt lat="43.86921" lon="7.25827">
        <ele>1021</ele>
        <time>2018-06-20T07:29:10.000Z</time>
      </trkpt>
      <trkpt lat="43.86922" lon="7.25828">
        <ele>1021.200012207</ele>
        <time>2018-06-20T07:29:11.000Z</time>
      </trkpt>
      <trkpt lat="43.86928" lon="7.25836">
        <ele>1022.200012207</ele>
        <time>2018-06-20T07:29:16.000Z</time>
      </trkpt>
      <trkpt lat="43.86932" lon="7.2584">
        <ele>1023</ele>
        <time>2018-06-20T07:29:19.000Z</time>
      </trkpt>
      <trkpt lat="43.86935" lon="7.25843">
        <ele>1023.4000244141</ele>
        <time>2018-06-20T07:29:21.000Z</time>
      </trkpt>
      <trkpt lat="43.86942" lon="7.25853">
        <ele>1024.5999755859</ele>
        <time>2018-06-20T07:29:27.000Z</time>
      </trkpt>
      <trkpt lat="43.86949" lon="7.25861">
        <ele>1025.5999755859</ele>
        <time>2018-06-20T07:29:32.000Z</time>
      </trkpt>
      <trkpt lat="43.86952" lon="7.25865">
        <ele>1026.1999511719</ele>
        <time>2018-06-20T07:29:34.000Z</time>
      </trkpt>
      <trkpt lat="43.86957" lon="7.25872">
        <ele>1026.8000488281</ele>
        <time>2018-06-20T07:29:38.000Z</time>
      </trkpt>
      <trkpt lat="43.86965" lon="7.25882">
        <ele>1027.8000488281</ele>
        <time>2018-06-20T07:29:44.000Z</time>
      </trkpt>
      <trkpt lat="43.86974" lon="7.25894">
        <ele>1028.8000488281</ele>
        <time>2018-06-20T07:29:50.000Z</time>
      </trkpt>
      <trkpt lat="43.86976" lon="7.25897">
        <ele>1029.4000244141</ele>
        <time>2018-06-20T07:29:52.000Z</time>
      </trkpt>
      <trkpt lat="43.86979" lon="7.25899">
        <ele>1030.1999511719</ele>
        <time>2018-06-20T07:29:54.000Z</time>
      </trkpt>
      <trkpt lat="43.86985" lon="7.25903">
        <ele>1031.4000244141</ele>
        <time>2018-06-20T07:29:58.000Z</time>
      </trkpt>
      <trkpt lat="43.8699" lon="7.25906">
        <ele>1032.1999511719</ele>
        <time>2018-06-20T07:30:01.000Z</time>
      </trkpt>
      <trkpt lat="43.86993" lon="7.25908">
        <ele>1032.4000244141</ele>
        <time>2018-06-20T07:30:03.000Z</time>
      </trkpt>
      <trkpt lat="43.87002" lon="7.25917">
        <ele>1033.1999511719</ele>
        <time>2018-06-20T07:30:09.000Z</time>
      </trkpt>
      <trkpt lat="43.87005" lon="7.2592">
        <ele>1033.5999755859</ele>
        <time>2018-06-20T07:30:11.000Z</time>
      </trkpt>
      <trkpt lat="43.87011" lon="7.25926">
        <ele>1034.1999511719</ele>
        <time>2018-06-20T07:30:15.000Z</time>
      </trkpt>
      <trkpt lat="43.87013" lon="7.25927">
        <ele>1034.5999755859</ele>
        <time>2018-06-20T07:30:16.000Z</time>
      </trkpt>
      <trkpt lat="43.87022" lon="7.25934">
        <ele>1035.8000488281</ele>
        <time>2018-06-20T07:30:23.000Z</time>
      </trkpt>
      <trkpt lat="43.87028" lon="7.25941">
        <ele>1036.8000488281</ele>
        <time>2018-06-20T07:30:27.000Z</time>
      </trkpt>
      <trkpt lat="43.87034" lon="7.2595">
        <ele>1037.5999755859</ele>
        <time>2018-06-20T07:30:32.000Z</time>
      </trkpt>
      <trkpt lat="43.87036" lon="7.25955">
        <ele>1037.8000488281</ele>
        <time>2018-06-20T07:30:34.000Z</time>
      </trkpt>
      <trkpt lat="43.87037" lon="7.25961">
        <ele>1038.1999511719</ele>
        <time>2018-06-20T07:30:37.000Z</time>
      </trkpt>
      <trkpt lat="43.87036" lon="7.25963">
        <ele>1038.4000244141</ele>
        <time>2018-06-20T07:30:38.000Z</time>
      </trkpt>
      <trkpt lat="43.87035" lon="7.25968">
        <ele>1039</ele>
        <time>2018-06-20T07:30:40.000Z</time>
      </trkpt>
      <trkpt lat="43.87031" lon="7.25977">
        <ele>1040</ele>
        <time>2018-06-20T07:30:44.000Z</time>
      </trkpt>
      <trkpt lat="43.8703" lon="7.25979">
        <ele>1040.1999511719</ele>
        <time>2018-06-20T07:30:45.000Z</time>
      </trkpt>
      <trkpt lat="43.87028" lon="7.25984">
        <ele>1041</ele>
        <time>2018-06-20T07:30:48.000Z</time>
      </trkpt>
      <trkpt lat="43.87027" lon="7.25986">
        <ele>1041.4000244141</ele>
        <time>2018-06-20T07:30:49.000Z</time>
      </trkpt>
      <trkpt lat="43.87022" lon="7.25996">
        <ele>1042.4000244141</ele>
        <time>2018-06-20T07:30:54.000Z</time>
      </trkpt>
      <trkpt lat="43.87021" lon="7.25998">
        <ele>1042.8000488281</ele>
        <time>2018-06-20T07:30:55.000Z</time>
      </trkpt>
      <trkpt lat="43.87018" lon="7.26004">
        <ele>1043.5999755859</ele>
        <time>2018-06-20T07:30:58.000Z</time>
      </trkpt>
      <trkpt lat="43.87014" lon="7.26014">
        <ele>1044.5999755859</ele>
        <time>2018-06-20T07:31:02.000Z</time>
      </trkpt>
      <trkpt lat="43.87011" lon="7.26022">
        <ele>1044.4000244141</ele>
        <time>2018-06-20T07:31:06.000Z</time>
      </trkpt>
      <trkpt lat="43.87009" lon="7.26026">
        <ele>1044.8000488281</ele>
        <time>2018-06-20T07:31:08.000Z</time>
      </trkpt>
      <trkpt lat="43.87006" lon="7.2603">
        <ele>1045</ele>
        <time>2018-06-20T07:31:10.000Z</time>
      </trkpt>
      <trkpt lat="43.86999" lon="7.26036">
        <ele>1045.4000244141</ele>
        <time>2018-06-20T07:31:14.000Z</time>
      </trkpt>
      <trkpt lat="43.86998" lon="7.26037">
        <ele>1045.5999755859</ele>
        <time>2018-06-20T07:31:15.000Z</time>
      </trkpt>
      <trkpt lat="43.86985" lon="7.26043">
        <ele>1046</ele>
        <time>2018-06-20T07:31:22.000Z</time>
      </trkpt>
      <trkpt lat="43.86977" lon="7.26045">
        <ele>1046.1999511719</ele>
        <time>2018-06-20T07:31:27.000Z</time>
      </trkpt>
      <trkpt lat="43.86974" lon="7.26045">
        <ele>1046.4000244141</ele>
        <time>2018-06-20T07:31:29.000Z</time>
      </trkpt>
      <trkpt lat="43.8697" lon="7.26045">
        <ele>1046.8000488281</ele>
        <time>2018-06-20T07:31:31.000Z</time>
      </trkpt>
      <trkpt lat="43.86968" lon="7.26045">
        <ele>1047</ele>
        <time>2018-06-20T07:31:32.000Z</time>
      </trkpt>
      <trkpt lat="43.86963" lon="7.26047">
        <ele>1047.5999755859</ele>
        <time>2018-06-20T07:31:35.000Z</time>
      </trkpt>
      <trkpt lat="43.86961" lon="7.26047">
        <ele>1048</ele>
        <time>2018-06-20T07:31:36.000Z</time>
      </trkpt>
      <trkpt lat="43.86956" lon="7.26049">
        <ele>1049.1999511719</ele>
        <time>2018-06-20T07:31:39.000Z</time>
      </trkpt>
      <trkpt lat="43.8695" lon="7.26053">
        <ele>1050.5999755859</ele>
        <time>2018-06-20T07:31:43.000Z</time>
      </trkpt>
      <trkpt lat="43.86945" lon="7.26061">
        <ele>1052</ele>
        <time>2018-06-20T07:31:48.000Z</time>
      </trkpt>
      <trkpt lat="43.86943" lon="7.26064">
        <ele>1053.1999511719</ele>
        <time>2018-06-20T07:31:50.000Z</time>
      </trkpt>
      <trkpt lat="43.86943" lon="7.26065">
        <ele>1053.8000488281</ele>
        <time>2018-06-20T07:31:51.000Z</time>
      </trkpt>
      <trkpt lat="43.86942" lon="7.26067">
        <ele>1054.1999511719</ele>
        <time>2018-06-20T07:31:52.000Z</time>
      </trkpt>
      <trkpt lat="43.86942" lon="7.26071">
        <ele>1055.4000244141</ele>
        <time>2018-06-20T07:31:55.000Z</time>
      </trkpt>
      <trkpt lat="43.86942" lon="7.26074">
        <ele>1056.4000244141</ele>
        <time>2018-06-20T07:31:57.000Z</time>
      </trkpt>
      <trkpt lat="43.86943" lon="7.26075">
        <ele>1056.5999755859</ele>
        <time>2018-06-20T07:31:58.000Z</time>
      </trkpt>
      <trkpt lat="43.86948" lon="7.26075">
        <ele>1057.1999511719</ele>
        <time>2018-06-20T07:32:01.000Z</time>
      </trkpt>
      <trkpt lat="43.86951" lon="7.26072">
        <ele>1057.8000488281</ele>
        <time>2018-06-20T07:32:03.000Z</time>
      </trkpt>
      <trkpt lat="43.86953" lon="7.26066">
        <ele>1058.8000488281</ele>
        <time>2018-06-20T07:32:06.000Z</time>
      </trkpt>
      <trkpt lat="43.86954" lon="7.26064">
        <ele>1059.4000244141</ele>
        <time>2018-06-20T07:32:07.000Z</time>
      </trkpt>
      <trkpt lat="43.86957" lon="7.26059">
        <ele>1060</ele>
        <time>2018-06-20T07:32:09.000Z</time>
      </trkpt>
      <trkpt lat="43.86962" lon="7.26053">
        <ele>1061.4000244141</ele>
        <time>2018-06-20T07:32:13.000Z</time>
      </trkpt>
      <trkpt lat="43.86965" lon="7.26051">
        <ele>1062</ele>
        <time>2018-06-20T07:32:15.000Z</time>
      </trkpt>
      <trkpt lat="43.86968" lon="7.2605">
        <ele>1062.4000244141</ele>
        <time>2018-06-20T07:32:17.000Z</time>
      </trkpt>
      <trkpt lat="43.86977" lon="7.26051">
        <ele>1062.8000488281</ele>
        <time>2018-06-20T07:32:21.000Z</time>
      </trkpt>
      <trkpt lat="43.86984" lon="7.26054">
        <ele>1063.1999511719</ele>
        <time>2018-06-20T07:32:25.000Z</time>
      </trkpt>
      <trkpt lat="43.86993" lon="7.26059">
        <ele>1063.8000488281</ele>
        <time>2018-06-20T07:32:30.000Z</time>
      </trkpt>
      <trkpt lat="43.86993" lon="7.26058">
        <ele>1064</ele>
        <time>2018-06-20T07:32:31.000Z</time>
      </trkpt>
      <trkpt lat="43.86998" lon="7.26059">
        <ele>1065</ele>
        <time>2018-06-20T07:32:34.000Z</time>
      </trkpt>
      <trkpt lat="43.87" lon="7.26058">
        <ele>1065.1999511719</ele>
        <time>2018-06-20T07:32:35.000Z</time>
      </trkpt>
      <trkpt lat="43.87002" lon="7.26058">
        <ele>1065.4000244141</ele>
        <time>2018-06-20T07:32:36.000Z</time>
      </trkpt>
      <trkpt lat="43.87005" lon="7.26056">
        <ele>1066.1999511719</ele>
        <time>2018-06-20T07:32:38.000Z</time>
      </trkpt>
      <trkpt lat="43.87009" lon="7.26051">
        <ele>1067.5999755859</ele>
        <time>2018-06-20T07:32:41.000Z</time>
      </trkpt>
      <trkpt lat="43.8701" lon="7.2605">
        <ele>1067.8000488281</ele>
        <time>2018-06-20T07:32:42.000Z</time>
      </trkpt>
      <trkpt lat="43.87012" lon="7.26047">
        <ele>1068.5999755859</ele>
        <time>2018-06-20T07:32:44.000Z</time>
      </trkpt>
      <trkpt lat="43.87016" lon="7.26044">
        <ele>1069.8000488281</ele>
        <time>2018-06-20T07:32:47.000Z</time>
      </trkpt>
      <trkpt lat="43.8702" lon="7.2604">
        <ele>1070.5999755859</ele>
        <time>2018-06-20T07:32:50.000Z</time>
      </trkpt>
      <trkpt lat="43.87022" lon="7.26039">
        <ele>1071</ele>
        <time>2018-06-20T07:32:51.000Z</time>
      </trkpt>
      <trkpt lat="43.87027" lon="7.26033">
        <ele>1072</ele>
        <time>2018-06-20T07:32:55.000Z</time>
      </trkpt>
      <trkpt lat="43.8703" lon="7.2603">
        <ele>1072.4000244141</ele>
        <time>2018-06-20T07:32:57.000Z</time>
      </trkpt>
      <trkpt lat="43.87036" lon="7.26021">
        <ele>1073.1999511719</ele>
        <time>2018-06-20T07:33:02.000Z</time>
      </trkpt>
      <trkpt lat="43.8704" lon="7.26016">
        <ele>1073.5999755859</ele>
        <time>2018-06-20T07:33:05.000Z</time>
      </trkpt>
      <trkpt lat="43.87046" lon="7.26009">
        <ele>1074.1999511719</ele>
        <time>2018-06-20T07:33:11.000Z</time>
      </trkpt>
      <trkpt lat="43.87054" lon="7.26001">
        <ele>1074.5999755859</ele>
        <time>2018-06-20T07:33:18.000Z</time>
      </trkpt>
      <trkpt lat="43.87061" lon="7.25994">
        <ele>1075</ele>
        <time>2018-06-20T07:33:25.000Z</time>
      </trkpt>
      <trkpt lat="43.87064" lon="7.25992">
        <ele>1075.1999511719</ele>
        <time>2018-06-20T07:33:27.000Z</time>
      </trkpt>
      <trkpt lat="43.87073" lon="7.25987">
        <ele>1076.4000244141</ele>
        <time>2018-06-20T07:33:33.000Z</time>
      </trkpt>
      <trkpt lat="43.8708" lon="7.25981">
        <ele>1077.4000244141</ele>
        <time>2018-06-20T07:33:38.000Z</time>
      </trkpt>
      <trkpt lat="43.87082" lon="7.2598">
        <ele>1077.5999755859</ele>
        <time>2018-06-20T07:33:39.000Z</time>
      </trkpt>
      <trkpt lat="43.87086" lon="7.25976">
        <ele>1078.4000244141</ele>
        <time>2018-06-20T07:33:42.000Z</time>
      </trkpt>
      <trkpt lat="43.87093" lon="7.2597">
        <ele>1079.5999755859</ele>
        <time>2018-06-20T07:33:47.000Z</time>
      </trkpt>
      <trkpt lat="43.871" lon="7.25963">
        <ele>1080.8000488281</ele>
        <time>2018-06-20T07:33:52.000Z</time>
      </trkpt>
      <trkpt lat="43.87103" lon="7.2596">
        <ele>1081.4000244141</ele>
        <time>2018-06-20T07:33:55.000Z</time>
      </trkpt>
      <trkpt lat="43.87105" lon="7.25958">
        <ele>1082</ele>
        <time>2018-06-20T07:33:58.000Z</time>
      </trkpt>
      <trkpt lat="43.87108" lon="7.25958">
        <ele>1082.1999511719</ele>
        <time>2018-06-20T07:34:00.000Z</time>
      </trkpt>
      <trkpt lat="43.87111" lon="7.25959">
        <ele>1082.8000488281</ele>
        <time>2018-06-20T07:34:02.000Z</time>
      </trkpt>
      <trkpt lat="43.87114" lon="7.2596">
        <ele>1083.1999511719</ele>
        <time>2018-06-20T07:34:03.000Z</time>
      </trkpt>
      <trkpt lat="43.8712" lon="7.25963">
        <ele>1084.4000244141</ele>
        <time>2018-06-20T07:34:06.000Z</time>
      </trkpt>
      <trkpt lat="43.8712" lon="7.25965">
        <ele>1084.5999755859</ele>
        <time>2018-06-20T07:34:07.000Z</time>
      </trkpt>
      <trkpt lat="43.87117" lon="7.2597">
        <ele>1085</ele>
        <time>2018-06-20T07:34:11.000Z</time>
      </trkpt>
      <trkpt lat="43.87115" lon="7.25975">
        <ele>1085.5999755859</ele>
        <time>2018-06-20T07:34:15.000Z</time>
      </trkpt>
      <trkpt lat="43.87115" lon="7.25977">
        <ele>1085.5999755859</ele>
        <time>2018-06-20T07:34:16.000Z</time>
      </trkpt>
      <trkpt lat="43.87113" lon="7.25986">
        <ele>1086.4000244141</ele>
        <time>2018-06-20T07:34:21.000Z</time>
      </trkpt>
      <trkpt lat="43.87113" lon="7.25988">
        <ele>1086.5999755859</ele>
        <time>2018-06-20T07:34:22.000Z</time>
      </trkpt>
      <trkpt lat="43.87109" lon="7.25995">
        <ele>1086.8000488281</ele>
        <time>2018-06-20T07:34:26.000Z</time>
      </trkpt>
      <trkpt lat="43.87106" lon="7.26002">
        <ele>1087.5999755859</ele>
        <time>2018-06-20T07:34:31.000Z</time>
      </trkpt>
      <trkpt lat="43.87103" lon="7.2601">
        <ele>1088.8000488281</ele>
        <time>2018-06-20T07:34:36.000Z</time>
      </trkpt>
      <trkpt lat="43.87103" lon="7.26011">
        <ele>1089</ele>
        <time>2018-06-20T07:34:37.000Z</time>
      </trkpt>
      <trkpt lat="43.87101" lon="7.26015">
        <ele>1089.8000488281</ele>
        <time>2018-06-20T07:34:39.000Z</time>
      </trkpt>
      <trkpt lat="43.87101" lon="7.26018">
        <ele>1090.5999755859</ele>
        <time>2018-06-20T07:34:41.000Z</time>
      </trkpt>
      <trkpt lat="43.871" lon="7.26019">
        <ele>1091.1999511719</ele>
        <time>2018-06-20T07:34:42.000Z</time>
      </trkpt>
      <trkpt lat="43.87101" lon="7.26023">
        <ele>1092.1999511719</ele>
        <time>2018-06-20T07:34:45.000Z</time>
      </trkpt>
      <trkpt lat="43.87101" lon="7.26025">
        <ele>1092.5999755859</ele>
        <time>2018-06-20T07:34:46.000Z</time>
      </trkpt>
      <trkpt lat="43.871" lon="7.26026">
        <ele>1092.8000488281</ele>
        <time>2018-06-20T07:34:47.000Z</time>
      </trkpt>
      <trkpt lat="43.87099" lon="7.26029">
        <ele>1093.4000244141</ele>
        <time>2018-06-20T07:34:49.000Z</time>
      </trkpt>
      <trkpt lat="43.87097" lon="7.26035">
        <ele>1094.8000488281</ele>
        <time>2018-06-20T07:34:53.000Z</time>
      </trkpt>
      <trkpt lat="43.87092" lon="7.2604">
        <ele>1095.8000488281</ele>
        <time>2018-06-20T07:34:57.000Z</time>
      </trkpt>
      <trkpt lat="43.87091" lon="7.26041">
        <ele>1096</ele>
        <time>2018-06-20T07:34:58.000Z</time>
      </trkpt>
      <trkpt lat="43.87089" lon="7.26044">
        <ele>1097</ele>
        <time>2018-06-20T07:35:00.000Z</time>
      </trkpt>
      <trkpt lat="43.87088" lon="7.26047">
        <ele>1097.4000244141</ele>
        <time>2018-06-20T07:35:02.000Z</time>
      </trkpt>
      <trkpt lat="43.87087" lon="7.26048">
        <ele>1097.8000488281</ele>
        <time>2018-06-20T07:35:03.000Z</time>
      </trkpt>
      <trkpt lat="43.87087" lon="7.2605">
        <ele>1098</ele>
        <time>2018-06-20T07:35:04.000Z</time>
      </trkpt>
      <trkpt lat="43.87086" lon="7.26054">
        <ele>1098.1999511719</ele>
        <time>2018-06-20T07:35:07.000Z</time>
      </trkpt>
      <trkpt lat="43.87085" lon="7.26061">
        <ele>1098.5999755859</ele>
        <time>2018-06-20T07:35:10.000Z</time>
      </trkpt>
      <trkpt lat="43.87084" lon="7.26064">
        <ele>1099</ele>
        <time>2018-06-20T07:35:12.000Z</time>
      </trkpt>
      <trkpt lat="43.87081" lon="7.26067">
        <ele>1099.8000488281</ele>
        <time>2018-06-20T07:35:15.000Z</time>
      </trkpt>
      <trkpt lat="43.87081" lon="7.26067">
        <ele>1100</ele>
        <time>2018-06-20T07:35:16.000Z</time>
      </trkpt>
      <trkpt lat="43.87073" lon="7.26083">
        <ele>1103</ele>
        <time>2018-06-20T07:35:25.000Z</time>
      </trkpt>
      <trkpt lat="43.87071" lon="7.26088">
        <ele>1103.8000488281</ele>
        <time>2018-06-20T07:35:27.000Z</time>
      </trkpt>
      <trkpt lat="43.87069" lon="7.26094">
        <ele>1104.1999511719</ele>
        <time>2018-06-20T07:35:29.000Z</time>
      </trkpt>
      <trkpt lat="43.87067" lon="7.26102">
        <ele>1104.5999755859</ele>
        <time>2018-06-20T07:35:32.000Z</time>
      </trkpt>
      <trkpt lat="43.87065" lon="7.26108">
        <ele>1105.1999511719</ele>
        <time>2018-06-20T07:35:35.000Z</time>
      </trkpt>
      <trkpt lat="43.87063" lon="7.26112">
        <ele>1105.5999755859</ele>
        <time>2018-06-20T07:35:37.000Z</time>
      </trkpt>
      <trkpt lat="43.87061" lon="7.26117">
        <ele>1106.1999511719</ele>
        <time>2018-06-20T07:35:39.000Z</time>
      </trkpt>
      <trkpt lat="43.87058" lon="7.26123">
        <ele>1107.4000244141</ele>
        <time>2018-06-20T07:35:42.000Z</time>
      </trkpt>
      <trkpt lat="43.87058" lon="7.26125">
        <ele>1107.8000488281</ele>
        <time>2018-06-20T07:35:43.000Z</time>
      </trkpt>
      <trkpt lat="43.87058" lon="7.26129">
        <ele>1108</ele>
        <time>2018-06-20T07:35:45.000Z</time>
      </trkpt>
      <trkpt lat="43.87057" lon="7.26132">
        <ele>1108.4000244141</ele>
        <time>2018-06-20T07:35:47.000Z</time>
      </trkpt>
      <trkpt lat="43.87057" lon="7.26134">
        <ele>1108.5999755859</ele>
        <time>2018-06-20T07:35:48.000Z</time>
      </trkpt>
      <trkpt lat="43.87056" lon="7.26146">
        <ele>1108.5999755859</ele>
        <time>2018-06-20T07:35:54.000Z</time>
      </trkpt>
      <trkpt lat="43.87054" lon="7.26155">
        <ele>1109.8000488281</ele>
        <time>2018-06-20T07:35:59.000Z</time>
      </trkpt>
      <trkpt lat="43.87053" lon="7.26161">
        <ele>1111.1999511719</ele>
        <time>2018-06-20T07:36:02.000Z</time>
      </trkpt>
      <trkpt lat="43.87052" lon="7.26167">
        <ele>1112.4000244141</ele>
        <time>2018-06-20T07:36:05.000Z</time>
      </trkpt>
      <trkpt lat="43.87052" lon="7.26168">
        <ele>1112.8000488281</ele>
        <time>2018-06-20T07:36:06.000Z</time>
      </trkpt>
      <trkpt lat="43.87051" lon="7.26176">
        <ele>1113.4000244141</ele>
        <time>2018-06-20T07:36:10.000Z</time>
      </trkpt>
      <trkpt lat="43.87051" lon="7.26178">
        <ele>1113.8000488281</ele>
        <time>2018-06-20T07:36:11.000Z</time>
      </trkpt>
      <trkpt lat="43.87051" lon="7.2618">
        <ele>1114</ele>
        <time>2018-06-20T07:36:12.000Z</time>
      </trkpt>
      <trkpt lat="43.87051" lon="7.26184">
        <ele>1114.5999755859</ele>
        <time>2018-06-20T07:36:14.000Z</time>
      </trkpt>
      <trkpt lat="43.87051" lon="7.26187">
        <ele>1115</ele>
        <time>2018-06-20T07:36:15.000Z</time>
      </trkpt>
      <trkpt lat="43.87051" lon="7.26192">
        <ele>1115.8000488281</ele>
        <time>2018-06-20T07:36:17.000Z</time>
      </trkpt>
      <trkpt lat="43.87051" lon="7.26191">
        <ele>1116</ele>
        <time>2018-06-20T07:36:18.000Z</time>
      </trkpt>
      <trkpt lat="43.87048" lon="7.26206">
        <ele>1117.8000488281</ele>
        <time>2018-06-20T07:36:31.000Z</time>
      </trkpt>
      <trkpt lat="43.87048" lon="7.26209">
        <ele>1118</ele>
        <time>2018-06-20T07:36:32.000Z</time>
      </trkpt>
      <trkpt lat="43.8705" lon="7.26217">
        <ele>1119</ele>
        <time>2018-06-20T07:36:35.000Z</time>
      </trkpt>
      <trkpt lat="43.8705" lon="7.26223">
        <ele>1119.1999511719</ele>
        <time>2018-06-20T07:36:37.000Z</time>
      </trkpt>
      <trkpt lat="43.87051" lon="7.26227">
        <ele>1119.8000488281</ele>
        <time>2018-06-20T07:36:39.000Z</time>
      </trkpt>
      <trkpt lat="43.8705" lon="7.26232">
        <ele>1120.4000244141</ele>
        <time>2018-06-20T07:36:41.000Z</time>
      </trkpt>
      <trkpt lat="43.87049" lon="7.26234">
        <ele>1120.5999755859</ele>
        <time>2018-06-20T07:36:42.000Z</time>
      </trkpt>
      <trkpt lat="43.8705" lon="7.26238">
        <ele>1120.8000488281</ele>
        <time>2018-06-20T07:36:44.000Z</time>
      </trkpt>
      <trkpt lat="43.87049" lon="7.26244">
        <ele>1121.4000244141</ele>
        <time>2018-06-20T07:36:46.000Z</time>
      </trkpt>
      <trkpt lat="43.87049" lon="7.26247">
        <ele>1121.8000488281</ele>
        <time>2018-06-20T07:36:47.000Z</time>
      </trkpt>
      <trkpt lat="43.87049" lon="7.26253">
        <ele>1122.1999511719</ele>
        <time>2018-06-20T07:36:49.000Z</time>
      </trkpt>
      <trkpt lat="43.87048" lon="7.26258">
        <ele>1122.4000244141</ele>
        <time>2018-06-20T07:36:50.000Z</time>
      </trkpt>
      <trkpt lat="43.87048" lon="7.26264">
        <ele>1122.8000488281</ele>
        <time>2018-06-20T07:36:52.000Z</time>
      </trkpt>
      <trkpt lat="43.87049" lon="7.26268">
        <ele>1123.4000244141</ele>
        <time>2018-06-20T07:36:54.000Z</time>
      </trkpt>
      <trkpt lat="43.87049" lon="7.26268">
        <ele>1123.4000244141</ele>
        <time>2018-06-20T07:36:55.000Z</time>
      </trkpt>
      <trkpt lat="43.87048" lon="7.26272">
        <ele>1123.5999755859</ele>
        <time>2018-06-20T07:36:57.000Z</time>
      </trkpt>
      <trkpt lat="43.87048" lon="7.26276">
        <ele>1124</ele>
        <time>2018-06-20T07:36:59.000Z</time>
      </trkpt>
      <trkpt lat="43.87047" lon="7.26284">
        <ele>1124</ele>
        <time>2018-06-20T07:37:02.000Z</time>
      </trkpt>
      <trkpt lat="43.87048" lon="7.26289">
        <ele>1123.8000488281</ele>
        <time>2018-06-20T07:37:05.000Z</time>
      </trkpt>
      <trkpt lat="43.87051" lon="7.26298">
        <ele>1123.1999511719</ele>
        <time>2018-06-20T07:37:11.000Z</time>
      </trkpt>
      <trkpt lat="43.87051" lon="7.26298">
        <ele>1123</ele>
        <time>2018-06-20T07:37:12.000Z</time>
      </trkpt>
      <trkpt lat="43.87052" lon="7.26304">
        <ele>1122.5999755859</ele>
        <time>2018-06-20T07:37:16.000Z</time>
      </trkpt>
      <trkpt lat="43.87052" lon="7.26307">
        <ele>1122.4000244141</ele>
        <time>2018-06-20T07:37:18.000Z</time>
      </trkpt>
      <trkpt lat="43.87052" lon="7.26307">
        <ele>1122.1999511719</ele>
        <time>2018-06-20T07:37:19.000Z</time>
      </trkpt>
      <trkpt lat="43.87054" lon="7.26316">
        <ele>1121.5999755859</ele>
        <time>2018-06-20T07:37:25.000Z</time>
      </trkpt>
      <trkpt lat="43.87055" lon="7.2632">
        <ele>1121.1999511719</ele>
        <time>2018-06-20T07:37:26.000Z</time>
      </trkpt>
      <trkpt lat="43.87056" lon="7.26324">
        <ele>1121.1999511719</ele>
        <time>2018-06-20T07:37:27.000Z</time>
      </trkpt>
      <trkpt lat="43.87059" lon="7.26335">
        <ele>1120.4000244141</ele>
        <time>2018-06-20T07:37:30.000Z</time>
      </trkpt>
      <trkpt lat="43.87061" lon="7.26344">
        <ele>1120</ele>
        <time>2018-06-20T07:37:32.000Z</time>
      </trkpt>
      <trkpt lat="43.87062" lon="7.26355">
        <ele>1119</ele>
        <time>2018-06-20T07:37:34.000Z</time>
      </trkpt>
      <trkpt lat="43.87065" lon="7.26367">
        <ele>1117.8000488281</ele>
        <time>2018-06-20T07:37:36.000Z</time>
      </trkpt>
      <trkpt lat="43.87066" lon="7.26373">
        <ele>1117</ele>
        <time>2018-06-20T07:37:37.000Z</time>
      </trkpt>
      <trkpt lat="43.87067" lon="7.26377">
        <ele>1116.4000244141</ele>
        <time>2018-06-20T07:37:38.000Z</time>
      </trkpt>
      <trkpt lat="43.87071" lon="7.26392">
        <ele>1115.4000244141</ele>
        <time>2018-06-20T07:37:41.000Z</time>
      </trkpt>
      <trkpt lat="43.87076" lon="7.26421">
        <ele>1113.8000488281</ele>
        <time>2018-06-20T07:37:47.000Z</time>
      </trkpt>
      <trkpt lat="43.87077" lon="7.26425">
        <ele>1113.1999511719</ele>
        <time>2018-06-20T07:37:48.000Z</time>
      </trkpt>
      <trkpt lat="43.87081" lon="7.26437">
        <ele>1112.8000488281</ele>
        <time>2018-06-20T07:37:51.000Z</time>
      </trkpt>
      <trkpt lat="43.87082" lon="7.26441">
        <ele>1112.5999755859</ele>
        <time>2018-06-20T07:37:52.000Z</time>
      </trkpt>
      <trkpt lat="43.87085" lon="7.26465">
        <ele>1111.5999755859</ele>
        <time>2018-06-20T07:37:56.000Z</time>
      </trkpt>
      <trkpt lat="43.87083" lon="7.26485">
        <ele>1111.8000488281</ele>
        <time>2018-06-20T07:38:00.000Z</time>
      </trkpt>
      <trkpt lat="43.87072" lon="7.26503">
        <ele>1111.4000244141</ele>
        <time>2018-06-20T07:38:05.000Z</time>
      </trkpt>
      <trkpt lat="43.87065" lon="7.26517">
        <ele>1111.5999755859</ele>
        <time>2018-06-20T07:38:10.000Z</time>
      </trkpt>
      <trkpt lat="43.87065" lon="7.26517">
        <ele>1111.5999755859</ele>
        <time>2018-06-20T07:38:12.000Z</time>
      </trkpt>
      <trkpt lat="43.8706" lon="7.26529">
        <ele>1109.8000488281</ele>
        <time>2018-06-20T07:42:15.000Z</time>
      </trkpt>
      <trkpt lat="43.87058" lon="7.2653">
        <ele>1109.5999755859</ele>
        <time>2018-06-20T07:42:16.000Z</time>
      </trkpt>
      <trkpt lat="43.8705" lon="7.26531">
        <ele>1109.1999511719</ele>
        <time>2018-06-20T07:42:20.000Z</time>
      </trkpt>
      <trkpt lat="43.87043" lon="7.26531">
        <ele>1108.8000488281</ele>
        <time>2018-06-20T07:42:23.000Z</time>
      </trkpt>
      <trkpt lat="43.8704" lon="7.26532">
        <ele>1108.8000488281</ele>
        <time>2018-06-20T07:42:24.000Z</time>
      </trkpt>
      <trkpt lat="43.87027" lon="7.26539">
        <ele>1108</ele>
        <time>2018-06-20T07:42:29.000Z</time>
      </trkpt>
      <trkpt lat="43.87021" lon="7.26545">
        <ele>1107.5999755859</ele>
        <time>2018-06-20T07:42:31.000Z</time>
      </trkpt>
      <trkpt lat="43.87008" lon="7.26557">
        <ele>1106.8000488281</ele>
        <time>2018-06-20T07:42:35.000Z</time>
      </trkpt>
      <trkpt lat="43.86992" lon="7.26563">
        <ele>1106.5999755859</ele>
        <time>2018-06-20T07:42:39.000Z</time>
      </trkpt>
      <trkpt lat="43.86989" lon="7.26564">
        <ele>1106.4000244141</ele>
        <time>2018-06-20T07:42:40.000Z</time>
      </trkpt>
      <trkpt lat="43.86974" lon="7.26564">
        <ele>1105.4000244141</ele>
        <time>2018-06-20T07:42:44.000Z</time>
      </trkpt>
      <trkpt lat="43.86966" lon="7.26563">
        <ele>1105</ele>
        <time>2018-06-20T07:42:46.000Z</time>
      </trkpt>
      <trkpt lat="43.86955" lon="7.26561">
        <ele>1104.4000244141</ele>
        <time>2018-06-20T07:42:49.000Z</time>
      </trkpt>
      <trkpt lat="43.8694" lon="7.26558">
        <ele>1103.4000244141</ele>
        <time>2018-06-20T07:42:53.000Z</time>
      </trkpt>
      <trkpt lat="43.86935" lon="7.26558">
        <ele>1103.1999511719</ele>
        <time>2018-06-20T07:42:54.000Z</time>
      </trkpt>
      <trkpt lat="43.86923" lon="7.26563">
        <ele>1102.5999755859</ele>
        <time>2018-06-20T07:42:58.000Z</time>
      </trkpt>
      <trkpt lat="43.86915" lon="7.26575">
        <ele>1102.1999511719</ele>
        <time>2018-06-20T07:43:01.000Z</time>
      </trkpt>
      <trkpt lat="43.86914" lon="7.26579">
        <ele>1102</ele>
        <time>2018-06-20T07:43:02.000Z</time>
      </trkpt>
      <trkpt lat="43.86904" lon="7.26602">
        <ele>1100.8000488281</ele>
        <time>2018-06-20T07:43:07.000Z</time>
      </trkpt>
      <trkpt lat="43.86898" lon="7.2661">
        <ele>1100.4000244141</ele>
        <time>2018-06-20T07:43:09.000Z</time>
      </trkpt>
      <trkpt lat="43.86891" lon="7.26622">
        <ele>1099.8000488281</ele>
        <time>2018-06-20T07:43:12.000Z</time>
      </trkpt>
      <trkpt lat="43.86882" lon="7.26634">
        <ele>1099.4000244141</ele>
        <time>2018-06-20T07:43:15.000Z</time>
      </trkpt>
      <trkpt lat="43.86866" lon="7.26649">
        <ele>1098.8000488281</ele>
        <time>2018-06-20T07:43:19.000Z</time>
      </trkpt>
      <trkpt lat="43.86861" lon="7.26651">
        <ele>1098.5999755859</ele>
        <time>2018-06-20T07:43:20.000Z</time>
      </trkpt>
      <trkpt lat="43.86843" lon="7.26657">
        <ele>1097.8000488281</ele>
        <time>2018-06-20T07:43:25.000Z</time>
      </trkpt>
      <trkpt lat="43.86839" lon="7.26656">
        <ele>1097.5999755859</ele>
        <time>2018-06-20T07:43:26.000Z</time>
      </trkpt>
      <trkpt lat="43.86825" lon="7.26652">
        <ele>1096.5999755859</ele>
        <time>2018-06-20T07:43:30.000Z</time>
      </trkpt>
      <trkpt lat="43.86821" lon="7.2665">
        <ele>1096.1999511719</ele>
        <time>2018-06-20T07:43:31.000Z</time>
      </trkpt>
      <trkpt lat="43.86814" lon="7.26647">
        <ele>1095.8000488281</ele>
        <time>2018-06-20T07:43:35.000Z</time>
      </trkpt>
      <trkpt lat="43.86814" lon="7.26646">
        <ele>1095.4000244141</ele>
        <time>2018-06-20T07:43:37.000Z</time>
      </trkpt>
      <trkpt lat="43.8681" lon="7.26642">
        <ele>1093.8000488281</ele>
        <time>2018-06-20T07:43:46.000Z</time>
      </trkpt>
      <trkpt lat="43.86808" lon="7.26638">
        <ele>1093</ele>
        <time>2018-06-20T07:43:48.000Z</time>
      </trkpt>
      <trkpt lat="43.86808" lon="7.26637">
        <ele>1092.5999755859</ele>
        <time>2018-06-20T07:43:49.000Z</time>
      </trkpt>
      <trkpt lat="43.86808" lon="7.26637">
        <ele>1092.4000244141</ele>
        <time>2018-06-20T07:43:51.000Z</time>
      </trkpt>
      <trkpt lat="43.86813" lon="7.26638">
        <ele>1091.8000488281</ele>
        <time>2018-06-20T07:43:58.000Z</time>
      </trkpt>
      <trkpt lat="43.86815" lon="7.26638">
        <ele>1092</ele>
        <time>2018-06-20T07:44:01.000Z</time>
      </trkpt>
      <trkpt lat="43.86814" lon="7.26634">
        <ele>1090.5999755859</ele>
        <time>2018-06-20T07:44:14.000Z</time>
      </trkpt>
      <trkpt lat="43.86807" lon="7.26625">
        <ele>1090</ele>
        <time>2018-06-20T07:44:18.000Z</time>
      </trkpt>
      <trkpt lat="43.86802" lon="7.26617">
        <ele>1089.8000488281</ele>
        <time>2018-06-20T07:44:20.000Z</time>
      </trkpt>
      <trkpt lat="43.86799" lon="7.26614">
        <ele>1089.8000488281</ele>
        <time>2018-06-20T07:44:22.000Z</time>
      </trkpt>
      <trkpt lat="43.86797" lon="7.26613">
        <ele>1089.1999511719</ele>
        <time>2018-06-20T07:44:23.000Z</time>
      </trkpt>
      <trkpt lat="43.86788" lon="7.26609">
        <ele>1088.8000488281</ele>
        <time>2018-06-20T07:44:26.000Z</time>
      </trkpt>
      <trkpt lat="43.86782" lon="7.26608">
        <ele>1088</ele>
        <time>2018-06-20T07:44:28.000Z</time>
      </trkpt>
      <trkpt lat="43.86774" lon="7.26606">
        <ele>1087.5999755859</ele>
        <time>2018-06-20T07:44:31.000Z</time>
      </trkpt>
      <trkpt lat="43.86767" lon="7.26603">
        <ele>1087</ele>
        <time>2018-06-20T07:44:34.000Z</time>
      </trkpt>
      <trkpt lat="43.86765" lon="7.26603">
        <ele>1087</ele>
        <time>2018-06-20T07:44:35.000Z</time>
      </trkpt>
      <trkpt lat="43.86752" lon="7.26599">
        <ele>1086.5999755859</ele>
        <time>2018-06-20T07:44:40.000Z</time>
      </trkpt>
      <trkpt lat="43.86738" lon="7.26594">
        <ele>1086</ele>
        <time>2018-06-20T07:44:44.000Z</time>
      </trkpt>
      <trkpt lat="43.86736" lon="7.26593">
        <ele>1085.4000244141</ele>
        <time>2018-06-20T07:44:45.000Z</time>
      </trkpt>
      <trkpt lat="43.86731" lon="7.26593">
        <ele>1084.8000488281</ele>
        <time>2018-06-20T07:44:47.000Z</time>
      </trkpt>
      <trkpt lat="43.86722" lon="7.2659">
        <ele>1083.8000488281</ele>
        <time>2018-06-20T07:44:50.000Z</time>
      </trkpt>
      <trkpt lat="43.86718" lon="7.26589">
        <ele>1083.5999755859</ele>
        <time>2018-06-20T07:44:51.000Z</time>
      </trkpt>
      <trkpt lat="43.86706" lon="7.26585">
        <ele>1082.5999755859</ele>
        <time>2018-06-20T07:44:55.000Z</time>
      </trkpt>
      <trkpt lat="43.86703" lon="7.26585">
        <ele>1082.1999511719</ele>
        <time>2018-06-20T07:44:56.000Z</time>
      </trkpt>
      <trkpt lat="43.86697" lon="7.26585">
        <ele>1081.1999511719</ele>
        <time>2018-06-20T07:44:58.000Z</time>
      </trkpt>
      <trkpt lat="43.86689" lon="7.26586">
        <ele>1080.1999511719</ele>
        <time>2018-06-20T07:45:01.000Z</time>
      </trkpt>
      <trkpt lat="43.86681" lon="7.26588">
        <ele>1079</ele>
        <time>2018-06-20T07:45:05.000Z</time>
      </trkpt>
      <trkpt lat="43.86678" lon="7.26589">
        <ele>1079</ele>
        <time>2018-06-20T07:45:06.000Z</time>
      </trkpt>
      <trkpt lat="43.8667" lon="7.26591">
        <ele>1078</ele>
        <time>2018-06-20T07:45:09.000Z</time>
      </trkpt>
      <trkpt lat="43.86665" lon="7.26593">
        <ele>1077.4000244141</ele>
        <time>2018-06-20T07:45:11.000Z</time>
      </trkpt>
      <trkpt lat="43.86659" lon="7.26596">
        <ele>1076.8000488281</ele>
        <time>2018-06-20T07:45:14.000Z</time>
      </trkpt>
      <trkpt lat="43.86653" lon="7.26597">
        <ele>1075.8000488281</ele>
        <time>2018-06-20T07:45:16.000Z</time>
      </trkpt>
      <trkpt lat="43.86644" lon="7.26599">
        <ele>1074.8000488281</ele>
        <time>2018-06-20T07:45:19.000Z</time>
      </trkpt>
      <trkpt lat="43.86636" lon="7.266">
        <ele>1073.4000244141</ele>
        <time>2018-06-20T07:45:22.000Z</time>
      </trkpt>
      <trkpt lat="43.86625" lon="7.26603">
        <ele>1073.4000244141</ele>
        <time>2018-06-20T07:45:27.000Z</time>
      </trkpt>
      <trkpt lat="43.86608" lon="7.26605">
        <ele>1072.4000244141</ele>
        <time>2018-06-20T07:45:32.000Z</time>
      </trkpt>
      <trkpt lat="43.86606" lon="7.26605">
        <ele>1072.1999511719</ele>
        <time>2018-06-20T07:45:33.000Z</time>
      </trkpt>
      <trkpt lat="43.866" lon="7.26601">
        <ele>1071.1999511719</ele>
        <time>2018-06-20T07:45:36.000Z</time>
      </trkpt>
      <trkpt lat="43.86597" lon="7.266">
        <ele>1071</ele>
        <time>2018-06-20T07:45:37.000Z</time>
      </trkpt>
      <trkpt lat="43.86588" lon="7.26595">
        <ele>1070.4000244141</ele>
        <time>2018-06-20T07:45:42.000Z</time>
      </trkpt>
      <trkpt lat="43.86586" lon="7.26595">
        <ele>1070.1999511719</ele>
        <time>2018-06-20T07:45:43.000Z</time>
      </trkpt>
      <trkpt lat="43.86581" lon="7.2659">
        <ele>1070</ele>
        <time>2018-06-20T07:45:46.000Z</time>
      </trkpt>
      <trkpt lat="43.86571" lon="7.26586">
        <ele>1068.5999755859</ele>
        <time>2018-06-20T07:45:50.000Z</time>
      </trkpt>
      <trkpt lat="43.86568" lon="7.26585">
        <ele>1068.4000244141</ele>
        <time>2018-06-20T07:45:51.000Z</time>
      </trkpt>
      <trkpt lat="43.86557" lon="7.26579">
        <ele>1068</ele>
        <time>2018-06-20T07:45:56.000Z</time>
      </trkpt>
      <trkpt lat="43.86552" lon="7.26577">
        <ele>1067.5999755859</ele>
        <time>2018-06-20T07:45:58.000Z</time>
      </trkpt>
      <trkpt lat="43.86547" lon="7.26574">
        <ele>1067.4000244141</ele>
        <time>2018-06-20T07:46:00.000Z</time>
      </trkpt>
      <trkpt lat="43.86539" lon="7.2657">
        <ele>1067.5999755859</ele>
        <time>2018-06-20T07:46:04.000Z</time>
      </trkpt>
      <trkpt lat="43.86536" lon="7.26567">
        <ele>1067.5999755859</ele>
        <time>2018-06-20T07:46:06.000Z</time>
      </trkpt>
      <trkpt lat="43.86533" lon="7.26565">
        <ele>1068</ele>
        <time>2018-06-20T07:46:08.000Z</time>
      </trkpt>
      <trkpt lat="43.86529" lon="7.26563">
        <ele>1068.1999511719</ele>
        <time>2018-06-20T07:46:10.000Z</time>
      </trkpt>
      <trkpt lat="43.86516" lon="7.2655">
        <ele>1067.8000488281</ele>
        <time>2018-06-20T07:46:17.000Z</time>
      </trkpt>
      <trkpt lat="43.86503" lon="7.26535">
        <ele>1066.5999755859</ele>
        <time>2018-06-20T07:46:22.000Z</time>
      </trkpt>
      <trkpt lat="43.86495" lon="7.26526">
        <ele>1065.1999511719</ele>
        <time>2018-06-20T07:46:25.000Z</time>
      </trkpt>
      <trkpt lat="43.86492" lon="7.26521">
        <ele>1064.4000244141</ele>
        <time>2018-06-20T07:46:26.000Z</time>
      </trkpt>
      <trkpt lat="43.86489" lon="7.26518">
        <ele>1063.8000488281</ele>
        <time>2018-06-20T07:46:27.000Z</time>
      </trkpt>
      <trkpt lat="43.86483" lon="7.26511">
        <ele>1063.4000244141</ele>
        <time>2018-06-20T07:46:29.000Z</time>
      </trkpt>
      <trkpt lat="43.86479" lon="7.26508">
        <ele>1062.5999755859</ele>
        <time>2018-06-20T07:46:30.000Z</time>
      </trkpt>
      <trkpt lat="43.86475" lon="7.26505">
        <ele>1061.5999755859</ele>
        <time>2018-06-20T07:46:31.000Z</time>
      </trkpt>
      <trkpt lat="43.86472" lon="7.26503">
        <ele>1060.4000244141</ele>
        <time>2018-06-20T07:46:32.000Z</time>
      </trkpt>
      <trkpt lat="43.86465" lon="7.26499">
        <ele>1058.8000488281</ele>
        <time>2018-06-20T07:46:34.000Z</time>
      </trkpt>
      <trkpt lat="43.86458" lon="7.26493">
        <ele>1058.1999511719</ele>
        <time>2018-06-20T07:46:36.000Z</time>
      </trkpt>
      <trkpt lat="43.86454" lon="7.2649">
        <ele>1057.8000488281</ele>
        <time>2018-06-20T07:46:37.000Z</time>
      </trkpt>
      <trkpt lat="43.86451" lon="7.26488">
        <ele>1057.1999511719</ele>
        <time>2018-06-20T07:46:38.000Z</time>
      </trkpt>
      <trkpt lat="43.86446" lon="7.26486">
        <ele>1056.4000244141</ele>
        <time>2018-06-20T07:46:40.000Z</time>
      </trkpt>
      <trkpt lat="43.86439" lon="7.26486">
        <ele>1056</ele>
        <time>2018-06-20T07:46:42.000Z</time>
      </trkpt>
      <trkpt lat="43.86432" lon="7.26486">
        <ele>1055</ele>
        <time>2018-06-20T07:46:44.000Z</time>
      </trkpt>
      <trkpt lat="43.86427" lon="7.26485">
        <ele>1053.4000244141</ele>
        <time>2018-06-20T07:46:46.000Z</time>
      </trkpt>
      <trkpt lat="43.86423" lon="7.26484">
        <ele>1053</ele>
        <time>2018-06-20T07:46:47.000Z</time>
      </trkpt>
      <trkpt lat="43.8642" lon="7.26482">
        <ele>1052</ele>
        <time>2018-06-20T07:46:48.000Z</time>
      </trkpt>
      <trkpt lat="43.86417" lon="7.26481">
        <ele>1051</ele>
        <time>2018-06-20T07:46:49.000Z</time>
      </trkpt>
      <trkpt lat="43.86411" lon="7.26478">
        <ele>1049.1999511719</ele>
        <time>2018-06-20T07:46:51.000Z</time>
      </trkpt>
      <trkpt lat="43.86408" lon="7.26476">
        <ele>1048.5999755859</ele>
        <time>2018-06-20T07:46:52.000Z</time>
      </trkpt>
      <trkpt lat="43.86405" lon="7.26474">
        <ele>1047.8000488281</ele>
        <time>2018-06-20T07:46:53.000Z</time>
      </trkpt>
      <trkpt lat="43.86399" lon="7.26469">
        <ele>1046.4000244141</ele>
        <time>2018-06-20T07:46:55.000Z</time>
      </trkpt>
      <trkpt lat="43.86394" lon="7.26466">
        <ele>1045.1999511719</ele>
        <time>2018-06-20T07:46:57.000Z</time>
      </trkpt>
      <trkpt lat="43.86392" lon="7.26465">
        <ele>1044.5999755859</ele>
        <time>2018-06-20T07:46:58.000Z</time>
      </trkpt>
      <trkpt lat="43.86389" lon="7.26463">
        <ele>1043.8000488281</ele>
        <time>2018-06-20T07:46:59.000Z</time>
      </trkpt>
      <trkpt lat="43.86385" lon="7.2646">
        <ele>1042.5999755859</ele>
        <time>2018-06-20T07:47:01.000Z</time>
      </trkpt>
      <trkpt lat="43.86382" lon="7.26457">
        <ele>1041.1999511719</ele>
        <time>2018-06-20T07:47:03.000Z</time>
      </trkpt>
      <trkpt lat="43.86378" lon="7.26455">
        <ele>1040</ele>
        <time>2018-06-20T07:47:05.000Z</time>
      </trkpt>
      <trkpt lat="43.86375" lon="7.26452">
        <ele>1038.8000488281</ele>
        <time>2018-06-20T07:47:07.000Z</time>
      </trkpt>
      <trkpt lat="43.86371" lon="7.26447">
        <ele>1037.1999511719</ele>
        <time>2018-06-20T07:47:09.000Z</time>
      </trkpt>
      <trkpt lat="43.8637" lon="7.26444">
        <ele>1036.4000244141</ele>
        <time>2018-06-20T07:47:10.000Z</time>
      </trkpt>
      <trkpt lat="43.86368" lon="7.26442">
        <ele>1035.5999755859</ele>
        <time>2018-06-20T07:47:11.000Z</time>
      </trkpt>
      <trkpt lat="43.86364" lon="7.26437">
        <ele>1034</ele>
        <time>2018-06-20T07:47:13.000Z</time>
      </trkpt>
      <trkpt lat="43.8636" lon="7.26431">
        <ele>1032.5999755859</ele>
        <time>2018-06-20T07:47:15.000Z</time>
      </trkpt>
      <trkpt lat="43.86357" lon="7.26426">
        <ele>1031.8000488281</ele>
        <time>2018-06-20T07:47:17.000Z</time>
      </trkpt>
      <trkpt lat="43.86356" lon="7.26423">
        <ele>1031.1999511719</ele>
        <time>2018-06-20T07:47:18.000Z</time>
      </trkpt>
      <trkpt lat="43.86355" lon="7.26419">
        <ele>1030.1999511719</ele>
        <time>2018-06-20T07:47:19.000Z</time>
      </trkpt>
      <trkpt lat="43.86353" lon="7.26415">
        <ele>1029</ele>
        <time>2018-06-20T07:47:20.000Z</time>
      </trkpt>
      <trkpt lat="43.86351" lon="7.2641">
        <ele>1028.1999511719</ele>
        <time>2018-06-20T07:47:21.000Z</time>
      </trkpt>
      <trkpt lat="43.8635" lon="7.26407">
        <ele>1027.4000244141</ele>
        <time>2018-06-20T07:47:22.000Z</time>
      </trkpt>
      <trkpt lat="43.86348" lon="7.26404">
        <ele>1026.4000244141</ele>
        <time>2018-06-20T07:47:25.000Z</time>
      </trkpt>
      <trkpt lat="43.86344" lon="7.26402">
        <ele>1025.4000244141</ele>
        <time>2018-06-20T07:49:04.000Z</time>
      </trkpt>
      <trkpt lat="43.86341" lon="7.26397">
        <ele>1024.8000488281</ele>
        <time>2018-06-20T07:49:06.000Z</time>
      </trkpt>
      <trkpt lat="43.86338" lon="7.26393">
        <ele>1024.1999511719</ele>
        <time>2018-06-20T07:49:08.000Z</time>
      </trkpt>
      <trkpt lat="43.86333" lon="7.26386">
        <ele>1023</ele>
        <time>2018-06-20T07:49:11.000Z</time>
      </trkpt>
      <trkpt lat="43.86331" lon="7.26383">
        <ele>1022.799987793</ele>
        <time>2018-06-20T07:49:12.000Z</time>
      </trkpt>
      <trkpt lat="43.86322" lon="7.26374">
        <ele>1022</ele>
        <time>2018-06-20T07:49:15.000Z</time>
      </trkpt>
      <trkpt lat="43.86315" lon="7.26368">
        <ele>1021.200012207</ele>
        <time>2018-06-20T07:49:17.000Z</time>
      </trkpt>
      <trkpt lat="43.86304" lon="7.26358">
        <ele>1020.5999755859</ele>
        <time>2018-06-20T07:49:20.000Z</time>
      </trkpt>
      <trkpt lat="43.86297" lon="7.26352">
        <ele>1020.4000244141</ele>
        <time>2018-06-20T07:49:22.000Z</time>
      </trkpt>
      <trkpt lat="43.86291" lon="7.26349">
        <ele>1020.4000244141</ele>
        <time>2018-06-20T07:49:24.000Z</time>
      </trkpt>
      <trkpt lat="43.86284" lon="7.26348">
        <ele>1020</ele>
        <time>2018-06-20T07:49:27.000Z</time>
      </trkpt>
      <trkpt lat="43.86278" lon="7.26348">
        <ele>1019.5999755859</ele>
        <time>2018-06-20T07:49:29.000Z</time>
      </trkpt>
      <trkpt lat="43.86266" lon="7.26344">
        <ele>1018.5999755859</ele>
        <time>2018-06-20T07:49:33.000Z</time>
      </trkpt>
      <trkpt lat="43.86262" lon="7.26341">
        <ele>1018.200012207</ele>
        <time>2018-06-20T07:49:34.000Z</time>
      </trkpt>
      <trkpt lat="43.86253" lon="7.26332">
        <ele>1017.200012207</ele>
        <time>2018-06-20T07:49:37.000Z</time>
      </trkpt>
      <trkpt lat="43.8625" lon="7.26328">
        <ele>1017</ele>
        <time>2018-06-20T07:49:38.000Z</time>
      </trkpt>
      <trkpt lat="43.86244" lon="7.26319">
        <ele>1016.5999755859</ele>
        <time>2018-06-20T07:49:40.000Z</time>
      </trkpt>
      <trkpt lat="43.86241" lon="7.26314">
        <ele>1016.200012207</ele>
        <time>2018-06-20T07:49:41.000Z</time>
      </trkpt>
      <trkpt lat="43.8623" lon="7.26296">
        <ele>1015</ele>
        <time>2018-06-20T07:49:45.000Z</time>
      </trkpt>
      <trkpt lat="43.86227" lon="7.26292">
        <ele>1014.5999755859</ele>
        <time>2018-06-20T07:49:46.000Z</time>
      </trkpt>
      <trkpt lat="43.86223" lon="7.26287">
        <ele>1014</ele>
        <time>2018-06-20T07:49:47.000Z</time>
      </trkpt>
      <trkpt lat="43.86219" lon="7.26284">
        <ele>1013.5999755859</ele>
        <time>2018-06-20T07:49:48.000Z</time>
      </trkpt>
      <trkpt lat="43.8621" lon="7.26276">
        <ele>1012.5999755859</ele>
        <time>2018-06-20T07:49:50.000Z</time>
      </trkpt>
      <trkpt lat="43.86207" lon="7.26272">
        <ele>1012</ele>
        <time>2018-06-20T07:49:51.000Z</time>
      </trkpt>
      <trkpt lat="43.86203" lon="7.26269">
        <ele>1011.4000244141</ele>
        <time>2018-06-20T07:49:52.000Z</time>
      </trkpt>
      <trkpt lat="43.86197" lon="7.26262">
        <ele>1010.4000244141</ele>
        <time>2018-06-20T07:49:54.000Z</time>
      </trkpt>
      <trkpt lat="43.8619" lon="7.26254">
        <ele>1009</ele>
        <time>2018-06-20T07:49:56.000Z</time>
      </trkpt>
      <trkpt lat="43.86187" lon="7.2625">
        <ele>1008.200012207</ele>
        <time>2018-06-20T07:49:57.000Z</time>
      </trkpt>
      <trkpt lat="43.86184" lon="7.26247">
        <ele>1007.5999755859</ele>
        <time>2018-06-20T07:49:58.000Z</time>
      </trkpt>
      <trkpt lat="43.86178" lon="7.2624">
        <ele>1006.200012207</ele>
        <time>2018-06-20T07:50:00.000Z</time>
      </trkpt>
      <trkpt lat="43.86171" lon="7.26232">
        <ele>1004.799987793</ele>
        <time>2018-06-20T07:50:03.000Z</time>
      </trkpt>
      <trkpt lat="43.86165" lon="7.26225">
        <ele>1003.4000244141</ele>
        <time>2018-06-20T07:50:06.000Z</time>
      </trkpt>
      <trkpt lat="43.86161" lon="7.2622">
        <ele>1002.200012207</ele>
        <time>2018-06-20T07:50:09.000Z</time>
      </trkpt>
      <trkpt lat="43.86159" lon="7.26216">
        <ele>1001</ele>
        <time>2018-06-20T07:50:11.000Z</time>
      </trkpt>
      <trkpt lat="43.86154" lon="7.26211">
        <ele>999.59997558594</ele>
        <time>2018-06-20T07:50:14.000Z</time>
      </trkpt>
      <trkpt lat="43.86151" lon="7.26209">
        <ele>998.40002441406</ele>
        <time>2018-06-20T07:50:16.000Z</time>
      </trkpt>
      <trkpt lat="43.86149" lon="7.26208">
        <ele>998</ele>
        <time>2018-06-20T07:50:17.000Z</time>
      </trkpt>
      <trkpt lat="43.86147" lon="7.26209">
        <ele>997.40002441406</ele>
        <time>2018-06-20T07:50:19.000Z</time>
      </trkpt>
      <trkpt lat="43.86141" lon="7.2621">
        <ele>996.79998779297</ele>
        <time>2018-06-20T07:50:21.000Z</time>
      </trkpt>
      <trkpt lat="43.86136" lon="7.2621">
        <ele>996</ele>
        <time>2018-06-20T07:50:23.000Z</time>
      </trkpt>
      <trkpt lat="43.8613" lon="7.26208">
        <ele>994.79998779297</ele>
        <time>2018-06-20T07:50:25.000Z</time>
      </trkpt>
      <trkpt lat="43.86127" lon="7.26208">
        <ele>994</ele>
        <time>2018-06-20T07:50:26.000Z</time>
      </trkpt>
      <trkpt lat="43.86125" lon="7.26206">
        <ele>993.40002441406</ele>
        <time>2018-06-20T07:50:27.000Z</time>
      </trkpt>
      <trkpt lat="43.86118" lon="7.26201">
        <ele>992.20001220703</ele>
        <time>2018-06-20T07:50:30.000Z</time>
      </trkpt>
      <trkpt lat="43.86115" lon="7.262">
        <ele>991.79998779297</ele>
        <time>2018-06-20T07:50:31.000Z</time>
      </trkpt>
      <trkpt lat="43.86112" lon="7.26198">
        <ele>991.20001220703</ele>
        <time>2018-06-20T07:50:32.000Z</time>
      </trkpt>
      <trkpt lat="43.86103" lon="7.26189">
        <ele>990</ele>
        <time>2018-06-20T07:50:35.000Z</time>
      </trkpt>
      <trkpt lat="43.861" lon="7.26183">
        <ele>989</ele>
        <time>2018-06-20T07:50:39.000Z</time>
      </trkpt>
      <trkpt lat="43.86096" lon="7.26176">
        <ele>986.40002441406</ele>
        <time>2018-06-20T07:50:56.000Z</time>
      </trkpt>
      <trkpt lat="43.86093" lon="7.26171">
        <ele>985.20001220703</ele>
        <time>2018-06-20T07:50:59.000Z</time>
      </trkpt>
      <trkpt lat="43.8609" lon="7.26166">
        <ele>984.20001220703</ele>
        <time>2018-06-20T07:51:02.000Z</time>
      </trkpt>
      <trkpt lat="43.86087" lon="7.2616">
        <ele>982.79998779297</ele>
        <time>2018-06-20T07:51:05.000Z</time>
      </trkpt>
      <trkpt lat="43.86088" lon="7.26157">
        <ele>982.20001220703</ele>
        <time>2018-06-20T07:51:06.000Z</time>
      </trkpt>
      <trkpt lat="43.86087" lon="7.26153">
        <ele>981.20001220703</ele>
        <time>2018-06-20T07:51:08.000Z</time>
      </trkpt>
      <trkpt lat="43.86084" lon="7.26152">
        <ele>980.20001220703</ele>
        <time>2018-06-20T07:51:10.000Z</time>
      </trkpt>
      <trkpt lat="43.86082" lon="7.26153">
        <ele>979.59997558594</ele>
        <time>2018-06-20T07:51:11.000Z</time>
      </trkpt>
      <trkpt lat="43.8608" lon="7.26154">
        <ele>979</ele>
        <time>2018-06-20T07:51:12.000Z</time>
      </trkpt>
      <trkpt lat="43.86075" lon="7.26157">
        <ele>977.40002441406</ele>
        <time>2018-06-20T07:51:15.000Z</time>
      </trkpt>
      <trkpt lat="43.86073" lon="7.26158">
        <ele>976.79998779297</ele>
        <time>2018-06-20T07:51:16.000Z</time>
      </trkpt>
      <trkpt lat="43.86071" lon="7.26159">
        <ele>976.40002441406</ele>
        <time>2018-06-20T07:51:17.000Z</time>
      </trkpt>
      <trkpt lat="43.86067" lon="7.26162">
        <ele>975.20001220703</ele>
        <time>2018-06-20T07:51:20.000Z</time>
      </trkpt>
      <trkpt lat="43.86067" lon="7.26162">
        <ele>974.79998779297</ele>
        <time>2018-06-20T07:51:21.000Z</time>
      </trkpt>
      <trkpt lat="43.86065" lon="7.26162">
        <ele>974</ele>
        <time>2018-06-20T07:51:24.000Z</time>
      </trkpt>
      <trkpt lat="43.86062" lon="7.2616">
        <ele>973.20001220703</ele>
        <time>2018-06-20T07:51:27.000Z</time>
      </trkpt>
      <trkpt lat="43.86062" lon="7.26159">
        <ele>973</ele>
        <time>2018-06-20T07:51:28.000Z</time>
      </trkpt>
      <trkpt lat="43.86065" lon="7.26149">
        <ele>971.79998779297</ele>
        <time>2018-06-20T07:51:32.000Z</time>
      </trkpt>
      <trkpt lat="43.86068" lon="7.2614">
        <ele>970.40002441406</ele>
        <time>2018-06-20T07:51:35.000Z</time>
      </trkpt>
      <trkpt lat="43.86073" lon="7.26132">
        <ele>969</ele>
        <time>2018-06-20T07:51:38.000Z</time>
      </trkpt>
      <trkpt lat="43.86074" lon="7.26129">
        <ele>968.59997558594</ele>
        <time>2018-06-20T07:51:39.000Z</time>
      </trkpt>
      <trkpt lat="43.86076" lon="7.26123">
        <ele>967.59997558594</ele>
        <time>2018-06-20T07:51:41.000Z</time>
      </trkpt>
      <trkpt lat="43.8608" lon="7.26114">
        <ele>966.40002441406</ele>
        <time>2018-06-20T07:51:44.000Z</time>
      </trkpt>
      <trkpt lat="43.86082" lon="7.26111">
        <ele>965.79998779297</ele>
        <time>2018-06-20T07:51:45.000Z</time>
      </trkpt>
      <trkpt lat="43.86083" lon="7.26108">
        <ele>965.20001220703</ele>
        <time>2018-06-20T07:51:46.000Z</time>
      </trkpt>
      <trkpt lat="43.86087" lon="7.26099">
        <ele>963.79998779297</ele>
        <time>2018-06-20T07:51:49.000Z</time>
      </trkpt>
      <trkpt lat="43.86089" lon="7.26094">
        <ele>962.79998779297</ele>
        <time>2018-06-20T07:51:51.000Z</time>
      </trkpt>
      <trkpt lat="43.8609" lon="7.26092">
        <ele>962.40002441406</ele>
        <time>2018-06-20T07:51:52.000Z</time>
      </trkpt>
      <trkpt lat="43.8609" lon="7.26093">
        <ele>962.20001220703</ele>
        <time>2018-06-20T07:51:53.000Z</time>
      </trkpt>
      <trkpt lat="43.86095" lon="7.2608">
        <ele>959.20001220703</ele>
        <time>2018-06-20T07:52:42.000Z</time>
      </trkpt>
      <trkpt lat="43.86095" lon="7.26079">
        <ele>958.79998779297</ele>
        <time>2018-06-20T07:52:43.000Z</time>
      </trkpt>
      <trkpt lat="43.86096" lon="7.26077">
        <ele>958.40002441406</ele>
        <time>2018-06-20T07:52:46.000Z</time>
      </trkpt>
      <trkpt lat="43.86101" lon="7.26051">
        <ele>951.79998779297</ele>
        <time>2018-06-20T07:53:20.000Z</time>
      </trkpt>
      <trkpt lat="43.86102" lon="7.2605">
        <ele>951.40002441406</ele>
        <time>2018-06-20T07:53:21.000Z</time>
      </trkpt>
      <trkpt lat="43.86104" lon="7.26046">
        <ele>950.59997558594</ele>
        <time>2018-06-20T07:53:23.000Z</time>
      </trkpt>
      <trkpt lat="43.86105" lon="7.26044">
        <ele>950</ele>
        <time>2018-06-20T07:53:24.000Z</time>
      </trkpt>
      <trkpt lat="43.86104" lon="7.26042">
        <ele>949.20001220703</ele>
        <time>2018-06-20T07:53:25.000Z</time>
      </trkpt>
      <trkpt lat="43.86103" lon="7.26035">
        <ele>948</ele>
        <time>2018-06-20T07:53:28.000Z</time>
      </trkpt>
      <trkpt lat="43.86101" lon="7.26025">
        <ele>947</ele>
        <time>2018-06-20T07:53:31.000Z</time>
      </trkpt>
      <trkpt lat="43.861" lon="7.26021">
        <ele>946.20001220703</ele>
        <time>2018-06-20T07:53:32.000Z</time>
      </trkpt>
      <trkpt lat="43.86097" lon="7.26015">
        <ele>944.79998779297</ele>
        <time>2018-06-20T07:53:34.000Z</time>
      </trkpt>
      <trkpt lat="43.86094" lon="7.26009">
        <ele>943.20001220703</ele>
        <time>2018-06-20T07:53:36.000Z</time>
      </trkpt>
      <trkpt lat="43.86091" lon="7.26003">
        <ele>941.79998779297</ele>
        <time>2018-06-20T07:53:38.000Z</time>
      </trkpt>
      <trkpt lat="43.86085" lon="7.25998">
        <ele>940.40002441406</ele>
        <time>2018-06-20T07:53:40.000Z</time>
      </trkpt>
      <trkpt lat="43.86079" lon="7.25993">
        <ele>939.20001220703</ele>
        <time>2018-06-20T07:53:42.000Z</time>
      </trkpt>
      <trkpt lat="43.86068" lon="7.25988">
        <ele>937.79998779297</ele>
        <time>2018-06-20T07:53:45.000Z</time>
      </trkpt>
      <trkpt lat="43.8606" lon="7.25984">
        <ele>936.79998779297</ele>
        <time>2018-06-20T07:53:48.000Z</time>
      </trkpt>
      <trkpt lat="43.86057" lon="7.25983">
        <ele>936.59997558594</ele>
        <time>2018-06-20T07:53:49.000Z</time>
      </trkpt>
      <trkpt lat="43.86054" lon="7.25983">
        <ele>936</ele>
        <time>2018-06-20T07:53:51.000Z</time>
      </trkpt>
      <trkpt lat="43.86053" lon="7.25984">
        <ele>935.79998779297</ele>
        <time>2018-06-20T07:53:52.000Z</time>
      </trkpt>
      <trkpt lat="43.86052" lon="7.25987">
        <ele>935.59997558594</ele>
        <time>2018-06-20T07:53:54.000Z</time>
      </trkpt>
      <trkpt lat="43.86052" lon="7.25988">
        <ele>935.40002441406</ele>
        <time>2018-06-20T07:53:56.000Z</time>
      </trkpt>
      <trkpt lat="43.86051" lon="7.25999">
        <ele>930</ele>
        <time>2018-06-20T07:55:21.000Z</time>
      </trkpt>
      <trkpt lat="43.86047" lon="7.25995">
        <ele>928.79998779297</ele>
        <time>2018-06-20T07:55:24.000Z</time>
      </trkpt>
      <trkpt lat="43.86044" lon="7.25994">
        <ele>927.59997558594</ele>
        <time>2018-06-20T07:55:26.000Z</time>
      </trkpt>
      <trkpt lat="43.86041" lon="7.25992">
        <ele>926.40002441406</ele>
        <time>2018-06-20T07:55:28.000Z</time>
      </trkpt>
      <trkpt lat="43.86039" lon="7.25991">
        <ele>926.20001220703</ele>
        <time>2018-06-20T07:55:29.000Z</time>
      </trkpt>
      <trkpt lat="43.86038" lon="7.25991">
        <ele>925.79998779297</ele>
        <time>2018-06-20T07:55:30.000Z</time>
      </trkpt>
      <trkpt lat="43.86038" lon="7.25991">
        <ele>925.79998779297</ele>
        <time>2018-06-20T07:55:31.000Z</time>
      </trkpt>
      <trkpt lat="43.86029" lon="7.26">
        <ele>922.59997558594</ele>
        <time>2018-06-20T07:56:01.000Z</time>
      </trkpt>
      <trkpt lat="43.86027" lon="7.25998">
        <ele>922.40002441406</ele>
        <time>2018-06-20T07:56:02.000Z</time>
      </trkpt>
      <trkpt lat="43.86022" lon="7.25995">
        <ele>921.59997558594</ele>
        <time>2018-06-20T07:56:04.000Z</time>
      </trkpt>
      <trkpt lat="43.86012" lon="7.25991">
        <ele>920.20001220703</ele>
        <time>2018-06-20T07:56:07.000Z</time>
      </trkpt>
      <trkpt lat="43.85999" lon="7.25987">
        <ele>919</ele>
        <time>2018-06-20T07:56:11.000Z</time>
      </trkpt>
      <trkpt lat="43.85996" lon="7.25985">
        <ele>918.79998779297</ele>
        <time>2018-06-20T07:56:12.000Z</time>
      </trkpt>
      <trkpt lat="43.85991" lon="7.25984">
        <ele>918</ele>
        <time>2018-06-20T07:56:14.000Z</time>
      </trkpt>
      <trkpt lat="43.85986" lon="7.25983">
        <ele>917</ele>
        <time>2018-06-20T07:56:16.000Z</time>
      </trkpt>
      <trkpt lat="43.85983" lon="7.25982">
        <ele>916.40002441406</ele>
        <time>2018-06-20T07:56:17.000Z</time>
      </trkpt>
      <trkpt lat="43.8598" lon="7.25982">
        <ele>915.79998779297</ele>
        <time>2018-06-20T07:56:18.000Z</time>
      </trkpt>
      <trkpt lat="43.85973" lon="7.25981">
        <ele>914.59997558594</ele>
        <time>2018-06-20T07:56:20.000Z</time>
      </trkpt>
      <trkpt lat="43.85966" lon="7.2598">
        <ele>913.40002441406</ele>
        <time>2018-06-20T07:56:22.000Z</time>
      </trkpt>
      <trkpt lat="43.85957" lon="7.25976">
        <ele>912.20001220703</ele>
        <time>2018-06-20T07:56:25.000Z</time>
      </trkpt>
      <trkpt lat="43.8595" lon="7.25974">
        <ele>911.20001220703</ele>
        <time>2018-06-20T07:56:28.000Z</time>
      </trkpt>
      <trkpt lat="43.85945" lon="7.25974">
        <ele>910</ele>
        <time>2018-06-20T07:56:30.000Z</time>
      </trkpt>
      <trkpt lat="43.85939" lon="7.25974">
        <ele>908.79998779297</ele>
        <time>2018-06-20T07:56:33.000Z</time>
      </trkpt>
      <trkpt lat="43.85934" lon="7.25974">
        <ele>907.59997558594</ele>
        <time>2018-06-20T07:56:35.000Z</time>
      </trkpt>
      <trkpt lat="43.85928" lon="7.25974">
        <ele>906</ele>
        <time>2018-06-20T07:56:37.000Z</time>
      </trkpt>
      <trkpt lat="43.85921" lon="7.25975">
        <ele>904.40002441406</ele>
        <time>2018-06-20T07:56:40.000Z</time>
      </trkpt>
      <trkpt lat="43.85917" lon="7.25975">
        <ele>903.40002441406</ele>
        <time>2018-06-20T07:56:41.000Z</time>
      </trkpt>
      <trkpt lat="43.85913" lon="7.25974">
        <ele>902.59997558594</ele>
        <time>2018-06-20T07:56:42.000Z</time>
      </trkpt>
      <trkpt lat="43.8591" lon="7.25973">
        <ele>902</ele>
        <time>2018-06-20T07:56:43.000Z</time>
      </trkpt>
      <trkpt lat="43.85905" lon="7.25972">
        <ele>900.40002441406</ele>
        <time>2018-06-20T07:56:45.000Z</time>
      </trkpt>
      <trkpt lat="43.85901" lon="7.25971">
        <ele>899.79998779297</ele>
        <time>2018-06-20T07:56:46.000Z</time>
      </trkpt>
      <trkpt lat="43.85898" lon="7.25969">
        <ele>899.40002441406</ele>
        <time>2018-06-20T07:56:47.000Z</time>
      </trkpt>
      <trkpt lat="43.85892" lon="7.25968">
        <ele>898</ele>
        <time>2018-06-20T07:56:50.000Z</time>
      </trkpt>
      <trkpt lat="43.85886" lon="7.25965">
        <ele>896.79998779297</ele>
        <time>2018-06-20T07:56:53.000Z</time>
      </trkpt>
      <trkpt lat="43.85883" lon="7.25964">
        <ele>896.40002441406</ele>
        <time>2018-06-20T07:56:54.000Z</time>
      </trkpt>
      <trkpt lat="43.85878" lon="7.25964">
        <ele>895.20001220703</ele>
        <time>2018-06-20T07:56:56.000Z</time>
      </trkpt>
      <trkpt lat="43.85869" lon="7.25965">
        <ele>893.59997558594</ele>
        <time>2018-06-20T07:56:59.000Z</time>
      </trkpt>
      <trkpt lat="43.85859" lon="7.25965">
        <ele>892.20001220703</ele>
        <time>2018-06-20T07:57:02.000Z</time>
      </trkpt>
      <trkpt lat="43.85854" lon="7.25964">
        <ele>891</ele>
        <time>2018-06-20T07:57:04.000Z</time>
      </trkpt>
      <trkpt lat="43.85847" lon="7.25964">
        <ele>890</ele>
        <time>2018-06-20T07:57:07.000Z</time>
      </trkpt>
      <trkpt lat="43.85844" lon="7.25963">
        <ele>889.40002441406</ele>
        <time>2018-06-20T07:57:09.000Z</time>
      </trkpt>
      <trkpt lat="43.85841" lon="7.25962">
        <ele>888.59997558594</ele>
        <time>2018-06-20T07:57:11.000Z</time>
      </trkpt>
      <trkpt lat="43.85834" lon="7.25962">
        <ele>887.59997558594</ele>
        <time>2018-06-20T07:57:14.000Z</time>
      </trkpt>
      <trkpt lat="43.85831" lon="7.25962">
        <ele>887.20001220703</ele>
        <time>2018-06-20T07:57:15.000Z</time>
      </trkpt>
      <trkpt lat="43.85825" lon="7.25962">
        <ele>886.40002441406</ele>
        <time>2018-06-20T07:57:18.000Z</time>
      </trkpt>
      <trkpt lat="43.85821" lon="7.25964">
        <ele>885.20001220703</ele>
        <time>2018-06-20T07:57:20.000Z</time>
      </trkpt>
      <trkpt lat="43.85819" lon="7.25963">
        <ele>884.79998779297</ele>
        <time>2018-06-20T07:57:21.000Z</time>
      </trkpt>
      <trkpt lat="43.85812" lon="7.2596">
        <ele>884</ele>
        <time>2018-06-20T07:57:24.000Z</time>
      </trkpt>
      <trkpt lat="43.85807" lon="7.25958">
        <ele>883.20001220703</ele>
        <time>2018-06-20T07:57:27.000Z</time>
      </trkpt>
      <trkpt lat="43.85806" lon="7.25959">
        <ele>883</ele>
        <time>2018-06-20T07:57:28.000Z</time>
      </trkpt>
      <trkpt lat="43.85805" lon="7.25959">
        <ele>882.59997558594</ele>
        <time>2018-06-20T07:57:29.000Z</time>
      </trkpt>
      <trkpt lat="43.858" lon="7.25961">
        <ele>881.59997558594</ele>
        <time>2018-06-20T07:57:31.000Z</time>
      </trkpt>
      <trkpt lat="43.85794" lon="7.25961">
        <ele>880.20001220703</ele>
        <time>2018-06-20T07:57:34.000Z</time>
      </trkpt>
      <trkpt lat="43.85787" lon="7.25962">
        <ele>878.79998779297</ele>
        <time>2018-06-20T07:57:37.000Z</time>
      </trkpt>
      <trkpt lat="43.85783" lon="7.25961">
        <ele>877.79998779297</ele>
        <time>2018-06-20T07:57:39.000Z</time>
      </trkpt>
      <trkpt lat="43.85782" lon="7.2596">
        <ele>877.40002441406</ele>
        <time>2018-06-20T07:57:40.000Z</time>
      </trkpt>
      <trkpt lat="43.85777" lon="7.25957">
        <ele>876</ele>
        <time>2018-06-20T07:57:42.000Z</time>
      </trkpt>
      <trkpt lat="43.85773" lon="7.25956">
        <ele>875</ele>
        <time>2018-06-20T07:57:44.000Z</time>
      </trkpt>
      <trkpt lat="43.85768" lon="7.25952">
        <ele>873.59997558594</ele>
        <time>2018-06-20T07:57:47.000Z</time>
      </trkpt>
      <trkpt lat="43.85762" lon="7.2595">
        <ele>872.59997558594</ele>
        <time>2018-06-20T07:57:50.000Z</time>
      </trkpt>
      <trkpt lat="43.8576" lon="7.25949">
        <ele>872.40002441406</ele>
        <time>2018-06-20T07:57:53.000Z</time>
      </trkpt>
      <trkpt lat="43.85753" lon="7.2595">
        <ele>871.20001220703</ele>
        <time>2018-06-20T07:58:05.000Z</time>
      </trkpt>
      <trkpt lat="43.85751" lon="7.25949">
        <ele>871</ele>
        <time>2018-06-20T07:58:06.000Z</time>
      </trkpt>
      <trkpt lat="43.85741" lon="7.25944">
        <ele>869.79998779297</ele>
        <time>2018-06-20T07:58:10.000Z</time>
      </trkpt>
      <trkpt lat="43.85732" lon="7.25943">
        <ele>868.79998779297</ele>
        <time>2018-06-20T07:58:14.000Z</time>
      </trkpt>
      <trkpt lat="43.85732" lon="7.25943">
        <ele>868.59997558594</ele>
        <time>2018-06-20T07:58:15.000Z</time>
      </trkpt>
      <trkpt lat="43.85707" lon="7.25944">
        <ele>862.59997558594</ele>
        <time>2018-06-20T07:59:24.000Z</time>
      </trkpt>
      <trkpt lat="43.85706" lon="7.25943">
        <ele>862.40002441406</ele>
        <time>2018-06-20T07:59:25.000Z</time>
      </trkpt>
      <trkpt lat="43.85699" lon="7.25941">
        <ele>861.59997558594</ele>
        <time>2018-06-20T07:59:28.000Z</time>
      </trkpt>
      <trkpt lat="43.85696" lon="7.2594">
        <ele>861.20001220703</ele>
        <time>2018-06-20T07:59:29.000Z</time>
      </trkpt>
      <trkpt lat="43.8569" lon="7.2594">
        <ele>860</ele>
        <time>2018-06-20T07:59:31.000Z</time>
      </trkpt>
      <trkpt lat="43.85685" lon="7.25939">
        <ele>858.79998779297</ele>
        <time>2018-06-20T07:59:33.000Z</time>
      </trkpt>
      <trkpt lat="43.85679" lon="7.25936">
        <ele>857.59997558594</ele>
        <time>2018-06-20T07:59:35.000Z</time>
      </trkpt>
      <trkpt lat="43.85676" lon="7.25932">
        <ele>856.79998779297</ele>
        <time>2018-06-20T07:59:37.000Z</time>
      </trkpt>
      <trkpt lat="43.85675" lon="7.25929">
        <ele>856.40002441406</ele>
        <time>2018-06-20T07:59:38.000Z</time>
      </trkpt>
      <trkpt lat="43.85672" lon="7.25925">
        <ele>856</ele>
        <time>2018-06-20T07:59:40.000Z</time>
      </trkpt>
      <trkpt lat="43.85669" lon="7.25925">
        <ele>855.40002441406</ele>
        <time>2018-06-20T07:59:42.000Z</time>
      </trkpt>
      <trkpt lat="43.85665" lon="7.25923">
        <ele>854.59997558594</ele>
        <time>2018-06-20T07:59:44.000Z</time>
      </trkpt>
      <trkpt lat="43.85663" lon="7.25923">
        <ele>854.20001220703</ele>
        <time>2018-06-20T07:59:46.000Z</time>
      </trkpt>
      <trkpt lat="43.85662" lon="7.25923">
        <ele>854</ele>
        <time>2018-06-20T07:59:47.000Z</time>
      </trkpt>
      <trkpt lat="43.85659" lon="7.25922">
        <ele>853.20001220703</ele>
        <time>2018-06-20T07:59:52.000Z</time>
      </trkpt>
      <trkpt lat="43.85645" lon="7.25926">
        <ele>849.79998779297</ele>
        <time>2018-06-20T08:00:16.000Z</time>
      </trkpt>
      <trkpt lat="43.85644" lon="7.25926">
        <ele>849.40002441406</ele>
        <time>2018-06-20T08:00:18.000Z</time>
      </trkpt>
      <trkpt lat="43.85642" lon="7.25926">
        <ele>849</ele>
        <time>2018-06-20T08:00:20.000Z</time>
      </trkpt>
      <trkpt lat="43.85641" lon="7.25924">
        <ele>848.79998779297</ele>
        <time>2018-06-20T08:00:21.000Z</time>
      </trkpt>
      <trkpt lat="43.85639" lon="7.25921">
        <ele>848.59997558594</ele>
        <time>2018-06-20T08:00:22.000Z</time>
      </trkpt>
      <trkpt lat="43.85634" lon="7.25917">
        <ele>848</ele>
        <time>2018-06-20T08:00:25.000Z</time>
      </trkpt>
      <trkpt lat="43.8563" lon="7.2592">
        <ele>847.40002441406</ele>
        <time>2018-06-20T08:00:28.000Z</time>
      </trkpt>
      <trkpt lat="43.85626" lon="7.25918">
        <ele>846.79998779297</ele>
        <time>2018-06-20T08:00:30.000Z</time>
      </trkpt>
      <trkpt lat="43.85623" lon="7.25914">
        <ele>846.40002441406</ele>
        <time>2018-06-20T08:00:32.000Z</time>
      </trkpt>
      <trkpt lat="43.85619" lon="7.25914">
        <ele>845.79998779297</ele>
        <time>2018-06-20T08:00:34.000Z</time>
      </trkpt>
      <trkpt lat="43.85616" lon="7.25914">
        <ele>845.40002441406</ele>
        <time>2018-06-20T08:00:35.000Z</time>
      </trkpt>
      <trkpt lat="43.85613" lon="7.25914">
        <ele>845</ele>
        <time>2018-06-20T08:00:36.000Z</time>
      </trkpt>
      <trkpt lat="43.85607" lon="7.25911">
        <ele>844</ele>
        <time>2018-06-20T08:00:38.000Z</time>
      </trkpt>
      <trkpt lat="43.85601" lon="7.25907">
        <ele>843</ele>
        <time>2018-06-20T08:00:40.000Z</time>
      </trkpt>
      <trkpt lat="43.85597" lon="7.25904">
        <ele>842</ele>
        <time>2018-06-20T08:00:42.000Z</time>
      </trkpt>
      <trkpt lat="43.85595" lon="7.25901">
        <ele>841.79998779297</ele>
        <time>2018-06-20T08:00:43.000Z</time>
      </trkpt>
      <trkpt lat="43.85589" lon="7.25898">
        <ele>840.79998779297</ele>
        <time>2018-06-20T08:00:47.000Z</time>
      </trkpt>
      <trkpt lat="43.85588" lon="7.25898">
        <ele>840.79998779297</ele>
        <time>2018-06-20T08:00:48.000Z</time>
      </trkpt>
      <trkpt lat="43.85588" lon="7.25898">
        <ele>840.59997558594</ele>
        <time>2018-06-20T08:00:49.000Z</time>
      </trkpt>
      <trkpt lat="43.85576" lon="7.25895">
        <ele>839</ele>
        <time>2018-06-20T08:01:08.000Z</time>
      </trkpt>
      <trkpt lat="43.85573" lon="7.25895">
        <ele>838.40002441406</ele>
        <time>2018-06-20T08:01:09.000Z</time>
      </trkpt>
      <trkpt lat="43.85571" lon="7.25894">
        <ele>838</ele>
        <time>2018-06-20T08:01:10.000Z</time>
      </trkpt>
      <trkpt lat="43.85564" lon="7.25892">
        <ele>836.59997558594</ele>
        <time>2018-06-20T08:01:13.000Z</time>
      </trkpt>
      <trkpt lat="43.85561" lon="7.25891">
        <ele>836.40002441406</ele>
        <time>2018-06-20T08:01:14.000Z</time>
      </trkpt>
      <trkpt lat="43.85559" lon="7.25891">
        <ele>835.40002441406</ele>
        <time>2018-06-20T08:01:17.000Z</time>
      </trkpt>
      <trkpt lat="43.85553" lon="7.25892">
        <ele>834.40002441406</ele>
        <time>2018-06-20T08:01:20.000Z</time>
      </trkpt>
      <trkpt lat="43.85551" lon="7.25893">
        <ele>834</ele>
        <time>2018-06-20T08:01:21.000Z</time>
      </trkpt>
      <trkpt lat="43.85539" lon="7.25892">
        <ele>833.20001220703</ele>
        <time>2018-06-20T08:01:25.000Z</time>
      </trkpt>
      <trkpt lat="43.85534" lon="7.25892">
        <ele>833</ele>
        <time>2018-06-20T08:01:26.000Z</time>
      </trkpt>
      <trkpt lat="43.85521" lon="7.25891">
        <ele>832.20001220703</ele>
        <time>2018-06-20T08:01:29.000Z</time>
      </trkpt>
      <trkpt lat="43.85518" lon="7.25889">
        <ele>831.79998779297</ele>
        <time>2018-06-20T08:01:30.000Z</time>
      </trkpt>
      <trkpt lat="43.85511" lon="7.25883">
        <ele>831.20001220703</ele>
        <time>2018-06-20T08:01:33.000Z</time>
      </trkpt>
      <trkpt lat="43.85509" lon="7.25882">
        <ele>831.20001220703</ele>
        <time>2018-06-20T08:01:34.000Z</time>
      </trkpt>
      <trkpt lat="43.85504" lon="7.25879">
        <ele>830.59997558594</ele>
        <time>2018-06-20T08:01:35.000Z</time>
      </trkpt>
      <trkpt lat="43.85495" lon="7.25873">
        <ele>830</ele>
        <time>2018-06-20T08:01:38.000Z</time>
      </trkpt>
      <trkpt lat="43.85486" lon="7.25869">
        <ele>829.79998779297</ele>
        <time>2018-06-20T08:01:41.000Z</time>
      </trkpt>
      <trkpt lat="43.85479" lon="7.25869">
        <ele>829.59997558594</ele>
        <time>2018-06-20T08:01:43.000Z</time>
      </trkpt>
      <trkpt lat="43.85465" lon="7.25866">
        <ele>829.20001220703</ele>
        <time>2018-06-20T08:01:47.000Z</time>
      </trkpt>
      <trkpt lat="43.85451" lon="7.25861">
        <ele>828.40002441406</ele>
        <time>2018-06-20T08:01:51.000Z</time>
      </trkpt>
      <trkpt lat="43.85436" lon="7.25859">
        <ele>828.20001220703</ele>
        <time>2018-06-20T08:01:55.000Z</time>
      </trkpt>
      <trkpt lat="43.85422" lon="7.25853">
        <ele>827.40002441406</ele>
        <time>2018-06-20T08:01:59.000Z</time>
      </trkpt>
      <trkpt lat="43.85418" lon="7.25851">
        <ele>827.20001220703</ele>
        <time>2018-06-20T08:02:00.000Z</time>
      </trkpt>
      <trkpt lat="43.85414" lon="7.25848">
        <ele>826.79998779297</ele>
        <time>2018-06-20T08:02:01.000Z</time>
      </trkpt>
      <trkpt lat="43.8541" lon="7.25845">
        <ele>826.40002441406</ele>
        <time>2018-06-20T08:02:02.000Z</time>
      </trkpt>
      <trkpt lat="43.85399" lon="7.25836">
        <ele>825.59997558594</ele>
        <time>2018-06-20T08:02:05.000Z</time>
      </trkpt>
      <trkpt lat="43.85396" lon="7.25836">
        <ele>825.20001220703</ele>
        <time>2018-06-20T08:02:06.000Z</time>
      </trkpt>
      <trkpt lat="43.8539" lon="7.25833">
        <ele>824.59997558594</ele>
        <time>2018-06-20T08:02:08.000Z</time>
      </trkpt>
      <trkpt lat="43.85387" lon="7.25831">
        <ele>824.20001220703</ele>
        <time>2018-06-20T08:02:09.000Z</time>
      </trkpt>
      <trkpt lat="43.85386" lon="7.25825">
        <ele>823.20001220703</ele>
        <time>2018-06-20T08:02:12.000Z</time>
      </trkpt>
      <trkpt lat="43.85387" lon="7.25823">
        <ele>822.79998779297</ele>
        <time>2018-06-20T08:02:13.000Z</time>
      </trkpt>
      <trkpt lat="43.85395" lon="7.25816">
        <ele>821.79998779297</ele>
        <time>2018-06-20T08:02:16.000Z</time>
      </trkpt>
      <trkpt lat="43.85398" lon="7.25814">
        <ele>821.59997558594</ele>
        <time>2018-06-20T08:02:17.000Z</time>
      </trkpt>
      <trkpt lat="43.85405" lon="7.2581">
        <ele>820.79998779297</ele>
        <time>2018-06-20T08:02:20.000Z</time>
      </trkpt>
      <trkpt lat="43.85407" lon="7.25809">
        <ele>820.59997558594</ele>
        <time>2018-06-20T08:02:21.000Z</time>
      </trkpt>
      <trkpt lat="43.85412" lon="7.25804">
        <ele>819.59997558594</ele>
        <time>2018-06-20T08:02:24.000Z</time>
      </trkpt>
      <trkpt lat="43.85413" lon="7.258">
        <ele>819</ele>
        <time>2018-06-20T08:02:25.000Z</time>
      </trkpt>
      <trkpt lat="43.85415" lon="7.25793">
        <ele>818.20001220703</ele>
        <time>2018-06-20T08:02:27.000Z</time>
      </trkpt>
      <trkpt lat="43.85417" lon="7.25784">
        <ele>817.40002441406</ele>
        <time>2018-06-20T08:02:30.000Z</time>
      </trkpt>
      <trkpt lat="43.85419" lon="7.25781">
        <ele>817.20001220703</ele>
        <time>2018-06-20T08:02:31.000Z</time>
      </trkpt>
      <trkpt lat="43.85425" lon="7.25765">
        <ele>816.40002441406</ele>
        <time>2018-06-20T08:02:36.000Z</time>
      </trkpt>
      <trkpt lat="43.85427" lon="7.25761">
        <ele>816.40002441406</ele>
        <time>2018-06-20T08:02:37.000Z</time>
      </trkpt>
      <trkpt lat="43.85435" lon="7.25745">
        <ele>816.40002441406</ele>
        <time>2018-06-20T08:02:41.000Z</time>
      </trkpt>
      <trkpt lat="43.85437" lon="7.2574">
        <ele>816.40002441406</ele>
        <time>2018-06-20T08:02:43.000Z</time>
      </trkpt>
      <trkpt lat="43.85436" lon="7.25737">
        <ele>816.40002441406</ele>
        <time>2018-06-20T08:02:44.000Z</time>
      </trkpt>
      <trkpt lat="43.8543" lon="7.25734">
        <ele>816.40002441406</ele>
        <time>2018-06-20T08:02:47.000Z</time>
      </trkpt>
      <trkpt lat="43.85428" lon="7.25732">
        <ele>816.59997558594</ele>
        <time>2018-06-20T08:02:48.000Z</time>
      </trkpt>
      <trkpt lat="43.85412" lon="7.25722">
        <ele>816.79998779297</ele>
        <time>2018-06-20T08:02:53.000Z</time>
      </trkpt>
      <trkpt lat="43.85405" lon="7.25716">
        <ele>816.79998779297</ele>
        <time>2018-06-20T08:02:55.000Z</time>
      </trkpt>
      <trkpt lat="43.85398" lon="7.25709">
        <ele>816.79998779297</ele>
        <time>2018-06-20T08:02:57.000Z</time>
      </trkpt>
      <trkpt lat="43.85393" lon="7.25695">
        <ele>816</ele>
        <time>2018-06-20T08:03:00.000Z</time>
      </trkpt>
      <trkpt lat="43.8539" lon="7.25693">
        <ele>815.59997558594</ele>
        <time>2018-06-20T08:03:01.000Z</time>
      </trkpt>
      <trkpt lat="43.85386" lon="7.25692">
        <ele>815</ele>
        <time>2018-06-20T08:03:03.000Z</time>
      </trkpt>
      <trkpt lat="43.85383" lon="7.25689">
        <ele>814.20001220703</ele>
        <time>2018-06-20T08:03:05.000Z</time>
      </trkpt>
      <trkpt lat="43.85382" lon="7.25687">
        <ele>813.59997558594</ele>
        <time>2018-06-20T08:03:06.000Z</time>
      </trkpt>
      <trkpt lat="43.8538" lon="7.25686">
        <ele>813.20001220703</ele>
        <time>2018-06-20T08:03:07.000Z</time>
      </trkpt>
      <trkpt lat="43.85377" lon="7.25686">
        <ele>812.40002441406</ele>
        <time>2018-06-20T08:03:08.000Z</time>
      </trkpt>
      <trkpt lat="43.8537" lon="7.25684">
        <ele>811.20001220703</ele>
        <time>2018-06-20T08:03:10.000Z</time>
      </trkpt>
      <trkpt lat="43.85367" lon="7.25683">
        <ele>810.59997558594</ele>
        <time>2018-06-20T08:03:11.000Z</time>
      </trkpt>
      <trkpt lat="43.85365" lon="7.25681">
        <ele>810</ele>
        <time>2018-06-20T08:03:12.000Z</time>
      </trkpt>
      <trkpt lat="43.8536" lon="7.25672">
        <ele>808.79998779297</ele>
        <time>2018-06-20T08:03:15.000Z</time>
      </trkpt>
      <trkpt lat="43.85359" lon="7.25669">
        <ele>808.40002441406</ele>
        <time>2018-06-20T08:03:16.000Z</time>
      </trkpt>
      <trkpt lat="43.85355" lon="7.25662">
        <ele>807.59997558594</ele>
        <time>2018-06-20T08:03:18.000Z</time>
      </trkpt>
      <trkpt lat="43.85348" lon="7.25657">
        <ele>806.59997558594</ele>
        <time>2018-06-20T08:03:20.000Z</time>
      </trkpt>
      <trkpt lat="43.85344" lon="7.25654">
        <ele>806.40002441406</ele>
        <time>2018-06-20T08:03:21.000Z</time>
      </trkpt>
      <trkpt lat="43.85333" lon="7.25643">
        <ele>805.59997558594</ele>
        <time>2018-06-20T08:03:24.000Z</time>
      </trkpt>
      <trkpt lat="43.8533" lon="7.25641">
        <ele>805.20001220703</ele>
        <time>2018-06-20T08:03:25.000Z</time>
      </trkpt>
      <trkpt lat="43.85324" lon="7.25631">
        <ele>804.59997558594</ele>
        <time>2018-06-20T08:03:28.000Z</time>
      </trkpt>
      <trkpt lat="43.85322" lon="7.25627">
        <ele>803.59997558594</ele>
        <time>2018-06-20T08:03:29.000Z</time>
      </trkpt>
      <trkpt lat="43.85316" lon="7.25618">
        <ele>802.20001220703</ele>
        <time>2018-06-20T08:03:32.000Z</time>
      </trkpt>
      <trkpt lat="43.85314" lon="7.25616">
        <ele>801.59997558594</ele>
        <time>2018-06-20T08:03:33.000Z</time>
      </trkpt>
      <trkpt lat="43.85311" lon="7.25613">
        <ele>800.79998779297</ele>
        <time>2018-06-20T08:03:34.000Z</time>
      </trkpt>
      <trkpt lat="43.85308" lon="7.25609">
        <ele>800</ele>
        <time>2018-06-20T08:03:35.000Z</time>
      </trkpt>
      <trkpt lat="43.85305" lon="7.25604">
        <ele>799.59997558594</ele>
        <time>2018-06-20T08:03:36.000Z</time>
      </trkpt>
      <trkpt lat="43.85303" lon="7.256">
        <ele>799.20001220703</ele>
        <time>2018-06-20T08:03:37.000Z</time>
      </trkpt>
      <trkpt lat="43.85301" lon="7.25592">
        <ele>798.40002441406</ele>
        <time>2018-06-20T08:03:39.000Z</time>
      </trkpt>
      <trkpt lat="43.85297" lon="7.25589">
        <ele>798</ele>
        <time>2018-06-20T08:03:41.000Z</time>
      </trkpt>
      <trkpt lat="43.85295" lon="7.25587">
        <ele>797.79998779297</ele>
        <time>2018-06-20T08:03:42.000Z</time>
      </trkpt>
      <trkpt lat="43.85293" lon="7.25584">
        <ele>797.20001220703</ele>
        <time>2018-06-20T08:03:43.000Z</time>
      </trkpt>
      <trkpt lat="43.85288" lon="7.25577">
        <ele>795.79998779297</ele>
        <time>2018-06-20T08:03:46.000Z</time>
      </trkpt>
      <trkpt lat="43.85284" lon="7.25571">
        <ele>794.40002441406</ele>
        <time>2018-06-20T08:03:48.000Z</time>
      </trkpt>
      <trkpt lat="43.8528" lon="7.25565">
        <ele>792.79998779297</ele>
        <time>2018-06-20T08:03:50.000Z</time>
      </trkpt>
      <trkpt lat="43.85275" lon="7.25559">
        <ele>791.59997558594</ele>
        <time>2018-06-20T08:03:52.000Z</time>
      </trkpt>
      <trkpt lat="43.85271" lon="7.25555">
        <ele>790.20001220703</ele>
        <time>2018-06-20T08:03:54.000Z</time>
      </trkpt>
      <trkpt lat="43.85269" lon="7.25554">
        <ele>789.20001220703</ele>
        <time>2018-06-20T08:03:55.000Z</time>
      </trkpt>
      <trkpt lat="43.85266" lon="7.25551">
        <ele>788</ele>
        <time>2018-06-20T08:03:56.000Z</time>
      </trkpt>
      <trkpt lat="43.85263" lon="7.25546">
        <ele>786.20001220703</ele>
        <time>2018-06-20T08:03:58.000Z</time>
      </trkpt>
      <trkpt lat="43.85259" lon="7.25538">
        <ele>784.59997558594</ele>
        <time>2018-06-20T08:04:00.000Z</time>
      </trkpt>
      <trkpt lat="43.85258" lon="7.25534">
        <ele>783.79998779297</ele>
        <time>2018-06-20T08:04:01.000Z</time>
      </trkpt>
      <trkpt lat="43.85258" lon="7.25531">
        <ele>783.20001220703</ele>
        <time>2018-06-20T08:04:02.000Z</time>
      </trkpt>
      <trkpt lat="43.85256" lon="7.25519">
        <ele>780.59997558594</ele>
        <time>2018-06-20T08:04:05.000Z</time>
      </trkpt>
      <trkpt lat="43.85255" lon="7.25515">
        <ele>779.79998779297</ele>
        <time>2018-06-20T08:04:06.000Z</time>
      </trkpt>
      <trkpt lat="43.85255" lon="7.25511">
        <ele>779.20001220703</ele>
        <time>2018-06-20T08:04:07.000Z</time>
      </trkpt>
      <trkpt lat="43.85254" lon="7.25505">
        <ele>777.79998779297</ele>
        <time>2018-06-20T08:04:09.000Z</time>
      </trkpt>
      <trkpt lat="43.85253" lon="7.25502">
        <ele>777.40002441406</ele>
        <time>2018-06-20T08:04:10.000Z</time>
      </trkpt>
      <trkpt lat="43.85249" lon="7.25496">
        <ele>776.59997558594</ele>
        <time>2018-06-20T08:04:12.000Z</time>
      </trkpt>
      <trkpt lat="43.85245" lon="7.25489">
        <ele>775.40002441406</ele>
        <time>2018-06-20T08:04:15.000Z</time>
      </trkpt>
      <trkpt lat="43.8524" lon="7.25482">
        <ele>774</ele>
        <time>2018-06-20T08:04:18.000Z</time>
      </trkpt>
      <trkpt lat="43.85237" lon="7.25476">
        <ele>772.79998779297</ele>
        <time>2018-06-20T08:04:20.000Z</time>
      </trkpt>
      <trkpt lat="43.85236" lon="7.25474">
        <ele>771.59997558594</ele>
        <time>2018-06-20T08:04:21.000Z</time>
      </trkpt>
      <trkpt lat="43.85233" lon="7.25466">
        <ele>770.59997558594</ele>
        <time>2018-06-20T08:04:24.000Z</time>
      </trkpt>
      <trkpt lat="43.85229" lon="7.25461">
        <ele>769.40002441406</ele>
        <time>2018-06-20T08:04:27.000Z</time>
      </trkpt>
      <trkpt lat="43.85228" lon="7.25459">
        <ele>769.20001220703</ele>
        <time>2018-06-20T08:04:28.000Z</time>
      </trkpt>
      <trkpt lat="43.85227" lon="7.25453">
        <ele>768.40002441406</ele>
        <time>2018-06-20T08:04:30.000Z</time>
      </trkpt>
      <trkpt lat="43.85226" lon="7.2545">
        <ele>768</ele>
        <time>2018-06-20T08:04:31.000Z</time>
      </trkpt>
      <trkpt lat="43.85224" lon="7.25445">
        <ele>767.20001220703</ele>
        <time>2018-06-20T08:04:33.000Z</time>
      </trkpt>
      <trkpt lat="43.85223" lon="7.25434">
        <ele>766.20001220703</ele>
        <time>2018-06-20T08:04:36.000Z</time>
      </trkpt>
      <trkpt lat="43.85223" lon="7.25421">
        <ele>765</ele>
        <time>2018-06-20T08:04:40.000Z</time>
      </trkpt>
      <trkpt lat="43.85224" lon="7.25415">
        <ele>764.20001220703</ele>
        <time>2018-06-20T08:04:42.000Z</time>
      </trkpt>
      <trkpt lat="43.85223" lon="7.25412">
        <ele>763.79998779297</ele>
        <time>2018-06-20T08:04:43.000Z</time>
      </trkpt>
      <trkpt lat="43.85219" lon="7.25404">
        <ele>762.40002441406</ele>
        <time>2018-06-20T08:04:46.000Z</time>
      </trkpt>
      <trkpt lat="43.85217" lon="7.25398">
        <ele>761.20001220703</ele>
        <time>2018-06-20T08:04:48.000Z</time>
      </trkpt>
      <trkpt lat="43.85215" lon="7.2539">
        <ele>760</ele>
        <time>2018-06-20T08:04:50.000Z</time>
      </trkpt>
      <trkpt lat="43.85213" lon="7.25387">
        <ele>759.40002441406</ele>
        <time>2018-06-20T08:04:51.000Z</time>
      </trkpt>
      <trkpt lat="43.8521" lon="7.2538">
        <ele>758.59997558594</ele>
        <time>2018-06-20T08:04:53.000Z</time>
      </trkpt>
      <trkpt lat="43.85209" lon="7.25367">
        <ele>757.40002441406</ele>
        <time>2018-06-20T08:04:56.000Z</time>
      </trkpt>
      <trkpt lat="43.85207" lon="7.25359">
        <ele>756.20001220703</ele>
        <time>2018-06-20T08:04:58.000Z</time>
      </trkpt>
      <trkpt lat="43.85205" lon="7.25355">
        <ele>755.40002441406</ele>
        <time>2018-06-20T08:04:59.000Z</time>
      </trkpt>
      <trkpt lat="43.85202" lon="7.25351">
        <ele>754.79998779297</ele>
        <time>2018-06-20T08:05:00.000Z</time>
      </trkpt>
      <trkpt lat="43.85196" lon="7.25347">
        <ele>753.59997558594</ele>
        <time>2018-06-20T08:05:02.000Z</time>
      </trkpt>
      <trkpt lat="43.85193" lon="7.25345">
        <ele>752.79998779297</ele>
        <time>2018-06-20T08:05:03.000Z</time>
      </trkpt>
      <trkpt lat="43.85188" lon="7.25342">
        <ele>752.20001220703</ele>
        <time>2018-06-20T08:05:04.000Z</time>
      </trkpt>
      <trkpt lat="43.85176" lon="7.25338">
        <ele>752.40002441406</ele>
        <time>2018-06-20T08:05:07.000Z</time>
      </trkpt>
      <trkpt lat="43.85175" lon="7.25337">
        <ele>752.40002441406</ele>
        <time>2018-06-20T08:05:09.000Z</time>
      </trkpt>
      <trkpt lat="43.85182" lon="7.25339">
        <ele>750.59997558594</ele>
        <time>2018-06-20T08:08:03.000Z</time>
      </trkpt>
      <trkpt lat="43.85175" lon="7.25336">
        <ele>751.59997558594</ele>
        <time>2018-06-20T08:08:07.000Z</time>
      </trkpt>
      <trkpt lat="43.85173" lon="7.25336">
        <ele>752</ele>
        <time>2018-06-20T08:08:08.000Z</time>
      </trkpt>
      <trkpt lat="43.85169" lon="7.25335">
        <ele>753</ele>
        <time>2018-06-20T08:08:10.000Z</time>
      </trkpt>
      <trkpt lat="43.85162" lon="7.25337">
        <ele>754.40002441406</ele>
        <time>2018-06-20T08:08:13.000Z</time>
      </trkpt>
      <trkpt lat="43.85157" lon="7.25338">
        <ele>755.40002441406</ele>
        <time>2018-06-20T08:08:15.000Z</time>
      </trkpt>
      <trkpt lat="43.85152" lon="7.25338">
        <ele>756.79998779297</ele>
        <time>2018-06-20T08:08:17.000Z</time>
      </trkpt>
      <trkpt lat="43.85148" lon="7.25338">
        <ele>757.79998779297</ele>
        <time>2018-06-20T08:08:19.000Z</time>
      </trkpt>
      <trkpt lat="43.85145" lon="7.25338">
        <ele>758.59997558594</ele>
        <time>2018-06-20T08:08:20.000Z</time>
      </trkpt>
      <trkpt lat="43.85143" lon="7.25338">
        <ele>759</ele>
        <time>2018-06-20T08:08:21.000Z</time>
      </trkpt>
      <trkpt lat="43.85137" lon="7.25336">
        <ele>760.20001220703</ele>
        <time>2018-06-20T08:08:24.000Z</time>
      </trkpt>
      <trkpt lat="43.85131" lon="7.25337">
        <ele>761.40002441406</ele>
        <time>2018-06-20T08:08:27.000Z</time>
      </trkpt>
      <trkpt lat="43.85126" lon="7.2534">
        <ele>762.79998779297</ele>
        <time>2018-06-20T08:08:30.000Z</time>
      </trkpt>
      <trkpt lat="43.85119" lon="7.25343">
        <ele>764.20001220703</ele>
        <time>2018-06-20T08:08:34.000Z</time>
      </trkpt>
      <trkpt lat="43.85115" lon="7.25345">
        <ele>764.59997558594</ele>
        <time>2018-06-20T08:08:36.000Z</time>
      </trkpt>
      <trkpt lat="43.85106" lon="7.25345">
        <ele>765.20001220703</ele>
        <time>2018-06-20T08:08:41.000Z</time>
      </trkpt>
      <trkpt lat="43.85102" lon="7.25344">
        <ele>765.20001220703</ele>
        <time>2018-06-20T08:08:43.000Z</time>
      </trkpt>
      <trkpt lat="43.85087" lon="7.25342">
        <ele>764.20001220703</ele>
        <time>2018-06-20T08:08:49.000Z</time>
      </trkpt>
      <trkpt lat="43.85082" lon="7.25342">
        <ele>763.79998779297</ele>
        <time>2018-06-20T08:08:50.000Z</time>
      </trkpt>
      <trkpt lat="43.85073" lon="7.25341">
        <ele>762.79998779297</ele>
        <time>2018-06-20T08:08:52.000Z</time>
      </trkpt>
      <trkpt lat="43.85068" lon="7.25339">
        <ele>762.20001220703</ele>
        <time>2018-06-20T08:08:53.000Z</time>
      </trkpt>
      <trkpt lat="43.85057" lon="7.25336">
        <ele>761.40002441406</ele>
        <time>2018-06-20T08:08:55.000Z</time>
      </trkpt>
      <trkpt lat="43.85047" lon="7.25333">
        <ele>760.79998779297</ele>
        <time>2018-06-20T08:08:57.000Z</time>
      </trkpt>
      <trkpt lat="43.85036" lon="7.25329">
        <ele>759.79998779297</ele>
        <time>2018-06-20T08:08:59.000Z</time>
      </trkpt>
      <trkpt lat="43.85029" lon="7.25327">
        <ele>759.20001220703</ele>
        <time>2018-06-20T08:09:00.000Z</time>
      </trkpt>
      <trkpt lat="43.85023" lon="7.25325">
        <ele>758.79998779297</ele>
        <time>2018-06-20T08:09:01.000Z</time>
      </trkpt>
      <trkpt lat="43.8501" lon="7.25321">
        <ele>758.20001220703</ele>
        <time>2018-06-20T08:09:03.000Z</time>
      </trkpt>
      <trkpt lat="43.84991" lon="7.25317">
        <ele>757.79998779297</ele>
        <time>2018-06-20T08:09:06.000Z</time>
      </trkpt>
      <trkpt lat="43.8498" lon="7.25315">
        <ele>757.59997558594</ele>
        <time>2018-06-20T08:09:08.000Z</time>
      </trkpt>
      <trkpt lat="43.84974" lon="7.25315">
        <ele>757.40002441406</ele>
        <time>2018-06-20T08:09:09.000Z</time>
      </trkpt>
      <trkpt lat="43.84958" lon="7.25316">
        <ele>756.79998779297</ele>
        <time>2018-06-20T08:09:12.000Z</time>
      </trkpt>
      <trkpt lat="43.84954" lon="7.25314">
        <ele>756.59997558594</ele>
        <time>2018-06-20T08:09:13.000Z</time>
      </trkpt>
      <trkpt lat="43.84939" lon="7.25306">
        <ele>756</ele>
        <time>2018-06-20T08:09:16.000Z</time>
      </trkpt>
      <trkpt lat="43.84928" lon="7.25304">
        <ele>755.40002441406</ele>
        <time>2018-06-20T08:09:18.000Z</time>
      </trkpt>
      <trkpt lat="43.84913" lon="7.25301">
        <ele>754</ele>
        <time>2018-06-20T08:09:21.000Z</time>
      </trkpt>
      <trkpt lat="43.84904" lon="7.253">
        <ele>752.79998779297</ele>
        <time>2018-06-20T08:09:23.000Z</time>
      </trkpt>
      <trkpt lat="43.84895" lon="7.25297">
        <ele>751.40002441406</ele>
        <time>2018-06-20T08:09:25.000Z</time>
      </trkpt>
      <trkpt lat="43.84891" lon="7.25296">
        <ele>750.59997558594</ele>
        <time>2018-06-20T08:09:26.000Z</time>
      </trkpt>
      <trkpt lat="43.84886" lon="7.25295">
        <ele>749.59997558594</ele>
        <time>2018-06-20T08:09:27.000Z</time>
      </trkpt>
      <trkpt lat="43.84877" lon="7.25293">
        <ele>747.59997558594</ele>
        <time>2018-06-20T08:09:29.000Z</time>
      </trkpt>
      <trkpt lat="43.84872" lon="7.25292">
        <ele>746.40002441406</ele>
        <time>2018-06-20T08:09:30.000Z</time>
      </trkpt>
      <trkpt lat="43.84868" lon="7.25291">
        <ele>745.40002441406</ele>
        <time>2018-06-20T08:09:31.000Z</time>
      </trkpt>
      <trkpt lat="43.84863" lon="7.25291">
        <ele>744</ele>
        <time>2018-06-20T08:09:32.000Z</time>
      </trkpt>
      <trkpt lat="43.84858" lon="7.25291">
        <ele>742.79998779297</ele>
        <time>2018-06-20T08:09:33.000Z</time>
      </trkpt>
      <trkpt lat="43.84853" lon="7.2529">
        <ele>741.20001220703</ele>
        <time>2018-06-20T08:09:34.000Z</time>
      </trkpt>
      <trkpt lat="43.84847" lon="7.25288">
        <ele>740.20001220703</ele>
        <time>2018-06-20T08:09:35.000Z</time>
      </trkpt>
      <trkpt lat="43.84841" lon="7.25287">
        <ele>738.59997558594</ele>
        <time>2018-06-20T08:09:36.000Z</time>
      </trkpt>
      <trkpt lat="43.84835" lon="7.25286">
        <ele>737</ele>
        <time>2018-06-20T08:09:37.000Z</time>
      </trkpt>
      <trkpt lat="43.84829" lon="7.25286">
        <ele>735.59997558594</ele>
        <time>2018-06-20T08:09:38.000Z</time>
      </trkpt>
      <trkpt lat="43.84822" lon="7.25286">
        <ele>734.20001220703</ele>
        <time>2018-06-20T08:09:39.000Z</time>
      </trkpt>
      <trkpt lat="43.84816" lon="7.25286">
        <ele>732.79998779297</ele>
        <time>2018-06-20T08:09:40.000Z</time>
      </trkpt>
      <trkpt lat="43.8481" lon="7.25285">
        <ele>731.40002441406</ele>
        <time>2018-06-20T08:09:41.000Z</time>
      </trkpt>
      <trkpt lat="43.84805" lon="7.25284">
        <ele>730.40002441406</ele>
        <time>2018-06-20T08:09:42.000Z</time>
      </trkpt>
      <trkpt lat="43.84799" lon="7.25282">
        <ele>729.40002441406</ele>
        <time>2018-06-20T08:09:43.000Z</time>
      </trkpt>
      <trkpt lat="43.84794" lon="7.2528">
        <ele>728.40002441406</ele>
        <time>2018-06-20T08:09:44.000Z</time>
      </trkpt>
      <trkpt lat="43.84788" lon="7.25279">
        <ele>727.40002441406</ele>
        <time>2018-06-20T08:09:45.000Z</time>
      </trkpt>
      <trkpt lat="43.84778" lon="7.25279">
        <ele>725.79998779297</ele>
        <time>2018-06-20T08:09:47.000Z</time>
      </trkpt>
      <trkpt lat="43.84774" lon="7.25281">
        <ele>724.40002441406</ele>
        <time>2018-06-20T08:09:48.000Z</time>
      </trkpt>
      <trkpt lat="43.84769" lon="7.25281">
        <ele>723.40002441406</ele>
        <time>2018-06-20T08:09:49.000Z</time>
      </trkpt>
      <trkpt lat="43.8476" lon="7.25281">
        <ele>721.59997558594</ele>
        <time>2018-06-20T08:09:51.000Z</time>
      </trkpt>
      <trkpt lat="43.84755" lon="7.2528">
        <ele>720.79998779297</ele>
        <time>2018-06-20T08:09:52.000Z</time>
      </trkpt>
      <trkpt lat="43.84749" lon="7.2528">
        <ele>719.59997558594</ele>
        <time>2018-06-20T08:09:53.000Z</time>
      </trkpt>
      <trkpt lat="43.84743" lon="7.2528">
        <ele>718.40002441406</ele>
        <time>2018-06-20T08:09:54.000Z</time>
      </trkpt>
      <trkpt lat="43.84737" lon="7.2528">
        <ele>717.20001220703</ele>
        <time>2018-06-20T08:09:55.000Z</time>
      </trkpt>
      <trkpt lat="43.84731" lon="7.25279">
        <ele>716.20001220703</ele>
        <time>2018-06-20T08:09:56.000Z</time>
      </trkpt>
      <trkpt lat="43.84726" lon="7.25277">
        <ele>715.40002441406</ele>
        <time>2018-06-20T08:09:57.000Z</time>
      </trkpt>
      <trkpt lat="43.8472" lon="7.25275">
        <ele>714.59997558594</ele>
        <time>2018-06-20T08:09:58.000Z</time>
      </trkpt>
      <trkpt lat="43.84714" lon="7.25273">
        <ele>714</ele>
        <time>2018-06-20T08:09:59.000Z</time>
      </trkpt>
      <trkpt lat="43.84709" lon="7.25273">
        <ele>713.40002441406</ele>
        <time>2018-06-20T08:10:00.000Z</time>
      </trkpt>
      <trkpt lat="43.84705" lon="7.25273">
        <ele>712.79998779297</ele>
        <time>2018-06-20T08:10:01.000Z</time>
      </trkpt>
      <trkpt lat="43.84701" lon="7.25273">
        <ele>712.40002441406</ele>
        <time>2018-06-20T08:10:03.000Z</time>
      </trkpt>
      <trkpt lat="43.84701" lon="7.25273">
        <ele>712.20001220703</ele>
        <time>2018-06-20T08:10:04.000Z</time>
      </trkpt>
      <trkpt lat="43.84695" lon="7.25267">
        <ele>712.20001220703</ele>
        <time>2018-06-20T08:11:34.000Z</time>
      </trkpt>
      <trkpt lat="43.84688" lon="7.25264">
        <ele>712</ele>
        <time>2018-06-20T08:11:37.000Z</time>
      </trkpt>
      <trkpt lat="43.84675" lon="7.25261">
        <ele>711.40002441406</ele>
        <time>2018-06-20T08:11:42.000Z</time>
      </trkpt>
      <trkpt lat="43.84672" lon="7.2526">
        <ele>711.20001220703</ele>
        <time>2018-06-20T08:11:43.000Z</time>
      </trkpt>
      <trkpt lat="43.8466" lon="7.25258">
        <ele>710.40002441406</ele>
        <time>2018-06-20T08:11:47.000Z</time>
      </trkpt>
      <trkpt lat="43.84658" lon="7.25258">
        <ele>710</ele>
        <time>2018-06-20T08:11:48.000Z</time>
      </trkpt>
      <trkpt lat="43.8465" lon="7.25259">
        <ele>709</ele>
        <time>2018-06-20T08:11:51.000Z</time>
      </trkpt>
      <trkpt lat="43.84643" lon="7.25259">
        <ele>708.20001220703</ele>
        <time>2018-06-20T08:11:53.000Z</time>
      </trkpt>
      <trkpt lat="43.84639" lon="7.25258">
        <ele>708</ele>
        <time>2018-06-20T08:11:54.000Z</time>
      </trkpt>
      <trkpt lat="43.84628" lon="7.25258">
        <ele>706.79998779297</ele>
        <time>2018-06-20T08:11:57.000Z</time>
      </trkpt>
      <trkpt lat="43.84619" lon="7.25257">
        <ele>705.79998779297</ele>
        <time>2018-06-20T08:11:59.000Z</time>
      </trkpt>
      <trkpt lat="43.84615" lon="7.25257">
        <ele>705.20001220703</ele>
        <time>2018-06-20T08:12:00.000Z</time>
      </trkpt>
      <trkpt lat="43.8461" lon="7.25257">
        <ele>704.79998779297</ele>
        <time>2018-06-20T08:12:01.000Z</time>
      </trkpt>
      <trkpt lat="43.84601" lon="7.25257">
        <ele>703</ele>
        <time>2018-06-20T08:12:03.000Z</time>
      </trkpt>
      <trkpt lat="43.84593" lon="7.25257">
        <ele>701.59997558594</ele>
        <time>2018-06-20T08:12:05.000Z</time>
      </trkpt>
      <trkpt lat="43.84588" lon="7.25257">
        <ele>700.59997558594</ele>
        <time>2018-06-20T08:12:06.000Z</time>
      </trkpt>
      <trkpt lat="43.84585" lon="7.25257">
        <ele>699.59997558594</ele>
        <time>2018-06-20T08:12:07.000Z</time>
      </trkpt>
      <trkpt lat="43.84575" lon="7.25256">
        <ele>698</ele>
        <time>2018-06-20T08:12:09.000Z</time>
      </trkpt>
      <trkpt lat="43.84567" lon="7.25256">
        <ele>696.40002441406</ele>
        <time>2018-06-20T08:12:11.000Z</time>
      </trkpt>
      <trkpt lat="43.84563" lon="7.25256">
        <ele>695.59997558594</ele>
        <time>2018-06-20T08:12:12.000Z</time>
      </trkpt>
      <trkpt lat="43.8456" lon="7.25255">
        <ele>694.79998779297</ele>
        <time>2018-06-20T08:12:13.000Z</time>
      </trkpt>
      <trkpt lat="43.84552" lon="7.25251">
        <ele>693.20001220703</ele>
        <time>2018-06-20T08:12:15.000Z</time>
      </trkpt>
      <trkpt lat="43.84544" lon="7.25247">
        <ele>691.79998779297</ele>
        <time>2018-06-20T08:12:17.000Z</time>
      </trkpt>
      <trkpt lat="43.84541" lon="7.25246">
        <ele>690.79998779297</ele>
        <time>2018-06-20T08:12:18.000Z</time>
      </trkpt>
      <trkpt lat="43.84533" lon="7.25244">
        <ele>689</ele>
        <time>2018-06-20T08:12:20.000Z</time>
      </trkpt>
      <trkpt lat="43.84527" lon="7.25244">
        <ele>688</ele>
        <time>2018-06-20T08:12:22.000Z</time>
      </trkpt>
      <trkpt lat="43.8452" lon="7.25242">
        <ele>686.79998779297</ele>
        <time>2018-06-20T08:12:25.000Z</time>
      </trkpt>
      <trkpt lat="43.84516" lon="7.25239">
        <ele>685.59997558594</ele>
        <time>2018-06-20T08:12:28.000Z</time>
      </trkpt>
      <trkpt lat="43.84518" lon="7.25232">
        <ele>684.40002441406</ele>
        <time>2018-06-20T08:12:31.000Z</time>
      </trkpt>
      <trkpt lat="43.8452" lon="7.25231">
        <ele>684.40002441406</ele>
        <time>2018-06-20T08:12:32.000Z</time>
      </trkpt>
      <trkpt lat="43.84521" lon="7.25231">
        <ele>684.20001220703</ele>
        <time>2018-06-20T08:12:34.000Z</time>
      </trkpt>
      <trkpt lat="43.84524" lon="7.2523">
        <ele>683.79998779297</ele>
        <time>2018-06-20T08:12:36.000Z</time>
      </trkpt>
      <trkpt lat="43.84536" lon="7.25226">
        <ele>683.59997558594</ele>
        <time>2018-06-20T08:12:42.000Z</time>
      </trkpt>
      <trkpt lat="43.84538" lon="7.25224">
        <ele>683.40002441406</ele>
        <time>2018-06-20T08:12:43.000Z</time>
      </trkpt>
      <trkpt lat="43.84552" lon="7.25218">
        <ele>682.79998779297</ele>
        <time>2018-06-20T08:12:49.000Z</time>
      </trkpt>
      <trkpt lat="43.84564" lon="7.25211">
        <ele>682.40002441406</ele>
        <time>2018-06-20T08:12:54.000Z</time>
      </trkpt>
      <trkpt lat="43.84566" lon="7.25209">
        <ele>682.20001220703</ele>
        <time>2018-06-20T08:12:55.000Z</time>
      </trkpt>
      <trkpt lat="43.84581" lon="7.252">
        <ele>681.79998779297</ele>
        <time>2018-06-20T08:13:01.000Z</time>
      </trkpt>
      <trkpt lat="43.84589" lon="7.25186">
        <ele>681.40002441406</ele>
        <time>2018-06-20T08:13:05.000Z</time>
      </trkpt>
      <trkpt lat="43.84591" lon="7.25183">
        <ele>681.20001220703</ele>
        <time>2018-06-20T08:13:06.000Z</time>
      </trkpt>
      <trkpt lat="43.84593" lon="7.25178">
        <ele>681</ele>
        <time>2018-06-20T08:13:08.000Z</time>
      </trkpt>
      <trkpt lat="43.84594" lon="7.25173">
        <ele>681</ele>
        <time>2018-06-20T08:13:10.000Z</time>
      </trkpt>
      <trkpt lat="43.84594" lon="7.25172">
        <ele>681</ele>
        <time>2018-06-20T08:13:12.000Z</time>
      </trkpt>
      <trkpt lat="43.84595" lon="7.25165">
        <ele>680.20001220703</ele>
        <time>2018-06-20T08:13:21.000Z</time>
      </trkpt>
      <trkpt lat="43.84596" lon="7.25163">
        <ele>680.20001220703</ele>
        <time>2018-06-20T08:13:22.000Z</time>
      </trkpt>
      <trkpt lat="43.84607" lon="7.25158">
        <ele>679.79998779297</ele>
        <time>2018-06-20T08:13:27.000Z</time>
      </trkpt>
      <trkpt lat="43.84616" lon="7.25153">
        <ele>679.79998779297</ele>
        <time>2018-06-20T08:13:32.000Z</time>
      </trkpt>
      <trkpt lat="43.84619" lon="7.25151">
        <ele>680</ele>
        <time>2018-06-20T08:13:34.000Z</time>
      </trkpt>
      <trkpt lat="43.8462" lon="7.25151">
        <ele>679.79998779297</ele>
        <time>2018-06-20T08:13:36.000Z</time>
      </trkpt>
      <trkpt lat="43.84631" lon="7.25146">
        <ele>679</ele>
        <time>2018-06-20T08:13:58.000Z</time>
      </trkpt>
      <trkpt lat="43.84637" lon="7.25143">
        <ele>678.79998779297</ele>
        <time>2018-06-20T08:14:01.000Z</time>
      </trkpt>
      <trkpt lat="43.84646" lon="7.25142">
        <ele>678.40002441406</ele>
        <time>2018-06-20T08:14:06.000Z</time>
      </trkpt>
      <trkpt lat="43.84653" lon="7.25139">
        <ele>677.59997558594</ele>
        <time>2018-06-20T08:14:10.000Z</time>
      </trkpt>
      <trkpt lat="43.84656" lon="7.25139">
        <ele>677.40002441406</ele>
        <time>2018-06-20T08:14:11.000Z</time>
      </trkpt>
      <trkpt lat="43.84665" lon="7.25136">
        <ele>676.40002441406</ele>
        <time>2018-06-20T08:14:15.000Z</time>
      </trkpt>
      <trkpt lat="43.84668" lon="7.25135">
        <ele>676.20001220703</ele>
        <time>2018-06-20T08:14:16.000Z</time>
      </trkpt>
      <trkpt lat="43.84681" lon="7.25133">
        <ele>675.40002441406</ele>
        <time>2018-06-20T08:14:21.000Z</time>
      </trkpt>
      <trkpt lat="43.84693" lon="7.25131">
        <ele>674.59997558594</ele>
        <time>2018-06-20T08:14:26.000Z</time>
      </trkpt>
      <trkpt lat="43.84698" lon="7.25132">
        <ele>674.40002441406</ele>
        <time>2018-06-20T08:14:28.000Z</time>
      </trkpt>
      <trkpt lat="43.84706" lon="7.25132">
        <ele>674</ele>
        <time>2018-06-20T08:14:31.000Z</time>
      </trkpt>
      <trkpt lat="43.84713" lon="7.25124">
        <ele>674.40002441406</ele>
        <time>2018-06-20T08:14:35.000Z</time>
      </trkpt>
      <trkpt lat="43.84723" lon="7.25112">
        <ele>673.59997558594</ele>
        <time>2018-06-20T08:14:41.000Z</time>
      </trkpt>
      <trkpt lat="43.84728" lon="7.25108">
        <ele>673.20001220703</ele>
        <time>2018-06-20T08:14:43.000Z</time>
      </trkpt>
      <trkpt lat="43.84736" lon="7.25102">
        <ele>672.79998779297</ele>
        <time>2018-06-20T08:14:46.000Z</time>
      </trkpt>
      <trkpt lat="43.8475" lon="7.2509">
        <ele>672.59997558594</ele>
        <time>2018-06-20T08:14:52.000Z</time>
      </trkpt>
      <trkpt lat="43.84759" lon="7.25083">
        <ele>672.79998779297</ele>
        <time>2018-06-20T08:14:57.000Z</time>
      </trkpt>
      <trkpt lat="43.84764" lon="7.25072">
        <ele>673.20001220703</ele>
        <time>2018-06-20T08:15:02.000Z</time>
      </trkpt>
      <trkpt lat="43.84763" lon="7.25057">
        <ele>674</ele>
        <time>2018-06-20T08:15:08.000Z</time>
      </trkpt>
      <trkpt lat="43.84764" lon="7.25054">
        <ele>674.20001220703</ele>
        <time>2018-06-20T08:15:09.000Z</time>
      </trkpt>
      <trkpt lat="43.84765" lon="7.25053">
        <ele>674.40002441406</ele>
        <time>2018-06-20T08:15:10.000Z</time>
      </trkpt>
      <trkpt lat="43.84768" lon="7.25051">
        <ele>674.40002441406</ele>
        <time>2018-06-20T08:15:13.000Z</time>
      </trkpt>
      <trkpt lat="43.84768" lon="7.25051">
        <ele>674.40002441406</ele>
        <time>2018-06-20T08:15:14.000Z</time>
      </trkpt>
      <trkpt lat="43.84784" lon="7.25033">
        <ele>673.59997558594</ele>
        <time>2018-06-20T08:21:56.000Z</time>
      </trkpt>
      <trkpt lat="43.84788" lon="7.25034">
        <ele>673.20001220703</ele>
        <time>2018-06-20T08:21:58.000Z</time>
      </trkpt>
      <trkpt lat="43.84791" lon="7.25035">
        <ele>673.20001220703</ele>
        <time>2018-06-20T08:21:59.000Z</time>
      </trkpt>
      <trkpt lat="43.84802" lon="7.25034">
        <ele>672.79998779297</ele>
        <time>2018-06-20T08:22:04.000Z</time>
      </trkpt>
      <trkpt lat="43.84813" lon="7.25029">
        <ele>671.59997558594</ele>
        <time>2018-06-20T08:22:07.000Z</time>
      </trkpt>
      <trkpt lat="43.84824" lon="7.25024">
        <ele>670.40002441406</ele>
        <time>2018-06-20T08:22:09.000Z</time>
      </trkpt>
      <trkpt lat="43.84837" lon="7.25018">
        <ele>668.59997558594</ele>
        <time>2018-06-20T08:22:11.000Z</time>
      </trkpt>
      <trkpt lat="43.84844" lon="7.25016">
        <ele>667.40002441406</ele>
        <time>2018-06-20T08:22:12.000Z</time>
      </trkpt>
      <trkpt lat="43.8485" lon="7.25015">
        <ele>666.20001220703</ele>
        <time>2018-06-20T08:22:13.000Z</time>
      </trkpt>
      <trkpt lat="43.84865" lon="7.25016">
        <ele>664.40002441406</ele>
        <time>2018-06-20T08:22:15.000Z</time>
      </trkpt>
      <trkpt lat="43.84872" lon="7.25017">
        <ele>663.20001220703</ele>
        <time>2018-06-20T08:22:16.000Z</time>
      </trkpt>
      <trkpt lat="43.84879" lon="7.25019">
        <ele>662.20001220703</ele>
        <time>2018-06-20T08:22:17.000Z</time>
      </trkpt>
      <trkpt lat="43.84885" lon="7.25019">
        <ele>660.79998779297</ele>
        <time>2018-06-20T08:22:18.000Z</time>
      </trkpt>
      <trkpt lat="43.84891" lon="7.25018">
        <ele>659.79998779297</ele>
        <time>2018-06-20T08:22:19.000Z</time>
      </trkpt>
      <trkpt lat="43.84898" lon="7.25014">
        <ele>658.79998779297</ele>
        <time>2018-06-20T08:22:20.000Z</time>
      </trkpt>
      <trkpt lat="43.84905" lon="7.25012">
        <ele>657.59997558594</ele>
        <time>2018-06-20T08:22:21.000Z</time>
      </trkpt>
      <trkpt lat="43.84912" lon="7.2501">
        <ele>656.59997558594</ele>
        <time>2018-06-20T08:22:22.000Z</time>
      </trkpt>
      <trkpt lat="43.8492" lon="7.25008">
        <ele>655.40002441406</ele>
        <time>2018-06-20T08:22:23.000Z</time>
      </trkpt>
      <trkpt lat="43.84929" lon="7.25005">
        <ele>654.20001220703</ele>
        <time>2018-06-20T08:22:24.000Z</time>
      </trkpt>
      <trkpt lat="43.84938" lon="7.25003">
        <ele>653.20001220703</ele>
        <time>2018-06-20T08:22:25.000Z</time>
      </trkpt>
      <trkpt lat="43.84953" lon="7.25004">
        <ele>651.59997558594</ele>
        <time>2018-06-20T08:22:27.000Z</time>
      </trkpt>
      <trkpt lat="43.84963" lon="7.25011">
        <ele>650.59997558594</ele>
        <time>2018-06-20T08:22:29.000Z</time>
      </trkpt>
      <trkpt lat="43.84967" lon="7.25017">
        <ele>650</ele>
        <time>2018-06-20T08:22:30.000Z</time>
      </trkpt>
      <trkpt lat="43.84979" lon="7.25029">
        <ele>649.59997558594</ele>
        <time>2018-06-20T08:22:33.000Z</time>
      </trkpt>
      <trkpt lat="43.84985" lon="7.25028">
        <ele>649.20001220703</ele>
        <time>2018-06-20T08:22:34.000Z</time>
      </trkpt>
      <trkpt lat="43.84997" lon="7.25022">
        <ele>648.40002441406</ele>
        <time>2018-06-20T08:22:36.000Z</time>
      </trkpt>
      <trkpt lat="43.85" lon="7.25015">
        <ele>648</ele>
        <time>2018-06-20T08:22:37.000Z</time>
      </trkpt>
      <trkpt lat="43.85002" lon="7.25007">
        <ele>647.79998779297</ele>
        <time>2018-06-20T08:22:38.000Z</time>
      </trkpt>
      <trkpt lat="43.8501" lon="7.24978">
        <ele>646.79998779297</ele>
        <time>2018-06-20T08:22:41.000Z</time>
      </trkpt>
      <trkpt lat="43.85021" lon="7.24964">
        <ele>645.20001220703</ele>
        <time>2018-06-20T08:22:43.000Z</time>
      </trkpt>
      <trkpt lat="43.85028" lon="7.24958">
        <ele>644.20001220703</ele>
        <time>2018-06-20T08:22:44.000Z</time>
      </trkpt>
      <trkpt lat="43.85036" lon="7.24953">
        <ele>643.59997558594</ele>
        <time>2018-06-20T08:22:45.000Z</time>
      </trkpt>
      <trkpt lat="43.85044" lon="7.24948">
        <ele>642.79998779297</ele>
        <time>2018-06-20T08:22:46.000Z</time>
      </trkpt>
      <trkpt lat="43.85052" lon="7.24941">
        <ele>642.20001220703</ele>
        <time>2018-06-20T08:22:47.000Z</time>
      </trkpt>
      <trkpt lat="43.85065" lon="7.24919">
        <ele>640.59997558594</ele>
        <time>2018-06-20T08:22:49.000Z</time>
      </trkpt>
      <trkpt lat="43.8507" lon="7.2491">
        <ele>640</ele>
        <time>2018-06-20T08:22:50.000Z</time>
      </trkpt>
      <trkpt lat="43.85076" lon="7.24902">
        <ele>638.79998779297</ele>
        <time>2018-06-20T08:22:51.000Z</time>
      </trkpt>
      <trkpt lat="43.85088" lon="7.24893">
        <ele>637</ele>
        <time>2018-06-20T08:22:53.000Z</time>
      </trkpt>
      <trkpt lat="43.85108" lon="7.24884">
        <ele>635.79998779297</ele>
        <time>2018-06-20T08:22:56.000Z</time>
      </trkpt>
      <trkpt lat="43.85113" lon="7.2488">
        <ele>635.20001220703</ele>
        <time>2018-06-20T08:22:57.000Z</time>
      </trkpt>
      <trkpt lat="43.85117" lon="7.24876">
        <ele>634.40002441406</ele>
        <time>2018-06-20T08:22:58.000Z</time>
      </trkpt>
      <trkpt lat="43.85124" lon="7.24867">
        <ele>633.20001220703</ele>
        <time>2018-06-20T08:23:00.000Z</time>
      </trkpt>
      <trkpt lat="43.85127" lon="7.24863">
        <ele>632.59997558594</ele>
        <time>2018-06-20T08:23:01.000Z</time>
      </trkpt>
      <trkpt lat="43.85133" lon="7.24857">
        <ele>632</ele>
        <time>2018-06-20T08:23:03.000Z</time>
      </trkpt>
      <trkpt lat="43.85146" lon="7.24848">
        <ele>631.59997558594</ele>
        <time>2018-06-20T08:23:06.000Z</time>
      </trkpt>
      <trkpt lat="43.85152" lon="7.24844">
        <ele>631</ele>
        <time>2018-06-20T08:23:09.000Z</time>
      </trkpt>
      <trkpt lat="43.85155" lon="7.24843">
        <ele>631</ele>
        <time>2018-06-20T08:23:10.000Z</time>
      </trkpt>
      <trkpt lat="43.8517" lon="7.24844">
        <ele>631.40002441406</ele>
        <time>2018-06-20T08:23:17.000Z</time>
      </trkpt>
      <trkpt lat="43.85186" lon="7.24849">
        <ele>631.59997558594</ele>
        <time>2018-06-20T08:23:24.000Z</time>
      </trkpt>
      <trkpt lat="43.85199" lon="7.24853">
        <ele>631.79998779297</ele>
        <time>2018-06-20T08:23:30.000Z</time>
      </trkpt>
      <trkpt lat="43.8521" lon="7.24863">
        <ele>631.79998779297</ele>
        <time>2018-06-20T08:23:36.000Z</time>
      </trkpt>
      <trkpt lat="43.85219" lon="7.24873">
        <ele>630.40002441406</ele>
        <time>2018-06-20T08:23:42.000Z</time>
      </trkpt>
      <trkpt lat="43.85232" lon="7.24887">
        <ele>630.79998779297</ele>
        <time>2018-06-20T08:23:50.000Z</time>
      </trkpt>
      <trkpt lat="43.85242" lon="7.24902">
        <ele>631.79998779297</ele>
        <time>2018-06-20T08:23:56.000Z</time>
      </trkpt>
      <trkpt lat="43.85245" lon="7.24904">
        <ele>632</ele>
        <time>2018-06-20T08:23:57.000Z</time>
      </trkpt>
      <trkpt lat="43.85256" lon="7.24918">
        <ele>633</ele>
        <time>2018-06-20T08:24:03.000Z</time>
      </trkpt>
      <trkpt lat="43.85258" lon="7.2492">
        <ele>633.20001220703</ele>
        <time>2018-06-20T08:24:04.000Z</time>
      </trkpt>
      <trkpt lat="43.85267" lon="7.24929">
        <ele>634.20001220703</ele>
        <time>2018-06-20T08:24:09.000Z</time>
      </trkpt>
      <trkpt lat="43.85269" lon="7.24929">
        <ele>634.40002441406</ele>
        <time>2018-06-20T08:24:10.000Z</time>
      </trkpt>
      <trkpt lat="43.85275" lon="7.24935">
        <ele>635.20001220703</ele>
        <time>2018-06-20T08:24:13.000Z</time>
      </trkpt>
      <trkpt lat="43.85281" lon="7.2494">
        <ele>636.40002441406</ele>
        <time>2018-06-20T08:24:16.000Z</time>
      </trkpt>
      <trkpt lat="43.85284" lon="7.24945">
        <ele>637.59997558594</ele>
        <time>2018-06-20T08:24:19.000Z</time>
      </trkpt>
      <trkpt lat="43.8529" lon="7.24952">
        <ele>638</ele>
        <time>2018-06-20T08:24:23.000Z</time>
      </trkpt>
      <trkpt lat="43.85298" lon="7.24963">
        <ele>638.79998779297</ele>
        <time>2018-06-20T08:24:27.000Z</time>
      </trkpt>
      <trkpt lat="43.85301" lon="7.24977">
        <ele>638.79998779297</ele>
        <time>2018-06-20T08:24:31.000Z</time>
      </trkpt>
      <trkpt lat="43.85305" lon="7.24977">
        <ele>639.20001220703</ele>
        <time>2018-06-20T08:24:34.000Z</time>
      </trkpt>
      <trkpt lat="43.85304" lon="7.24977">
        <ele>639.79998779297</ele>
        <time>2018-06-20T08:24:36.000Z</time>
      </trkpt>
      <trkpt lat="43.85306" lon="7.24979">
        <ele>641.59997558594</ele>
        <time>2018-06-20T08:25:00.000Z</time>
      </trkpt>
      <trkpt lat="43.85305" lon="7.24978">
        <ele>641.79998779297</ele>
        <time>2018-06-20T08:25:01.000Z</time>
      </trkpt>
      <trkpt lat="43.85303" lon="7.24968">
        <ele>642.59997558594</ele>
        <time>2018-06-20T08:25:05.000Z</time>
      </trkpt>
      <trkpt lat="43.85302" lon="7.24966">
        <ele>642.79998779297</ele>
        <time>2018-06-20T08:25:06.000Z</time>
      </trkpt>
      <trkpt lat="43.85297" lon="7.24956">
        <ele>642.40002441406</ele>
        <time>2018-06-20T08:25:12.000Z</time>
      </trkpt>
      <trkpt lat="43.85289" lon="7.24948">
        <ele>642.20001220703</ele>
        <time>2018-06-20T08:25:18.000Z</time>
      </trkpt>
      <trkpt lat="43.85286" lon="7.24948">
        <ele>641.79998779297</ele>
        <time>2018-06-20T08:25:20.000Z</time>
      </trkpt>
      <trkpt lat="43.85286" lon="7.24948">
        <ele>641.59997558594</ele>
        <time>2018-06-20T08:25:22.000Z</time>
      </trkpt>
      <trkpt lat="43.85284" lon="7.24945">
        <ele>641.59997558594</ele>
        <time>2018-06-20T08:25:27.000Z</time>
      </trkpt>
      <trkpt lat="43.85278" lon="7.24939">
        <ele>641.40002441406</ele>
        <time>2018-06-20T08:25:29.000Z</time>
      </trkpt>
      <trkpt lat="43.85269" lon="7.24931">
        <ele>641.40002441406</ele>
        <time>2018-06-20T08:25:31.000Z</time>
      </trkpt>
      <trkpt lat="43.85264" lon="7.24925">
        <ele>641.20001220703</ele>
        <time>2018-06-20T08:25:32.000Z</time>
      </trkpt>
      <trkpt lat="43.8526" lon="7.2492">
        <ele>640.79998779297</ele>
        <time>2018-06-20T08:25:33.000Z</time>
      </trkpt>
      <trkpt lat="43.85255" lon="7.24914">
        <ele>640.59997558594</ele>
        <time>2018-06-20T08:25:34.000Z</time>
      </trkpt>
      <trkpt lat="43.85235" lon="7.24887">
        <ele>639.79998779297</ele>
        <time>2018-06-20T08:25:39.000Z</time>
      </trkpt>
      <trkpt lat="43.85225" lon="7.24876">
        <ele>640.20001220703</ele>
        <time>2018-06-20T08:25:41.000Z</time>
      </trkpt>
      <trkpt lat="43.85215" lon="7.24866">
        <ele>639.40002441406</ele>
        <time>2018-06-20T08:25:43.000Z</time>
      </trkpt>
      <trkpt lat="43.8521" lon="7.2486">
        <ele>639</ele>
        <time>2018-06-20T08:25:44.000Z</time>
      </trkpt>
      <trkpt lat="43.85205" lon="7.24857">
        <ele>638.79998779297</ele>
        <time>2018-06-20T08:25:45.000Z</time>
      </trkpt>
      <trkpt lat="43.85192" lon="7.24851">
        <ele>638.20001220703</ele>
        <time>2018-06-20T08:25:47.000Z</time>
      </trkpt>
      <trkpt lat="43.85191" lon="7.2485">
        <ele>638</ele>
        <time>2018-06-20T08:25:48.000Z</time>
      </trkpt>
      <trkpt lat="43.85174" lon="7.24845">
        <ele>636.79998779297</ele>
        <time>2018-06-20T08:25:50.000Z</time>
      </trkpt>
      <trkpt lat="43.85168" lon="7.24845">
        <ele>636.20001220703</ele>
        <time>2018-06-20T08:25:51.000Z</time>
      </trkpt>
      <trkpt lat="43.85162" lon="7.24845">
        <ele>635.59997558594</ele>
        <time>2018-06-20T08:25:52.000Z</time>
      </trkpt>
      <trkpt lat="43.85158" lon="7.24847">
        <ele>635</ele>
        <time>2018-06-20T08:25:53.000Z</time>
      </trkpt>
      <trkpt lat="43.85154" lon="7.24851">
        <ele>634.20001220703</ele>
        <time>2018-06-20T08:25:54.000Z</time>
      </trkpt>
      <trkpt lat="43.85149" lon="7.24854">
        <ele>633.79998779297</ele>
        <time>2018-06-20T08:25:55.000Z</time>
      </trkpt>
      <trkpt lat="43.85141" lon="7.24853">
        <ele>633.20001220703</ele>
        <time>2018-06-20T08:25:57.000Z</time>
      </trkpt>
      <trkpt lat="43.85139" lon="7.24847">
        <ele>633</ele>
        <time>2018-06-20T08:25:58.000Z</time>
      </trkpt>
      <trkpt lat="43.85133" lon="7.24817">
        <ele>631.79998779297</ele>
        <time>2018-06-20T08:26:01.000Z</time>
      </trkpt>
      <trkpt lat="43.85131" lon="7.248">
        <ele>630.59997558594</ele>
        <time>2018-06-20T08:26:03.000Z</time>
      </trkpt>
      <trkpt lat="43.85133" lon="7.2479">
        <ele>629.79998779297</ele>
        <time>2018-06-20T08:26:04.000Z</time>
      </trkpt>
      <trkpt lat="43.85137" lon="7.2478">
        <ele>629</ele>
        <time>2018-06-20T08:26:05.000Z</time>
      </trkpt>
      <trkpt lat="43.85145" lon="7.24759">
        <ele>627</ele>
        <time>2018-06-20T08:26:07.000Z</time>
      </trkpt>
      <trkpt lat="43.8515" lon="7.24748">
        <ele>626</ele>
        <time>2018-06-20T08:26:08.000Z</time>
      </trkpt>
      <trkpt lat="43.85155" lon="7.24737">
        <ele>625</ele>
        <time>2018-06-20T08:26:09.000Z</time>
      </trkpt>
      <trkpt lat="43.85158" lon="7.24725">
        <ele>623.40002441406</ele>
        <time>2018-06-20T08:26:10.000Z</time>
      </trkpt>
      <trkpt lat="43.85163" lon="7.24712">
        <ele>622</ele>
        <time>2018-06-20T08:26:11.000Z</time>
      </trkpt>
      <trkpt lat="43.85168" lon="7.24698">
        <ele>620.20001220703</ele>
        <time>2018-06-20T08:26:12.000Z</time>
      </trkpt>
      <trkpt lat="43.85172" lon="7.24686">
        <ele>618.40002441406</ele>
        <time>2018-06-20T08:26:13.000Z</time>
      </trkpt>
      <trkpt lat="43.85178" lon="7.24673">
        <ele>616.79998779297</ele>
        <time>2018-06-20T08:26:14.000Z</time>
      </trkpt>
      <trkpt lat="43.85184" lon="7.24663">
        <ele>615.40002441406</ele>
        <time>2018-06-20T08:26:15.000Z</time>
      </trkpt>
      <trkpt lat="43.85191" lon="7.24656">
        <ele>614.79998779297</ele>
        <time>2018-06-20T08:26:16.000Z</time>
      </trkpt>
      <trkpt lat="43.85198" lon="7.24649">
        <ele>614</ele>
        <time>2018-06-20T08:26:17.000Z</time>
      </trkpt>
      <trkpt lat="43.85207" lon="7.24632">
        <ele>612.20001220703</ele>
        <time>2018-06-20T08:26:19.000Z</time>
      </trkpt>
      <trkpt lat="43.85209" lon="7.24622">
        <ele>611.20001220703</ele>
        <time>2018-06-20T08:26:20.000Z</time>
      </trkpt>
      <trkpt lat="43.85211" lon="7.2461">
        <ele>610.40002441406</ele>
        <time>2018-06-20T08:26:21.000Z</time>
      </trkpt>
      <trkpt lat="43.85212" lon="7.24599">
        <ele>609.40002441406</ele>
        <time>2018-06-20T08:26:22.000Z</time>
      </trkpt>
      <trkpt lat="43.85214" lon="7.24587">
        <ele>608.79998779297</ele>
        <time>2018-06-20T08:26:23.000Z</time>
      </trkpt>
      <trkpt lat="43.85215" lon="7.24575">
        <ele>608</ele>
        <time>2018-06-20T08:26:24.000Z</time>
      </trkpt>
      <trkpt lat="43.85214" lon="7.24564">
        <ele>607.20001220703</ele>
        <time>2018-06-20T08:26:25.000Z</time>
      </trkpt>
      <trkpt lat="43.85212" lon="7.24553">
        <ele>606</ele>
        <time>2018-06-20T08:26:26.000Z</time>
      </trkpt>
      <trkpt lat="43.8521" lon="7.24543">
        <ele>605.20001220703</ele>
        <time>2018-06-20T08:26:27.000Z</time>
      </trkpt>
      <trkpt lat="43.85208" lon="7.24535">
        <ele>604</ele>
        <time>2018-06-20T08:26:28.000Z</time>
      </trkpt>
      <trkpt lat="43.85206" lon="7.24528">
        <ele>602.79998779297</ele>
        <time>2018-06-20T08:26:29.000Z</time>
      </trkpt>
      <trkpt lat="43.85205" lon="7.24523">
        <ele>601.40002441406</ele>
        <time>2018-06-20T08:26:30.000Z</time>
      </trkpt>
      <trkpt lat="43.85204" lon="7.24515">
        <ele>599.79998779297</ele>
        <time>2018-06-20T08:26:32.000Z</time>
      </trkpt>
      <trkpt lat="43.85206" lon="7.24513">
        <ele>599</ele>
        <time>2018-06-20T08:26:33.000Z</time>
      </trkpt>
      <trkpt lat="43.85208" lon="7.24512">
        <ele>598.59997558594</ele>
        <time>2018-06-20T08:26:34.000Z</time>
      </trkpt>
      <trkpt lat="43.85214" lon="7.24511">
        <ele>598.20001220703</ele>
        <time>2018-06-20T08:26:36.000Z</time>
      </trkpt>
      <trkpt lat="43.8522" lon="7.24514">
        <ele>598</ele>
        <time>2018-06-20T08:26:38.000Z</time>
      </trkpt>
      <trkpt lat="43.85229" lon="7.2452">
        <ele>597.40002441406</ele>
        <time>2018-06-20T08:26:41.000Z</time>
      </trkpt>
      <trkpt lat="43.85231" lon="7.24524">
        <ele>597.20001220703</ele>
        <time>2018-06-20T08:26:42.000Z</time>
      </trkpt>
      <trkpt lat="43.85232" lon="7.24529">
        <ele>597</ele>
        <time>2018-06-20T08:26:43.000Z</time>
      </trkpt>
      <trkpt lat="43.85231" lon="7.24541">
        <ele>596.59997558594</ele>
        <time>2018-06-20T08:26:45.000Z</time>
      </trkpt>
      <trkpt lat="43.85231" lon="7.24546">
        <ele>596.40002441406</ele>
        <time>2018-06-20T08:26:46.000Z</time>
      </trkpt>
      <trkpt lat="43.85233" lon="7.24565">
        <ele>595.79998779297</ele>
        <time>2018-06-20T08:26:49.000Z</time>
      </trkpt>
      <trkpt lat="43.85239" lon="7.24586">
        <ele>595.40002441406</ele>
        <time>2018-06-20T08:26:52.000Z</time>
      </trkpt>
      <trkpt lat="43.85241" lon="7.24595">
        <ele>595.40002441406</ele>
        <time>2018-06-20T08:26:53.000Z</time>
      </trkpt>
      <trkpt lat="43.85246" lon="7.24612">
        <ele>595</ele>
        <time>2018-06-20T08:26:55.000Z</time>
      </trkpt>
      <trkpt lat="43.85244" lon="7.24628">
        <ele>594.40002441406</ele>
        <time>2018-06-20T08:26:57.000Z</time>
      </trkpt>
      <trkpt lat="43.85241" lon="7.24634">
        <ele>594.20001220703</ele>
        <time>2018-06-20T08:26:58.000Z</time>
      </trkpt>
      <trkpt lat="43.85244" lon="7.24649">
        <ele>593.79998779297</ele>
        <time>2018-06-20T08:27:00.000Z</time>
      </trkpt>
      <trkpt lat="43.85252" lon="7.24652">
        <ele>593</ele>
        <time>2018-06-20T08:27:02.000Z</time>
      </trkpt>
      <trkpt lat="43.85256" lon="7.24644">
        <ele>592</ele>
        <time>2018-06-20T08:27:04.000Z</time>
      </trkpt>
      <trkpt lat="43.85257" lon="7.24639">
        <ele>591.79998779297</ele>
        <time>2018-06-20T08:27:05.000Z</time>
      </trkpt>
      <trkpt lat="43.85258" lon="7.24636">
        <ele>591.59997558594</ele>
        <time>2018-06-20T08:27:06.000Z</time>
      </trkpt>
      <trkpt lat="43.85261" lon="7.24627">
        <ele>592</ele>
        <time>2018-06-20T08:27:09.000Z</time>
      </trkpt>
      <trkpt lat="43.85264" lon="7.24615">
        <ele>593</ele>
        <time>2018-06-20T08:27:14.000Z</time>
      </trkpt>
      <trkpt lat="43.85265" lon="7.24611">
        <ele>593.40002441406</ele>
        <time>2018-06-20T08:27:16.000Z</time>
      </trkpt>
      <trkpt lat="43.85267" lon="7.24593">
        <ele>593.40002441406</ele>
        <time>2018-06-20T08:27:23.000Z</time>
      </trkpt>
      <trkpt lat="43.85273" lon="7.24576">
        <ele>593.59997558594</ele>
        <time>2018-06-20T08:27:29.000Z</time>
      </trkpt>
      <trkpt lat="43.85277" lon="7.24568">
        <ele>594</ele>
        <time>2018-06-20T08:27:32.000Z</time>
      </trkpt>
      <trkpt lat="43.85283" lon="7.24562">
        <ele>594.79998779297</ele>
        <time>2018-06-20T08:27:35.000Z</time>
      </trkpt>
      <trkpt lat="43.85287" lon="7.24558">
        <ele>595.20001220703</ele>
        <time>2018-06-20T08:27:37.000Z</time>
      </trkpt>
      <trkpt lat="43.85297" lon="7.24549">
        <ele>596.20001220703</ele>
        <time>2018-06-20T08:27:42.000Z</time>
      </trkpt>
      <trkpt lat="43.85299" lon="7.24548">
        <ele>596.40002441406</ele>
        <time>2018-06-20T08:27:43.000Z</time>
      </trkpt>
      <trkpt lat="43.85316" lon="7.24543">
        <ele>597.20001220703</ele>
        <time>2018-06-20T08:27:49.000Z</time>
      </trkpt>
      <trkpt lat="43.85326" lon="7.24541">
        <ele>597.40002441406</ele>
        <time>2018-06-20T08:27:53.000Z</time>
      </trkpt>
      <trkpt lat="43.85334" lon="7.2454">
        <ele>597.40002441406</ele>
        <time>2018-06-20T08:27:56.000Z</time>
      </trkpt>
      <trkpt lat="43.85347" lon="7.24543">
        <ele>596.40002441406</ele>
        <time>2018-06-20T08:28:01.000Z</time>
      </trkpt>
      <trkpt lat="43.85358" lon="7.24544">
        <ele>595.79998779297</ele>
        <time>2018-06-20T08:28:05.000Z</time>
      </trkpt>
      <trkpt lat="43.85378" lon="7.24549">
        <ele>595.59997558594</ele>
        <time>2018-06-20T08:28:12.000Z</time>
      </trkpt>
      <trkpt lat="43.85401" lon="7.24556">
        <ele>595.79998779297</ele>
        <time>2018-06-20T08:28:20.000Z</time>
      </trkpt>
      <trkpt lat="43.85422" lon="7.24561">
        <ele>596.20001220703</ele>
        <time>2018-06-20T08:28:27.000Z</time>
      </trkpt>
      <trkpt lat="43.8544" lon="7.24559">
        <ele>596.79998779297</ele>
        <time>2018-06-20T08:28:34.000Z</time>
      </trkpt>
      <trkpt lat="43.85457" lon="7.24561">
        <ele>597.20001220703</ele>
        <time>2018-06-20T08:28:41.000Z</time>
      </trkpt>
      <trkpt lat="43.85475" lon="7.24567">
        <ele>597.59997558594</ele>
        <time>2018-06-20T08:28:48.000Z</time>
      </trkpt>
      <trkpt lat="43.85495" lon="7.24572">
        <ele>598.20001220703</ele>
        <time>2018-06-20T08:28:56.000Z</time>
      </trkpt>
      <trkpt lat="43.85509" lon="7.24578">
        <ele>597.20001220703</ele>
        <time>2018-06-20T08:29:02.000Z</time>
      </trkpt>
      <trkpt lat="43.85513" lon="7.24579">
        <ele>597</ele>
        <time>2018-06-20T08:29:04.000Z</time>
      </trkpt>
      <trkpt lat="43.85512" lon="7.24576">
        <ele>597.20001220703</ele>
        <time>2018-06-20T08:29:06.000Z</time>
      </trkpt>
      <trkpt lat="43.85513" lon="7.24577">
        <ele>597.20001220703</ele>
        <time>2018-06-20T08:29:07.000Z</time>
      </trkpt>
      <trkpt lat="43.85512" lon="7.24579">
        <ele>595.40002441406</ele>
        <time>2018-06-20T08:29:37.000Z</time>
      </trkpt>
      <trkpt lat="43.85513" lon="7.2458">
        <ele>595.40002441406</ele>
        <time>2018-06-20T08:29:38.000Z</time>
      </trkpt>
      <trkpt lat="43.85523" lon="7.24596">
        <ele>595</ele>
        <time>2018-06-20T08:29:44.000Z</time>
      </trkpt>
      <trkpt lat="43.85533" lon="7.24595">
        <ele>594.59997558594</ele>
        <time>2018-06-20T08:29:47.000Z</time>
      </trkpt>
      <trkpt lat="43.85534" lon="7.24593">
        <ele>594.79998779297</ele>
        <time>2018-06-20T08:29:48.000Z</time>
      </trkpt>
      <trkpt lat="43.85536" lon="7.24584">
        <ele>594.79998779297</ele>
        <time>2018-06-20T08:29:51.000Z</time>
      </trkpt>
      <trkpt lat="43.85543" lon="7.24574">
        <ele>594.59997558594</ele>
        <time>2018-06-20T08:29:56.000Z</time>
      </trkpt>
      <trkpt lat="43.85551" lon="7.2457">
        <ele>595</ele>
        <time>2018-06-20T08:30:02.000Z</time>
      </trkpt>
      <trkpt lat="43.85563" lon="7.24571">
        <ele>594.59997558594</ele>
        <time>2018-06-20T08:30:06.000Z</time>
      </trkpt>
      <trkpt lat="43.85574" lon="7.24585">
        <ele>594.40002441406</ele>
        <time>2018-06-20T08:30:10.000Z</time>
      </trkpt>
      <trkpt lat="43.85584" lon="7.24598">
        <ele>594</ele>
        <time>2018-06-20T08:30:13.000Z</time>
      </trkpt>
      <trkpt lat="43.85596" lon="7.24605">
        <ele>593.79998779297</ele>
        <time>2018-06-20T08:30:16.000Z</time>
      </trkpt>
      <trkpt lat="43.856" lon="7.24606">
        <ele>593.79998779297</ele>
        <time>2018-06-20T08:30:17.000Z</time>
      </trkpt>
      <trkpt lat="43.8561" lon="7.24607">
        <ele>593.79998779297</ele>
        <time>2018-06-20T08:30:19.000Z</time>
      </trkpt>
      <trkpt lat="43.85623" lon="7.24609">
        <ele>594.40002441406</ele>
        <time>2018-06-20T08:30:22.000Z</time>
      </trkpt>
      <trkpt lat="43.85639" lon="7.24624">
        <ele>594.79998779297</ele>
        <time>2018-06-20T08:30:26.000Z</time>
      </trkpt>
      <trkpt lat="43.85647" lon="7.24627">
        <ele>595.20001220703</ele>
        <time>2018-06-20T08:30:28.000Z</time>
      </trkpt>
      <trkpt lat="43.85652" lon="7.24625">
        <ele>595.40002441406</ele>
        <time>2018-06-20T08:30:29.000Z</time>
      </trkpt>
      <trkpt lat="43.85655" lon="7.24621">
        <ele>595.79998779297</ele>
        <time>2018-06-20T08:30:30.000Z</time>
      </trkpt>
      <trkpt lat="43.8566" lon="7.24613">
        <ele>596.40002441406</ele>
        <time>2018-06-20T08:30:32.000Z</time>
      </trkpt>
      <trkpt lat="43.85663" lon="7.24605">
        <ele>597</ele>
        <time>2018-06-20T08:30:34.000Z</time>
      </trkpt>
      <trkpt lat="43.85669" lon="7.24605">
        <ele>597.79998779297</ele>
        <time>2018-06-20T08:30:36.000Z</time>
      </trkpt>
      <trkpt lat="43.85671" lon="7.24608">
        <ele>597.79998779297</ele>
        <time>2018-06-20T08:30:37.000Z</time>
      </trkpt>
      <trkpt lat="43.85674" lon="7.24612">
        <ele>597.79998779297</ele>
        <time>2018-06-20T08:30:38.000Z</time>
      </trkpt>
      <trkpt lat="43.85688" lon="7.24627">
        <ele>598.59997558594</ele>
        <time>2018-06-20T08:30:43.000Z</time>
      </trkpt>
      <trkpt lat="43.8569" lon="7.24629">
        <ele>598.79998779297</ele>
        <time>2018-06-20T08:30:44.000Z</time>
      </trkpt>
      <trkpt lat="43.857" lon="7.24633">
        <ele>599.79998779297</ele>
        <time>2018-06-20T08:30:48.000Z</time>
      </trkpt>
      <trkpt lat="43.85703" lon="7.24634">
        <ele>600</ele>
        <time>2018-06-20T08:30:49.000Z</time>
      </trkpt>
      <trkpt lat="43.85712" lon="7.24636">
        <ele>601</ele>
        <time>2018-06-20T08:30:52.000Z</time>
      </trkpt>
      <trkpt lat="43.85724" lon="7.24641">
        <ele>602</ele>
        <time>2018-06-20T08:30:56.000Z</time>
      </trkpt>
      <trkpt lat="43.85727" lon="7.24642">
        <ele>602.40002441406</ele>
        <time>2018-06-20T08:30:57.000Z</time>
      </trkpt>
      <trkpt lat="43.85736" lon="7.24646">
        <ele>603.59997558594</ele>
        <time>2018-06-20T08:31:00.000Z</time>
      </trkpt>
      <trkpt lat="43.85744" lon="7.24653">
        <ele>605</ele>
        <time>2018-06-20T08:31:03.000Z</time>
      </trkpt>
      <trkpt lat="43.85753" lon="7.24661">
        <ele>606.20001220703</ele>
        <time>2018-06-20T08:31:07.000Z</time>
      </trkpt>
      <trkpt lat="43.85758" lon="7.24664">
        <ele>606.79998779297</ele>
        <time>2018-06-20T08:31:09.000Z</time>
      </trkpt>
      <trkpt lat="43.85763" lon="7.24668">
        <ele>607.59997558594</ele>
        <time>2018-06-20T08:31:11.000Z</time>
      </trkpt>
      <trkpt lat="43.85775" lon="7.24679">
        <ele>607.59997558594</ele>
        <time>2018-06-20T08:31:16.000Z</time>
      </trkpt>
      <trkpt lat="43.85785" lon="7.24695">
        <ele>607.59997558594</ele>
        <time>2018-06-20T08:31:22.000Z</time>
      </trkpt>
      <trkpt lat="43.85796" lon="7.24713">
        <ele>608.59997558594</ele>
        <time>2018-06-20T08:31:29.000Z</time>
      </trkpt>
      <trkpt lat="43.85799" lon="7.24719">
        <ele>609</ele>
        <time>2018-06-20T08:31:31.000Z</time>
      </trkpt>
      <trkpt lat="43.85802" lon="7.24727">
        <ele>609.79998779297</ele>
        <time>2018-06-20T08:31:34.000Z</time>
      </trkpt>
      <trkpt lat="43.85806" lon="7.24734">
        <ele>609.79998779297</ele>
        <time>2018-06-20T08:31:37.000Z</time>
      </trkpt>
      <trkpt lat="43.85813" lon="7.24746">
        <ele>610.79998779297</ele>
        <time>2018-06-20T08:31:42.000Z</time>
      </trkpt>
      <trkpt lat="43.85817" lon="7.24748">
        <ele>611.40002441406</ele>
        <time>2018-06-20T08:31:44.000Z</time>
      </trkpt>
      <trkpt lat="43.85819" lon="7.24746">
        <ele>611.59997558594</ele>
        <time>2018-06-20T08:31:45.000Z</time>
      </trkpt>
      <trkpt lat="43.85821" lon="7.24744">
        <ele>611.79998779297</ele>
        <time>2018-06-20T08:31:46.000Z</time>
      </trkpt>
      <trkpt lat="43.85821" lon="7.2474">
        <ele>612</ele>
        <time>2018-06-20T08:31:47.000Z</time>
      </trkpt>
      <trkpt lat="43.85819" lon="7.24732">
        <ele>612.79998779297</ele>
        <time>2018-06-20T08:31:50.000Z</time>
      </trkpt>
      <trkpt lat="43.85818" lon="7.24729">
        <ele>613</ele>
        <time>2018-06-20T08:31:51.000Z</time>
      </trkpt>
      <trkpt lat="43.85816" lon="7.24718">
        <ele>613.79998779297</ele>
        <time>2018-06-20T08:31:55.000Z</time>
      </trkpt>
      <trkpt lat="43.85814" lon="7.24709">
        <ele>614.20001220703</ele>
        <time>2018-06-20T08:31:58.000Z</time>
      </trkpt>
      <trkpt lat="43.85812" lon="7.24696">
        <ele>615</ele>
        <time>2018-06-20T08:32:02.000Z</time>
      </trkpt>
      <trkpt lat="43.85808" lon="7.24682">
        <ele>615.79998779297</ele>
        <time>2018-06-20T08:32:07.000Z</time>
      </trkpt>
      <trkpt lat="43.85808" lon="7.24676">
        <ele>616.20001220703</ele>
        <time>2018-06-20T08:32:09.000Z</time>
      </trkpt>
      <trkpt lat="43.85808" lon="7.24667">
        <ele>616.40002441406</ele>
        <time>2018-06-20T08:32:13.000Z</time>
      </trkpt>
      <trkpt lat="43.85814" lon="7.2467">
        <ele>617</ele>
        <time>2018-06-20T08:32:17.000Z</time>
      </trkpt>
      <trkpt lat="43.85816" lon="7.24676">
        <ele>617.20001220703</ele>
        <time>2018-06-20T08:32:19.000Z</time>
      </trkpt>
      <trkpt lat="43.85817" lon="7.24683">
        <ele>617.40002441406</ele>
        <time>2018-06-20T08:32:21.000Z</time>
      </trkpt>
      <trkpt lat="43.85818" lon="7.24686">
        <ele>617.59997558594</ele>
        <time>2018-06-20T08:32:22.000Z</time>
      </trkpt>
      <trkpt lat="43.85822" lon="7.24699">
        <ele>618.20001220703</ele>
        <time>2018-06-20T08:32:26.000Z</time>
      </trkpt>
      <trkpt lat="43.85827" lon="7.24706">
        <ele>618.79998779297</ele>
        <time>2018-06-20T08:32:29.000Z</time>
      </trkpt>
      <trkpt lat="43.8583" lon="7.2471">
        <ele>619.40002441406</ele>
        <time>2018-06-20T08:32:31.000Z</time>
      </trkpt>
      <trkpt lat="43.85834" lon="7.24722">
        <ele>620.59997558594</ele>
        <time>2018-06-20T08:32:35.000Z</time>
      </trkpt>
      <trkpt lat="43.85835" lon="7.24725">
        <ele>621</ele>
        <time>2018-06-20T08:32:36.000Z</time>
      </trkpt>
      <trkpt lat="43.85837" lon="7.2473">
        <ele>621.79998779297</ele>
        <time>2018-06-20T08:32:38.000Z</time>
      </trkpt>
      <trkpt lat="43.85843" lon="7.24739">
        <ele>623</ele>
        <time>2018-06-20T08:32:42.000Z</time>
      </trkpt>
      <trkpt lat="43.85847" lon="7.24743">
        <ele>623.40002441406</ele>
        <time>2018-06-20T08:32:44.000Z</time>
      </trkpt>
      <trkpt lat="43.85852" lon="7.24747">
        <ele>624</ele>
        <time>2018-06-20T08:32:47.000Z</time>
      </trkpt>
      <trkpt lat="43.85858" lon="7.2475">
        <ele>624.59997558594</ele>
        <time>2018-06-20T08:32:50.000Z</time>
      </trkpt>
      <trkpt lat="43.85862" lon="7.24751">
        <ele>625.20001220703</ele>
        <time>2018-06-20T08:32:52.000Z</time>
      </trkpt>
      <trkpt lat="43.85869" lon="7.24744">
        <ele>626.20001220703</ele>
        <time>2018-06-20T08:32:56.000Z</time>
      </trkpt>
      <trkpt lat="43.8587" lon="7.24742">
        <ele>626.59997558594</ele>
        <time>2018-06-20T08:32:57.000Z</time>
      </trkpt>
      <trkpt lat="43.85872" lon="7.24728">
        <ele>627.20001220703</ele>
        <time>2018-06-20T08:33:01.000Z</time>
      </trkpt>
      <trkpt lat="43.85872" lon="7.24725">
        <ele>627.20001220703</ele>
        <time>2018-06-20T08:33:02.000Z</time>
      </trkpt>
      <trkpt lat="43.85877" lon="7.24703">
        <ele>627.59997558594</ele>
        <time>2018-06-20T08:33:08.000Z</time>
      </trkpt>
      <trkpt lat="43.85878" lon="7.24676">
        <ele>627.79998779297</ele>
        <time>2018-06-20T08:33:14.000Z</time>
      </trkpt>
      <trkpt lat="43.85876" lon="7.24648">
        <ele>628.59997558594</ele>
        <time>2018-06-20T08:33:21.000Z</time>
      </trkpt>
      <trkpt lat="43.85883" lon="7.24635">
        <ele>628.79998779297</ele>
        <time>2018-06-20T08:33:25.000Z</time>
      </trkpt>
      <trkpt lat="43.85886" lon="7.24632">
        <ele>629</ele>
        <time>2018-06-20T08:33:26.000Z</time>
      </trkpt>
      <trkpt lat="43.85888" lon="7.24629">
        <ele>629.20001220703</ele>
        <time>2018-06-20T08:33:27.000Z</time>
      </trkpt>
      <trkpt lat="43.85895" lon="7.24623">
        <ele>629.79998779297</ele>
        <time>2018-06-20T08:33:30.000Z</time>
      </trkpt>
      <trkpt lat="43.85902" lon="7.2462">
        <ele>630.59997558594</ele>
        <time>2018-06-20T08:33:33.000Z</time>
      </trkpt>
      <trkpt lat="43.85904" lon="7.24619">
        <ele>631</ele>
        <time>2018-06-20T08:33:34.000Z</time>
      </trkpt>
      <trkpt lat="43.85913" lon="7.24616">
        <ele>632</ele>
        <time>2018-06-20T08:33:38.000Z</time>
      </trkpt>
      <trkpt lat="43.85916" lon="7.24615">
        <ele>632.20001220703</ele>
        <time>2018-06-20T08:33:39.000Z</time>
      </trkpt>
      <trkpt lat="43.8592" lon="7.24613">
        <ele>633.20001220703</ele>
        <time>2018-06-20T08:33:41.000Z</time>
      </trkpt>
      <trkpt lat="43.85926" lon="7.24609">
        <ele>634.20001220703</ele>
        <time>2018-06-20T08:33:44.000Z</time>
      </trkpt>
      <trkpt lat="43.85928" lon="7.24608">
        <ele>634.59997558594</ele>
        <time>2018-06-20T08:33:45.000Z</time>
      </trkpt>
      <trkpt lat="43.8593" lon="7.24606">
        <ele>635.20001220703</ele>
        <time>2018-06-20T08:33:46.000Z</time>
      </trkpt>
      <trkpt lat="43.85938" lon="7.24591">
        <ele>636.20001220703</ele>
        <time>2018-06-20T08:33:52.000Z</time>
      </trkpt>
      <trkpt lat="43.8594" lon="7.24582">
        <ele>636.40002441406</ele>
        <time>2018-06-20T08:33:55.000Z</time>
      </trkpt>
      <trkpt lat="43.85941" lon="7.24573">
        <ele>636.79998779297</ele>
        <time>2018-06-20T08:33:58.000Z</time>
      </trkpt>
      <trkpt lat="43.85941" lon="7.24567">
        <ele>637.40002441406</ele>
        <time>2018-06-20T08:34:00.000Z</time>
      </trkpt>
      <trkpt lat="43.85943" lon="7.24552">
        <ele>638.20001220703</ele>
        <time>2018-06-20T08:34:05.000Z</time>
      </trkpt>
      <trkpt lat="43.85943" lon="7.24548">
        <ele>638.59997558594</ele>
        <time>2018-06-20T08:34:06.000Z</time>
      </trkpt>
      <trkpt lat="43.85942" lon="7.24537">
        <ele>639.79998779297</ele>
        <time>2018-06-20T08:34:10.000Z</time>
      </trkpt>
      <trkpt lat="43.8594" lon="7.24531">
        <ele>639.79998779297</ele>
        <time>2018-06-20T08:34:12.000Z</time>
      </trkpt>
      <trkpt lat="43.85939" lon="7.24529">
        <ele>640</ele>
        <time>2018-06-20T08:34:13.000Z</time>
      </trkpt>
      <trkpt lat="43.85933" lon="7.24522">
        <ele>640.59997558594</ele>
        <time>2018-06-20T08:34:17.000Z</time>
      </trkpt>
      <trkpt lat="43.8593" lon="7.2452">
        <ele>642.20001220703</ele>
        <time>2018-06-20T08:34:18.000Z</time>
      </trkpt>
      <trkpt lat="43.85918" lon="7.24511">
        <ele>643</ele>
        <time>2018-06-20T08:34:25.000Z</time>
      </trkpt>
      <trkpt lat="43.85917" lon="7.24509">
        <ele>643.59997558594</ele>
        <time>2018-06-20T08:34:26.000Z</time>
      </trkpt>
      <trkpt lat="43.85915" lon="7.24503">
        <ele>644</ele>
        <time>2018-06-20T08:34:28.000Z</time>
      </trkpt>
      <trkpt lat="43.85916" lon="7.24501">
        <ele>644.20001220703</ele>
        <time>2018-06-20T08:34:29.000Z</time>
      </trkpt>
      <trkpt lat="43.85919" lon="7.24496">
        <ele>644.79998779297</ele>
        <time>2018-06-20T08:34:31.000Z</time>
      </trkpt>
      <trkpt lat="43.85923" lon="7.24491">
        <ele>645.20001220703</ele>
        <time>2018-06-20T08:34:34.000Z</time>
      </trkpt>
      <trkpt lat="43.85928" lon="7.24485">
        <ele>645.79998779297</ele>
        <time>2018-06-20T08:34:37.000Z</time>
      </trkpt>
      <trkpt lat="43.8593" lon="7.24484">
        <ele>646</ele>
        <time>2018-06-20T08:34:38.000Z</time>
      </trkpt>
      <trkpt lat="43.85933" lon="7.24479">
        <ele>646.40002441406</ele>
        <time>2018-06-20T08:34:40.000Z</time>
      </trkpt>
      <trkpt lat="43.85936" lon="7.24475">
        <ele>647</ele>
        <time>2018-06-20T08:34:42.000Z</time>
      </trkpt>
      <trkpt lat="43.85941" lon="7.2447">
        <ele>648</ele>
        <time>2018-06-20T08:34:45.000Z</time>
      </trkpt>
      <trkpt lat="43.85943" lon="7.24469">
        <ele>648.40002441406</ele>
        <time>2018-06-20T08:34:46.000Z</time>
      </trkpt>
      <trkpt lat="43.85944" lon="7.24468">
        <ele>649</ele>
        <time>2018-06-20T08:34:47.000Z</time>
      </trkpt>
      <trkpt lat="43.85954" lon="7.24463">
        <ele>650</ele>
        <time>2018-06-20T08:34:52.000Z</time>
      </trkpt>
      <trkpt lat="43.85956" lon="7.24463">
        <ele>650.20001220703</ele>
        <time>2018-06-20T08:34:53.000Z</time>
      </trkpt>
      <trkpt lat="43.85967" lon="7.24456">
        <ele>651</ele>
        <time>2018-06-20T08:34:59.000Z</time>
      </trkpt>
      <trkpt lat="43.85972" lon="7.24453">
        <ele>651.20001220703</ele>
        <time>2018-06-20T08:35:01.000Z</time>
      </trkpt>
      <trkpt lat="43.85982" lon="7.24448">
        <ele>652.20001220703</ele>
        <time>2018-06-20T08:35:06.000Z</time>
      </trkpt>
      <trkpt lat="43.85984" lon="7.24446">
        <ele>652.20001220703</ele>
        <time>2018-06-20T08:35:07.000Z</time>
      </trkpt>
      <trkpt lat="43.85991" lon="7.2444">
        <ele>653.20001220703</ele>
        <time>2018-06-20T08:35:11.000Z</time>
      </trkpt>
      <trkpt lat="43.85994" lon="7.24436">
        <ele>653.79998779297</ele>
        <time>2018-06-20T08:35:13.000Z</time>
      </trkpt>
      <trkpt lat="43.85999" lon="7.24431">
        <ele>654.40002441406</ele>
        <time>2018-06-20T08:35:16.000Z</time>
      </trkpt>
      <trkpt lat="43.86008" lon="7.24424">
        <ele>655.20001220703</ele>
        <time>2018-06-20T08:35:21.000Z</time>
      </trkpt>
      <trkpt lat="43.86012" lon="7.24422">
        <ele>655.40002441406</ele>
        <time>2018-06-20T08:35:23.000Z</time>
      </trkpt>
      <trkpt lat="43.86024" lon="7.24416">
        <ele>655.79998779297</ele>
        <time>2018-06-20T08:35:29.000Z</time>
      </trkpt>
      <trkpt lat="43.86032" lon="7.24406">
        <ele>656.20001220703</ele>
        <time>2018-06-20T08:35:34.000Z</time>
      </trkpt>
      <trkpt lat="43.86042" lon="7.24399">
        <ele>656.59997558594</ele>
        <time>2018-06-20T08:35:39.000Z</time>
      </trkpt>
      <trkpt lat="43.86049" lon="7.24395">
        <ele>657.40002441406</ele>
        <time>2018-06-20T08:35:43.000Z</time>
      </trkpt>
      <trkpt lat="43.86053" lon="7.24391">
        <ele>657.79998779297</ele>
        <time>2018-06-20T08:35:45.000Z</time>
      </trkpt>
      <trkpt lat="43.86058" lon="7.24387">
        <ele>658.79998779297</ele>
        <time>2018-06-20T08:35:48.000Z</time>
      </trkpt>
      <trkpt lat="43.86064" lon="7.24379">
        <ele>660</ele>
        <time>2018-06-20T08:35:52.000Z</time>
      </trkpt>
      <trkpt lat="43.86066" lon="7.24378">
        <ele>660.20001220703</ele>
        <time>2018-06-20T08:35:53.000Z</time>
      </trkpt>
      <trkpt lat="43.86071" lon="7.24372">
        <ele>661.20001220703</ele>
        <time>2018-06-20T08:35:56.000Z</time>
      </trkpt>
      <trkpt lat="43.86078" lon="7.24364">
        <ele>662.40002441406</ele>
        <time>2018-06-20T08:36:00.000Z</time>
      </trkpt>
      <trkpt lat="43.86082" lon="7.2436">
        <ele>662.79998779297</ele>
        <time>2018-06-20T08:36:02.000Z</time>
      </trkpt>
      <trkpt lat="43.86091" lon="7.24354">
        <ele>663.40002441406</ele>
        <time>2018-06-20T08:36:07.000Z</time>
      </trkpt>
      <trkpt lat="43.86097" lon="7.24351">
        <ele>664</ele>
        <time>2018-06-20T08:36:10.000Z</time>
      </trkpt>
      <trkpt lat="43.86103" lon="7.24348">
        <ele>664.59997558594</ele>
        <time>2018-06-20T08:36:13.000Z</time>
      </trkpt>
      <trkpt lat="43.86111" lon="7.24343">
        <ele>665.79998779297</ele>
        <time>2018-06-20T08:36:18.000Z</time>
      </trkpt>
      <trkpt lat="43.86123" lon="7.24339">
        <ele>667</ele>
        <time>2018-06-20T08:36:24.000Z</time>
      </trkpt>
      <trkpt lat="43.86129" lon="7.24338">
        <ele>667.40002441406</ele>
        <time>2018-06-20T08:36:27.000Z</time>
      </trkpt>
      <trkpt lat="43.86137" lon="7.24338">
        <ele>668</ele>
        <time>2018-06-20T08:36:31.000Z</time>
      </trkpt>
      <trkpt lat="43.86143" lon="7.24337">
        <ele>668.40002441406</ele>
        <time>2018-06-20T08:36:34.000Z</time>
      </trkpt>
      <trkpt lat="43.86156" lon="7.24331">
        <ele>669.20001220703</ele>
        <time>2018-06-20T08:36:40.000Z</time>
      </trkpt>
      <trkpt lat="43.8616" lon="7.24329">
        <ele>669.20001220703</ele>
        <time>2018-06-20T08:36:42.000Z</time>
      </trkpt>
      <trkpt lat="43.86166" lon="7.24321">
        <ele>670.20001220703</ele>
        <time>2018-06-20T08:36:46.000Z</time>
      </trkpt>
      <trkpt lat="43.8617" lon="7.24315">
        <ele>671.20001220703</ele>
        <time>2018-06-20T08:36:49.000Z</time>
      </trkpt>
      <trkpt lat="43.86171" lon="7.24313">
        <ele>671.40002441406</ele>
        <time>2018-06-20T08:36:50.000Z</time>
      </trkpt>
      <trkpt lat="43.86174" lon="7.24306">
        <ele>672.40002441406</ele>
        <time>2018-06-20T08:36:53.000Z</time>
      </trkpt>
      <trkpt lat="43.86176" lon="7.24298">
        <ele>673.59997558594</ele>
        <time>2018-06-20T08:36:56.000Z</time>
      </trkpt>
      <trkpt lat="43.86176" lon="7.24295">
        <ele>673.59997558594</ele>
        <time>2018-06-20T08:36:57.000Z</time>
      </trkpt>
      <trkpt lat="43.86172" lon="7.24273">
        <ele>674.79998779297</ele>
        <time>2018-06-20T08:37:05.000Z</time>
      </trkpt>
      <trkpt lat="43.86175" lon="7.24259">
        <ele>675.79998779297</ele>
        <time>2018-06-20T08:37:09.000Z</time>
      </trkpt>
      <trkpt lat="43.86176" lon="7.24254">
        <ele>676.40002441406</ele>
        <time>2018-06-20T08:37:11.000Z</time>
      </trkpt>
      <trkpt lat="43.86177" lon="7.24249">
        <ele>677</ele>
        <time>2018-06-20T08:37:13.000Z</time>
      </trkpt>
      <trkpt lat="43.86184" lon="7.2423">
        <ele>677.59997558594</ele>
        <time>2018-06-20T08:37:19.000Z</time>
      </trkpt>
      <trkpt lat="43.86188" lon="7.24219">
        <ele>678.20001220703</ele>
        <time>2018-06-20T08:37:23.000Z</time>
      </trkpt>
      <trkpt lat="43.86192" lon="7.24208">
        <ele>678.79998779297</ele>
        <time>2018-06-20T08:37:27.000Z</time>
      </trkpt>
      <trkpt lat="43.86195" lon="7.242">
        <ele>679.20001220703</ele>
        <time>2018-06-20T08:37:30.000Z</time>
      </trkpt>
      <trkpt lat="43.86199" lon="7.24186">
        <ele>679.79998779297</ele>
        <time>2018-06-20T08:37:35.000Z</time>
      </trkpt>
      <trkpt lat="43.86196" lon="7.24164">
        <ele>680</ele>
        <time>2018-06-20T08:37:42.000Z</time>
      </trkpt>
      <trkpt lat="43.86184" lon="7.24148">
        <ele>679.20001220703</ele>
        <time>2018-06-20T08:37:47.000Z</time>
      </trkpt>
      <trkpt lat="43.86169" lon="7.24135">
        <ele>679</ele>
        <time>2018-06-20T08:37:53.000Z</time>
      </trkpt>
      <trkpt lat="43.86156" lon="7.24119">
        <ele>680.20001220703</ele>
        <time>2018-06-20T08:38:00.000Z</time>
      </trkpt>
      <trkpt lat="43.86153" lon="7.24096">
        <ele>681</ele>
        <time>2018-06-20T08:38:07.000Z</time>
      </trkpt>
      <trkpt lat="43.86155" lon="7.24081">
        <ele>681.20001220703</ele>
        <time>2018-06-20T08:38:12.000Z</time>
      </trkpt>
      <trkpt lat="43.86153" lon="7.24074">
        <ele>681.59997558594</ele>
        <time>2018-06-20T08:38:14.000Z</time>
      </trkpt>
      <trkpt lat="43.8615" lon="7.24062">
        <ele>682.40002441406</ele>
        <time>2018-06-20T08:38:18.000Z</time>
      </trkpt>
      <trkpt lat="43.86149" lon="7.24059">
        <ele>682.40002441406</ele>
        <time>2018-06-20T08:38:19.000Z</time>
      </trkpt>
      <trkpt lat="43.86143" lon="7.24049">
        <ele>683.40002441406</ele>
        <time>2018-06-20T08:38:24.000Z</time>
      </trkpt>
      <trkpt lat="43.8614" lon="7.24044">
        <ele>683.79998779297</ele>
        <time>2018-06-20T08:38:26.000Z</time>
      </trkpt>
      <trkpt lat="43.86136" lon="7.2403">
        <ele>684</ele>
        <time>2018-06-20T08:38:33.000Z</time>
      </trkpt>
      <trkpt lat="43.86138" lon="7.24017">
        <ele>684.20001220703</ele>
        <time>2018-06-20T08:38:39.000Z</time>
      </trkpt>
      <trkpt lat="43.8614" lon="7.2401">
        <ele>684.59997558594</ele>
        <time>2018-06-20T08:38:43.000Z</time>
      </trkpt>
      <trkpt lat="43.86142" lon="7.24005">
        <ele>684.59997558594</ele>
        <time>2018-06-20T08:38:45.000Z</time>
      </trkpt>
      <trkpt lat="43.86143" lon="7.23986">
        <ele>683.40002441406</ele>
        <time>2018-06-20T08:38:50.000Z</time>
      </trkpt>
      <trkpt lat="43.86143" lon="7.23969">
        <ele>682.20001220703</ele>
        <time>2018-06-20T08:38:54.000Z</time>
      </trkpt>
      <trkpt lat="43.86137" lon="7.2395">
        <ele>681.79998779297</ele>
        <time>2018-06-20T08:39:00.000Z</time>
      </trkpt>
      <trkpt lat="43.86135" lon="7.23941">
        <ele>681.20001220703</ele>
        <time>2018-06-20T08:39:03.000Z</time>
      </trkpt>
      <trkpt lat="43.86133" lon="7.23927">
        <ele>680.79998779297</ele>
        <time>2018-06-20T08:39:07.000Z</time>
      </trkpt>
      <trkpt lat="43.86136" lon="7.23912">
        <ele>679.59997558594</ele>
        <time>2018-06-20T08:39:11.000Z</time>
      </trkpt>
      <trkpt lat="43.86136" lon="7.23904">
        <ele>679</ele>
        <time>2018-06-20T08:39:13.000Z</time>
      </trkpt>
      <trkpt lat="43.86136" lon="7.239">
        <ele>678.59997558594</ele>
        <time>2018-06-20T08:39:14.000Z</time>
      </trkpt>
      <trkpt lat="43.86136" lon="7.23887">
        <ele>677.59997558594</ele>
        <time>2018-06-20T08:39:17.000Z</time>
      </trkpt>
      <trkpt lat="43.86134" lon="7.23878">
        <ele>677</ele>
        <time>2018-06-20T08:39:19.000Z</time>
      </trkpt>
      <trkpt lat="43.86133" lon="7.23869">
        <ele>676.59997558594</ele>
        <time>2018-06-20T08:39:21.000Z</time>
      </trkpt>
      <trkpt lat="43.86129" lon="7.2385">
        <ele>675.79998779297</ele>
        <time>2018-06-20T08:39:25.000Z</time>
      </trkpt>
      <trkpt lat="43.86129" lon="7.23844">
        <ele>675.40002441406</ele>
        <time>2018-06-20T08:39:26.000Z</time>
      </trkpt>
      <trkpt lat="43.8613" lon="7.23838">
        <ele>675</ele>
        <time>2018-06-20T08:39:27.000Z</time>
      </trkpt>
      <trkpt lat="43.86132" lon="7.23829">
        <ele>674</ele>
        <time>2018-06-20T08:39:29.000Z</time>
      </trkpt>
      <trkpt lat="43.86134" lon="7.23822">
        <ele>673.59997558594</ele>
        <time>2018-06-20T08:39:30.000Z</time>
      </trkpt>
      <trkpt lat="43.86138" lon="7.2381">
        <ele>672.59997558594</ele>
        <time>2018-06-20T08:39:32.000Z</time>
      </trkpt>
      <trkpt lat="43.86144" lon="7.23791">
        <ele>671.20001220703</ele>
        <time>2018-06-20T08:39:35.000Z</time>
      </trkpt>
      <trkpt lat="43.86144" lon="7.23784">
        <ele>671</ele>
        <time>2018-06-20T08:39:36.000Z</time>
      </trkpt>
      <trkpt lat="43.8615" lon="7.23764">
        <ele>670.20001220703</ele>
        <time>2018-06-20T08:39:39.000Z</time>
      </trkpt>
      <trkpt lat="43.86157" lon="7.23734">
        <ele>669.59997558594</ele>
        <time>2018-06-20T08:39:43.000Z</time>
      </trkpt>
      <trkpt lat="43.86157" lon="7.23725">
        <ele>669.59997558594</ele>
        <time>2018-06-20T08:39:44.000Z</time>
      </trkpt>
      <trkpt lat="43.86157" lon="7.23704">
        <ele>669.59997558594</ele>
        <time>2018-06-20T08:39:47.000Z</time>
      </trkpt>
      <trkpt lat="43.86156" lon="7.23692">
        <ele>669.59997558594</ele>
        <time>2018-06-20T08:39:49.000Z</time>
      </trkpt>
      <trkpt lat="43.86155" lon="7.23683">
        <ele>669</ele>
        <time>2018-06-20T08:39:51.000Z</time>
      </trkpt>
      <trkpt lat="43.86154" lon="7.23679">
        <ele>668.79998779297</ele>
        <time>2018-06-20T08:39:52.000Z</time>
      </trkpt>
      <trkpt lat="43.8615" lon="7.23667">
        <ele>668.59997558594</ele>
        <time>2018-06-20T08:39:57.000Z</time>
      </trkpt>
      <trkpt lat="43.86151" lon="7.23663">
        <ele>668.59997558594</ele>
        <time>2018-06-20T08:40:01.000Z</time>
      </trkpt>
      <trkpt lat="43.86151" lon="7.23663">
        <ele>668.40002441406</ele>
        <time>2018-06-20T08:40:02.000Z</time>
      </trkpt>
      <trkpt lat="43.86154" lon="7.23663">
        <ele>667.79998779297</ele>
        <time>2018-06-20T08:40:35.000Z</time>
      </trkpt>
      <trkpt lat="43.86157" lon="7.23664">
        <ele>667.40002441406</ele>
        <time>2018-06-20T08:40:37.000Z</time>
      </trkpt>
      <trkpt lat="43.86163" lon="7.23667">
        <ele>666.79998779297</ele>
        <time>2018-06-20T08:40:40.000Z</time>
      </trkpt>
      <trkpt lat="43.86165" lon="7.23669">
        <ele>666.59997558594</ele>
        <time>2018-06-20T08:40:41.000Z</time>
      </trkpt>
      <trkpt lat="43.8617" lon="7.23676">
        <ele>665.59997558594</ele>
        <time>2018-06-20T08:40:44.000Z</time>
      </trkpt>
      <trkpt lat="43.86174" lon="7.23684">
        <ele>664.59997558594</ele>
        <time>2018-06-20T08:40:47.000Z</time>
      </trkpt>
      <trkpt lat="43.86176" lon="7.23701">
        <ele>664.79998779297</ele>
        <time>2018-06-20T08:40:53.000Z</time>
      </trkpt>
      <trkpt lat="43.86175" lon="7.23725">
        <ele>665</ele>
        <time>2018-06-20T08:40:59.000Z</time>
      </trkpt>
      <trkpt lat="43.86172" lon="7.23754">
        <ele>665.40002441406</ele>
        <time>2018-06-20T08:41:06.000Z</time>
      </trkpt>
      <trkpt lat="43.8617" lon="7.23776">
        <ele>666</ele>
        <time>2018-06-20T08:41:12.000Z</time>
      </trkpt>
      <trkpt lat="43.86171" lon="7.23779">
        <ele>666.40002441406</ele>
        <time>2018-06-20T08:41:13.000Z</time>
      </trkpt>
      <trkpt lat="43.86174" lon="7.23788">
        <ele>666.40002441406</ele>
        <time>2018-06-20T08:41:17.000Z</time>
      </trkpt>
      <trkpt lat="43.86184" lon="7.23792">
        <ele>666.40002441406</ele>
        <time>2018-06-20T08:41:22.000Z</time>
      </trkpt>
      <trkpt lat="43.8619" lon="7.23792">
        <ele>666.59997558594</ele>
        <time>2018-06-20T08:41:24.000Z</time>
      </trkpt>
      <trkpt lat="43.86201" lon="7.23788">
        <ele>667</ele>
        <time>2018-06-20T08:41:28.000Z</time>
      </trkpt>
      <trkpt lat="43.86218" lon="7.23782">
        <ele>667.59997558594</ele>
        <time>2018-06-20T08:41:34.000Z</time>
      </trkpt>
      <trkpt lat="43.8622" lon="7.23781">
        <ele>667.59997558594</ele>
        <time>2018-06-20T08:41:35.000Z</time>
      </trkpt>
      <trkpt lat="43.86242" lon="7.23772">
        <ele>667.79998779297</ele>
        <time>2018-06-20T08:41:43.000Z</time>
      </trkpt>
      <trkpt lat="43.86262" lon="7.23761">
        <ele>668.20001220703</ele>
        <time>2018-06-20T08:41:50.000Z</time>
      </trkpt>
      <trkpt lat="43.86277" lon="7.23752">
        <ele>668.59997558594</ele>
        <time>2018-06-20T08:41:55.000Z</time>
      </trkpt>
      <trkpt lat="43.86279" lon="7.2375">
        <ele>668.79998779297</ele>
        <time>2018-06-20T08:41:56.000Z</time>
      </trkpt>
      <trkpt lat="43.86307" lon="7.23731">
        <ele>669.20001220703</ele>
        <time>2018-06-20T08:42:05.000Z</time>
      </trkpt>
      <trkpt lat="43.86331" lon="7.23719">
        <ele>669.59997558594</ele>
        <time>2018-06-20T08:42:12.000Z</time>
      </trkpt>
      <trkpt lat="43.86334" lon="7.23718">
        <ele>669.79998779297</ele>
        <time>2018-06-20T08:42:13.000Z</time>
      </trkpt>
      <trkpt lat="43.86345" lon="7.23723">
        <ele>670</ele>
        <time>2018-06-20T08:42:17.000Z</time>
      </trkpt>
      <trkpt lat="43.8636" lon="7.23744">
        <ele>669.59997558594</ele>
        <time>2018-06-20T08:42:23.000Z</time>
      </trkpt>
      <trkpt lat="43.86372" lon="7.23759">
        <ele>669.40002441406</ele>
        <time>2018-06-20T08:42:28.000Z</time>
      </trkpt>
      <trkpt lat="43.8639" lon="7.23763">
        <ele>670</ele>
        <time>2018-06-20T08:42:34.000Z</time>
      </trkpt>
      <trkpt lat="43.86399" lon="7.23752">
        <ele>670.20001220703</ele>
        <time>2018-06-20T08:42:38.000Z</time>
      </trkpt>
      <trkpt lat="43.86404" lon="7.23731">
        <ele>670.79998779297</ele>
        <time>2018-06-20T08:42:44.000Z</time>
      </trkpt>
      <trkpt lat="43.86413" lon="7.23707">
        <ele>671.20001220703</ele>
        <time>2018-06-20T08:42:51.000Z</time>
      </trkpt>
      <trkpt lat="43.86428" lon="7.23679">
        <ele>671.40002441406</ele>
        <time>2018-06-20T08:42:59.000Z</time>
      </trkpt>
      <trkpt lat="43.86439" lon="7.23657">
        <ele>671.59997558594</ele>
        <time>2018-06-20T08:43:05.000Z</time>
      </trkpt>
      <trkpt lat="43.86444" lon="7.23647">
        <ele>671.79998779297</ele>
        <time>2018-06-20T08:43:08.000Z</time>
      </trkpt>
      <trkpt lat="43.86453" lon="7.23628">
        <ele>672.20001220703</ele>
        <time>2018-06-20T08:43:13.000Z</time>
      </trkpt>
      <trkpt lat="43.8647" lon="7.23598">
        <ele>672.79998779297</ele>
        <time>2018-06-20T08:43:22.000Z</time>
      </trkpt>
      <trkpt lat="43.86475" lon="7.23585">
        <ele>672.40002441406</ele>
        <time>2018-06-20T08:43:26.000Z</time>
      </trkpt>
      <trkpt lat="43.86479" lon="7.23552">
        <ele>671.59997558594</ele>
        <time>2018-06-20T08:43:34.000Z</time>
      </trkpt>
      <trkpt lat="43.86478" lon="7.23532">
        <ele>671.20001220703</ele>
        <time>2018-06-20T08:43:39.000Z</time>
      </trkpt>
      <trkpt lat="43.86483" lon="7.23509">
        <ele>671</ele>
        <time>2018-06-20T08:43:44.000Z</time>
      </trkpt>
      <trkpt lat="43.8649" lon="7.23488">
        <ele>672</ele>
        <time>2018-06-20T08:43:49.000Z</time>
      </trkpt>
      <trkpt lat="43.865" lon="7.23467">
        <ele>671.40002441406</ele>
        <time>2018-06-20T08:43:55.000Z</time>
      </trkpt>
      <trkpt lat="43.86512" lon="7.23449">
        <ele>671.79998779297</ele>
        <time>2018-06-20T08:44:01.000Z</time>
      </trkpt>
      <trkpt lat="43.86528" lon="7.23426">
        <ele>671.79998779297</ele>
        <time>2018-06-20T08:44:08.000Z</time>
      </trkpt>
      <trkpt lat="43.86546" lon="7.23406">
        <ele>671.79998779297</ele>
        <time>2018-06-20T08:44:15.000Z</time>
      </trkpt>
      <trkpt lat="43.86566" lon="7.23388">
        <ele>671.59997558594</ele>
        <time>2018-06-20T08:44:22.000Z</time>
      </trkpt>
      <trkpt lat="43.86586" lon="7.2338">
        <ele>671.79998779297</ele>
        <time>2018-06-20T08:44:28.000Z</time>
      </trkpt>
      <trkpt lat="43.86608" lon="7.2338">
        <ele>671.79998779297</ele>
        <time>2018-06-20T08:44:35.000Z</time>
      </trkpt>
      <trkpt lat="43.86625" lon="7.23379">
        <ele>672</ele>
        <time>2018-06-20T08:44:41.000Z</time>
      </trkpt>
      <trkpt lat="43.86648" lon="7.23374">
        <ele>672.20001220703</ele>
        <time>2018-06-20T08:44:49.000Z</time>
      </trkpt>
      <trkpt lat="43.86662" lon="7.23367">
        <ele>672.20001220703</ele>
        <time>2018-06-20T08:44:55.000Z</time>
      </trkpt>
      <trkpt lat="43.86678" lon="7.23353">
        <ele>672.40002441406</ele>
        <time>2018-06-20T08:45:02.000Z</time>
      </trkpt>
      <trkpt lat="43.8669" lon="7.23341">
        <ele>672.79998779297</ele>
        <time>2018-06-20T08:45:07.000Z</time>
      </trkpt>
      <trkpt lat="43.86692" lon="7.23339">
        <ele>673</ele>
        <time>2018-06-20T08:45:08.000Z</time>
      </trkpt>
      <trkpt lat="43.86703" lon="7.23322">
        <ele>673.20001220703</ele>
        <time>2018-06-20T08:45:15.000Z</time>
      </trkpt>
      <trkpt lat="43.86714" lon="7.2331">
        <ele>673.59997558594</ele>
        <time>2018-06-20T08:45:21.000Z</time>
      </trkpt>
      <trkpt lat="43.8672" lon="7.23302">
        <ele>674</ele>
        <time>2018-06-20T08:45:25.000Z</time>
      </trkpt>
      <trkpt lat="43.86734" lon="7.2329">
        <ele>674.40002441406</ele>
        <time>2018-06-20T08:45:31.000Z</time>
      </trkpt>
      <trkpt lat="43.86747" lon="7.23279">
        <ele>674.40002441406</ele>
        <time>2018-06-20T08:45:37.000Z</time>
      </trkpt>
      <trkpt lat="43.86747" lon="7.23279">
        <ele>674.40002441406</ele>
        <time>2018-06-20T08:45:38.000Z</time>
      </trkpt>
      <trkpt lat="43.86746" lon="7.23274">
        <ele>672.79998779297</ele>
        <time>2018-06-20T08:46:02.000Z</time>
      </trkpt>
      <trkpt lat="43.86745" lon="7.23274">
        <ele>672.59997558594</ele>
        <time>2018-06-20T08:46:03.000Z</time>
      </trkpt>
      <trkpt lat="43.86745" lon="7.23274">
        <ele>672.59997558594</ele>
        <time>2018-06-20T08:46:04.000Z</time>
      </trkpt>
      <trkpt lat="43.86743" lon="7.23274">
        <ele>672</ele>
        <time>2018-06-20T08:46:13.000Z</time>
      </trkpt>
      <trkpt lat="43.86742" lon="7.23274">
        <ele>671.79998779297</ele>
        <time>2018-06-20T08:46:14.000Z</time>
      </trkpt>
      <trkpt lat="43.8674" lon="7.23275">
        <ele>671.59997558594</ele>
        <time>2018-06-20T08:46:15.000Z</time>
      </trkpt>
      <trkpt lat="43.86734" lon="7.2328">
        <ele>670.79998779297</ele>
        <time>2018-06-20T08:46:19.000Z</time>
      </trkpt>
      <trkpt lat="43.86734" lon="7.23279">
        <ele>670.79998779297</ele>
        <time>2018-06-20T08:46:20.000Z</time>
      </trkpt>
      <trkpt lat="43.86756" lon="7.23321">
        <ele>681</ele>
        <time>2018-06-20T08:48:50.000Z</time>
      </trkpt>
      <trkpt lat="43.86752" lon="7.23324">
        <ele>681</ele>
        <time>2018-06-20T08:48:52.000Z</time>
      </trkpt>
      <trkpt lat="43.86746" lon="7.23329">
        <ele>681.40002441406</ele>
        <time>2018-06-20T08:48:55.000Z</time>
      </trkpt>
      <trkpt lat="43.86746" lon="7.2333">
        <ele>681.40002441406</ele>
        <time>2018-06-20T08:48:57.000Z</time>
      </trkpt>
      <trkpt lat="43.86747" lon="7.23334">
        <ele>681.79998779297</ele>
        <time>2018-06-20T08:49:06.000Z</time>
      </trkpt>
      <trkpt lat="43.86748" lon="7.23337">
        <ele>682.20001220703</ele>
        <time>2018-06-20T08:49:07.000Z</time>
      </trkpt>
      <trkpt lat="43.86748" lon="7.23342">
        <ele>682.79998779297</ele>
        <time>2018-06-20T08:49:09.000Z</time>
      </trkpt>
      <trkpt lat="43.86744" lon="7.23349">
        <ele>683.40002441406</ele>
        <time>2018-06-20T08:49:12.000Z</time>
      </trkpt>
      <trkpt lat="43.86743" lon="7.23351">
        <ele>683.79998779297</ele>
        <time>2018-06-20T08:49:13.000Z</time>
      </trkpt>
      <trkpt lat="43.86738" lon="7.23359">
        <ele>684.59997558594</ele>
        <time>2018-06-20T08:49:16.000Z</time>
      </trkpt>
      <trkpt lat="43.86734" lon="7.23367">
        <ele>685.40002441406</ele>
        <time>2018-06-20T08:49:19.000Z</time>
      </trkpt>
      <trkpt lat="43.86732" lon="7.23368">
        <ele>685.79998779297</ele>
        <time>2018-06-20T08:49:20.000Z</time>
      </trkpt>
      <trkpt lat="43.86728" lon="7.23372">
        <ele>686.40002441406</ele>
        <time>2018-06-20T08:49:23.000Z</time>
      </trkpt>
      <trkpt lat="43.86727" lon="7.23374">
        <ele>686.40002441406</ele>
        <time>2018-06-20T08:49:24.000Z</time>
      </trkpt>
      <trkpt lat="43.86727" lon="7.23374">
        <ele>686.59997558594</ele>
        <time>2018-06-20T08:49:26.000Z</time>
      </trkpt>
      <trkpt lat="43.86717" lon="7.23386">
        <ele>687.59997558594</ele>
        <time>2018-06-20T08:49:43.000Z</time>
      </trkpt>
      <trkpt lat="43.86716" lon="7.23387">
        <ele>687.79998779297</ele>
        <time>2018-06-20T08:49:44.000Z</time>
      </trkpt>
      <trkpt lat="43.86716" lon="7.23394">
        <ele>688.79998779297</ele>
        <time>2018-06-20T08:49:50.000Z</time>
      </trkpt>
      <trkpt lat="43.86715" lon="7.23396">
        <ele>689</ele>
        <time>2018-06-20T08:49:52.000Z</time>
      </trkpt>
      <trkpt lat="43.86714" lon="7.23399">
        <ele>689.20001220703</ele>
        <time>2018-06-20T08:49:56.000Z</time>
      </trkpt>
      <trkpt lat="43.86712" lon="7.23401">
        <ele>689.79998779297</ele>
        <time>2018-06-20T08:50:11.000Z</time>
      </trkpt>
      <trkpt lat="43.86711" lon="7.23404">
        <ele>690</ele>
        <time>2018-06-20T08:50:12.000Z</time>
      </trkpt>
      <trkpt lat="43.86705" lon="7.23418">
        <ele>690.59997558594</ele>
        <time>2018-06-20T08:50:18.000Z</time>
      </trkpt>
      <trkpt lat="43.867" lon="7.23423">
        <ele>690.79998779297</ele>
        <time>2018-06-20T08:50:21.000Z</time>
      </trkpt>
      <trkpt lat="43.86698" lon="7.23427">
        <ele>691</ele>
        <time>2018-06-20T08:50:23.000Z</time>
      </trkpt>
      <trkpt lat="43.86698" lon="7.2343">
        <ele>691.20001220703</ele>
        <time>2018-06-20T08:50:24.000Z</time>
      </trkpt>
      <trkpt lat="43.86696" lon="7.23435">
        <ele>691.79998779297</ele>
        <time>2018-06-20T08:50:27.000Z</time>
      </trkpt>
      <trkpt lat="43.86695" lon="7.23436">
        <ele>692</ele>
        <time>2018-06-20T08:50:28.000Z</time>
      </trkpt>
      <trkpt lat="43.86691" lon="7.23444">
        <ele>693</ele>
        <time>2018-06-20T08:50:32.000Z</time>
      </trkpt>
      <trkpt lat="43.86689" lon="7.23446">
        <ele>693</ele>
        <time>2018-06-20T08:50:33.000Z</time>
      </trkpt>
      <trkpt lat="43.86682" lon="7.2345">
        <ele>693.59997558594</ele>
        <time>2018-06-20T08:50:37.000Z</time>
      </trkpt>
      <trkpt lat="43.86677" lon="7.23451">
        <ele>694.20001220703</ele>
        <time>2018-06-20T08:50:40.000Z</time>
      </trkpt>
      <trkpt lat="43.86674" lon="7.23454">
        <ele>694.40002441406</ele>
        <time>2018-06-20T08:50:42.000Z</time>
      </trkpt>
      <trkpt lat="43.86666" lon="7.2346">
        <ele>695.40002441406</ele>
        <time>2018-06-20T08:50:47.000Z</time>
      </trkpt>
      <trkpt lat="43.86662" lon="7.23467">
        <ele>696.40002441406</ele>
        <time>2018-06-20T08:50:51.000Z</time>
      </trkpt>
      <trkpt lat="43.86662" lon="7.23466">
        <ele>696.59997558594</ele>
        <time>2018-06-20T08:50:52.000Z</time>
      </trkpt>
      <trkpt lat="43.86648" lon="7.23473">
        <ele>700.20001220703</ele>
        <time>2018-06-20T08:51:16.000Z</time>
      </trkpt>
      <trkpt lat="43.86646" lon="7.23473">
        <ele>700.40002441406</ele>
        <time>2018-06-20T08:51:18.000Z</time>
      </trkpt>
      <trkpt lat="43.86641" lon="7.23474">
        <ele>701.20001220703</ele>
        <time>2018-06-20T08:51:25.000Z</time>
      </trkpt>
      <trkpt lat="43.8664" lon="7.23474">
        <ele>701.40002441406</ele>
        <time>2018-06-20T08:51:27.000Z</time>
      </trkpt>
      <trkpt lat="43.86637" lon="7.23475">
        <ele>701.79998779297</ele>
        <time>2018-06-20T08:51:34.000Z</time>
      </trkpt>
      <trkpt lat="43.86634" lon="7.23477">
        <ele>702.40002441406</ele>
        <time>2018-06-20T08:51:36.000Z</time>
      </trkpt>
      <trkpt lat="43.86633" lon="7.23479">
        <ele>702.40002441406</ele>
        <time>2018-06-20T08:51:37.000Z</time>
      </trkpt>
      <trkpt lat="43.86632" lon="7.23479">
        <ele>702.59997558594</ele>
        <time>2018-06-20T08:51:39.000Z</time>
      </trkpt>
      <trkpt lat="43.86626" lon="7.23493">
        <ele>705.20001220703</ele>
        <time>2018-06-20T08:52:05.000Z</time>
      </trkpt>
      <trkpt lat="43.86626" lon="7.23495">
        <ele>705.20001220703</ele>
        <time>2018-06-20T08:52:06.000Z</time>
      </trkpt>
      <trkpt lat="43.86622" lon="7.23513">
        <ele>705</ele>
        <time>2018-06-20T08:52:11.000Z</time>
      </trkpt>
      <trkpt lat="43.86618" lon="7.23521">
        <ele>704</ele>
        <time>2018-06-20T08:52:14.000Z</time>
      </trkpt>
      <trkpt lat="43.86615" lon="7.23528">
        <ele>703.40002441406</ele>
        <time>2018-06-20T08:52:16.000Z</time>
      </trkpt>
      <trkpt lat="43.86611" lon="7.23537">
        <ele>703</ele>
        <time>2018-06-20T08:52:19.000Z</time>
      </trkpt>
      <trkpt lat="43.86608" lon="7.23545">
        <ele>703</ele>
        <time>2018-06-20T08:52:22.000Z</time>
      </trkpt>
      <trkpt lat="43.86606" lon="7.23557">
        <ele>703</ele>
        <time>2018-06-20T08:52:27.000Z</time>
      </trkpt>
      <trkpt lat="43.86602" lon="7.23565">
        <ele>703.20001220703</ele>
        <time>2018-06-20T08:52:30.000Z</time>
      </trkpt>
      <trkpt lat="43.86601" lon="7.2357">
        <ele>703.40002441406</ele>
        <time>2018-06-20T08:52:32.000Z</time>
      </trkpt>
      <trkpt lat="43.86596" lon="7.23582">
        <ele>703.59997558594</ele>
        <time>2018-06-20T08:52:37.000Z</time>
      </trkpt>
      <trkpt lat="43.86594" lon="7.23601">
        <ele>703.59997558594</ele>
        <time>2018-06-20T08:52:42.000Z</time>
      </trkpt>
      <trkpt lat="43.86594" lon="7.23611">
        <ele>703.59997558594</ele>
        <time>2018-06-20T08:52:45.000Z</time>
      </trkpt>
      <trkpt lat="43.86596" lon="7.23614">
        <ele>702.79998779297</ele>
        <time>2018-06-20T08:52:47.000Z</time>
      </trkpt>
      <trkpt lat="43.86599" lon="7.23621">
        <ele>701.79998779297</ele>
        <time>2018-06-20T08:52:50.000Z</time>
      </trkpt>
      <trkpt lat="43.86599" lon="7.23627">
        <ele>700.59997558594</ele>
        <time>2018-06-20T08:52:52.000Z</time>
      </trkpt>
      <trkpt lat="43.866" lon="7.23629">
        <ele>700.40002441406</ele>
        <time>2018-06-20T08:52:53.000Z</time>
      </trkpt>
      <trkpt lat="43.866" lon="7.23631">
        <ele>700.20001220703</ele>
        <time>2018-06-20T08:52:54.000Z</time>
      </trkpt>
      <trkpt lat="43.86601" lon="7.23637">
        <ele>699.79998779297</ele>
        <time>2018-06-20T08:52:56.000Z</time>
      </trkpt>
      <trkpt lat="43.86601" lon="7.23641">
        <ele>699.40002441406</ele>
        <time>2018-06-20T08:52:58.000Z</time>
      </trkpt>
      <trkpt lat="43.86604" lon="7.23651">
        <ele>699.20001220703</ele>
        <time>2018-06-20T08:53:02.000Z</time>
      </trkpt>
      <trkpt lat="43.86602" lon="7.23662">
        <ele>699</ele>
        <time>2018-06-20T08:53:06.000Z</time>
      </trkpt>
      <trkpt lat="43.86602" lon="7.23665">
        <ele>698.59997558594</ele>
        <time>2018-06-20T08:53:07.000Z</time>
      </trkpt>
      <trkpt lat="43.86602" lon="7.23674">
        <ele>698.40002441406</ele>
        <time>2018-06-20T08:53:10.000Z</time>
      </trkpt>
      <trkpt lat="43.86601" lon="7.23679">
        <ele>698.59997558594</ele>
        <time>2018-06-20T08:53:12.000Z</time>
      </trkpt>
      <trkpt lat="43.86599" lon="7.23693">
        <ele>699</ele>
        <time>2018-06-20T08:53:17.000Z</time>
      </trkpt>
      <trkpt lat="43.86599" lon="7.23697">
        <ele>699</ele>
        <time>2018-06-20T08:53:18.000Z</time>
      </trkpt>
      <trkpt lat="43.866" lon="7.23714">
        <ele>698.59997558594</ele>
        <time>2018-06-20T08:53:23.000Z</time>
      </trkpt>
      <trkpt lat="43.866" lon="7.23715">
        <ele>698.59997558594</ele>
        <time>2018-06-20T08:53:25.000Z</time>
      </trkpt>
      <trkpt lat="43.86595" lon="7.23735">
        <ele>704.20001220703</ele>
        <time>2018-06-20T08:54:07.000Z</time>
      </trkpt>
      <trkpt lat="43.86595" lon="7.23737">
        <ele>704.20001220703</ele>
        <time>2018-06-20T08:54:08.000Z</time>
      </trkpt>
      <trkpt lat="43.86602" lon="7.23751">
        <ele>705</ele>
        <time>2018-06-20T08:54:13.000Z</time>
      </trkpt>
      <trkpt lat="43.86604" lon="7.23755">
        <ele>705.20001220703</ele>
        <time>2018-06-20T08:54:15.000Z</time>
      </trkpt>
      <trkpt lat="43.86607" lon="7.23768">
        <ele>706</ele>
        <time>2018-06-20T08:54:20.000Z</time>
      </trkpt>
      <trkpt lat="43.86611" lon="7.23777">
        <ele>706.20001220703</ele>
        <time>2018-06-20T08:54:24.000Z</time>
      </trkpt>
      <trkpt lat="43.86613" lon="7.23779">
        <ele>706.40002441406</ele>
        <time>2018-06-20T08:54:26.000Z</time>
      </trkpt>
      <trkpt lat="43.86612" lon="7.23778">
        <ele>706.59997558594</ele>
        <time>2018-06-20T08:54:27.000Z</time>
      </trkpt>
      <trkpt lat="43.86633" lon="7.23813">
        <ele>708.40002441406</ele>
        <time>2018-06-20T08:55:43.000Z</time>
      </trkpt>
      <trkpt lat="43.86634" lon="7.23814">
        <ele>708.40002441406</ele>
        <time>2018-06-20T08:55:44.000Z</time>
      </trkpt>
      <trkpt lat="43.86644" lon="7.23826">
        <ele>708.79998779297</ele>
        <time>2018-06-20T08:55:51.000Z</time>
      </trkpt>
      <trkpt lat="43.86645" lon="7.23828">
        <ele>709</ele>
        <time>2018-06-20T08:55:54.000Z</time>
      </trkpt>
      <trkpt lat="43.8665" lon="7.2394">
        <ele>724.40002441406</ele>
        <time>2018-06-20T09:07:29.000Z</time>
      </trkpt>
      <trkpt lat="43.86649" lon="7.23945">
        <ele>724.59997558594</ele>
        <time>2018-06-20T09:07:32.000Z</time>
      </trkpt>
      <trkpt lat="43.86648" lon="7.2395">
        <ele>724.59997558594</ele>
        <time>2018-06-20T09:07:35.000Z</time>
      </trkpt>
      <trkpt lat="43.86648" lon="7.2395">
        <ele>724.79998779297</ele>
        <time>2018-06-20T09:07:36.000Z</time>
      </trkpt>
      <trkpt lat="43.86641" lon="7.23954">
        <ele>727.59997558594</ele>
        <time>2018-06-20T09:07:58.000Z</time>
      </trkpt>
      <trkpt lat="43.86639" lon="7.23952">
        <ele>728</ele>
        <time>2018-06-20T09:08:00.000Z</time>
      </trkpt>
      <trkpt lat="43.86638" lon="7.23948">
        <ele>728</ele>
        <time>2018-06-20T09:08:02.000Z</time>
      </trkpt>
      <trkpt lat="43.86635" lon="7.23938">
        <ele>728.20001220703</ele>
        <time>2018-06-20T09:08:05.000Z</time>
      </trkpt>
      <trkpt lat="43.86627" lon="7.23909">
        <ele>727.59997558594</ele>
        <time>2018-06-20T09:08:11.000Z</time>
      </trkpt>
      <trkpt lat="43.86619" lon="7.23892">
        <ele>727</ele>
        <time>2018-06-20T09:08:14.000Z</time>
      </trkpt>
      <trkpt lat="43.86613" lon="7.23883">
        <ele>726.79998779297</ele>
        <time>2018-06-20T09:08:16.000Z</time>
      </trkpt>
      <trkpt lat="43.8661" lon="7.23879">
        <ele>726.59997558594</ele>
        <time>2018-06-20T09:08:17.000Z</time>
      </trkpt>
      <trkpt lat="43.86606" lon="7.23875">
        <ele>726.40002441406</ele>
        <time>2018-06-20T09:08:18.000Z</time>
      </trkpt>
      <trkpt lat="43.86596" lon="7.23868">
        <ele>725.59997558594</ele>
        <time>2018-06-20T09:08:20.000Z</time>
      </trkpt>
      <trkpt lat="43.86591" lon="7.23865">
        <ele>725.40002441406</ele>
        <time>2018-06-20T09:08:21.000Z</time>
      </trkpt>
      <trkpt lat="43.86574" lon="7.23857">
        <ele>724.20001220703</ele>
        <time>2018-06-20T09:08:24.000Z</time>
      </trkpt>
      <trkpt lat="43.86563" lon="7.23852">
        <ele>723.59997558594</ele>
        <time>2018-06-20T09:08:26.000Z</time>
      </trkpt>
      <trkpt lat="43.86559" lon="7.23849">
        <ele>723.20001220703</ele>
        <time>2018-06-20T09:08:27.000Z</time>
      </trkpt>
      <trkpt lat="43.86554" lon="7.23847">
        <ele>722.59997558594</ele>
        <time>2018-06-20T09:08:28.000Z</time>
      </trkpt>
      <trkpt lat="43.86549" lon="7.23846">
        <ele>722</ele>
        <time>2018-06-20T09:08:29.000Z</time>
      </trkpt>
      <trkpt lat="43.86543" lon="7.23848">
        <ele>721.59997558594</ele>
        <time>2018-06-20T09:08:30.000Z</time>
      </trkpt>
      <trkpt lat="43.86534" lon="7.23857">
        <ele>720.59997558594</ele>
        <time>2018-06-20T09:08:32.000Z</time>
      </trkpt>
      <trkpt lat="43.86528" lon="7.23863">
        <ele>720</ele>
        <time>2018-06-20T09:08:33.000Z</time>
      </trkpt>
      <trkpt lat="43.86524" lon="7.2387">
        <ele>719.40002441406</ele>
        <time>2018-06-20T09:08:34.000Z</time>
      </trkpt>
      <trkpt lat="43.86515" lon="7.23889">
        <ele>718.40002441406</ele>
        <time>2018-06-20T09:08:36.000Z</time>
      </trkpt>
      <trkpt lat="43.86512" lon="7.23897">
        <ele>718</ele>
        <time>2018-06-20T09:08:37.000Z</time>
      </trkpt>
      <trkpt lat="43.86508" lon="7.23905">
        <ele>717.40002441406</ele>
        <time>2018-06-20T09:08:38.000Z</time>
      </trkpt>
      <trkpt lat="43.86503" lon="7.23912">
        <ele>716.59997558594</ele>
        <time>2018-06-20T09:08:39.000Z</time>
      </trkpt>
      <trkpt lat="43.86498" lon="7.23916">
        <ele>716.20001220703</ele>
        <time>2018-06-20T09:08:40.000Z</time>
      </trkpt>
      <trkpt lat="43.86478" lon="7.23917">
        <ele>715.40002441406</ele>
        <time>2018-06-20T09:08:43.000Z</time>
      </trkpt>
      <trkpt lat="43.86471" lon="7.23918">
        <ele>714.79998779297</ele>
        <time>2018-06-20T09:08:44.000Z</time>
      </trkpt>
      <trkpt lat="43.86464" lon="7.2392">
        <ele>714</ele>
        <time>2018-06-20T09:08:45.000Z</time>
      </trkpt>
      <trkpt lat="43.8645" lon="7.23922">
        <ele>712.59997558594</ele>
        <time>2018-06-20T09:08:47.000Z</time>
      </trkpt>
      <trkpt lat="43.86435" lon="7.23925">
        <ele>711.20001220703</ele>
        <time>2018-06-20T09:08:49.000Z</time>
      </trkpt>
      <trkpt lat="43.86428" lon="7.23925">
        <ele>710.59997558594</ele>
        <time>2018-06-20T09:08:50.000Z</time>
      </trkpt>
      <trkpt lat="43.86407" lon="7.23917">
        <ele>710</ele>
        <time>2018-06-20T09:08:53.000Z</time>
      </trkpt>
      <trkpt lat="43.86395" lon="7.2391">
        <ele>709.20001220703</ele>
        <time>2018-06-20T09:08:55.000Z</time>
      </trkpt>
      <trkpt lat="43.86388" lon="7.23908">
        <ele>708.79998779297</ele>
        <time>2018-06-20T09:08:56.000Z</time>
      </trkpt>
      <trkpt lat="43.86382" lon="7.23907">
        <ele>708.40002441406</ele>
        <time>2018-06-20T09:08:57.000Z</time>
      </trkpt>
      <trkpt lat="43.86367" lon="7.23906">
        <ele>707.59997558594</ele>
        <time>2018-06-20T09:08:59.000Z</time>
      </trkpt>
      <trkpt lat="43.86354" lon="7.239">
        <ele>706.59997558594</ele>
        <time>2018-06-20T09:09:01.000Z</time>
      </trkpt>
      <trkpt lat="43.86348" lon="7.23895">
        <ele>706</ele>
        <time>2018-06-20T09:09:02.000Z</time>
      </trkpt>
      <trkpt lat="43.86339" lon="7.2388">
        <ele>705.20001220703</ele>
        <time>2018-06-20T09:09:04.000Z</time>
      </trkpt>
      <trkpt lat="43.86337" lon="7.2387">
        <ele>704.79998779297</ele>
        <time>2018-06-20T09:09:05.000Z</time>
      </trkpt>
      <trkpt lat="43.86334" lon="7.2386">
        <ele>704.59997558594</ele>
        <time>2018-06-20T09:09:06.000Z</time>
      </trkpt>
      <trkpt lat="43.86328" lon="7.23843">
        <ele>704.20001220703</ele>
        <time>2018-06-20T09:09:08.000Z</time>
      </trkpt>
      <trkpt lat="43.86317" lon="7.23833">
        <ele>704.40002441406</ele>
        <time>2018-06-20T09:09:10.000Z</time>
      </trkpt>
      <trkpt lat="43.86299" lon="7.23838">
        <ele>704.40002441406</ele>
        <time>2018-06-20T09:09:13.000Z</time>
      </trkpt>
      <trkpt lat="43.86294" lon="7.23841">
        <ele>704.59997558594</ele>
        <time>2018-06-20T09:09:14.000Z</time>
      </trkpt>
      <trkpt lat="43.86278" lon="7.23854">
        <ele>704</ele>
        <time>2018-06-20T09:09:18.000Z</time>
      </trkpt>
      <trkpt lat="43.8627" lon="7.2386">
        <ele>703.79998779297</ele>
        <time>2018-06-20T09:09:20.000Z</time>
      </trkpt>
      <trkpt lat="43.86255" lon="7.23871">
        <ele>703</ele>
        <time>2018-06-20T09:09:23.000Z</time>
      </trkpt>
      <trkpt lat="43.8625" lon="7.23876">
        <ele>702.59997558594</ele>
        <time>2018-06-20T09:09:24.000Z</time>
      </trkpt>
      <trkpt lat="43.8624" lon="7.23887">
        <ele>701.20001220703</ele>
        <time>2018-06-20T09:09:26.000Z</time>
      </trkpt>
      <trkpt lat="43.86229" lon="7.239">
        <ele>700.20001220703</ele>
        <time>2018-06-20T09:09:28.000Z</time>
      </trkpt>
      <trkpt lat="43.86219" lon="7.23925">
        <ele>699.20001220703</ele>
        <time>2018-06-20T09:09:31.000Z</time>
      </trkpt>
      <trkpt lat="43.86218" lon="7.23932">
        <ele>699</ele>
        <time>2018-06-20T09:09:32.000Z</time>
      </trkpt>
      <trkpt lat="43.86215" lon="7.2394">
        <ele>698.59997558594</ele>
        <time>2018-06-20T09:09:33.000Z</time>
      </trkpt>
      <trkpt lat="43.86211" lon="7.23946">
        <ele>698.20001220703</ele>
        <time>2018-06-20T09:09:34.000Z</time>
      </trkpt>
      <trkpt lat="43.86205" lon="7.23951">
        <ele>697.79998779297</ele>
        <time>2018-06-20T09:09:35.000Z</time>
      </trkpt>
      <trkpt lat="43.86198" lon="7.23964">
        <ele>697.40002441406</ele>
        <time>2018-06-20T09:09:37.000Z</time>
      </trkpt>
      <trkpt lat="43.86198" lon="7.23987">
        <ele>697</ele>
        <time>2018-06-20T09:09:40.000Z</time>
      </trkpt>
      <trkpt lat="43.86198" lon="7.23995">
        <ele>696.79998779297</ele>
        <time>2018-06-20T09:09:41.000Z</time>
      </trkpt>
      <trkpt lat="43.86196" lon="7.24009">
        <ele>696.59997558594</ele>
        <time>2018-06-20T09:09:43.000Z</time>
      </trkpt>
      <trkpt lat="43.86189" lon="7.2402">
        <ele>696.20001220703</ele>
        <time>2018-06-20T09:09:45.000Z</time>
      </trkpt>
      <trkpt lat="43.86183" lon="7.24031">
        <ele>695.79998779297</ele>
        <time>2018-06-20T09:09:47.000Z</time>
      </trkpt>
      <trkpt lat="43.86179" lon="7.24037">
        <ele>695.59997558594</ele>
        <time>2018-06-20T09:09:48.000Z</time>
      </trkpt>
      <trkpt lat="43.86162" lon="7.24064">
        <ele>694.59997558594</ele>
        <time>2018-06-20T09:09:53.000Z</time>
      </trkpt>
      <trkpt lat="43.86159" lon="7.2407">
        <ele>694.40002441406</ele>
        <time>2018-06-20T09:09:54.000Z</time>
      </trkpt>
      <trkpt lat="43.86157" lon="7.24077">
        <ele>694</ele>
        <time>2018-06-20T09:09:55.000Z</time>
      </trkpt>
      <trkpt lat="43.86155" lon="7.24091">
        <ele>693</ele>
        <time>2018-06-20T09:09:57.000Z</time>
      </trkpt>
      <trkpt lat="43.86155" lon="7.24107">
        <ele>691.79998779297</ele>
        <time>2018-06-20T09:09:59.000Z</time>
      </trkpt>
      <trkpt lat="43.86164" lon="7.24126">
        <ele>691</ele>
        <time>2018-06-20T09:10:02.000Z</time>
      </trkpt>
      <trkpt lat="43.86169" lon="7.24131">
        <ele>690.59997558594</ele>
        <time>2018-06-20T09:10:03.000Z</time>
      </trkpt>
      <trkpt lat="43.86185" lon="7.24146">
        <ele>690</ele>
        <time>2018-06-20T09:10:06.000Z</time>
      </trkpt>
      <trkpt lat="43.8619" lon="7.24151">
        <ele>689.79998779297</ele>
        <time>2018-06-20T09:10:07.000Z</time>
      </trkpt>
      <trkpt lat="43.86195" lon="7.24157">
        <ele>689.79998779297</ele>
        <time>2018-06-20T09:10:08.000Z</time>
      </trkpt>
      <trkpt lat="43.86201" lon="7.24169">
        <ele>689.40002441406</ele>
        <time>2018-06-20T09:10:10.000Z</time>
      </trkpt>
      <trkpt lat="43.86203" lon="7.24176">
        <ele>689</ele>
        <time>2018-06-20T09:10:11.000Z</time>
      </trkpt>
      <trkpt lat="43.86201" lon="7.24191">
        <ele>688</ele>
        <time>2018-06-20T09:10:13.000Z</time>
      </trkpt>
      <trkpt lat="43.86199" lon="7.24198">
        <ele>687.59997558594</ele>
        <time>2018-06-20T09:10:14.000Z</time>
      </trkpt>
      <trkpt lat="43.86193" lon="7.24212">
        <ele>686.79998779297</ele>
        <time>2018-06-20T09:10:16.000Z</time>
      </trkpt>
      <trkpt lat="43.86184" lon="7.24235">
        <ele>685.59997558594</ele>
        <time>2018-06-20T09:10:19.000Z</time>
      </trkpt>
      <trkpt lat="43.86181" lon="7.24244">
        <ele>685.40002441406</ele>
        <time>2018-06-20T09:10:20.000Z</time>
      </trkpt>
      <trkpt lat="43.86177" lon="7.2426">
        <ele>684.20001220703</ele>
        <time>2018-06-20T09:10:22.000Z</time>
      </trkpt>
      <trkpt lat="43.86176" lon="7.24269">
        <ele>683.79998779297</ele>
        <time>2018-06-20T09:10:23.000Z</time>
      </trkpt>
      <trkpt lat="43.86177" lon="7.24277">
        <ele>683.59997558594</ele>
        <time>2018-06-20T09:10:24.000Z</time>
      </trkpt>
      <trkpt lat="43.86179" lon="7.24286">
        <ele>683</ele>
        <time>2018-06-20T09:10:25.000Z</time>
      </trkpt>
      <trkpt lat="43.86176" lon="7.2431">
        <ele>681.79998779297</ele>
        <time>2018-06-20T09:10:28.000Z</time>
      </trkpt>
      <trkpt lat="43.86166" lon="7.24325">
        <ele>680.59997558594</ele>
        <time>2018-06-20T09:10:30.000Z</time>
      </trkpt>
      <trkpt lat="43.8616" lon="7.24332">
        <ele>680.59997558594</ele>
        <time>2018-06-20T09:10:31.000Z</time>
      </trkpt>
      <trkpt lat="43.86153" lon="7.24334">
        <ele>679.40002441406</ele>
        <time>2018-06-20T09:10:32.000Z</time>
      </trkpt>
      <trkpt lat="43.86145" lon="7.24335">
        <ele>679</ele>
        <time>2018-06-20T09:10:33.000Z</time>
      </trkpt>
      <trkpt lat="43.8611" lon="7.2434">
        <ele>676</ele>
        <time>2018-06-20T09:10:38.000Z</time>
      </trkpt>
      <trkpt lat="43.86102" lon="7.24343">
        <ele>676</ele>
        <time>2018-06-20T09:10:39.000Z</time>
      </trkpt>
      <trkpt lat="43.86094" lon="7.24348">
        <ele>673.59997558594</ele>
        <time>2018-06-20T09:10:40.000Z</time>
      </trkpt>
      <trkpt lat="43.86086" lon="7.24353">
        <ele>672.59997558594</ele>
        <time>2018-06-20T09:10:41.000Z</time>
      </trkpt>
      <trkpt lat="43.86079" lon="7.24359">
        <ele>671.79998779297</ele>
        <time>2018-06-20T09:10:42.000Z</time>
      </trkpt>
      <trkpt lat="43.86072" lon="7.24367">
        <ele>671</ele>
        <time>2018-06-20T09:10:43.000Z</time>
      </trkpt>
      <trkpt lat="43.86066" lon="7.24374">
        <ele>670</ele>
        <time>2018-06-20T09:10:44.000Z</time>
      </trkpt>
      <trkpt lat="43.86055" lon="7.24387">
        <ele>668.59997558594</ele>
        <time>2018-06-20T09:10:46.000Z</time>
      </trkpt>
      <trkpt lat="43.86042" lon="7.24396">
        <ele>668</ele>
        <time>2018-06-20T09:10:48.000Z</time>
      </trkpt>
      <trkpt lat="43.86037" lon="7.24402">
        <ele>667.40002441406</ele>
        <time>2018-06-20T09:10:49.000Z</time>
      </trkpt>
      <trkpt lat="43.86019" lon="7.24416">
        <ele>665.79998779297</ele>
        <time>2018-06-20T09:10:52.000Z</time>
      </trkpt>
      <trkpt lat="43.86006" lon="7.24424">
        <ele>664.40002441406</ele>
        <time>2018-06-20T09:10:54.000Z</time>
      </trkpt>
      <trkpt lat="43.85993" lon="7.24436">
        <ele>663</ele>
        <time>2018-06-20T09:10:56.000Z</time>
      </trkpt>
      <trkpt lat="43.85979" lon="7.24446">
        <ele>661.59997558594</ele>
        <time>2018-06-20T09:10:58.000Z</time>
      </trkpt>
      <trkpt lat="43.85963" lon="7.24454">
        <ele>660</ele>
        <time>2018-06-20T09:11:00.000Z</time>
      </trkpt>
      <trkpt lat="43.85955" lon="7.24457">
        <ele>659.40002441406</ele>
        <time>2018-06-20T09:11:01.000Z</time>
      </trkpt>
      <trkpt lat="43.85949" lon="7.2446">
        <ele>658.79998779297</ele>
        <time>2018-06-20T09:11:02.000Z</time>
      </trkpt>
      <trkpt lat="43.85937" lon="7.24469">
        <ele>657.59997558594</ele>
        <time>2018-06-20T09:11:04.000Z</time>
      </trkpt>
      <trkpt lat="43.85927" lon="7.24481">
        <ele>656.20001220703</ele>
        <time>2018-06-20T09:11:06.000Z</time>
      </trkpt>
      <trkpt lat="43.85919" lon="7.2449">
        <ele>654.79998779297</ele>
        <time>2018-06-20T09:11:08.000Z</time>
      </trkpt>
      <trkpt lat="43.85916" lon="7.24498">
        <ele>653.40002441406</ele>
        <time>2018-06-20T09:11:10.000Z</time>
      </trkpt>
      <trkpt lat="43.85916" lon="7.24502">
        <ele>653</ele>
        <time>2018-06-20T09:11:11.000Z</time>
      </trkpt>
      <trkpt lat="43.85928" lon="7.24508">
        <ele>652.59997558594</ele>
        <time>2018-06-20T09:11:15.000Z</time>
      </trkpt>
      <trkpt lat="43.85933" lon="7.24513">
        <ele>652.40002441406</ele>
        <time>2018-06-20T09:11:18.000Z</time>
      </trkpt>
      <trkpt lat="43.85934" lon="7.24514">
        <ele>652.20001220703</ele>
        <time>2018-06-20T09:11:19.000Z</time>
      </trkpt>
      <trkpt lat="43.85934" lon="7.24515">
        <ele>652.20001220703</ele>
        <time>2018-06-20T09:11:22.000Z</time>
      </trkpt>
      <trkpt lat="43.85937" lon="7.24517">
        <ele>651.40002441406</ele>
        <time>2018-06-20T09:11:31.000Z</time>
      </trkpt>
      <trkpt lat="43.85941" lon="7.24522">
        <ele>651.20001220703</ele>
        <time>2018-06-20T09:11:34.000Z</time>
      </trkpt>
      <trkpt lat="43.85941" lon="7.24522">
        <ele>651.20001220703</ele>
        <time>2018-06-20T09:11:35.000Z</time>
      </trkpt>
      <trkpt lat="43.85942" lon="7.24525">
        <ele>651</ele>
        <time>2018-06-20T09:12:07.000Z</time>
      </trkpt>
      <trkpt lat="43.85944" lon="7.24538">
        <ele>650.40002441406</ele>
        <time>2018-06-20T09:12:11.000Z</time>
      </trkpt>
      <trkpt lat="43.85944" lon="7.24544">
        <ele>650</ele>
        <time>2018-06-20T09:12:12.000Z</time>
      </trkpt>
      <trkpt lat="43.85942" lon="7.24563">
        <ele>649.40002441406</ele>
        <time>2018-06-20T09:12:15.000Z</time>
      </trkpt>
      <trkpt lat="43.85941" lon="7.2457">
        <ele>649</ele>
        <time>2018-06-20T09:12:16.000Z</time>
      </trkpt>
      <trkpt lat="43.8594" lon="7.24577">
        <ele>648.40002441406</ele>
        <time>2018-06-20T09:12:17.000Z</time>
      </trkpt>
      <trkpt lat="43.85937" lon="7.24592">
        <ele>647</ele>
        <time>2018-06-20T09:12:19.000Z</time>
      </trkpt>
      <trkpt lat="43.85933" lon="7.24598">
        <ele>646.79998779297</ele>
        <time>2018-06-20T09:12:20.000Z</time>
      </trkpt>
      <trkpt lat="43.85924" lon="7.24604">
        <ele>645.59997558594</ele>
        <time>2018-06-20T09:12:22.000Z</time>
      </trkpt>
      <trkpt lat="43.85917" lon="7.24606">
        <ele>645</ele>
        <time>2018-06-20T09:12:23.000Z</time>
      </trkpt>
      <trkpt lat="43.85911" lon="7.24608">
        <ele>644</ele>
        <time>2018-06-20T09:12:24.000Z</time>
      </trkpt>
      <trkpt lat="43.85898" lon="7.24614">
        <ele>642.59997558594</ele>
        <time>2018-06-20T09:12:26.000Z</time>
      </trkpt>
      <trkpt lat="43.85892" lon="7.24618">
        <ele>641.79998779297</ele>
        <time>2018-06-20T09:12:27.000Z</time>
      </trkpt>
      <trkpt lat="43.85886" lon="7.24623">
        <ele>641.20001220703</ele>
        <time>2018-06-20T09:12:28.000Z</time>
      </trkpt>
      <trkpt lat="43.85878" lon="7.24636">
        <ele>640.59997558594</ele>
        <time>2018-06-20T09:12:30.000Z</time>
      </trkpt>
      <trkpt lat="43.85873" lon="7.24655">
        <ele>640.59997558594</ele>
        <time>2018-06-20T09:12:33.000Z</time>
      </trkpt>
      <trkpt lat="43.85874" lon="7.24661">
        <ele>640.59997558594</ele>
        <time>2018-06-20T09:12:34.000Z</time>
      </trkpt>
      <trkpt lat="43.85876" lon="7.24667">
        <ele>640.20001220703</ele>
        <time>2018-06-20T09:12:35.000Z</time>
      </trkpt>
      <trkpt lat="43.85877" lon="7.24686">
        <ele>639.79998779297</ele>
        <time>2018-06-20T09:12:38.000Z</time>
      </trkpt>
      <trkpt lat="43.85873" lon="7.24711">
        <ele>640</ele>
        <time>2018-06-20T09:12:42.000Z</time>
      </trkpt>
      <trkpt lat="43.85871" lon="7.24722">
        <ele>640.20001220703</ele>
        <time>2018-06-20T09:12:44.000Z</time>
      </trkpt>
      <trkpt lat="43.85865" lon="7.24744">
        <ele>639.20001220703</ele>
        <time>2018-06-20T09:12:48.000Z</time>
      </trkpt>
      <trkpt lat="43.85861" lon="7.24745">
        <ele>638.59997558594</ele>
        <time>2018-06-20T09:12:49.000Z</time>
      </trkpt>
      <trkpt lat="43.85852" lon="7.24743">
        <ele>637.20001220703</ele>
        <time>2018-06-20T09:12:51.000Z</time>
      </trkpt>
      <trkpt lat="43.85847" lon="7.2474">
        <ele>637.20001220703</ele>
        <time>2018-06-20T09:12:52.000Z</time>
      </trkpt>
      <trkpt lat="43.85843" lon="7.24735">
        <ele>635.59997558594</ele>
        <time>2018-06-20T09:12:53.000Z</time>
      </trkpt>
      <trkpt lat="43.85836" lon="7.24723">
        <ele>633.79998779297</ele>
        <time>2018-06-20T09:12:55.000Z</time>
      </trkpt>
      <trkpt lat="43.85831" lon="7.24709">
        <ele>632</ele>
        <time>2018-06-20T09:12:57.000Z</time>
      </trkpt>
      <trkpt lat="43.85822" lon="7.24695">
        <ele>630.59997558594</ele>
        <time>2018-06-20T09:12:59.000Z</time>
      </trkpt>
      <trkpt lat="43.85815" lon="7.24672">
        <ele>629.59997558594</ele>
        <time>2018-06-20T09:13:02.000Z</time>
      </trkpt>
      <trkpt lat="43.85813" lon="7.24666">
        <ele>629.20001220703</ele>
        <time>2018-06-20T09:13:03.000Z</time>
      </trkpt>
      <trkpt lat="43.85807" lon="7.24662">
        <ele>628.40002441406</ele>
        <time>2018-06-20T09:13:05.000Z</time>
      </trkpt>
      <trkpt lat="43.85805" lon="7.24665">
        <ele>628.20001220703</ele>
        <time>2018-06-20T09:13:06.000Z</time>
      </trkpt>
      <trkpt lat="43.85806" lon="7.24675">
        <ele>627.40002441406</ele>
        <time>2018-06-20T09:13:08.000Z</time>
      </trkpt>
      <trkpt lat="43.85808" lon="7.24681">
        <ele>627</ele>
        <time>2018-06-20T09:13:09.000Z</time>
      </trkpt>
      <trkpt lat="43.85811" lon="7.24695">
        <ele>626</ele>
        <time>2018-06-20T09:13:11.000Z</time>
      </trkpt>
      <trkpt lat="43.85812" lon="7.24703">
        <ele>625.59997558594</ele>
        <time>2018-06-20T09:13:12.000Z</time>
      </trkpt>
      <trkpt lat="43.85815" lon="7.24721">
        <ele>624.59997558594</ele>
        <time>2018-06-20T09:13:14.000Z</time>
      </trkpt>
      <trkpt lat="43.85818" lon="7.24729">
        <ele>623.79998779297</ele>
        <time>2018-06-20T09:13:15.000Z</time>
      </trkpt>
      <trkpt lat="43.8582" lon="7.24735">
        <ele>623.20001220703</ele>
        <time>2018-06-20T09:13:16.000Z</time>
      </trkpt>
      <trkpt lat="43.85821" lon="7.24741">
        <ele>622.40002441406</ele>
        <time>2018-06-20T09:13:17.000Z</time>
      </trkpt>
      <trkpt lat="43.85819" lon="7.24745">
        <ele>621.79998779297</ele>
        <time>2018-06-20T09:13:18.000Z</time>
      </trkpt>
      <trkpt lat="43.85817" lon="7.24746">
        <ele>621.20001220703</ele>
        <time>2018-06-20T09:13:19.000Z</time>
      </trkpt>
      <trkpt lat="43.8581" lon="7.24741">
        <ele>619.59997558594</ele>
        <time>2018-06-20T09:13:21.000Z</time>
      </trkpt>
      <trkpt lat="43.85807" lon="7.24736">
        <ele>619.59997558594</ele>
        <time>2018-06-20T09:13:22.000Z</time>
      </trkpt>
      <trkpt lat="43.85804" lon="7.24727">
        <ele>618.59997558594</ele>
        <time>2018-06-20T09:13:23.000Z</time>
      </trkpt>
      <trkpt lat="43.85801" lon="7.2472">
        <ele>618.20001220703</ele>
        <time>2018-06-20T09:13:24.000Z</time>
      </trkpt>
      <trkpt lat="43.85798" lon="7.24712">
        <ele>617.59997558594</ele>
        <time>2018-06-20T09:13:25.000Z</time>
      </trkpt>
      <trkpt lat="43.85794" lon="7.24705">
        <ele>616.79998779297</ele>
        <time>2018-06-20T09:13:26.000Z</time>
      </trkpt>
      <trkpt lat="43.85775" lon="7.24679">
        <ele>616.79998779297</ele>
        <time>2018-06-20T09:13:30.000Z</time>
      </trkpt>
      <trkpt lat="43.85749" lon="7.2466">
        <ele>616.79998779297</ele>
        <time>2018-06-20T09:13:34.000Z</time>
      </trkpt>
      <trkpt lat="43.85733" lon="7.24651">
        <ele>616.79998779297</ele>
        <time>2018-06-20T09:13:36.000Z</time>
      </trkpt>
      <trkpt lat="43.85717" lon="7.24645">
        <ele>616.20001220703</ele>
        <time>2018-06-20T09:13:38.000Z</time>
      </trkpt>
      <trkpt lat="43.85709" lon="7.24643">
        <ele>615.79998779297</ele>
        <time>2018-06-20T09:13:39.000Z</time>
      </trkpt>
      <trkpt lat="43.85695" lon="7.24638">
        <ele>614</ele>
        <time>2018-06-20T09:13:41.000Z</time>
      </trkpt>
      <trkpt lat="43.85685" lon="7.24631">
        <ele>612.59997558594</ele>
        <time>2018-06-20T09:13:43.000Z</time>
      </trkpt>
      <trkpt lat="43.85678" lon="7.24623">
        <ele>611.79998779297</ele>
        <time>2018-06-20T09:13:45.000Z</time>
      </trkpt>
      <trkpt lat="43.85675" lon="7.2462">
        <ele>611.59997558594</ele>
        <time>2018-06-20T09:13:46.000Z</time>
      </trkpt>
      <trkpt lat="43.85667" lon="7.24615">
        <ele>611.59997558594</ele>
        <time>2018-06-20T09:13:49.000Z</time>
      </trkpt>
      <trkpt lat="43.85664" lon="7.24617">
        <ele>610.79998779297</ele>
        <time>2018-06-20T09:13:50.000Z</time>
      </trkpt>
      <trkpt lat="43.85658" lon="7.24625">
        <ele>610.40002441406</ele>
        <time>2018-06-20T09:13:52.000Z</time>
      </trkpt>
      <trkpt lat="43.8565" lon="7.24633">
        <ele>609.79998779297</ele>
        <time>2018-06-20T09:13:54.000Z</time>
      </trkpt>
      <trkpt lat="43.85646" lon="7.24632">
        <ele>609.79998779297</ele>
        <time>2018-06-20T09:13:55.000Z</time>
      </trkpt>
      <trkpt lat="43.85633" lon="7.24619">
        <ele>609.20001220703</ele>
        <time>2018-06-20T09:13:59.000Z</time>
      </trkpt>
      <trkpt lat="43.85626" lon="7.24615">
        <ele>608.79998779297</ele>
        <time>2018-06-20T09:14:01.000Z</time>
      </trkpt>
      <trkpt lat="43.85618" lon="7.24613">
        <ele>608.59997558594</ele>
        <time>2018-06-20T09:14:03.000Z</time>
      </trkpt>
      <trkpt lat="43.85614" lon="7.24613">
        <ele>608.40002441406</ele>
        <time>2018-06-20T09:14:04.000Z</time>
      </trkpt>
      <trkpt lat="43.85597" lon="7.24608">
        <ele>607.59997558594</ele>
        <time>2018-06-20T09:14:08.000Z</time>
      </trkpt>
      <trkpt lat="43.85585" lon="7.24601">
        <ele>607.20001220703</ele>
        <time>2018-06-20T09:14:11.000Z</time>
      </trkpt>
      <trkpt lat="43.85571" lon="7.24581">
        <ele>606.59997558594</ele>
        <time>2018-06-20T09:14:16.000Z</time>
      </trkpt>
      <trkpt lat="43.85568" lon="7.24578">
        <ele>606.40002441406</ele>
        <time>2018-06-20T09:14:17.000Z</time>
      </trkpt>
      <trkpt lat="43.85558" lon="7.24575">
        <ele>606.40002441406</ele>
        <time>2018-06-20T09:14:20.000Z</time>
      </trkpt>
      <trkpt lat="43.85541" lon="7.24584">
        <ele>605.20001220703</ele>
        <time>2018-06-20T09:14:26.000Z</time>
      </trkpt>
      <trkpt lat="43.85534" lon="7.24598">
        <ele>604</ele>
        <time>2018-06-20T09:14:30.000Z</time>
      </trkpt>
      <trkpt lat="43.85531" lon="7.246">
        <ele>604</ele>
        <time>2018-06-20T09:14:31.000Z</time>
      </trkpt>
      <trkpt lat="43.85523" lon="7.24596">
        <ele>604.40002441406</ele>
        <time>2018-06-20T09:14:34.000Z</time>
      </trkpt>
      <trkpt lat="43.85517" lon="7.24583">
        <ele>605</ele>
        <time>2018-06-20T09:14:38.000Z</time>
      </trkpt>
      <trkpt lat="43.85508" lon="7.24578">
        <ele>604.79998779297</ele>
        <time>2018-06-20T09:14:42.000Z</time>
      </trkpt>
      <trkpt lat="43.85502" lon="7.24576">
        <ele>604.40002441406</ele>
        <time>2018-06-20T09:14:44.000Z</time>
      </trkpt>
      <trkpt lat="43.85486" lon="7.24571">
        <ele>604.20001220703</ele>
        <time>2018-06-20T09:14:48.000Z</time>
      </trkpt>
      <trkpt lat="43.85462" lon="7.24564">
        <ele>602.79998779297</ele>
        <time>2018-06-20T09:14:53.000Z</time>
      </trkpt>
      <trkpt lat="43.85456" lon="7.24563">
        <ele>602.40002441406</ele>
        <time>2018-06-20T09:14:54.000Z</time>
      </trkpt>
      <trkpt lat="43.8545" lon="7.24563">
        <ele>602.20001220703</ele>
        <time>2018-06-20T09:14:55.000Z</time>
      </trkpt>
      <trkpt lat="43.85438" lon="7.24563">
        <ele>601.40002441406</ele>
        <time>2018-06-20T09:14:57.000Z</time>
      </trkpt>
      <trkpt lat="43.85419" lon="7.24562">
        <ele>600.59997558594</ele>
        <time>2018-06-20T09:15:00.000Z</time>
      </trkpt>
      <trkpt lat="43.85413" lon="7.2456">
        <ele>600.40002441406</ele>
        <time>2018-06-20T09:15:01.000Z</time>
      </trkpt>
      <trkpt lat="43.85407" lon="7.24558">
        <ele>600.20001220703</ele>
        <time>2018-06-20T09:15:02.000Z</time>
      </trkpt>
      <trkpt lat="43.85384" lon="7.2455">
        <ele>599.20001220703</ele>
        <time>2018-06-20T09:15:06.000Z</time>
      </trkpt>
      <trkpt lat="43.85373" lon="7.24547">
        <ele>598.59997558594</ele>
        <time>2018-06-20T09:15:08.000Z</time>
      </trkpt>
      <trkpt lat="43.85367" lon="7.24546">
        <ele>598.20001220703</ele>
        <time>2018-06-20T09:15:09.000Z</time>
      </trkpt>
      <trkpt lat="43.85349" lon="7.24544">
        <ele>597.20001220703</ele>
        <time>2018-06-20T09:15:13.000Z</time>
      </trkpt>
      <trkpt lat="43.85342" lon="7.24543">
        <ele>596.20001220703</ele>
        <time>2018-06-20T09:15:17.000Z</time>
      </trkpt>
      <trkpt lat="43.8534" lon="7.24543">
        <ele>596</ele>
        <time>2018-06-20T09:15:18.000Z</time>
      </trkpt>
      <trkpt lat="43.85329" lon="7.24544">
        <ele>595.40002441406</ele>
        <time>2018-06-20T09:15:22.000Z</time>
      </trkpt>
      <trkpt lat="43.85324" lon="7.24544">
        <ele>594.79998779297</ele>
        <time>2018-06-20T09:15:23.000Z</time>
      </trkpt>
      <trkpt lat="43.8531" lon="7.24547">
        <ele>593.79998779297</ele>
        <time>2018-06-20T09:15:26.000Z</time>
      </trkpt>
      <trkpt lat="43.85305" lon="7.2455">
        <ele>593.59997558594</ele>
        <time>2018-06-20T09:15:27.000Z</time>
      </trkpt>
      <trkpt lat="43.85285" lon="7.24567">
        <ele>592.20001220703</ele>
        <time>2018-06-20T09:15:31.000Z</time>
      </trkpt>
      <trkpt lat="43.85276" lon="7.24581">
        <ele>591.20001220703</ele>
        <time>2018-06-20T09:15:33.000Z</time>
      </trkpt>
      <trkpt lat="43.85273" lon="7.24589">
        <ele>590.59997558594</ele>
        <time>2018-06-20T09:15:34.000Z</time>
      </trkpt>
      <trkpt lat="43.85269" lon="7.24609">
        <ele>589.59997558594</ele>
        <time>2018-06-20T09:15:36.000Z</time>
      </trkpt>
      <trkpt lat="43.85267" lon="7.2462">
        <ele>589</ele>
        <time>2018-06-20T09:15:37.000Z</time>
      </trkpt>
      <trkpt lat="43.85265" lon="7.24631">
        <ele>587.79998779297</ele>
        <time>2018-06-20T09:15:38.000Z</time>
      </trkpt>
      <trkpt lat="43.85263" lon="7.24641">
        <ele>587.20001220703</ele>
        <time>2018-06-20T09:15:39.000Z</time>
      </trkpt>
      <trkpt lat="43.8526" lon="7.24649">
        <ele>586.59997558594</ele>
        <time>2018-06-20T09:15:40.000Z</time>
      </trkpt>
      <trkpt lat="43.85256" lon="7.24657">
        <ele>586.20001220703</ele>
        <time>2018-06-20T09:15:41.000Z</time>
      </trkpt>
      <trkpt lat="43.85248" lon="7.24659">
        <ele>586</ele>
        <time>2018-06-20T09:15:43.000Z</time>
      </trkpt>
      <trkpt lat="43.85245" lon="7.24651">
        <ele>585.79998779297</ele>
        <time>2018-06-20T09:15:45.000Z</time>
      </trkpt>
      <trkpt lat="43.85248" lon="7.24637">
        <ele>586.20001220703</ele>
        <time>2018-06-20T09:15:48.000Z</time>
      </trkpt>
      <trkpt lat="43.85249" lon="7.24627">
        <ele>586.59997558594</ele>
        <time>2018-06-20T09:15:50.000Z</time>
      </trkpt>
      <trkpt lat="43.85246" lon="7.24613">
        <ele>587.40002441406</ele>
        <time>2018-06-20T09:15:54.000Z</time>
      </trkpt>
      <trkpt lat="43.85241" lon="7.24599">
        <ele>587.59997558594</ele>
        <time>2018-06-20T09:15:58.000Z</time>
      </trkpt>
      <trkpt lat="43.85239" lon="7.24596">
        <ele>587.79998779297</ele>
        <time>2018-06-20T09:15:59.000Z</time>
      </trkpt>
      <trkpt lat="43.85235" lon="7.24584">
        <ele>588.59997558594</ele>
        <time>2018-06-20T09:16:02.000Z</time>
      </trkpt>
      <trkpt lat="43.85233" lon="7.24574">
        <ele>589</ele>
        <time>2018-06-20T09:16:04.000Z</time>
      </trkpt>
      <trkpt lat="43.85232" lon="7.24559">
        <ele>588.40002441406</ele>
        <time>2018-06-20T09:16:07.000Z</time>
      </trkpt>
      <trkpt lat="43.85232" lon="7.24533">
        <ele>588.79998779297</ele>
        <time>2018-06-20T09:16:12.000Z</time>
      </trkpt>
      <trkpt lat="43.8523" lon="7.2453">
        <ele>588.79998779297</ele>
        <time>2018-06-20T09:16:13.000Z</time>
      </trkpt>
      <trkpt lat="43.8522" lon="7.24522">
        <ele>588.59997558594</ele>
        <time>2018-06-20T09:16:16.000Z</time>
      </trkpt>
      <trkpt lat="43.85212" lon="7.24518">
        <ele>588.40002441406</ele>
        <time>2018-06-20T09:16:18.000Z</time>
      </trkpt>
      <trkpt lat="43.85202" lon="7.24513">
        <ele>588</ele>
        <time>2018-06-20T09:16:21.000Z</time>
      </trkpt>
      <trkpt lat="43.852" lon="7.2451">
        <ele>588</ele>
        <time>2018-06-20T09:16:22.000Z</time>
      </trkpt>
      <trkpt lat="43.85197" lon="7.24503">
        <ele>587.40002441406</ele>
        <time>2018-06-20T09:16:23.000Z</time>
      </trkpt>
      <trkpt lat="43.85192" lon="7.24488">
        <ele>586.40002441406</ele>
        <time>2018-06-20T09:16:25.000Z</time>
      </trkpt>
      <trkpt lat="43.85189" lon="7.2448">
        <ele>586</ele>
        <time>2018-06-20T09:16:26.000Z</time>
      </trkpt>
      <trkpt lat="43.85176" lon="7.2445">
        <ele>585</ele>
        <time>2018-06-20T09:16:29.000Z</time>
      </trkpt>
      <trkpt lat="43.85172" lon="7.2444">
        <ele>584.20001220703</ele>
        <time>2018-06-20T09:16:30.000Z</time>
      </trkpt>
      <trkpt lat="43.85168" lon="7.24428">
        <ele>583.59997558594</ele>
        <time>2018-06-20T09:16:31.000Z</time>
      </trkpt>
      <trkpt lat="43.85162" lon="7.24404">
        <ele>582.20001220703</ele>
        <time>2018-06-20T09:16:33.000Z</time>
      </trkpt>
      <trkpt lat="43.85157" lon="7.24377">
        <ele>580.20001220703</ele>
        <time>2018-06-20T09:16:35.000Z</time>
      </trkpt>
      <trkpt lat="43.85153" lon="7.24349">
        <ele>578.40002441406</ele>
        <time>2018-06-20T09:16:37.000Z</time>
      </trkpt>
      <trkpt lat="43.85151" lon="7.24334">
        <ele>578</ele>
        <time>2018-06-20T09:16:38.000Z</time>
      </trkpt>
      <trkpt lat="43.85148" lon="7.2432">
        <ele>577.40002441406</ele>
        <time>2018-06-20T09:16:39.000Z</time>
      </trkpt>
      <trkpt lat="43.85144" lon="7.24293">
        <ele>576.40002441406</ele>
        <time>2018-06-20T09:16:41.000Z</time>
      </trkpt>
      <trkpt lat="43.85142" lon="7.2428">
        <ele>576</ele>
        <time>2018-06-20T09:16:42.000Z</time>
      </trkpt>
      <trkpt lat="43.85139" lon="7.24268">
        <ele>575.40002441406</ele>
        <time>2018-06-20T09:16:43.000Z</time>
      </trkpt>
      <trkpt lat="43.85137" lon="7.24256">
        <ele>575.20001220703</ele>
        <time>2018-06-20T09:16:44.000Z</time>
      </trkpt>
      <trkpt lat="43.85137" lon="7.24237">
        <ele>574</ele>
        <time>2018-06-20T09:16:46.000Z</time>
      </trkpt>
      <trkpt lat="43.85138" lon="7.24219">
        <ele>573</ele>
        <time>2018-06-20T09:16:48.000Z</time>
      </trkpt>
      <trkpt lat="43.85137" lon="7.24212">
        <ele>572.59997558594</ele>
        <time>2018-06-20T09:16:49.000Z</time>
      </trkpt>
      <trkpt lat="43.85136" lon="7.24207">
        <ele>572.40002441406</ele>
        <time>2018-06-20T09:16:50.000Z</time>
      </trkpt>
      <trkpt lat="43.85134" lon="7.24202">
        <ele>572.20001220703</ele>
        <time>2018-06-20T09:16:51.000Z</time>
      </trkpt>
      <trkpt lat="43.85128" lon="7.24193">
        <ele>572.20001220703</ele>
        <time>2018-06-20T09:16:53.000Z</time>
      </trkpt>
      <trkpt lat="43.85121" lon="7.2418">
        <ele>571.79998779297</ele>
        <time>2018-06-20T09:16:55.000Z</time>
      </trkpt>
      <trkpt lat="43.8511" lon="7.24158">
        <ele>571</ele>
        <time>2018-06-20T09:16:58.000Z</time>
      </trkpt>
      <trkpt lat="43.85101" lon="7.24141">
        <ele>570.40002441406</ele>
        <time>2018-06-20T09:17:00.000Z</time>
      </trkpt>
      <trkpt lat="43.85088" lon="7.24116">
        <ele>569.20001220703</ele>
        <time>2018-06-20T09:17:03.000Z</time>
      </trkpt>
      <trkpt lat="43.85077" lon="7.241">
        <ele>568.20001220703</ele>
        <time>2018-06-20T09:17:05.000Z</time>
      </trkpt>
      <trkpt lat="43.85072" lon="7.24092">
        <ele>567.79998779297</ele>
        <time>2018-06-20T09:17:06.000Z</time>
      </trkpt>
      <trkpt lat="43.85054" lon="7.24069">
        <ele>566.40002441406</ele>
        <time>2018-06-20T09:17:09.000Z</time>
      </trkpt>
      <trkpt lat="43.85043" lon="7.24052">
        <ele>566</ele>
        <time>2018-06-20T09:17:11.000Z</time>
      </trkpt>
      <trkpt lat="43.85027" lon="7.24028">
        <ele>565.20001220703</ele>
        <time>2018-06-20T09:17:14.000Z</time>
      </trkpt>
      <trkpt lat="43.85013" lon="7.24">
        <ele>563.79998779297</ele>
        <time>2018-06-20T09:17:17.000Z</time>
      </trkpt>
      <trkpt lat="43.85008" lon="7.23991">
        <ele>563</ele>
        <time>2018-06-20T09:17:18.000Z</time>
      </trkpt>
      <trkpt lat="43.85003" lon="7.23981">
        <ele>562.40002441406</ele>
        <time>2018-06-20T09:17:19.000Z</time>
      </trkpt>
      <trkpt lat="43.84984" lon="7.23933">
        <ele>561.59997558594</ele>
        <time>2018-06-20T09:17:24.000Z</time>
      </trkpt>
      <trkpt lat="43.8498" lon="7.23923">
        <ele>561.40002441406</ele>
        <time>2018-06-20T09:17:25.000Z</time>
      </trkpt>
      <trkpt lat="43.84969" lon="7.23895">
        <ele>560.20001220703</ele>
        <time>2018-06-20T09:17:28.000Z</time>
      </trkpt>
      <trkpt lat="43.84958" lon="7.23864">
        <ele>558.79998779297</ele>
        <time>2018-06-20T09:17:31.000Z</time>
      </trkpt>
      <trkpt lat="43.84955" lon="7.23855">
        <ele>558.59997558594</ele>
        <time>2018-06-20T09:17:32.000Z</time>
      </trkpt>
      <trkpt lat="43.84948" lon="7.23834">
        <ele>557.79998779297</ele>
        <time>2018-06-20T09:17:34.000Z</time>
      </trkpt>
      <trkpt lat="43.84938" lon="7.23806">
        <ele>556.40002441406</ele>
        <time>2018-06-20T09:17:37.000Z</time>
      </trkpt>
      <trkpt lat="43.8493" lon="7.23783">
        <ele>555.40002441406</ele>
        <time>2018-06-20T09:17:40.000Z</time>
      </trkpt>
      <trkpt lat="43.84929" lon="7.23777">
        <ele>555</ele>
        <time>2018-06-20T09:17:41.000Z</time>
      </trkpt>
      <trkpt lat="43.84927" lon="7.23772">
        <ele>554.79998779297</ele>
        <time>2018-06-20T09:17:42.000Z</time>
      </trkpt>
      <trkpt lat="43.8492" lon="7.23752">
        <ele>554.40002441406</ele>
        <time>2018-06-20T09:17:46.000Z</time>
      </trkpt>
      <trkpt lat="43.84916" lon="7.23751">
        <ele>554</ele>
        <time>2018-06-20T09:17:47.000Z</time>
      </trkpt>
      <trkpt lat="43.84912" lon="7.23753">
        <ele>554</ele>
        <time>2018-06-20T09:17:48.000Z</time>
      </trkpt>
      <trkpt lat="43.84906" lon="7.23761">
        <ele>553.79998779297</ele>
        <time>2018-06-20T09:17:50.000Z</time>
      </trkpt>
      <trkpt lat="43.84895" lon="7.23772">
        <ele>553.40002441406</ele>
        <time>2018-06-20T09:17:53.000Z</time>
      </trkpt>
      <trkpt lat="43.84877" lon="7.23784">
        <ele>553</ele>
        <time>2018-06-20T09:17:57.000Z</time>
      </trkpt>
      <trkpt lat="43.84863" lon="7.23792">
        <ele>552.59997558594</ele>
        <time>2018-06-20T09:18:00.000Z</time>
      </trkpt>
      <trkpt lat="43.84841" lon="7.2381">
        <ele>552.40002441406</ele>
        <time>2018-06-20T09:18:06.000Z</time>
      </trkpt>
      <trkpt lat="43.8484" lon="7.23812">
        <ele>552.40002441406</ele>
        <time>2018-06-20T09:18:07.000Z</time>
      </trkpt>
      <trkpt lat="43.8484" lon="7.23816">
        <ele>552.20001220703</ele>
        <time>2018-06-20T09:18:09.000Z</time>
      </trkpt>
      <trkpt lat="43.84838" lon="7.23834">
        <ele>552.20001220703</ele>
        <time>2018-06-20T09:18:15.000Z</time>
      </trkpt>
      <trkpt lat="43.84835" lon="7.23841">
        <ele>552.79998779297</ele>
        <time>2018-06-20T09:18:19.000Z</time>
      </trkpt>
    </trkseg>
  </trk>
</gpx>